<?xml version="1.0" encoding="UTF-8" standalone="no" ?>
<gpx xmlns="http://www.topografix.com/GPX/1/1" xmlns:xsi="http://www.w3.org/2001/XMLSchema-instance" xsi:schemaLocation="http://www.topografix.com/GPX/1/1 http://www.topografix.com/GPX/1/1/gpx.xsd" version="1.1" creator="VisuGPX - https://www.visugpx.com">
  <metadata>
    <name>Vtt avec Marc l embrouille et Moulinette </name>
  </metadata>
  <trk>
    <name><![CDATA[Vtt avec Marc l embrouille et Moulinette _1]]></name>
    <trkseg>
      <trkpt lat="43.96563" lon="1.81973">
        <ele>290</ele>
        <time>2021-10-24T11:56:55Z</time>
      </trkpt>
      <trkpt lat="43.96559" lon="1.8197">
        <ele>290</ele>
        <time>2021-10-24T11:56:59Z</time>
      </trkpt>
      <trkpt lat="43.96554" lon="1.81977">
        <ele>290.6</ele>
        <time>2021-10-24T11:57:44Z</time>
      </trkpt>
      <trkpt lat="43.96554" lon="1.81977">
        <ele>290.6</ele>
        <time>2021-10-24T11:57:45Z</time>
      </trkpt>
      <trkpt lat="43.96555" lon="1.81975">
        <ele>290.6</ele>
        <time>2021-10-24T11:57:51Z</time>
      </trkpt>
      <trkpt lat="43.96557" lon="1.81973">
        <ele>290.6</ele>
        <time>2021-10-24T11:57:53Z</time>
      </trkpt>
      <trkpt lat="43.96557" lon="1.81974">
        <ele>290.6</ele>
        <time>2021-10-24T11:57:54Z</time>
      </trkpt>
      <trkpt lat="43.96557" lon="1.81975">
        <ele>290.6</ele>
        <time>2021-10-24T11:57:55Z</time>
      </trkpt>
      <trkpt lat="43.96558" lon="1.81976">
        <ele>290.6</ele>
        <time>2021-10-24T11:57:56Z</time>
      </trkpt>
      <trkpt lat="43.96558" lon="1.81977">
        <ele>290.6</ele>
        <time>2021-10-24T11:57:57Z</time>
      </trkpt>
      <trkpt lat="43.96557" lon="1.81977">
        <ele>290.6</ele>
        <time>2021-10-24T11:57:58Z</time>
      </trkpt>
      <trkpt lat="43.96553" lon="1.81977">
        <ele>290.6</ele>
        <time>2021-10-24T11:58:40Z</time>
      </trkpt>
      <trkpt lat="43.96549" lon="1.81977">
        <ele>290.6</ele>
        <time>2021-10-24T11:58:42Z</time>
      </trkpt>
      <trkpt lat="43.96545" lon="1.81976">
        <ele>290.6</ele>
        <time>2021-10-24T11:58:44Z</time>
      </trkpt>
      <trkpt lat="43.96542" lon="1.81982">
        <ele>290.4</ele>
        <time>2021-10-24T11:58:46Z</time>
      </trkpt>
      <trkpt lat="43.96538" lon="1.81991">
        <ele>290.4</ele>
        <time>2021-10-24T11:58:48Z</time>
      </trkpt>
      <trkpt lat="43.96536" lon="1.81996">
        <ele>290.2</ele>
        <time>2021-10-24T11:58:49Z</time>
      </trkpt>
      <trkpt lat="43.96532" lon="1.82006">
        <ele>290.2</ele>
        <time>2021-10-24T11:58:51Z</time>
      </trkpt>
      <trkpt lat="43.9653" lon="1.82011">
        <ele>290.2</ele>
        <time>2021-10-24T11:58:52Z</time>
      </trkpt>
      <trkpt lat="43.96526" lon="1.82025">
        <ele>290</ele>
        <time>2021-10-24T11:58:55Z</time>
      </trkpt>
      <trkpt lat="43.96524" lon="1.8203">
        <ele>289.8</ele>
        <time>2021-10-24T11:58:56Z</time>
      </trkpt>
      <trkpt lat="43.96523" lon="1.82035">
        <ele>289.6</ele>
        <time>2021-10-24T11:58:57Z</time>
      </trkpt>
      <trkpt lat="43.96523" lon="1.8204">
        <ele>289.4</ele>
        <time>2021-10-24T11:58:58Z</time>
      </trkpt>
      <trkpt lat="43.96522" lon="1.82043">
        <ele>289.4</ele>
        <time>2021-10-24T11:58:59Z</time>
      </trkpt>
      <trkpt lat="43.96523" lon="1.82046">
        <ele>289</ele>
        <time>2021-10-24T11:59:00Z</time>
      </trkpt>
      <trkpt lat="43.96525" lon="1.82048">
        <ele>288.8</ele>
        <time>2021-10-24T11:59:01Z</time>
      </trkpt>
      <trkpt lat="43.96527" lon="1.8205">
        <ele>288.8</ele>
        <time>2021-10-24T11:59:02Z</time>
      </trkpt>
      <trkpt lat="43.96529" lon="1.82054">
        <ele>288.6</ele>
        <time>2021-10-24T11:59:03Z</time>
      </trkpt>
      <trkpt lat="43.96531" lon="1.82059">
        <ele>288.6</ele>
        <time>2021-10-24T11:59:04Z</time>
      </trkpt>
      <trkpt lat="43.96534" lon="1.82063">
        <ele>288.2</ele>
        <time>2021-10-24T11:59:05Z</time>
      </trkpt>
      <trkpt lat="43.96534" lon="1.82065">
        <ele>288.2</ele>
        <time>2021-10-24T11:59:06Z</time>
      </trkpt>
      <trkpt lat="43.96536" lon="1.82068">
        <ele>288</ele>
        <time>2021-10-24T11:59:07Z</time>
      </trkpt>
      <trkpt lat="43.96536" lon="1.82073">
        <ele>287.8</ele>
        <time>2021-10-24T11:59:08Z</time>
      </trkpt>
      <trkpt lat="43.96535" lon="1.82077">
        <ele>287.6</ele>
        <time>2021-10-24T11:59:09Z</time>
      </trkpt>
      <trkpt lat="43.96534" lon="1.82081">
        <ele>287.4</ele>
        <time>2021-10-24T11:59:10Z</time>
      </trkpt>
      <trkpt lat="43.96534" lon="1.82084">
        <ele>287.2</ele>
        <time>2021-10-24T11:59:11Z</time>
      </trkpt>
      <trkpt lat="43.96536" lon="1.82087">
        <ele>286.8</ele>
        <time>2021-10-24T11:59:12Z</time>
      </trkpt>
      <trkpt lat="43.96537" lon="1.82092">
        <ele>286.6</ele>
        <time>2021-10-24T11:59:13Z</time>
      </trkpt>
      <trkpt lat="43.96539" lon="1.82096">
        <ele>286</ele>
        <time>2021-10-24T11:59:14Z</time>
      </trkpt>
      <trkpt lat="43.96541" lon="1.82101">
        <ele>286</ele>
        <time>2021-10-24T11:59:15Z</time>
      </trkpt>
      <trkpt lat="43.96543" lon="1.82108">
        <ele>285.4</ele>
        <time>2021-10-24T11:59:16Z</time>
      </trkpt>
      <trkpt lat="43.96547" lon="1.82115">
        <ele>285</ele>
        <time>2021-10-24T11:59:17Z</time>
      </trkpt>
      <trkpt lat="43.96547" lon="1.82121">
        <ele>284.8</ele>
        <time>2021-10-24T11:59:18Z</time>
      </trkpt>
      <trkpt lat="43.96548" lon="1.82125">
        <ele>284.2</ele>
        <time>2021-10-24T11:59:19Z</time>
      </trkpt>
      <trkpt lat="43.96547" lon="1.82126">
        <ele>284</ele>
        <time>2021-10-24T11:59:20Z</time>
      </trkpt>
      <trkpt lat="43.96544" lon="1.82127">
        <ele>283.2</ele>
        <time>2021-10-24T11:59:21Z</time>
      </trkpt>
      <trkpt lat="43.96541" lon="1.82127">
        <ele>283</ele>
        <time>2021-10-24T11:59:22Z</time>
      </trkpt>
      <trkpt lat="43.96536" lon="1.82123">
        <ele>282.2</ele>
        <time>2021-10-24T11:59:23Z</time>
      </trkpt>
      <trkpt lat="43.96533" lon="1.82118">
        <ele>281.4</ele>
        <time>2021-10-24T11:59:24Z</time>
      </trkpt>
      <trkpt lat="43.96527" lon="1.82107">
        <ele>280.4</ele>
        <time>2021-10-24T11:59:26Z</time>
      </trkpt>
      <trkpt lat="43.96525" lon="1.82103">
        <ele>279.8</ele>
        <time>2021-10-24T11:59:27Z</time>
      </trkpt>
      <trkpt lat="43.96518" lon="1.82095">
        <ele>278.8</ele>
        <time>2021-10-24T11:59:29Z</time>
      </trkpt>
      <trkpt lat="43.9651" lon="1.82086">
        <ele>278</ele>
        <time>2021-10-24T11:59:31Z</time>
      </trkpt>
      <trkpt lat="43.96506" lon="1.82082">
        <ele>277.6</ele>
        <time>2021-10-24T11:59:32Z</time>
      </trkpt>
      <trkpt lat="43.96503" lon="1.82079">
        <ele>277.4</ele>
        <time>2021-10-24T11:59:33Z</time>
      </trkpt>
      <trkpt lat="43.96501" lon="1.82075">
        <ele>277.2</ele>
        <time>2021-10-24T11:59:34Z</time>
      </trkpt>
      <trkpt lat="43.965" lon="1.82073">
        <ele>276.4</ele>
        <time>2021-10-24T11:59:35Z</time>
      </trkpt>
      <trkpt lat="43.96495" lon="1.82075">
        <ele>275.4</ele>
        <time>2021-10-24T11:59:37Z</time>
      </trkpt>
      <trkpt lat="43.96491" lon="1.8209">
        <ele>274</ele>
        <time>2021-10-24T11:59:40Z</time>
      </trkpt>
      <trkpt lat="43.9649" lon="1.82095">
        <ele>273.8</ele>
        <time>2021-10-24T11:59:41Z</time>
      </trkpt>
      <trkpt lat="43.96487" lon="1.82101">
        <ele>273.6</ele>
        <time>2021-10-24T11:59:42Z</time>
      </trkpt>
      <trkpt lat="43.96478" lon="1.82118">
        <ele>272.8</ele>
        <time>2021-10-24T11:59:45Z</time>
      </trkpt>
      <trkpt lat="43.9647" lon="1.82131">
        <ele>272.4</ele>
        <time>2021-10-24T11:59:47Z</time>
      </trkpt>
      <trkpt lat="43.96465" lon="1.82138">
        <ele>271.8</ele>
        <time>2021-10-24T11:59:48Z</time>
      </trkpt>
      <trkpt lat="43.96462" lon="1.82142">
        <ele>271.2</ele>
        <time>2021-10-24T11:59:49Z</time>
      </trkpt>
      <trkpt lat="43.96458" lon="1.82148">
        <ele>271.2</ele>
        <time>2021-10-24T11:59:50Z</time>
      </trkpt>
      <trkpt lat="43.96453" lon="1.82153">
        <ele>270.8</ele>
        <time>2021-10-24T11:59:51Z</time>
      </trkpt>
      <trkpt lat="43.9645" lon="1.82158">
        <ele>270.6</ele>
        <time>2021-10-24T11:59:52Z</time>
      </trkpt>
      <trkpt lat="43.96446" lon="1.82164">
        <ele>270</ele>
        <time>2021-10-24T11:59:53Z</time>
      </trkpt>
      <trkpt lat="43.96442" lon="1.82169">
        <ele>270</ele>
        <time>2021-10-24T11:59:54Z</time>
      </trkpt>
      <trkpt lat="43.96439" lon="1.82174">
        <ele>269.8</ele>
        <time>2021-10-24T11:59:55Z</time>
      </trkpt>
      <trkpt lat="43.96436" lon="1.8218">
        <ele>269.6</ele>
        <time>2021-10-24T11:59:56Z</time>
      </trkpt>
      <trkpt lat="43.96434" lon="1.82183">
        <ele>269.4</ele>
        <time>2021-10-24T11:59:57Z</time>
      </trkpt>
      <trkpt lat="43.96431" lon="1.82188">
        <ele>269.4</ele>
        <time>2021-10-24T11:59:58Z</time>
      </trkpt>
      <trkpt lat="43.96429" lon="1.82192">
        <ele>269.4</ele>
        <time>2021-10-24T11:59:59Z</time>
      </trkpt>
      <trkpt lat="43.96427" lon="1.82196">
        <ele>269.2</ele>
        <time>2021-10-24T12:00:00Z</time>
      </trkpt>
      <trkpt lat="43.96407" lon="1.82226">
        <ele>269.2</ele>
        <time>2021-10-24T12:00:07Z</time>
      </trkpt>
      <trkpt lat="43.96404" lon="1.8223">
        <ele>269.2</ele>
        <time>2021-10-24T12:00:08Z</time>
      </trkpt>
      <trkpt lat="43.96402" lon="1.82235">
        <ele>269.2</ele>
        <time>2021-10-24T12:00:09Z</time>
      </trkpt>
      <trkpt lat="43.96399" lon="1.82239">
        <ele>269.2</ele>
        <time>2021-10-24T12:00:10Z</time>
      </trkpt>
      <trkpt lat="43.96397" lon="1.82243">
        <ele>269.2</ele>
        <time>2021-10-24T12:00:11Z</time>
      </trkpt>
      <trkpt lat="43.96394" lon="1.82247">
        <ele>269.2</ele>
        <time>2021-10-24T12:00:12Z</time>
      </trkpt>
      <trkpt lat="43.96392" lon="1.82251">
        <ele>269.2</ele>
        <time>2021-10-24T12:00:13Z</time>
      </trkpt>
      <trkpt lat="43.96385" lon="1.8226">
        <ele>269.2</ele>
        <time>2021-10-24T12:00:15Z</time>
      </trkpt>
      <trkpt lat="43.96381" lon="1.82267">
        <ele>269.2</ele>
        <time>2021-10-24T12:00:17Z</time>
      </trkpt>
      <trkpt lat="43.96363" lon="1.82294">
        <ele>268.6</ele>
        <time>2021-10-24T12:00:23Z</time>
      </trkpt>
      <trkpt lat="43.96352" lon="1.82309">
        <ele>268.4</ele>
        <time>2021-10-24T12:00:26Z</time>
      </trkpt>
      <trkpt lat="43.96336" lon="1.82332">
        <ele>267.6</ele>
        <time>2021-10-24T12:00:31Z</time>
      </trkpt>
      <trkpt lat="43.96323" lon="1.82354">
        <ele>267.2</ele>
        <time>2021-10-24T12:00:35Z</time>
      </trkpt>
      <trkpt lat="43.96311" lon="1.8237">
        <ele>266.6</ele>
        <time>2021-10-24T12:00:38Z</time>
      </trkpt>
      <trkpt lat="43.96307" lon="1.82375">
        <ele>266.4</ele>
        <time>2021-10-24T12:00:39Z</time>
      </trkpt>
      <trkpt lat="43.96303" lon="1.8238">
        <ele>266.4</ele>
        <time>2021-10-24T12:00:40Z</time>
      </trkpt>
      <trkpt lat="43.96299" lon="1.82384">
        <ele>266.2</ele>
        <time>2021-10-24T12:00:41Z</time>
      </trkpt>
      <trkpt lat="43.96294" lon="1.82388">
        <ele>266</ele>
        <time>2021-10-24T12:00:42Z</time>
      </trkpt>
      <trkpt lat="43.9629" lon="1.82392">
        <ele>265.8</ele>
        <time>2021-10-24T12:00:43Z</time>
      </trkpt>
      <trkpt lat="43.96286" lon="1.82396">
        <ele>265.8</ele>
        <time>2021-10-24T12:00:44Z</time>
      </trkpt>
      <trkpt lat="43.96282" lon="1.82399">
        <ele>265.6</ele>
        <time>2021-10-24T12:00:45Z</time>
      </trkpt>
      <trkpt lat="43.96278" lon="1.82402">
        <ele>265.6</ele>
        <time>2021-10-24T12:00:46Z</time>
      </trkpt>
      <trkpt lat="43.96274" lon="1.82405">
        <ele>265.6</ele>
        <time>2021-10-24T12:00:47Z</time>
      </trkpt>
      <trkpt lat="43.9627" lon="1.82408">
        <ele>265.6</ele>
        <time>2021-10-24T12:00:48Z</time>
      </trkpt>
      <trkpt lat="43.96266" lon="1.8241">
        <ele>265.6</ele>
        <time>2021-10-24T12:00:49Z</time>
      </trkpt>
      <trkpt lat="43.96258" lon="1.82415">
        <ele>265.4</ele>
        <time>2021-10-24T12:00:51Z</time>
      </trkpt>
      <trkpt lat="43.96254" lon="1.82418">
        <ele>265.4</ele>
        <time>2021-10-24T12:00:52Z</time>
      </trkpt>
      <trkpt lat="43.9625" lon="1.8242">
        <ele>265.4</ele>
        <time>2021-10-24T12:00:53Z</time>
      </trkpt>
      <trkpt lat="43.96246" lon="1.82422">
        <ele>265.4</ele>
        <time>2021-10-24T12:00:54Z</time>
      </trkpt>
      <trkpt lat="43.96242" lon="1.82424">
        <ele>265.4</ele>
        <time>2021-10-24T12:00:55Z</time>
      </trkpt>
      <trkpt lat="43.96238" lon="1.82426">
        <ele>265.4</ele>
        <time>2021-10-24T12:00:56Z</time>
      </trkpt>
      <trkpt lat="43.96229" lon="1.82429">
        <ele>265.4</ele>
        <time>2021-10-24T12:00:58Z</time>
      </trkpt>
      <trkpt lat="43.96213" lon="1.82436">
        <ele>265.6</ele>
        <time>2021-10-24T12:01:02Z</time>
      </trkpt>
      <trkpt lat="43.96205" lon="1.82441">
        <ele>265.6</ele>
        <time>2021-10-24T12:01:04Z</time>
      </trkpt>
      <trkpt lat="43.96201" lon="1.82443">
        <ele>265.8</ele>
        <time>2021-10-24T12:01:05Z</time>
      </trkpt>
      <trkpt lat="43.96198" lon="1.82444">
        <ele>265.8</ele>
        <time>2021-10-24T12:01:06Z</time>
      </trkpt>
      <trkpt lat="43.96194" lon="1.82446">
        <ele>265.8</ele>
        <time>2021-10-24T12:01:07Z</time>
      </trkpt>
      <trkpt lat="43.9619" lon="1.82448">
        <ele>265.8</ele>
        <time>2021-10-24T12:01:08Z</time>
      </trkpt>
      <trkpt lat="43.96186" lon="1.82451">
        <ele>266</ele>
        <time>2021-10-24T12:01:09Z</time>
      </trkpt>
      <trkpt lat="43.96183" lon="1.82453">
        <ele>266</ele>
        <time>2021-10-24T12:01:10Z</time>
      </trkpt>
      <trkpt lat="43.96167" lon="1.82462">
        <ele>266.4</ele>
        <time>2021-10-24T12:01:15Z</time>
      </trkpt>
      <trkpt lat="43.96164" lon="1.82464">
        <ele>266.6</ele>
        <time>2021-10-24T12:01:16Z</time>
      </trkpt>
      <trkpt lat="43.96161" lon="1.82466">
        <ele>266.6</ele>
        <time>2021-10-24T12:01:17Z</time>
      </trkpt>
      <trkpt lat="43.96158" lon="1.82467">
        <ele>266.8</ele>
        <time>2021-10-24T12:01:18Z</time>
      </trkpt>
      <trkpt lat="43.96156" lon="1.82468">
        <ele>266.8</ele>
        <time>2021-10-24T12:01:19Z</time>
      </trkpt>
      <trkpt lat="43.96153" lon="1.82469">
        <ele>267</ele>
        <time>2021-10-24T12:01:20Z</time>
      </trkpt>
      <trkpt lat="43.9615" lon="1.82471">
        <ele>267</ele>
        <time>2021-10-24T12:01:21Z</time>
      </trkpt>
      <trkpt lat="43.96147" lon="1.82472">
        <ele>267</ele>
        <time>2021-10-24T12:01:22Z</time>
      </trkpt>
      <trkpt lat="43.96144" lon="1.82474">
        <ele>267</ele>
        <time>2021-10-24T12:01:23Z</time>
      </trkpt>
      <trkpt lat="43.96141" lon="1.82475">
        <ele>267.2</ele>
        <time>2021-10-24T12:01:24Z</time>
      </trkpt>
      <trkpt lat="43.96136" lon="1.82479">
        <ele>267.6</ele>
        <time>2021-10-24T12:01:26Z</time>
      </trkpt>
      <trkpt lat="43.96133" lon="1.8248">
        <ele>267.6</ele>
        <time>2021-10-24T12:01:27Z</time>
      </trkpt>
      <trkpt lat="43.96119" lon="1.82487">
        <ele>268.6</ele>
        <time>2021-10-24T12:01:32Z</time>
      </trkpt>
      <trkpt lat="43.96116" lon="1.82489">
        <ele>268.8</ele>
        <time>2021-10-24T12:01:33Z</time>
      </trkpt>
      <trkpt lat="43.96113" lon="1.82491">
        <ele>269</ele>
        <time>2021-10-24T12:01:34Z</time>
      </trkpt>
      <trkpt lat="43.96111" lon="1.82492">
        <ele>269.2</ele>
        <time>2021-10-24T12:01:35Z</time>
      </trkpt>
      <trkpt lat="43.96109" lon="1.82494">
        <ele>269.6</ele>
        <time>2021-10-24T12:01:36Z</time>
      </trkpt>
      <trkpt lat="43.96107" lon="1.82496">
        <ele>269.8</ele>
        <time>2021-10-24T12:01:37Z</time>
      </trkpt>
      <trkpt lat="43.96105" lon="1.82497">
        <ele>270</ele>
        <time>2021-10-24T12:01:38Z</time>
      </trkpt>
      <trkpt lat="43.96102" lon="1.82499">
        <ele>270</ele>
        <time>2021-10-24T12:01:39Z</time>
      </trkpt>
      <trkpt lat="43.961" lon="1.825">
        <ele>270.4</ele>
        <time>2021-10-24T12:01:40Z</time>
      </trkpt>
      <trkpt lat="43.96097" lon="1.825">
        <ele>270.6</ele>
        <time>2021-10-24T12:01:41Z</time>
      </trkpt>
      <trkpt lat="43.96094" lon="1.82501">
        <ele>270.8</ele>
        <time>2021-10-24T12:01:42Z</time>
      </trkpt>
      <trkpt lat="43.96092" lon="1.82503">
        <ele>271.2</ele>
        <time>2021-10-24T12:01:43Z</time>
      </trkpt>
      <trkpt lat="43.9609" lon="1.82505">
        <ele>271.2</ele>
        <time>2021-10-24T12:01:44Z</time>
      </trkpt>
      <trkpt lat="43.96087" lon="1.82506">
        <ele>271.4</ele>
        <time>2021-10-24T12:01:45Z</time>
      </trkpt>
      <trkpt lat="43.96085" lon="1.82508">
        <ele>271.4</ele>
        <time>2021-10-24T12:01:46Z</time>
      </trkpt>
      <trkpt lat="43.96082" lon="1.82509">
        <ele>271.6</ele>
        <time>2021-10-24T12:01:47Z</time>
      </trkpt>
      <trkpt lat="43.96079" lon="1.8251">
        <ele>271.8</ele>
        <time>2021-10-24T12:01:48Z</time>
      </trkpt>
      <trkpt lat="43.96078" lon="1.82511">
        <ele>272.2</ele>
        <time>2021-10-24T12:01:49Z</time>
      </trkpt>
      <trkpt lat="43.96076" lon="1.82512">
        <ele>272.2</ele>
        <time>2021-10-24T12:01:50Z</time>
      </trkpt>
      <trkpt lat="43.96074" lon="1.82513">
        <ele>272.4</ele>
        <time>2021-10-24T12:01:51Z</time>
      </trkpt>
      <trkpt lat="43.96072" lon="1.82514">
        <ele>272.6</ele>
        <time>2021-10-24T12:01:52Z</time>
      </trkpt>
      <trkpt lat="43.9607" lon="1.82515">
        <ele>272.8</ele>
        <time>2021-10-24T12:01:53Z</time>
      </trkpt>
      <trkpt lat="43.96067" lon="1.82517">
        <ele>273.2</ele>
        <time>2021-10-24T12:01:54Z</time>
      </trkpt>
      <trkpt lat="43.96065" lon="1.82517">
        <ele>273.2</ele>
        <time>2021-10-24T12:01:55Z</time>
      </trkpt>
      <trkpt lat="43.96062" lon="1.82519">
        <ele>273.4</ele>
        <time>2021-10-24T12:01:56Z</time>
      </trkpt>
      <trkpt lat="43.96059" lon="1.8252">
        <ele>273.6</ele>
        <time>2021-10-24T12:01:57Z</time>
      </trkpt>
      <trkpt lat="43.96057" lon="1.82521">
        <ele>274</ele>
        <time>2021-10-24T12:01:58Z</time>
      </trkpt>
      <trkpt lat="43.96054" lon="1.82522">
        <ele>274.4</ele>
        <time>2021-10-24T12:01:59Z</time>
      </trkpt>
      <trkpt lat="43.96052" lon="1.82523">
        <ele>274.6</ele>
        <time>2021-10-24T12:02:00Z</time>
      </trkpt>
      <trkpt lat="43.96049" lon="1.82524">
        <ele>274.8</ele>
        <time>2021-10-24T12:02:01Z</time>
      </trkpt>
      <trkpt lat="43.96047" lon="1.82525">
        <ele>274.8</ele>
        <time>2021-10-24T12:02:02Z</time>
      </trkpt>
      <trkpt lat="43.96044" lon="1.82526">
        <ele>275</ele>
        <time>2021-10-24T12:02:03Z</time>
      </trkpt>
      <trkpt lat="43.96041" lon="1.82527">
        <ele>275</ele>
        <time>2021-10-24T12:02:04Z</time>
      </trkpt>
      <trkpt lat="43.9604" lon="1.82527">
        <ele>275.4</ele>
        <time>2021-10-24T12:02:05Z</time>
      </trkpt>
      <trkpt lat="43.96037" lon="1.82528">
        <ele>275.4</ele>
        <time>2021-10-24T12:02:06Z</time>
      </trkpt>
      <trkpt lat="43.96034" lon="1.82529">
        <ele>275.6</ele>
        <time>2021-10-24T12:02:07Z</time>
      </trkpt>
      <trkpt lat="43.96032" lon="1.8253">
        <ele>276</ele>
        <time>2021-10-24T12:02:08Z</time>
      </trkpt>
      <trkpt lat="43.96029" lon="1.82531">
        <ele>276.2</ele>
        <time>2021-10-24T12:02:09Z</time>
      </trkpt>
      <trkpt lat="43.96027" lon="1.82532">
        <ele>276.4</ele>
        <time>2021-10-24T12:02:10Z</time>
      </trkpt>
      <trkpt lat="43.96024" lon="1.82533">
        <ele>276.6</ele>
        <time>2021-10-24T12:02:11Z</time>
      </trkpt>
      <trkpt lat="43.96022" lon="1.82534">
        <ele>276.6</ele>
        <time>2021-10-24T12:02:12Z</time>
      </trkpt>
      <trkpt lat="43.9602" lon="1.82535">
        <ele>276.8</ele>
        <time>2021-10-24T12:02:13Z</time>
      </trkpt>
      <trkpt lat="43.96017" lon="1.82536">
        <ele>277</ele>
        <time>2021-10-24T12:02:14Z</time>
      </trkpt>
      <trkpt lat="43.96015" lon="1.82537">
        <ele>277.2</ele>
        <time>2021-10-24T12:02:15Z</time>
      </trkpt>
      <trkpt lat="43.96013" lon="1.82538">
        <ele>277.6</ele>
        <time>2021-10-24T12:02:16Z</time>
      </trkpt>
      <trkpt lat="43.9601" lon="1.82539">
        <ele>277.8</ele>
        <time>2021-10-24T12:02:17Z</time>
      </trkpt>
      <trkpt lat="43.96008" lon="1.8254">
        <ele>278</ele>
        <time>2021-10-24T12:02:18Z</time>
      </trkpt>
      <trkpt lat="43.96006" lon="1.82541">
        <ele>278.2</ele>
        <time>2021-10-24T12:02:19Z</time>
      </trkpt>
      <trkpt lat="43.96004" lon="1.82543">
        <ele>278.4</ele>
        <time>2021-10-24T12:02:20Z</time>
      </trkpt>
      <trkpt lat="43.96002" lon="1.82545">
        <ele>278.6</ele>
        <time>2021-10-24T12:02:21Z</time>
      </trkpt>
      <trkpt lat="43.96" lon="1.82546">
        <ele>278.8</ele>
        <time>2021-10-24T12:02:22Z</time>
      </trkpt>
      <trkpt lat="43.95997" lon="1.82547">
        <ele>279</ele>
        <time>2021-10-24T12:02:23Z</time>
      </trkpt>
      <trkpt lat="43.95996" lon="1.82549">
        <ele>279.2</ele>
        <time>2021-10-24T12:02:24Z</time>
      </trkpt>
      <trkpt lat="43.95994" lon="1.82551">
        <ele>279.4</ele>
        <time>2021-10-24T12:02:25Z</time>
      </trkpt>
      <trkpt lat="43.95992" lon="1.82553">
        <ele>279.6</ele>
        <time>2021-10-24T12:02:26Z</time>
      </trkpt>
      <trkpt lat="43.95991" lon="1.82554">
        <ele>279.8</ele>
        <time>2021-10-24T12:02:27Z</time>
      </trkpt>
      <trkpt lat="43.95989" lon="1.82556">
        <ele>280</ele>
        <time>2021-10-24T12:02:28Z</time>
      </trkpt>
      <trkpt lat="43.95987" lon="1.82558">
        <ele>280</ele>
        <time>2021-10-24T12:02:29Z</time>
      </trkpt>
      <trkpt lat="43.95986" lon="1.8256">
        <ele>280.2</ele>
        <time>2021-10-24T12:02:30Z</time>
      </trkpt>
      <trkpt lat="43.95985" lon="1.82562">
        <ele>280.4</ele>
        <time>2021-10-24T12:02:31Z</time>
      </trkpt>
      <trkpt lat="43.95983" lon="1.82565">
        <ele>280.4</ele>
        <time>2021-10-24T12:02:32Z</time>
      </trkpt>
      <trkpt lat="43.95982" lon="1.82567">
        <ele>280.8</ele>
        <time>2021-10-24T12:02:33Z</time>
      </trkpt>
      <trkpt lat="43.9598" lon="1.82569">
        <ele>280.8</ele>
        <time>2021-10-24T12:02:34Z</time>
      </trkpt>
      <trkpt lat="43.95979" lon="1.82571">
        <ele>281</ele>
        <time>2021-10-24T12:02:35Z</time>
      </trkpt>
      <trkpt lat="43.95977" lon="1.82573">
        <ele>281</ele>
        <time>2021-10-24T12:02:36Z</time>
      </trkpt>
      <trkpt lat="43.95976" lon="1.82576">
        <ele>281.2</ele>
        <time>2021-10-24T12:02:37Z</time>
      </trkpt>
      <trkpt lat="43.95975" lon="1.82578">
        <ele>281.2</ele>
        <time>2021-10-24T12:02:38Z</time>
      </trkpt>
      <trkpt lat="43.95973" lon="1.8258">
        <ele>281.4</ele>
        <time>2021-10-24T12:02:39Z</time>
      </trkpt>
      <trkpt lat="43.95972" lon="1.82583">
        <ele>281.6</ele>
        <time>2021-10-24T12:02:40Z</time>
      </trkpt>
      <trkpt lat="43.95971" lon="1.82585">
        <ele>281.6</ele>
        <time>2021-10-24T12:02:41Z</time>
      </trkpt>
      <trkpt lat="43.9597" lon="1.82588">
        <ele>281.8</ele>
        <time>2021-10-24T12:02:42Z</time>
      </trkpt>
      <trkpt lat="43.95968" lon="1.8259">
        <ele>281.8</ele>
        <time>2021-10-24T12:02:43Z</time>
      </trkpt>
      <trkpt lat="43.95967" lon="1.82592">
        <ele>282.2</ele>
        <time>2021-10-24T12:02:44Z</time>
      </trkpt>
      <trkpt lat="43.95966" lon="1.82595">
        <ele>282.4</ele>
        <time>2021-10-24T12:02:45Z</time>
      </trkpt>
      <trkpt lat="43.95965" lon="1.82597">
        <ele>282.6</ele>
        <time>2021-10-24T12:02:46Z</time>
      </trkpt>
      <trkpt lat="43.95964" lon="1.82599">
        <ele>282.6</ele>
        <time>2021-10-24T12:02:47Z</time>
      </trkpt>
      <trkpt lat="43.95963" lon="1.82601">
        <ele>282.8</ele>
        <time>2021-10-24T12:02:48Z</time>
      </trkpt>
      <trkpt lat="43.95961" lon="1.82604">
        <ele>283</ele>
        <time>2021-10-24T12:02:49Z</time>
      </trkpt>
      <trkpt lat="43.9596" lon="1.82606">
        <ele>283.2</ele>
        <time>2021-10-24T12:02:50Z</time>
      </trkpt>
      <trkpt lat="43.95959" lon="1.82608">
        <ele>283.4</ele>
        <time>2021-10-24T12:02:51Z</time>
      </trkpt>
      <trkpt lat="43.95958" lon="1.82611">
        <ele>283.4</ele>
        <time>2021-10-24T12:02:52Z</time>
      </trkpt>
      <trkpt lat="43.95957" lon="1.82613">
        <ele>283.4</ele>
        <time>2021-10-24T12:02:53Z</time>
      </trkpt>
      <trkpt lat="43.95956" lon="1.82615">
        <ele>283.8</ele>
        <time>2021-10-24T12:02:54Z</time>
      </trkpt>
      <trkpt lat="43.95955" lon="1.82617">
        <ele>284</ele>
        <time>2021-10-24T12:02:55Z</time>
      </trkpt>
      <trkpt lat="43.95954" lon="1.8262">
        <ele>284</ele>
        <time>2021-10-24T12:02:56Z</time>
      </trkpt>
      <trkpt lat="43.95953" lon="1.82622">
        <ele>284.4</ele>
        <time>2021-10-24T12:02:57Z</time>
      </trkpt>
      <trkpt lat="43.95952" lon="1.82624">
        <ele>284.4</ele>
        <time>2021-10-24T12:02:58Z</time>
      </trkpt>
      <trkpt lat="43.95951" lon="1.82627">
        <ele>284.6</ele>
        <time>2021-10-24T12:02:59Z</time>
      </trkpt>
      <trkpt lat="43.9595" lon="1.82629">
        <ele>284.6</ele>
        <time>2021-10-24T12:03:00Z</time>
      </trkpt>
      <trkpt lat="43.95949" lon="1.82632">
        <ele>284.8</ele>
        <time>2021-10-24T12:03:01Z</time>
      </trkpt>
      <trkpt lat="43.95948" lon="1.82634">
        <ele>285</ele>
        <time>2021-10-24T12:03:02Z</time>
      </trkpt>
      <trkpt lat="43.95947" lon="1.82636">
        <ele>285</ele>
        <time>2021-10-24T12:03:03Z</time>
      </trkpt>
      <trkpt lat="43.95946" lon="1.82639">
        <ele>285.2</ele>
        <time>2021-10-24T12:03:04Z</time>
      </trkpt>
      <trkpt lat="43.95945" lon="1.82642">
        <ele>285.4</ele>
        <time>2021-10-24T12:03:05Z</time>
      </trkpt>
      <trkpt lat="43.95944" lon="1.82645">
        <ele>285.6</ele>
        <time>2021-10-24T12:03:06Z</time>
      </trkpt>
      <trkpt lat="43.95944" lon="1.82647">
        <ele>285.6</ele>
        <time>2021-10-24T12:03:07Z</time>
      </trkpt>
      <trkpt lat="43.95943" lon="1.8265">
        <ele>285.8</ele>
        <time>2021-10-24T12:03:08Z</time>
      </trkpt>
      <trkpt lat="43.95942" lon="1.82652">
        <ele>286</ele>
        <time>2021-10-24T12:03:09Z</time>
      </trkpt>
      <trkpt lat="43.95941" lon="1.82655">
        <ele>286</ele>
        <time>2021-10-24T12:03:10Z</time>
      </trkpt>
      <trkpt lat="43.9594" lon="1.82657">
        <ele>286.2</ele>
        <time>2021-10-24T12:03:11Z</time>
      </trkpt>
      <trkpt lat="43.95939" lon="1.8266">
        <ele>286.4</ele>
        <time>2021-10-24T12:03:12Z</time>
      </trkpt>
      <trkpt lat="43.95938" lon="1.82663">
        <ele>286.4</ele>
        <time>2021-10-24T12:03:13Z</time>
      </trkpt>
      <trkpt lat="43.95937" lon="1.82666">
        <ele>286.6</ele>
        <time>2021-10-24T12:03:14Z</time>
      </trkpt>
      <trkpt lat="43.95936" lon="1.82669">
        <ele>286.6</ele>
        <time>2021-10-24T12:03:15Z</time>
      </trkpt>
      <trkpt lat="43.95935" lon="1.82672">
        <ele>286.8</ele>
        <time>2021-10-24T12:03:16Z</time>
      </trkpt>
      <trkpt lat="43.95934" lon="1.82674">
        <ele>286.8</ele>
        <time>2021-10-24T12:03:17Z</time>
      </trkpt>
      <trkpt lat="43.95932" lon="1.82677">
        <ele>287</ele>
        <time>2021-10-24T12:03:18Z</time>
      </trkpt>
      <trkpt lat="43.95931" lon="1.82679">
        <ele>287</ele>
        <time>2021-10-24T12:03:19Z</time>
      </trkpt>
      <trkpt lat="43.9593" lon="1.82682">
        <ele>287.2</ele>
        <time>2021-10-24T12:03:20Z</time>
      </trkpt>
      <trkpt lat="43.95929" lon="1.82685">
        <ele>287.4</ele>
        <time>2021-10-24T12:03:21Z</time>
      </trkpt>
      <trkpt lat="43.95928" lon="1.82688">
        <ele>287.4</ele>
        <time>2021-10-24T12:03:22Z</time>
      </trkpt>
      <trkpt lat="43.95927" lon="1.8269">
        <ele>287.8</ele>
        <time>2021-10-24T12:03:23Z</time>
      </trkpt>
      <trkpt lat="43.95926" lon="1.82693">
        <ele>287.8</ele>
        <time>2021-10-24T12:03:24Z</time>
      </trkpt>
      <trkpt lat="43.95924" lon="1.82695">
        <ele>288.2</ele>
        <time>2021-10-24T12:03:25Z</time>
      </trkpt>
      <trkpt lat="43.95923" lon="1.82698">
        <ele>288.2</ele>
        <time>2021-10-24T12:03:26Z</time>
      </trkpt>
      <trkpt lat="43.95922" lon="1.82701">
        <ele>288.4</ele>
        <time>2021-10-24T12:03:27Z</time>
      </trkpt>
      <trkpt lat="43.95921" lon="1.82703">
        <ele>288.6</ele>
        <time>2021-10-24T12:03:28Z</time>
      </trkpt>
      <trkpt lat="43.9592" lon="1.82706">
        <ele>289</ele>
        <time>2021-10-24T12:03:29Z</time>
      </trkpt>
      <trkpt lat="43.95919" lon="1.82709">
        <ele>289.2</ele>
        <time>2021-10-24T12:03:30Z</time>
      </trkpt>
      <trkpt lat="43.95918" lon="1.82711">
        <ele>289.2</ele>
        <time>2021-10-24T12:03:31Z</time>
      </trkpt>
      <trkpt lat="43.95917" lon="1.82714">
        <ele>289.4</ele>
        <time>2021-10-24T12:03:32Z</time>
      </trkpt>
      <trkpt lat="43.95915" lon="1.82717">
        <ele>289.6</ele>
        <time>2021-10-24T12:03:33Z</time>
      </trkpt>
      <trkpt lat="43.95914" lon="1.82719">
        <ele>289.8</ele>
        <time>2021-10-24T12:03:34Z</time>
      </trkpt>
      <trkpt lat="43.95913" lon="1.82722">
        <ele>289.8</ele>
        <time>2021-10-24T12:03:35Z</time>
      </trkpt>
      <trkpt lat="43.95912" lon="1.82724">
        <ele>290.2</ele>
        <time>2021-10-24T12:03:36Z</time>
      </trkpt>
      <trkpt lat="43.9591" lon="1.82726">
        <ele>290.4</ele>
        <time>2021-10-24T12:03:37Z</time>
      </trkpt>
      <trkpt lat="43.95908" lon="1.82728">
        <ele>290.4</ele>
        <time>2021-10-24T12:03:38Z</time>
      </trkpt>
      <trkpt lat="43.95906" lon="1.8273">
        <ele>290.6</ele>
        <time>2021-10-24T12:03:39Z</time>
      </trkpt>
      <trkpt lat="43.95904" lon="1.82733">
        <ele>290.8</ele>
        <time>2021-10-24T12:03:40Z</time>
      </trkpt>
      <trkpt lat="43.95903" lon="1.82735">
        <ele>291</ele>
        <time>2021-10-24T12:03:41Z</time>
      </trkpt>
      <trkpt lat="43.95901" lon="1.82737">
        <ele>291</ele>
        <time>2021-10-24T12:03:42Z</time>
      </trkpt>
      <trkpt lat="43.95899" lon="1.82739">
        <ele>291.2</ele>
        <time>2021-10-24T12:03:43Z</time>
      </trkpt>
      <trkpt lat="43.95897" lon="1.82741">
        <ele>291.2</ele>
        <time>2021-10-24T12:03:44Z</time>
      </trkpt>
      <trkpt lat="43.95895" lon="1.82743">
        <ele>291.4</ele>
        <time>2021-10-24T12:03:45Z</time>
      </trkpt>
      <trkpt lat="43.95892" lon="1.82745">
        <ele>291.4</ele>
        <time>2021-10-24T12:03:46Z</time>
      </trkpt>
      <trkpt lat="43.9589" lon="1.82747">
        <ele>291.4</ele>
        <time>2021-10-24T12:03:47Z</time>
      </trkpt>
      <trkpt lat="43.95888" lon="1.82749">
        <ele>291.6</ele>
        <time>2021-10-24T12:03:48Z</time>
      </trkpt>
      <trkpt lat="43.95886" lon="1.8275">
        <ele>291.6</ele>
        <time>2021-10-24T12:03:49Z</time>
      </trkpt>
      <trkpt lat="43.95884" lon="1.82752">
        <ele>291.6</ele>
        <time>2021-10-24T12:03:50Z</time>
      </trkpt>
      <trkpt lat="43.95881" lon="1.82754">
        <ele>291.6</ele>
        <time>2021-10-24T12:03:51Z</time>
      </trkpt>
      <trkpt lat="43.95879" lon="1.82756">
        <ele>291.8</ele>
        <time>2021-10-24T12:03:52Z</time>
      </trkpt>
      <trkpt lat="43.95877" lon="1.82758">
        <ele>291.8</ele>
        <time>2021-10-24T12:03:53Z</time>
      </trkpt>
      <trkpt lat="43.95875" lon="1.8276">
        <ele>291.8</ele>
        <time>2021-10-24T12:03:54Z</time>
      </trkpt>
      <trkpt lat="43.95873" lon="1.82762">
        <ele>291.8</ele>
        <time>2021-10-24T12:03:55Z</time>
      </trkpt>
      <trkpt lat="43.9587" lon="1.82764">
        <ele>291.8</ele>
        <time>2021-10-24T12:03:56Z</time>
      </trkpt>
      <trkpt lat="43.95867" lon="1.82766">
        <ele>291.8</ele>
        <time>2021-10-24T12:03:57Z</time>
      </trkpt>
      <trkpt lat="43.95865" lon="1.82768">
        <ele>292</ele>
        <time>2021-10-24T12:03:58Z</time>
      </trkpt>
      <trkpt lat="43.95862" lon="1.8277">
        <ele>292</ele>
        <time>2021-10-24T12:03:59Z</time>
      </trkpt>
      <trkpt lat="43.95859" lon="1.82773">
        <ele>292</ele>
        <time>2021-10-24T12:04:00Z</time>
      </trkpt>
      <trkpt lat="43.95856" lon="1.82775">
        <ele>292</ele>
        <time>2021-10-24T12:04:01Z</time>
      </trkpt>
      <trkpt lat="43.95848" lon="1.82782">
        <ele>292</ele>
        <time>2021-10-24T12:04:04Z</time>
      </trkpt>
      <trkpt lat="43.95831" lon="1.82797">
        <ele>291.8</ele>
        <time>2021-10-24T12:04:09Z</time>
      </trkpt>
      <trkpt lat="43.95824" lon="1.82802">
        <ele>292</ele>
        <time>2021-10-24T12:04:11Z</time>
      </trkpt>
      <trkpt lat="43.95812" lon="1.82806">
        <ele>291.8</ele>
        <time>2021-10-24T12:04:14Z</time>
      </trkpt>
      <trkpt lat="43.95797" lon="1.82809">
        <ele>291.6</ele>
        <time>2021-10-24T12:04:18Z</time>
      </trkpt>
      <trkpt lat="43.95793" lon="1.82809">
        <ele>291.6</ele>
        <time>2021-10-24T12:04:19Z</time>
      </trkpt>
      <trkpt lat="43.95789" lon="1.82809">
        <ele>291.6</ele>
        <time>2021-10-24T12:04:20Z</time>
      </trkpt>
      <trkpt lat="43.95785" lon="1.82809">
        <ele>291.6</ele>
        <time>2021-10-24T12:04:21Z</time>
      </trkpt>
      <trkpt lat="43.95781" lon="1.82808">
        <ele>291.6</ele>
        <time>2021-10-24T12:04:22Z</time>
      </trkpt>
      <trkpt lat="43.95778" lon="1.82808">
        <ele>291.6</ele>
        <time>2021-10-24T12:04:23Z</time>
      </trkpt>
      <trkpt lat="43.95775" lon="1.82807">
        <ele>291.8</ele>
        <time>2021-10-24T12:04:24Z</time>
      </trkpt>
      <trkpt lat="43.95772" lon="1.82807">
        <ele>291.8</ele>
        <time>2021-10-24T12:04:25Z</time>
      </trkpt>
      <trkpt lat="43.95769" lon="1.82806">
        <ele>291.8</ele>
        <time>2021-10-24T12:04:26Z</time>
      </trkpt>
      <trkpt lat="43.95766" lon="1.82805">
        <ele>292</ele>
        <time>2021-10-24T12:04:27Z</time>
      </trkpt>
      <trkpt lat="43.95763" lon="1.82805">
        <ele>292.2</ele>
        <time>2021-10-24T12:04:28Z</time>
      </trkpt>
      <trkpt lat="43.9576" lon="1.82805">
        <ele>292.4</ele>
        <time>2021-10-24T12:04:29Z</time>
      </trkpt>
      <trkpt lat="43.95758" lon="1.82805">
        <ele>292.6</ele>
        <time>2021-10-24T12:04:30Z</time>
      </trkpt>
      <trkpt lat="43.95755" lon="1.82805">
        <ele>292.8</ele>
        <time>2021-10-24T12:04:31Z</time>
      </trkpt>
      <trkpt lat="43.95752" lon="1.82804">
        <ele>293</ele>
        <time>2021-10-24T12:04:32Z</time>
      </trkpt>
      <trkpt lat="43.9575" lon="1.82804">
        <ele>293.2</ele>
        <time>2021-10-24T12:04:33Z</time>
      </trkpt>
      <trkpt lat="43.95747" lon="1.82804">
        <ele>293.6</ele>
        <time>2021-10-24T12:04:34Z</time>
      </trkpt>
      <trkpt lat="43.95744" lon="1.82804">
        <ele>293.6</ele>
        <time>2021-10-24T12:04:35Z</time>
      </trkpt>
      <trkpt lat="43.9574" lon="1.82804">
        <ele>294</ele>
        <time>2021-10-24T12:04:36Z</time>
      </trkpt>
      <trkpt lat="43.95737" lon="1.82804">
        <ele>294</ele>
        <time>2021-10-24T12:04:37Z</time>
      </trkpt>
      <trkpt lat="43.95735" lon="1.82804">
        <ele>294.2</ele>
        <time>2021-10-24T12:04:38Z</time>
      </trkpt>
      <trkpt lat="43.95723" lon="1.82806">
        <ele>295.2</ele>
        <time>2021-10-24T12:04:42Z</time>
      </trkpt>
      <trkpt lat="43.9572" lon="1.82807">
        <ele>295.4</ele>
        <time>2021-10-24T12:04:43Z</time>
      </trkpt>
      <trkpt lat="43.95717" lon="1.82808">
        <ele>295.6</ele>
        <time>2021-10-24T12:04:44Z</time>
      </trkpt>
      <trkpt lat="43.95714" lon="1.82809">
        <ele>295.6</ele>
        <time>2021-10-24T12:04:45Z</time>
      </trkpt>
      <trkpt lat="43.95711" lon="1.8281">
        <ele>295.8</ele>
        <time>2021-10-24T12:04:46Z</time>
      </trkpt>
      <trkpt lat="43.95707" lon="1.82811">
        <ele>295.8</ele>
        <time>2021-10-24T12:04:47Z</time>
      </trkpt>
      <trkpt lat="43.95704" lon="1.82813">
        <ele>295.8</ele>
        <time>2021-10-24T12:04:48Z</time>
      </trkpt>
      <trkpt lat="43.957" lon="1.82815">
        <ele>296</ele>
        <time>2021-10-24T12:04:49Z</time>
      </trkpt>
      <trkpt lat="43.95697" lon="1.82817">
        <ele>296</ele>
        <time>2021-10-24T12:04:50Z</time>
      </trkpt>
      <trkpt lat="43.95693" lon="1.82819">
        <ele>295.8</ele>
        <time>2021-10-24T12:04:51Z</time>
      </trkpt>
      <trkpt lat="43.9569" lon="1.82823">
        <ele>295.8</ele>
        <time>2021-10-24T12:04:52Z</time>
      </trkpt>
      <trkpt lat="43.95686" lon="1.82826">
        <ele>295.8</ele>
        <time>2021-10-24T12:04:53Z</time>
      </trkpt>
      <trkpt lat="43.95682" lon="1.8283">
        <ele>295.6</ele>
        <time>2021-10-24T12:04:54Z</time>
      </trkpt>
      <trkpt lat="43.95678" lon="1.82834">
        <ele>295.6</ele>
        <time>2021-10-24T12:04:55Z</time>
      </trkpt>
      <trkpt lat="43.95674" lon="1.82838">
        <ele>295.2</ele>
        <time>2021-10-24T12:04:56Z</time>
      </trkpt>
      <trkpt lat="43.9567" lon="1.82842">
        <ele>295.2</ele>
        <time>2021-10-24T12:04:57Z</time>
      </trkpt>
      <trkpt lat="43.95666" lon="1.82846">
        <ele>294.8</ele>
        <time>2021-10-24T12:04:58Z</time>
      </trkpt>
      <trkpt lat="43.95662" lon="1.82851">
        <ele>294.6</ele>
        <time>2021-10-24T12:04:59Z</time>
      </trkpt>
      <trkpt lat="43.95658" lon="1.82855">
        <ele>294.4</ele>
        <time>2021-10-24T12:05:00Z</time>
      </trkpt>
      <trkpt lat="43.95645" lon="1.82866">
        <ele>294</ele>
        <time>2021-10-24T12:05:03Z</time>
      </trkpt>
      <trkpt lat="43.95641" lon="1.8287">
        <ele>293.8</ele>
        <time>2021-10-24T12:05:04Z</time>
      </trkpt>
      <trkpt lat="43.95637" lon="1.82873">
        <ele>293.8</ele>
        <time>2021-10-24T12:05:05Z</time>
      </trkpt>
      <trkpt lat="43.95633" lon="1.82875">
        <ele>293.6</ele>
        <time>2021-10-24T12:05:06Z</time>
      </trkpt>
      <trkpt lat="43.95628" lon="1.82876">
        <ele>293.6</ele>
        <time>2021-10-24T12:05:07Z</time>
      </trkpt>
      <trkpt lat="43.95624" lon="1.82877">
        <ele>293.6</ele>
        <time>2021-10-24T12:05:08Z</time>
      </trkpt>
      <trkpt lat="43.95619" lon="1.82878">
        <ele>293.6</ele>
        <time>2021-10-24T12:05:09Z</time>
      </trkpt>
      <trkpt lat="43.9561" lon="1.82879">
        <ele>293.6</ele>
        <time>2021-10-24T12:05:11Z</time>
      </trkpt>
      <trkpt lat="43.95601" lon="1.82878">
        <ele>293.6</ele>
        <time>2021-10-24T12:05:13Z</time>
      </trkpt>
      <trkpt lat="43.95597" lon="1.82878">
        <ele>293.6</ele>
        <time>2021-10-24T12:05:14Z</time>
      </trkpt>
      <trkpt lat="43.95593" lon="1.82877">
        <ele>293.6</ele>
        <time>2021-10-24T12:05:15Z</time>
      </trkpt>
      <trkpt lat="43.95588" lon="1.82877">
        <ele>293.6</ele>
        <time>2021-10-24T12:05:16Z</time>
      </trkpt>
      <trkpt lat="43.95584" lon="1.82877">
        <ele>293.8</ele>
        <time>2021-10-24T12:05:17Z</time>
      </trkpt>
      <trkpt lat="43.9558" lon="1.82877">
        <ele>293.8</ele>
        <time>2021-10-24T12:05:18Z</time>
      </trkpt>
      <trkpt lat="43.95577" lon="1.82877">
        <ele>293.8</ele>
        <time>2021-10-24T12:05:19Z</time>
      </trkpt>
      <trkpt lat="43.95573" lon="1.82878">
        <ele>294</ele>
        <time>2021-10-24T12:05:20Z</time>
      </trkpt>
      <trkpt lat="43.9557" lon="1.82879">
        <ele>294.2</ele>
        <time>2021-10-24T12:05:21Z</time>
      </trkpt>
      <trkpt lat="43.95567" lon="1.8288">
        <ele>294.4</ele>
        <time>2021-10-24T12:05:22Z</time>
      </trkpt>
      <trkpt lat="43.95546" lon="1.82886">
        <ele>295.2</ele>
        <time>2021-10-24T12:05:28Z</time>
      </trkpt>
      <trkpt lat="43.95542" lon="1.82887">
        <ele>295.4</ele>
        <time>2021-10-24T12:05:29Z</time>
      </trkpt>
      <trkpt lat="43.95538" lon="1.82887">
        <ele>295.4</ele>
        <time>2021-10-24T12:05:30Z</time>
      </trkpt>
      <trkpt lat="43.95526" lon="1.82883">
        <ele>295.8</ele>
        <time>2021-10-24T12:05:33Z</time>
      </trkpt>
      <trkpt lat="43.95523" lon="1.82881">
        <ele>295.8</ele>
        <time>2021-10-24T12:05:34Z</time>
      </trkpt>
      <trkpt lat="43.95519" lon="1.82878">
        <ele>295.8</ele>
        <time>2021-10-24T12:05:35Z</time>
      </trkpt>
      <trkpt lat="43.9551" lon="1.82866">
        <ele>295.8</ele>
        <time>2021-10-24T12:05:38Z</time>
      </trkpt>
      <trkpt lat="43.95508" lon="1.82862">
        <ele>296</ele>
        <time>2021-10-24T12:05:39Z</time>
      </trkpt>
      <trkpt lat="43.95496" lon="1.82838">
        <ele>296.2</ele>
        <time>2021-10-24T12:05:44Z</time>
      </trkpt>
      <trkpt lat="43.95493" lon="1.82833">
        <ele>296.2</ele>
        <time>2021-10-24T12:05:45Z</time>
      </trkpt>
      <trkpt lat="43.95488" lon="1.82823">
        <ele>296.4</ele>
        <time>2021-10-24T12:05:47Z</time>
      </trkpt>
      <trkpt lat="43.95486" lon="1.82818">
        <ele>296.4</ele>
        <time>2021-10-24T12:05:48Z</time>
      </trkpt>
      <trkpt lat="43.95484" lon="1.82813">
        <ele>296.4</ele>
        <time>2021-10-24T12:05:49Z</time>
      </trkpt>
      <trkpt lat="43.95481" lon="1.82809">
        <ele>296.4</ele>
        <time>2021-10-24T12:05:50Z</time>
      </trkpt>
      <trkpt lat="43.95477" lon="1.828">
        <ele>296.6</ele>
        <time>2021-10-24T12:05:52Z</time>
      </trkpt>
      <trkpt lat="43.95475" lon="1.82795">
        <ele>296.8</ele>
        <time>2021-10-24T12:05:53Z</time>
      </trkpt>
      <trkpt lat="43.95467" lon="1.82777">
        <ele>297.4</ele>
        <time>2021-10-24T12:05:57Z</time>
      </trkpt>
      <trkpt lat="43.9546" lon="1.82763">
        <ele>297.6</ele>
        <time>2021-10-24T12:06:00Z</time>
      </trkpt>
      <trkpt lat="43.95438" lon="1.82716">
        <ele>298</ele>
        <time>2021-10-24T12:06:09Z</time>
      </trkpt>
      <trkpt lat="43.95435" lon="1.8271">
        <ele>298</ele>
        <time>2021-10-24T12:06:10Z</time>
      </trkpt>
      <trkpt lat="43.95432" lon="1.82705">
        <ele>298</ele>
        <time>2021-10-24T12:06:11Z</time>
      </trkpt>
      <trkpt lat="43.9543" lon="1.827">
        <ele>298</ele>
        <time>2021-10-24T12:06:12Z</time>
      </trkpt>
      <trkpt lat="43.95421" lon="1.8268">
        <ele>298</ele>
        <time>2021-10-24T12:06:16Z</time>
      </trkpt>
      <trkpt lat="43.95408" lon="1.82655">
        <ele>298.2</ele>
        <time>2021-10-24T12:06:21Z</time>
      </trkpt>
      <trkpt lat="43.95378" lon="1.82604">
        <ele>298</ele>
        <time>2021-10-24T12:06:31Z</time>
      </trkpt>
      <trkpt lat="43.95355" lon="1.82562">
        <ele>297.2</ele>
        <time>2021-10-24T12:06:38Z</time>
      </trkpt>
      <trkpt lat="43.95342" lon="1.82537">
        <ele>296.6</ele>
        <time>2021-10-24T12:06:42Z</time>
      </trkpt>
      <trkpt lat="43.95339" lon="1.82531">
        <ele>296.4</ele>
        <time>2021-10-24T12:06:43Z</time>
      </trkpt>
      <trkpt lat="43.95322" lon="1.82497">
        <ele>295.6</ele>
        <time>2021-10-24T12:06:48Z</time>
      </trkpt>
      <trkpt lat="43.95314" lon="1.82482">
        <ele>295.4</ele>
        <time>2021-10-24T12:06:50Z</time>
      </trkpt>
      <trkpt lat="43.95299" lon="1.82451">
        <ele>294.4</ele>
        <time>2021-10-24T12:06:54Z</time>
      </trkpt>
      <trkpt lat="43.95292" lon="1.82434">
        <ele>294</ele>
        <time>2021-10-24T12:06:56Z</time>
      </trkpt>
      <trkpt lat="43.95282" lon="1.82409">
        <ele>293.2</ele>
        <time>2021-10-24T12:06:59Z</time>
      </trkpt>
      <trkpt lat="43.95271" lon="1.82383">
        <ele>292.2</ele>
        <time>2021-10-24T12:07:02Z</time>
      </trkpt>
      <trkpt lat="43.95268" lon="1.82375">
        <ele>292</ele>
        <time>2021-10-24T12:07:03Z</time>
      </trkpt>
      <trkpt lat="43.95264" lon="1.82366">
        <ele>291.6</ele>
        <time>2021-10-24T12:07:04Z</time>
      </trkpt>
      <trkpt lat="43.95261" lon="1.82358">
        <ele>291.4</ele>
        <time>2021-10-24T12:07:05Z</time>
      </trkpt>
      <trkpt lat="43.95258" lon="1.82349">
        <ele>291</ele>
        <time>2021-10-24T12:07:06Z</time>
      </trkpt>
      <trkpt lat="43.95255" lon="1.82341">
        <ele>290.8</ele>
        <time>2021-10-24T12:07:07Z</time>
      </trkpt>
      <trkpt lat="43.95252" lon="1.82333">
        <ele>290.6</ele>
        <time>2021-10-24T12:07:08Z</time>
      </trkpt>
      <trkpt lat="43.95249" lon="1.82325">
        <ele>290.6</ele>
        <time>2021-10-24T12:07:09Z</time>
      </trkpt>
      <trkpt lat="43.95245" lon="1.82317">
        <ele>290.4</ele>
        <time>2021-10-24T12:07:10Z</time>
      </trkpt>
      <trkpt lat="43.95242" lon="1.8231">
        <ele>290.4</ele>
        <time>2021-10-24T12:07:11Z</time>
      </trkpt>
      <trkpt lat="43.95238" lon="1.82303">
        <ele>290.4</ele>
        <time>2021-10-24T12:07:12Z</time>
      </trkpt>
      <trkpt lat="43.95235" lon="1.82296">
        <ele>290.2</ele>
        <time>2021-10-24T12:07:13Z</time>
      </trkpt>
      <trkpt lat="43.95227" lon="1.82283">
        <ele>289.8</ele>
        <time>2021-10-24T12:07:15Z</time>
      </trkpt>
      <trkpt lat="43.95218" lon="1.8227">
        <ele>289.4</ele>
        <time>2021-10-24T12:07:17Z</time>
      </trkpt>
      <trkpt lat="43.95214" lon="1.82264">
        <ele>289.4</ele>
        <time>2021-10-24T12:07:18Z</time>
      </trkpt>
      <trkpt lat="43.9521" lon="1.82259">
        <ele>289.4</ele>
        <time>2021-10-24T12:07:19Z</time>
      </trkpt>
      <trkpt lat="43.95206" lon="1.82253">
        <ele>289.4</ele>
        <time>2021-10-24T12:07:20Z</time>
      </trkpt>
      <trkpt lat="43.95202" lon="1.82248">
        <ele>289.4</ele>
        <time>2021-10-24T12:07:21Z</time>
      </trkpt>
      <trkpt lat="43.95197" lon="1.82243">
        <ele>289.4</ele>
        <time>2021-10-24T12:07:22Z</time>
      </trkpt>
      <trkpt lat="43.95193" lon="1.82237">
        <ele>289.4</ele>
        <time>2021-10-24T12:07:23Z</time>
      </trkpt>
      <trkpt lat="43.9518" lon="1.82223">
        <ele>289.2</ele>
        <time>2021-10-24T12:07:26Z</time>
      </trkpt>
      <trkpt lat="43.95176" lon="1.82218">
        <ele>289.2</ele>
        <time>2021-10-24T12:07:27Z</time>
      </trkpt>
      <trkpt lat="43.95172" lon="1.82213">
        <ele>289.2</ele>
        <time>2021-10-24T12:07:28Z</time>
      </trkpt>
      <trkpt lat="43.95167" lon="1.82209">
        <ele>289.2</ele>
        <time>2021-10-24T12:07:29Z</time>
      </trkpt>
      <trkpt lat="43.95163" lon="1.82204">
        <ele>289.2</ele>
        <time>2021-10-24T12:07:30Z</time>
      </trkpt>
      <trkpt lat="43.95151" lon="1.8219">
        <ele>289</ele>
        <time>2021-10-24T12:07:33Z</time>
      </trkpt>
      <trkpt lat="43.95147" lon="1.82185">
        <ele>288.8</ele>
        <time>2021-10-24T12:07:34Z</time>
      </trkpt>
      <trkpt lat="43.95139" lon="1.82177">
        <ele>288.8</ele>
        <time>2021-10-24T12:07:36Z</time>
      </trkpt>
      <trkpt lat="43.95135" lon="1.82172">
        <ele>289</ele>
        <time>2021-10-24T12:07:37Z</time>
      </trkpt>
      <trkpt lat="43.95117" lon="1.82147">
        <ele>289.2</ele>
        <time>2021-10-24T12:07:42Z</time>
      </trkpt>
      <trkpt lat="43.95114" lon="1.82142">
        <ele>289.2</ele>
        <time>2021-10-24T12:07:43Z</time>
      </trkpt>
      <trkpt lat="43.9511" lon="1.82138">
        <ele>289.2</ele>
        <time>2021-10-24T12:07:44Z</time>
      </trkpt>
      <trkpt lat="43.95107" lon="1.82133">
        <ele>289.4</ele>
        <time>2021-10-24T12:07:45Z</time>
      </trkpt>
      <trkpt lat="43.95104" lon="1.82128">
        <ele>289.4</ele>
        <time>2021-10-24T12:07:46Z</time>
      </trkpt>
      <trkpt lat="43.951" lon="1.82124">
        <ele>289.4</ele>
        <time>2021-10-24T12:07:47Z</time>
      </trkpt>
      <trkpt lat="43.95097" lon="1.82119">
        <ele>289.4</ele>
        <time>2021-10-24T12:07:48Z</time>
      </trkpt>
      <trkpt lat="43.95094" lon="1.82115">
        <ele>289.4</ele>
        <time>2021-10-24T12:07:49Z</time>
      </trkpt>
      <trkpt lat="43.95091" lon="1.82111">
        <ele>289.6</ele>
        <time>2021-10-24T12:07:50Z</time>
      </trkpt>
      <trkpt lat="43.95088" lon="1.82106">
        <ele>289.6</ele>
        <time>2021-10-24T12:07:51Z</time>
      </trkpt>
      <trkpt lat="43.9507" lon="1.82077">
        <ele>290.4</ele>
        <time>2021-10-24T12:07:57Z</time>
      </trkpt>
      <trkpt lat="43.95049" lon="1.8204">
        <ele>290.6</ele>
        <time>2021-10-24T12:08:04Z</time>
      </trkpt>
      <trkpt lat="43.95037" lon="1.82018">
        <ele>290.6</ele>
        <time>2021-10-24T12:08:08Z</time>
      </trkpt>
      <trkpt lat="43.9501" lon="1.81963">
        <ele>290.6</ele>
        <time>2021-10-24T12:08:17Z</time>
      </trkpt>
      <trkpt lat="43.95003" lon="1.81942">
        <ele>290.4</ele>
        <time>2021-10-24T12:08:20Z</time>
      </trkpt>
      <trkpt lat="43.95001" lon="1.81935">
        <ele>290.2</ele>
        <time>2021-10-24T12:08:21Z</time>
      </trkpt>
      <trkpt lat="43.95" lon="1.81927">
        <ele>290.2</ele>
        <time>2021-10-24T12:08:22Z</time>
      </trkpt>
      <trkpt lat="43.94999" lon="1.8192">
        <ele>290.2</ele>
        <time>2021-10-24T12:08:23Z</time>
      </trkpt>
      <trkpt lat="43.94998" lon="1.81912">
        <ele>290</ele>
        <time>2021-10-24T12:08:24Z</time>
      </trkpt>
      <trkpt lat="43.94997" lon="1.81905">
        <ele>290</ele>
        <time>2021-10-24T12:08:25Z</time>
      </trkpt>
      <trkpt lat="43.94997" lon="1.81898">
        <ele>290</ele>
        <time>2021-10-24T12:08:26Z</time>
      </trkpt>
      <trkpt lat="43.94998" lon="1.81891">
        <ele>290</ele>
        <time>2021-10-24T12:08:27Z</time>
      </trkpt>
      <trkpt lat="43.94999" lon="1.81885">
        <ele>289.8</ele>
        <time>2021-10-24T12:08:28Z</time>
      </trkpt>
      <trkpt lat="43.95" lon="1.81879">
        <ele>289.8</ele>
        <time>2021-10-24T12:08:29Z</time>
      </trkpt>
      <trkpt lat="43.95001" lon="1.81874">
        <ele>289.8</ele>
        <time>2021-10-24T12:08:30Z</time>
      </trkpt>
      <trkpt lat="43.95005" lon="1.81849">
        <ele>289.2</ele>
        <time>2021-10-24T12:08:34Z</time>
      </trkpt>
      <trkpt lat="43.95008" lon="1.81829">
        <ele>288.8</ele>
        <time>2021-10-24T12:08:37Z</time>
      </trkpt>
      <trkpt lat="43.9501" lon="1.81815">
        <ele>288.6</ele>
        <time>2021-10-24T12:08:39Z</time>
      </trkpt>
      <trkpt lat="43.9501" lon="1.81809">
        <ele>288.6</ele>
        <time>2021-10-24T12:08:40Z</time>
      </trkpt>
      <trkpt lat="43.95011" lon="1.81803">
        <ele>288.6</ele>
        <time>2021-10-24T12:08:41Z</time>
      </trkpt>
      <trkpt lat="43.95011" lon="1.81797">
        <ele>288.6</ele>
        <time>2021-10-24T12:08:42Z</time>
      </trkpt>
      <trkpt lat="43.95012" lon="1.81792">
        <ele>288.8</ele>
        <time>2021-10-24T12:08:43Z</time>
      </trkpt>
      <trkpt lat="43.95013" lon="1.81786">
        <ele>289</ele>
        <time>2021-10-24T12:08:44Z</time>
      </trkpt>
      <trkpt lat="43.95013" lon="1.81781">
        <ele>289.2</ele>
        <time>2021-10-24T12:08:45Z</time>
      </trkpt>
      <trkpt lat="43.95014" lon="1.81777">
        <ele>289.4</ele>
        <time>2021-10-24T12:08:46Z</time>
      </trkpt>
      <trkpt lat="43.95014" lon="1.81772">
        <ele>289.6</ele>
        <time>2021-10-24T12:08:47Z</time>
      </trkpt>
      <trkpt lat="43.95015" lon="1.81769">
        <ele>289.6</ele>
        <time>2021-10-24T12:08:48Z</time>
      </trkpt>
      <trkpt lat="43.95017" lon="1.81765">
        <ele>290</ele>
        <time>2021-10-24T12:08:49Z</time>
      </trkpt>
      <trkpt lat="43.95031" lon="1.81731">
        <ele>290.2</ele>
        <time>2021-10-24T12:08:57Z</time>
      </trkpt>
      <trkpt lat="43.95041" lon="1.81707">
        <ele>290.2</ele>
        <time>2021-10-24T12:09:02Z</time>
      </trkpt>
      <trkpt lat="43.95045" lon="1.81697">
        <ele>290.2</ele>
        <time>2021-10-24T12:09:04Z</time>
      </trkpt>
      <trkpt lat="43.95047" lon="1.81693">
        <ele>290</ele>
        <time>2021-10-24T12:09:05Z</time>
      </trkpt>
      <trkpt lat="43.95049" lon="1.81688">
        <ele>290</ele>
        <time>2021-10-24T12:09:06Z</time>
      </trkpt>
      <trkpt lat="43.95053" lon="1.8168">
        <ele>290</ele>
        <time>2021-10-24T12:09:08Z</time>
      </trkpt>
      <trkpt lat="43.95055" lon="1.81675">
        <ele>290</ele>
        <time>2021-10-24T12:09:09Z</time>
      </trkpt>
      <trkpt lat="43.95059" lon="1.81667">
        <ele>289.8</ele>
        <time>2021-10-24T12:09:11Z</time>
      </trkpt>
      <trkpt lat="43.95062" lon="1.81661">
        <ele>289.8</ele>
        <time>2021-10-24T12:09:13Z</time>
      </trkpt>
      <trkpt lat="43.95064" lon="1.81657">
        <ele>289.8</ele>
        <time>2021-10-24T12:09:14Z</time>
      </trkpt>
      <trkpt lat="43.95071" lon="1.81641">
        <ele>289.8</ele>
        <time>2021-10-24T12:09:17Z</time>
      </trkpt>
      <trkpt lat="43.95076" lon="1.8163">
        <ele>289.8</ele>
        <time>2021-10-24T12:09:19Z</time>
      </trkpt>
      <trkpt lat="43.95078" lon="1.81625">
        <ele>289.8</ele>
        <time>2021-10-24T12:09:20Z</time>
      </trkpt>
      <trkpt lat="43.9508" lon="1.8162">
        <ele>289.8</ele>
        <time>2021-10-24T12:09:21Z</time>
      </trkpt>
      <trkpt lat="43.95081" lon="1.81616">
        <ele>289.6</ele>
        <time>2021-10-24T12:09:22Z</time>
      </trkpt>
      <trkpt lat="43.95083" lon="1.81612">
        <ele>289.6</ele>
        <time>2021-10-24T12:09:23Z</time>
      </trkpt>
      <trkpt lat="43.95084" lon="1.81609">
        <ele>289.6</ele>
        <time>2021-10-24T12:09:24Z</time>
      </trkpt>
      <trkpt lat="43.95086" lon="1.81606">
        <ele>289.4</ele>
        <time>2021-10-24T12:09:25Z</time>
      </trkpt>
      <trkpt lat="43.95088" lon="1.81602">
        <ele>289.2</ele>
        <time>2021-10-24T12:09:26Z</time>
      </trkpt>
      <trkpt lat="43.95091" lon="1.81594">
        <ele>289</ele>
        <time>2021-10-24T12:09:28Z</time>
      </trkpt>
      <trkpt lat="43.95093" lon="1.81591">
        <ele>288.8</ele>
        <time>2021-10-24T12:09:29Z</time>
      </trkpt>
      <trkpt lat="43.95107" lon="1.81563">
        <ele>288.8</ele>
        <time>2021-10-24T12:09:36Z</time>
      </trkpt>
      <trkpt lat="43.95112" lon="1.81554">
        <ele>288.8</ele>
        <time>2021-10-24T12:09:38Z</time>
      </trkpt>
      <trkpt lat="43.95122" lon="1.81537">
        <ele>288.8</ele>
        <time>2021-10-24T12:09:43Z</time>
      </trkpt>
      <trkpt lat="43.95127" lon="1.81529">
        <ele>288.8</ele>
        <time>2021-10-24T12:09:44Z</time>
      </trkpt>
      <trkpt lat="43.95131" lon="1.81523">
        <ele>288.8</ele>
        <time>2021-10-24T12:09:45Z</time>
      </trkpt>
      <trkpt lat="43.95133" lon="1.81519">
        <ele>288.8</ele>
        <time>2021-10-24T12:09:46Z</time>
      </trkpt>
      <trkpt lat="43.95136" lon="1.81515">
        <ele>288.8</ele>
        <time>2021-10-24T12:09:47Z</time>
      </trkpt>
      <trkpt lat="43.95143" lon="1.81506">
        <ele>288.6</ele>
        <time>2021-10-24T12:09:50Z</time>
      </trkpt>
      <trkpt lat="43.95145" lon="1.81503">
        <ele>288.4</ele>
        <time>2021-10-24T12:09:51Z</time>
      </trkpt>
      <trkpt lat="43.95148" lon="1.81499">
        <ele>288.4</ele>
        <time>2021-10-24T12:09:52Z</time>
      </trkpt>
      <trkpt lat="43.95152" lon="1.81493">
        <ele>288.2</ele>
        <time>2021-10-24T12:09:54Z</time>
      </trkpt>
      <trkpt lat="43.95155" lon="1.81489">
        <ele>288.2</ele>
        <time>2021-10-24T12:09:55Z</time>
      </trkpt>
      <trkpt lat="43.95158" lon="1.81485">
        <ele>288.2</ele>
        <time>2021-10-24T12:09:56Z</time>
      </trkpt>
      <trkpt lat="43.95161" lon="1.81482">
        <ele>288.2</ele>
        <time>2021-10-24T12:09:57Z</time>
      </trkpt>
      <trkpt lat="43.95163" lon="1.81478">
        <ele>288.4</ele>
        <time>2021-10-24T12:09:58Z</time>
      </trkpt>
      <trkpt lat="43.95166" lon="1.81474">
        <ele>288.4</ele>
        <time>2021-10-24T12:09:59Z</time>
      </trkpt>
      <trkpt lat="43.95169" lon="1.8147">
        <ele>288.4</ele>
        <time>2021-10-24T12:10:00Z</time>
      </trkpt>
      <trkpt lat="43.95171" lon="1.81467">
        <ele>288.6</ele>
        <time>2021-10-24T12:10:01Z</time>
      </trkpt>
      <trkpt lat="43.95173" lon="1.81464">
        <ele>288.8</ele>
        <time>2021-10-24T12:10:02Z</time>
      </trkpt>
      <trkpt lat="43.95176" lon="1.81462">
        <ele>288.8</ele>
        <time>2021-10-24T12:10:03Z</time>
      </trkpt>
      <trkpt lat="43.9518" lon="1.81457">
        <ele>289</ele>
        <time>2021-10-24T12:10:05Z</time>
      </trkpt>
      <trkpt lat="43.95187" lon="1.8145">
        <ele>289.2</ele>
        <time>2021-10-24T12:10:08Z</time>
      </trkpt>
      <trkpt lat="43.95195" lon="1.81441">
        <ele>289.2</ele>
        <time>2021-10-24T12:10:11Z</time>
      </trkpt>
      <trkpt lat="43.952" lon="1.81435">
        <ele>289.4</ele>
        <time>2021-10-24T12:10:13Z</time>
      </trkpt>
      <trkpt lat="43.95203" lon="1.81431">
        <ele>289.4</ele>
        <time>2021-10-24T12:10:14Z</time>
      </trkpt>
      <trkpt lat="43.95213" lon="1.81418">
        <ele>289.4</ele>
        <time>2021-10-24T12:10:18Z</time>
      </trkpt>
      <trkpt lat="43.95216" lon="1.81414">
        <ele>289.4</ele>
        <time>2021-10-24T12:10:19Z</time>
      </trkpt>
      <trkpt lat="43.95218" lon="1.81409">
        <ele>289.4</ele>
        <time>2021-10-24T12:10:20Z</time>
      </trkpt>
      <trkpt lat="43.95221" lon="1.81405">
        <ele>289.4</ele>
        <time>2021-10-24T12:10:21Z</time>
      </trkpt>
      <trkpt lat="43.95223" lon="1.81401">
        <ele>289.4</ele>
        <time>2021-10-24T12:10:22Z</time>
      </trkpt>
      <trkpt lat="43.95242" lon="1.81364">
        <ele>288.8</ele>
        <time>2021-10-24T12:10:31Z</time>
      </trkpt>
      <trkpt lat="43.95245" lon="1.81361">
        <ele>288.8</ele>
        <time>2021-10-24T12:10:32Z</time>
      </trkpt>
      <trkpt lat="43.95248" lon="1.81357">
        <ele>288.8</ele>
        <time>2021-10-24T12:10:33Z</time>
      </trkpt>
      <trkpt lat="43.95251" lon="1.81355">
        <ele>288.8</ele>
        <time>2021-10-24T12:10:34Z</time>
      </trkpt>
      <trkpt lat="43.95254" lon="1.81353">
        <ele>288.8</ele>
        <time>2021-10-24T12:10:35Z</time>
      </trkpt>
      <trkpt lat="43.95256" lon="1.81351">
        <ele>288.6</ele>
        <time>2021-10-24T12:10:36Z</time>
      </trkpt>
      <trkpt lat="43.9526" lon="1.81348">
        <ele>288.6</ele>
        <time>2021-10-24T12:10:37Z</time>
      </trkpt>
      <trkpt lat="43.95266" lon="1.81344">
        <ele>288.8</ele>
        <time>2021-10-24T12:10:39Z</time>
      </trkpt>
      <trkpt lat="43.95269" lon="1.81342">
        <ele>288.8</ele>
        <time>2021-10-24T12:10:40Z</time>
      </trkpt>
      <trkpt lat="43.95271" lon="1.81339">
        <ele>288.8</ele>
        <time>2021-10-24T12:10:41Z</time>
      </trkpt>
      <trkpt lat="43.95273" lon="1.81335">
        <ele>288.8</ele>
        <time>2021-10-24T12:10:42Z</time>
      </trkpt>
      <trkpt lat="43.95275" lon="1.81332">
        <ele>288.8</ele>
        <time>2021-10-24T12:10:43Z</time>
      </trkpt>
      <trkpt lat="43.95276" lon="1.8133">
        <ele>288.8</ele>
        <time>2021-10-24T12:10:44Z</time>
      </trkpt>
      <trkpt lat="43.95276" lon="1.81328">
        <ele>289</ele>
        <time>2021-10-24T12:10:45Z</time>
      </trkpt>
      <trkpt lat="43.95277" lon="1.81326">
        <ele>289</ele>
        <time>2021-10-24T12:10:46Z</time>
      </trkpt>
      <trkpt lat="43.95279" lon="1.81318">
        <ele>289.4</ele>
        <time>2021-10-24T12:10:49Z</time>
      </trkpt>
      <trkpt lat="43.95288" lon="1.81296">
        <ele>289.6</ele>
        <time>2021-10-24T12:10:55Z</time>
      </trkpt>
      <trkpt lat="43.9529" lon="1.81293">
        <ele>289.6</ele>
        <time>2021-10-24T12:10:56Z</time>
      </trkpt>
      <trkpt lat="43.95297" lon="1.81277">
        <ele>289.8</ele>
        <time>2021-10-24T12:11:00Z</time>
      </trkpt>
      <trkpt lat="43.95298" lon="1.81271">
        <ele>289.8</ele>
        <time>2021-10-24T12:11:01Z</time>
      </trkpt>
      <trkpt lat="43.95296" lon="1.81267">
        <ele>289.8</ele>
        <time>2021-10-24T12:11:02Z</time>
      </trkpt>
      <trkpt lat="43.95294" lon="1.81264">
        <ele>289.8</ele>
        <time>2021-10-24T12:11:03Z</time>
      </trkpt>
      <trkpt lat="43.95291" lon="1.81262">
        <ele>289.8</ele>
        <time>2021-10-24T12:11:04Z</time>
      </trkpt>
      <trkpt lat="43.95289" lon="1.8126">
        <ele>290</ele>
        <time>2021-10-24T12:11:05Z</time>
      </trkpt>
      <trkpt lat="43.95286" lon="1.81257">
        <ele>290</ele>
        <time>2021-10-24T12:11:06Z</time>
      </trkpt>
      <trkpt lat="43.95283" lon="1.81255">
        <ele>290</ele>
        <time>2021-10-24T12:11:07Z</time>
      </trkpt>
      <trkpt lat="43.95281" lon="1.81254">
        <ele>290.2</ele>
        <time>2021-10-24T12:11:08Z</time>
      </trkpt>
      <trkpt lat="43.95272" lon="1.81249">
        <ele>290.4</ele>
        <time>2021-10-24T12:11:11Z</time>
      </trkpt>
      <trkpt lat="43.95245" lon="1.81238">
        <ele>290.6</ele>
        <time>2021-10-24T12:11:19Z</time>
      </trkpt>
      <trkpt lat="43.95233" lon="1.81235">
        <ele>290.6</ele>
        <time>2021-10-24T12:11:22Z</time>
      </trkpt>
      <trkpt lat="43.95233" lon="1.81235">
        <ele>290.6</ele>
        <time>2021-10-24T12:11:23Z</time>
      </trkpt>
      <trkpt lat="43.95219" lon="1.8123">
        <ele>290.4</ele>
        <time>2021-10-24T12:11:26Z</time>
      </trkpt>
      <trkpt lat="43.95206" lon="1.81225">
        <ele>290.4</ele>
        <time>2021-10-24T12:11:29Z</time>
      </trkpt>
      <trkpt lat="43.95198" lon="1.81219">
        <ele>290.2</ele>
        <time>2021-10-24T12:11:31Z</time>
      </trkpt>
      <trkpt lat="43.95194" lon="1.81215">
        <ele>290</ele>
        <time>2021-10-24T12:11:32Z</time>
      </trkpt>
      <trkpt lat="43.95191" lon="1.81211">
        <ele>289.8</ele>
        <time>2021-10-24T12:11:33Z</time>
      </trkpt>
      <trkpt lat="43.95189" lon="1.81207">
        <ele>289.4</ele>
        <time>2021-10-24T12:11:34Z</time>
      </trkpt>
      <trkpt lat="43.95186" lon="1.81203">
        <ele>289.2</ele>
        <time>2021-10-24T12:11:35Z</time>
      </trkpt>
      <trkpt lat="43.95183" lon="1.81199">
        <ele>289.2</ele>
        <time>2021-10-24T12:11:36Z</time>
      </trkpt>
      <trkpt lat="43.9518" lon="1.81195">
        <ele>289.2</ele>
        <time>2021-10-24T12:11:37Z</time>
      </trkpt>
      <trkpt lat="43.95177" lon="1.81192">
        <ele>289</ele>
        <time>2021-10-24T12:11:38Z</time>
      </trkpt>
      <trkpt lat="43.95175" lon="1.81188">
        <ele>289</ele>
        <time>2021-10-24T12:11:39Z</time>
      </trkpt>
      <trkpt lat="43.95173" lon="1.81185">
        <ele>289</ele>
        <time>2021-10-24T12:11:40Z</time>
      </trkpt>
      <trkpt lat="43.9517" lon="1.81175">
        <ele>289</ele>
        <time>2021-10-24T12:11:42Z</time>
      </trkpt>
      <trkpt lat="43.95171" lon="1.8117">
        <ele>289</ele>
        <time>2021-10-24T12:11:43Z</time>
      </trkpt>
      <trkpt lat="43.95172" lon="1.8116">
        <ele>289</ele>
        <time>2021-10-24T12:11:45Z</time>
      </trkpt>
      <trkpt lat="43.95173" lon="1.81155">
        <ele>289</ele>
        <time>2021-10-24T12:11:46Z</time>
      </trkpt>
      <trkpt lat="43.95173" lon="1.81144">
        <ele>289.2</ele>
        <time>2021-10-24T12:11:48Z</time>
      </trkpt>
      <trkpt lat="43.95171" lon="1.81132">
        <ele>288.8</ele>
        <time>2021-10-24T12:11:50Z</time>
      </trkpt>
      <trkpt lat="43.95169" lon="1.81126">
        <ele>289</ele>
        <time>2021-10-24T12:11:51Z</time>
      </trkpt>
      <trkpt lat="43.95169" lon="1.81121">
        <ele>289</ele>
        <time>2021-10-24T12:11:52Z</time>
      </trkpt>
      <trkpt lat="43.95168" lon="1.81116">
        <ele>289</ele>
        <time>2021-10-24T12:11:53Z</time>
      </trkpt>
      <trkpt lat="43.95167" lon="1.81112">
        <ele>289</ele>
        <time>2021-10-24T12:11:54Z</time>
      </trkpt>
      <trkpt lat="43.95165" lon="1.81103">
        <ele>289</ele>
        <time>2021-10-24T12:11:56Z</time>
      </trkpt>
      <trkpt lat="43.95162" lon="1.81089">
        <ele>289</ele>
        <time>2021-10-24T12:11:59Z</time>
      </trkpt>
      <trkpt lat="43.95161" lon="1.81083">
        <ele>289</ele>
        <time>2021-10-24T12:12:00Z</time>
      </trkpt>
      <trkpt lat="43.9516" lon="1.81078">
        <ele>289.2</ele>
        <time>2021-10-24T12:12:01Z</time>
      </trkpt>
      <trkpt lat="43.95159" lon="1.81072">
        <ele>289.2</ele>
        <time>2021-10-24T12:12:02Z</time>
      </trkpt>
      <trkpt lat="43.95157" lon="1.81066">
        <ele>289.4</ele>
        <time>2021-10-24T12:12:03Z</time>
      </trkpt>
      <trkpt lat="43.95156" lon="1.81061">
        <ele>289.4</ele>
        <time>2021-10-24T12:12:04Z</time>
      </trkpt>
      <trkpt lat="43.95155" lon="1.81056">
        <ele>289.6</ele>
        <time>2021-10-24T12:12:05Z</time>
      </trkpt>
      <trkpt lat="43.95154" lon="1.81051">
        <ele>289.6</ele>
        <time>2021-10-24T12:12:06Z</time>
      </trkpt>
      <trkpt lat="43.95153" lon="1.81047">
        <ele>289.8</ele>
        <time>2021-10-24T12:12:07Z</time>
      </trkpt>
      <trkpt lat="43.95151" lon="1.81037">
        <ele>289.8</ele>
        <time>2021-10-24T12:12:09Z</time>
      </trkpt>
      <trkpt lat="43.95151" lon="1.81032">
        <ele>289.8</ele>
        <time>2021-10-24T12:12:10Z</time>
      </trkpt>
      <trkpt lat="43.9515" lon="1.81028">
        <ele>289.8</ele>
        <time>2021-10-24T12:12:11Z</time>
      </trkpt>
      <trkpt lat="43.95148" lon="1.81024">
        <ele>290.2</ele>
        <time>2021-10-24T12:12:12Z</time>
      </trkpt>
      <trkpt lat="43.95147" lon="1.8102">
        <ele>290.2</ele>
        <time>2021-10-24T12:12:13Z</time>
      </trkpt>
      <trkpt lat="43.95146" lon="1.81016">
        <ele>290.4</ele>
        <time>2021-10-24T12:12:14Z</time>
      </trkpt>
      <trkpt lat="43.9514" lon="1.80994">
        <ele>291.2</ele>
        <time>2021-10-24T12:12:19Z</time>
      </trkpt>
      <trkpt lat="43.95139" lon="1.8099">
        <ele>291.2</ele>
        <time>2021-10-24T12:12:20Z</time>
      </trkpt>
      <trkpt lat="43.95138" lon="1.80985">
        <ele>291.6</ele>
        <time>2021-10-24T12:12:21Z</time>
      </trkpt>
      <trkpt lat="43.95137" lon="1.80976">
        <ele>291.4</ele>
        <time>2021-10-24T12:12:23Z</time>
      </trkpt>
      <trkpt lat="43.95136" lon="1.80972">
        <ele>291.6</ele>
        <time>2021-10-24T12:12:24Z</time>
      </trkpt>
      <trkpt lat="43.95135" lon="1.80968">
        <ele>291.6</ele>
        <time>2021-10-24T12:12:25Z</time>
      </trkpt>
      <trkpt lat="43.95135" lon="1.80965">
        <ele>291.8</ele>
        <time>2021-10-24T12:12:26Z</time>
      </trkpt>
      <trkpt lat="43.95135" lon="1.80961">
        <ele>291.8</ele>
        <time>2021-10-24T12:12:27Z</time>
      </trkpt>
      <trkpt lat="43.95134" lon="1.80958">
        <ele>291.8</ele>
        <time>2021-10-24T12:12:28Z</time>
      </trkpt>
      <trkpt lat="43.9513" lon="1.80941">
        <ele>291.4</ele>
        <time>2021-10-24T12:12:33Z</time>
      </trkpt>
      <trkpt lat="43.95126" lon="1.8092">
        <ele>291.4</ele>
        <time>2021-10-24T12:12:37Z</time>
      </trkpt>
      <trkpt lat="43.95124" lon="1.80915">
        <ele>291.4</ele>
        <time>2021-10-24T12:12:38Z</time>
      </trkpt>
      <trkpt lat="43.95123" lon="1.8091">
        <ele>291.4</ele>
        <time>2021-10-24T12:12:39Z</time>
      </trkpt>
      <trkpt lat="43.95123" lon="1.80907">
        <ele>291.2</ele>
        <time>2021-10-24T12:12:40Z</time>
      </trkpt>
      <trkpt lat="43.95122" lon="1.80902">
        <ele>291.2</ele>
        <time>2021-10-24T12:12:41Z</time>
      </trkpt>
      <trkpt lat="43.95118" lon="1.80888">
        <ele>291</ele>
        <time>2021-10-24T12:12:44Z</time>
      </trkpt>
      <trkpt lat="43.95115" lon="1.80883">
        <ele>291</ele>
        <time>2021-10-24T12:12:45Z</time>
      </trkpt>
      <trkpt lat="43.95104" lon="1.80857">
        <ele>290.4</ele>
        <time>2021-10-24T12:12:49Z</time>
      </trkpt>
      <trkpt lat="43.95101" lon="1.8085">
        <ele>290.2</ele>
        <time>2021-10-24T12:12:50Z</time>
      </trkpt>
      <trkpt lat="43.951" lon="1.80843">
        <ele>289.8</ele>
        <time>2021-10-24T12:12:51Z</time>
      </trkpt>
      <trkpt lat="43.951" lon="1.80836">
        <ele>289.6</ele>
        <time>2021-10-24T12:12:52Z</time>
      </trkpt>
      <trkpt lat="43.951" lon="1.80827">
        <ele>289.4</ele>
        <time>2021-10-24T12:12:53Z</time>
      </trkpt>
      <trkpt lat="43.95101" lon="1.8082">
        <ele>289.2</ele>
        <time>2021-10-24T12:12:54Z</time>
      </trkpt>
      <trkpt lat="43.95101" lon="1.80812">
        <ele>289</ele>
        <time>2021-10-24T12:12:55Z</time>
      </trkpt>
      <trkpt lat="43.951" lon="1.80806">
        <ele>288.6</ele>
        <time>2021-10-24T12:12:56Z</time>
      </trkpt>
      <trkpt lat="43.95101" lon="1.80801">
        <ele>288.6</ele>
        <time>2021-10-24T12:12:57Z</time>
      </trkpt>
      <trkpt lat="43.95101" lon="1.80792">
        <ele>288.4</ele>
        <time>2021-10-24T12:12:59Z</time>
      </trkpt>
      <trkpt lat="43.95102" lon="1.80772">
        <ele>288</ele>
        <time>2021-10-24T12:13:03Z</time>
      </trkpt>
      <trkpt lat="43.95101" lon="1.80762">
        <ele>288.2</ele>
        <time>2021-10-24T12:13:05Z</time>
      </trkpt>
      <trkpt lat="43.95102" lon="1.80756">
        <ele>288.2</ele>
        <time>2021-10-24T12:13:06Z</time>
      </trkpt>
      <trkpt lat="43.95101" lon="1.80746">
        <ele>288.4</ele>
        <time>2021-10-24T12:13:08Z</time>
      </trkpt>
      <trkpt lat="43.95099" lon="1.80723">
        <ele>289</ele>
        <time>2021-10-24T12:13:12Z</time>
      </trkpt>
      <trkpt lat="43.95097" lon="1.80711">
        <ele>289.2</ele>
        <time>2021-10-24T12:13:14Z</time>
      </trkpt>
      <trkpt lat="43.95096" lon="1.80706">
        <ele>289.4</ele>
        <time>2021-10-24T12:13:15Z</time>
      </trkpt>
      <trkpt lat="43.95096" lon="1.807">
        <ele>289.4</ele>
        <time>2021-10-24T12:13:16Z</time>
      </trkpt>
      <trkpt lat="43.95095" lon="1.80695">
        <ele>289.4</ele>
        <time>2021-10-24T12:13:17Z</time>
      </trkpt>
      <trkpt lat="43.95094" lon="1.8069">
        <ele>289.6</ele>
        <time>2021-10-24T12:13:18Z</time>
      </trkpt>
      <trkpt lat="43.95093" lon="1.80686">
        <ele>289.8</ele>
        <time>2021-10-24T12:13:19Z</time>
      </trkpt>
      <trkpt lat="43.95092" lon="1.80683">
        <ele>289.8</ele>
        <time>2021-10-24T12:13:20Z</time>
      </trkpt>
      <trkpt lat="43.95091" lon="1.8068">
        <ele>289.8</ele>
        <time>2021-10-24T12:13:21Z</time>
      </trkpt>
      <trkpt lat="43.9509" lon="1.80678">
        <ele>289.8</ele>
        <time>2021-10-24T12:13:22Z</time>
      </trkpt>
      <trkpt lat="43.95089" lon="1.80675">
        <ele>289.8</ele>
        <time>2021-10-24T12:13:23Z</time>
      </trkpt>
      <trkpt lat="43.95087" lon="1.80669">
        <ele>290</ele>
        <time>2021-10-24T12:13:25Z</time>
      </trkpt>
      <trkpt lat="43.95086" lon="1.80667">
        <ele>290</ele>
        <time>2021-10-24T12:13:26Z</time>
      </trkpt>
      <trkpt lat="43.95084" lon="1.80664">
        <ele>290.2</ele>
        <time>2021-10-24T12:13:27Z</time>
      </trkpt>
      <trkpt lat="43.95082" lon="1.80663">
        <ele>290.4</ele>
        <time>2021-10-24T12:13:28Z</time>
      </trkpt>
      <trkpt lat="43.95081" lon="1.80662">
        <ele>290.6</ele>
        <time>2021-10-24T12:13:29Z</time>
      </trkpt>
      <trkpt lat="43.95079" lon="1.80661">
        <ele>291</ele>
        <time>2021-10-24T12:13:30Z</time>
      </trkpt>
      <trkpt lat="43.95077" lon="1.8066">
        <ele>291.2</ele>
        <time>2021-10-24T12:13:31Z</time>
      </trkpt>
      <trkpt lat="43.95075" lon="1.80659">
        <ele>291.4</ele>
        <time>2021-10-24T12:13:32Z</time>
      </trkpt>
      <trkpt lat="43.95073" lon="1.80658">
        <ele>291.4</ele>
        <time>2021-10-24T12:13:33Z</time>
      </trkpt>
      <trkpt lat="43.9507" lon="1.80656">
        <ele>291.8</ele>
        <time>2021-10-24T12:13:35Z</time>
      </trkpt>
      <trkpt lat="43.95067" lon="1.80649">
        <ele>292</ele>
        <time>2021-10-24T12:13:36Z</time>
      </trkpt>
      <trkpt lat="43.95067" lon="1.80643">
        <ele>292.2</ele>
        <time>2021-10-24T12:13:37Z</time>
      </trkpt>
      <trkpt lat="43.95068" lon="1.80634">
        <ele>292.4</ele>
        <time>2021-10-24T12:13:39Z</time>
      </trkpt>
      <trkpt lat="43.95069" lon="1.8063">
        <ele>292.4</ele>
        <time>2021-10-24T12:13:40Z</time>
      </trkpt>
      <trkpt lat="43.9507" lon="1.80625">
        <ele>292.6</ele>
        <time>2021-10-24T12:13:41Z</time>
      </trkpt>
      <trkpt lat="43.95071" lon="1.8062">
        <ele>292.6</ele>
        <time>2021-10-24T12:13:42Z</time>
      </trkpt>
      <trkpt lat="43.95072" lon="1.80616">
        <ele>292.6</ele>
        <time>2021-10-24T12:13:43Z</time>
      </trkpt>
      <trkpt lat="43.95073" lon="1.80611">
        <ele>292.6</ele>
        <time>2021-10-24T12:13:44Z</time>
      </trkpt>
      <trkpt lat="43.95074" lon="1.80606">
        <ele>292.6</ele>
        <time>2021-10-24T12:13:45Z</time>
      </trkpt>
      <trkpt lat="43.95075" lon="1.80601">
        <ele>292.6</ele>
        <time>2021-10-24T12:13:46Z</time>
      </trkpt>
      <trkpt lat="43.95076" lon="1.80596">
        <ele>292.6</ele>
        <time>2021-10-24T12:13:47Z</time>
      </trkpt>
      <trkpt lat="43.95077" lon="1.80591">
        <ele>292.6</ele>
        <time>2021-10-24T12:13:48Z</time>
      </trkpt>
      <trkpt lat="43.95078" lon="1.80586">
        <ele>292.6</ele>
        <time>2021-10-24T12:13:49Z</time>
      </trkpt>
      <trkpt lat="43.95079" lon="1.80582">
        <ele>292.6</ele>
        <time>2021-10-24T12:13:50Z</time>
      </trkpt>
      <trkpt lat="43.95081" lon="1.80572">
        <ele>292.6</ele>
        <time>2021-10-24T12:13:52Z</time>
      </trkpt>
      <trkpt lat="43.95083" lon="1.80566">
        <ele>292.6</ele>
        <time>2021-10-24T12:13:53Z</time>
      </trkpt>
      <trkpt lat="43.95088" lon="1.80546">
        <ele>292.8</ele>
        <time>2021-10-24T12:13:57Z</time>
      </trkpt>
      <trkpt lat="43.95093" lon="1.8052">
        <ele>293.2</ele>
        <time>2021-10-24T12:14:02Z</time>
      </trkpt>
      <trkpt lat="43.95096" lon="1.80509">
        <ele>293.4</ele>
        <time>2021-10-24T12:14:04Z</time>
      </trkpt>
      <trkpt lat="43.95107" lon="1.80461">
        <ele>293.4</ele>
        <time>2021-10-24T12:14:12Z</time>
      </trkpt>
      <trkpt lat="43.95117" lon="1.80414">
        <ele>292.6</ele>
        <time>2021-10-24T12:14:19Z</time>
      </trkpt>
      <trkpt lat="43.95121" lon="1.80385">
        <ele>292</ele>
        <time>2021-10-24T12:14:23Z</time>
      </trkpt>
      <trkpt lat="43.95122" lon="1.80378">
        <ele>292</ele>
        <time>2021-10-24T12:14:24Z</time>
      </trkpt>
      <trkpt lat="43.95123" lon="1.80371">
        <ele>291.8</ele>
        <time>2021-10-24T12:14:25Z</time>
      </trkpt>
      <trkpt lat="43.95123" lon="1.80364">
        <ele>291.8</ele>
        <time>2021-10-24T12:14:26Z</time>
      </trkpt>
      <trkpt lat="43.95124" lon="1.80357">
        <ele>291.6</ele>
        <time>2021-10-24T12:14:27Z</time>
      </trkpt>
      <trkpt lat="43.95125" lon="1.8035">
        <ele>291.6</ele>
        <time>2021-10-24T12:14:28Z</time>
      </trkpt>
      <trkpt lat="43.95126" lon="1.80337">
        <ele>291.2</ele>
        <time>2021-10-24T12:14:30Z</time>
      </trkpt>
      <trkpt lat="43.95127" lon="1.80331">
        <ele>291.2</ele>
        <time>2021-10-24T12:14:31Z</time>
      </trkpt>
      <trkpt lat="43.95127" lon="1.80326">
        <ele>291.2</ele>
        <time>2021-10-24T12:14:32Z</time>
      </trkpt>
      <trkpt lat="43.95128" lon="1.80318">
        <ele>291.2</ele>
        <time>2021-10-24T12:14:33Z</time>
      </trkpt>
      <trkpt lat="43.95128" lon="1.80312">
        <ele>291</ele>
        <time>2021-10-24T12:14:34Z</time>
      </trkpt>
      <trkpt lat="43.95128" lon="1.80306">
        <ele>291</ele>
        <time>2021-10-24T12:14:35Z</time>
      </trkpt>
      <trkpt lat="43.95128" lon="1.80299">
        <ele>291</ele>
        <time>2021-10-24T12:14:36Z</time>
      </trkpt>
      <trkpt lat="43.95128" lon="1.80293">
        <ele>290.8</ele>
        <time>2021-10-24T12:14:37Z</time>
      </trkpt>
      <trkpt lat="43.95127" lon="1.80287">
        <ele>290.8</ele>
        <time>2021-10-24T12:14:38Z</time>
      </trkpt>
      <trkpt lat="43.95127" lon="1.80281">
        <ele>290.8</ele>
        <time>2021-10-24T12:14:39Z</time>
      </trkpt>
      <trkpt lat="43.95126" lon="1.80263">
        <ele>290.8</ele>
        <time>2021-10-24T12:14:42Z</time>
      </trkpt>
      <trkpt lat="43.95124" lon="1.8025">
        <ele>290.6</ele>
        <time>2021-10-24T12:14:44Z</time>
      </trkpt>
      <trkpt lat="43.95123" lon="1.80243">
        <ele>290.4</ele>
        <time>2021-10-24T12:14:45Z</time>
      </trkpt>
      <trkpt lat="43.95123" lon="1.80236">
        <ele>290.4</ele>
        <time>2021-10-24T12:14:46Z</time>
      </trkpt>
      <trkpt lat="43.95124" lon="1.80229">
        <ele>290.4</ele>
        <time>2021-10-24T12:14:47Z</time>
      </trkpt>
      <trkpt lat="43.95126" lon="1.80223">
        <ele>290.2</ele>
        <time>2021-10-24T12:14:48Z</time>
      </trkpt>
      <trkpt lat="43.95127" lon="1.80217">
        <ele>290.2</ele>
        <time>2021-10-24T12:14:49Z</time>
      </trkpt>
      <trkpt lat="43.95129" lon="1.80211">
        <ele>290.2</ele>
        <time>2021-10-24T12:14:50Z</time>
      </trkpt>
      <trkpt lat="43.95131" lon="1.80205">
        <ele>290</ele>
        <time>2021-10-24T12:14:51Z</time>
      </trkpt>
      <trkpt lat="43.95135" lon="1.80188">
        <ele>289.8</ele>
        <time>2021-10-24T12:14:54Z</time>
      </trkpt>
      <trkpt lat="43.95137" lon="1.80183">
        <ele>289.8</ele>
        <time>2021-10-24T12:14:55Z</time>
      </trkpt>
      <trkpt lat="43.9514" lon="1.80171">
        <ele>289.6</ele>
        <time>2021-10-24T12:14:57Z</time>
      </trkpt>
      <trkpt lat="43.95141" lon="1.80159">
        <ele>289.4</ele>
        <time>2021-10-24T12:14:59Z</time>
      </trkpt>
      <trkpt lat="43.95141" lon="1.80146">
        <ele>289.4</ele>
        <time>2021-10-24T12:15:01Z</time>
      </trkpt>
      <trkpt lat="43.95139" lon="1.80125">
        <ele>289.4</ele>
        <time>2021-10-24T12:15:04Z</time>
      </trkpt>
      <trkpt lat="43.95139" lon="1.80118">
        <ele>289.4</ele>
        <time>2021-10-24T12:15:05Z</time>
      </trkpt>
      <trkpt lat="43.95138" lon="1.80112">
        <ele>289.4</ele>
        <time>2021-10-24T12:15:06Z</time>
      </trkpt>
      <trkpt lat="43.95138" lon="1.80105">
        <ele>289.4</ele>
        <time>2021-10-24T12:15:07Z</time>
      </trkpt>
      <trkpt lat="43.95137" lon="1.80099">
        <ele>289.4</ele>
        <time>2021-10-24T12:15:08Z</time>
      </trkpt>
      <trkpt lat="43.95137" lon="1.80092">
        <ele>289.4</ele>
        <time>2021-10-24T12:15:09Z</time>
      </trkpt>
      <trkpt lat="43.95136" lon="1.8008">
        <ele>289.6</ele>
        <time>2021-10-24T12:15:11Z</time>
      </trkpt>
      <trkpt lat="43.95136" lon="1.80073">
        <ele>289.6</ele>
        <time>2021-10-24T12:15:12Z</time>
      </trkpt>
      <trkpt lat="43.95135" lon="1.80061">
        <ele>289.6</ele>
        <time>2021-10-24T12:15:14Z</time>
      </trkpt>
      <trkpt lat="43.95133" lon="1.80049">
        <ele>289.8</ele>
        <time>2021-10-24T12:15:16Z</time>
      </trkpt>
      <trkpt lat="43.95131" lon="1.80036">
        <ele>289.8</ele>
        <time>2021-10-24T12:15:18Z</time>
      </trkpt>
      <trkpt lat="43.9513" lon="1.80031">
        <ele>290</ele>
        <time>2021-10-24T12:15:19Z</time>
      </trkpt>
      <trkpt lat="43.95127" lon="1.80019">
        <ele>290</ele>
        <time>2021-10-24T12:15:21Z</time>
      </trkpt>
      <trkpt lat="43.95125" lon="1.80008">
        <ele>290.2</ele>
        <time>2021-10-24T12:15:23Z</time>
      </trkpt>
      <trkpt lat="43.95124" lon="1.80002">
        <ele>290.2</ele>
        <time>2021-10-24T12:15:24Z</time>
      </trkpt>
      <trkpt lat="43.95119" lon="1.79974">
        <ele>290.2</ele>
        <time>2021-10-24T12:15:29Z</time>
      </trkpt>
      <trkpt lat="43.95118" lon="1.79968">
        <ele>290.2</ele>
        <time>2021-10-24T12:15:30Z</time>
      </trkpt>
      <trkpt lat="43.95118" lon="1.79962">
        <ele>290.2</ele>
        <time>2021-10-24T12:15:31Z</time>
      </trkpt>
      <trkpt lat="43.95117" lon="1.79956">
        <ele>290.2</ele>
        <time>2021-10-24T12:15:32Z</time>
      </trkpt>
      <trkpt lat="43.95117" lon="1.79951">
        <ele>290.4</ele>
        <time>2021-10-24T12:15:33Z</time>
      </trkpt>
      <trkpt lat="43.95116" lon="1.79946">
        <ele>290.4</ele>
        <time>2021-10-24T12:15:34Z</time>
      </trkpt>
      <trkpt lat="43.95115" lon="1.7994">
        <ele>290.4</ele>
        <time>2021-10-24T12:15:35Z</time>
      </trkpt>
      <trkpt lat="43.95113" lon="1.7993">
        <ele>290.6</ele>
        <time>2021-10-24T12:15:37Z</time>
      </trkpt>
      <trkpt lat="43.95112" lon="1.79924">
        <ele>290.6</ele>
        <time>2021-10-24T12:15:38Z</time>
      </trkpt>
      <trkpt lat="43.95111" lon="1.79907">
        <ele>290.8</ele>
        <time>2021-10-24T12:15:41Z</time>
      </trkpt>
      <trkpt lat="43.9511" lon="1.79902">
        <ele>290.8</ele>
        <time>2021-10-24T12:15:42Z</time>
      </trkpt>
      <trkpt lat="43.95109" lon="1.79897">
        <ele>291</ele>
        <time>2021-10-24T12:15:43Z</time>
      </trkpt>
      <trkpt lat="43.95108" lon="1.79892">
        <ele>291</ele>
        <time>2021-10-24T12:15:44Z</time>
      </trkpt>
      <trkpt lat="43.95108" lon="1.79887">
        <ele>291</ele>
        <time>2021-10-24T12:15:45Z</time>
      </trkpt>
      <trkpt lat="43.95107" lon="1.79883">
        <ele>291.2</ele>
        <time>2021-10-24T12:15:46Z</time>
      </trkpt>
      <trkpt lat="43.95107" lon="1.79878">
        <ele>291.2</ele>
        <time>2021-10-24T12:15:47Z</time>
      </trkpt>
      <trkpt lat="43.95106" lon="1.7987">
        <ele>291.2</ele>
        <time>2021-10-24T12:15:49Z</time>
      </trkpt>
      <trkpt lat="43.95103" lon="1.79843">
        <ele>291.4</ele>
        <time>2021-10-24T12:15:54Z</time>
      </trkpt>
      <trkpt lat="43.95103" lon="1.79836">
        <ele>291.4</ele>
        <time>2021-10-24T12:15:55Z</time>
      </trkpt>
      <trkpt lat="43.95102" lon="1.79829">
        <ele>291.4</ele>
        <time>2021-10-24T12:15:56Z</time>
      </trkpt>
      <trkpt lat="43.95102" lon="1.79821">
        <ele>291.4</ele>
        <time>2021-10-24T12:15:57Z</time>
      </trkpt>
      <trkpt lat="43.95102" lon="1.79813">
        <ele>291.4</ele>
        <time>2021-10-24T12:15:58Z</time>
      </trkpt>
      <trkpt lat="43.95101" lon="1.79806">
        <ele>291.4</ele>
        <time>2021-10-24T12:15:59Z</time>
      </trkpt>
      <trkpt lat="43.951" lon="1.79799">
        <ele>291.4</ele>
        <time>2021-10-24T12:16:00Z</time>
      </trkpt>
      <trkpt lat="43.95097" lon="1.79779">
        <ele>291.4</ele>
        <time>2021-10-24T12:16:03Z</time>
      </trkpt>
      <trkpt lat="43.95094" lon="1.79752">
        <ele>291.8</ele>
        <time>2021-10-24T12:16:07Z</time>
      </trkpt>
      <trkpt lat="43.95093" lon="1.79745">
        <ele>291.8</ele>
        <time>2021-10-24T12:16:08Z</time>
      </trkpt>
      <trkpt lat="43.95091" lon="1.79732">
        <ele>291.6</ele>
        <time>2021-10-24T12:16:10Z</time>
      </trkpt>
      <trkpt lat="43.95089" lon="1.79726">
        <ele>291.6</ele>
        <time>2021-10-24T12:16:11Z</time>
      </trkpt>
      <trkpt lat="43.95088" lon="1.79719">
        <ele>291.4</ele>
        <time>2021-10-24T12:16:12Z</time>
      </trkpt>
      <trkpt lat="43.95087" lon="1.79714">
        <ele>291.2</ele>
        <time>2021-10-24T12:16:13Z</time>
      </trkpt>
      <trkpt lat="43.95084" lon="1.79697">
        <ele>290.8</ele>
        <time>2021-10-24T12:16:16Z</time>
      </trkpt>
      <trkpt lat="43.9508" lon="1.79672">
        <ele>290</ele>
        <time>2021-10-24T12:16:20Z</time>
      </trkpt>
      <trkpt lat="43.95079" lon="1.79665">
        <ele>289.8</ele>
        <time>2021-10-24T12:16:21Z</time>
      </trkpt>
      <trkpt lat="43.95078" lon="1.79659">
        <ele>289.6</ele>
        <time>2021-10-24T12:16:22Z</time>
      </trkpt>
      <trkpt lat="43.95074" lon="1.79633">
        <ele>289.2</ele>
        <time>2021-10-24T12:16:26Z</time>
      </trkpt>
      <trkpt lat="43.95073" lon="1.79627">
        <ele>289</ele>
        <time>2021-10-24T12:16:27Z</time>
      </trkpt>
      <trkpt lat="43.95071" lon="1.79621">
        <ele>288.8</ele>
        <time>2021-10-24T12:16:28Z</time>
      </trkpt>
      <trkpt lat="43.9507" lon="1.79615">
        <ele>288.4</ele>
        <time>2021-10-24T12:16:29Z</time>
      </trkpt>
      <trkpt lat="43.95068" lon="1.79604">
        <ele>287.8</ele>
        <time>2021-10-24T12:16:31Z</time>
      </trkpt>
      <trkpt lat="43.95066" lon="1.79593">
        <ele>287.4</ele>
        <time>2021-10-24T12:16:33Z</time>
      </trkpt>
      <trkpt lat="43.95064" lon="1.79587">
        <ele>287.2</ele>
        <time>2021-10-24T12:16:34Z</time>
      </trkpt>
      <trkpt lat="43.95063" lon="1.79581">
        <ele>286.8</ele>
        <time>2021-10-24T12:16:35Z</time>
      </trkpt>
      <trkpt lat="43.95062" lon="1.79576">
        <ele>286.6</ele>
        <time>2021-10-24T12:16:36Z</time>
      </trkpt>
      <trkpt lat="43.95061" lon="1.7957">
        <ele>286.4</ele>
        <time>2021-10-24T12:16:37Z</time>
      </trkpt>
      <trkpt lat="43.95059" lon="1.79565">
        <ele>286.4</ele>
        <time>2021-10-24T12:16:38Z</time>
      </trkpt>
      <trkpt lat="43.95056" lon="1.79554">
        <ele>286.2</ele>
        <time>2021-10-24T12:16:40Z</time>
      </trkpt>
      <trkpt lat="43.95052" lon="1.79538">
        <ele>286.2</ele>
        <time>2021-10-24T12:16:43Z</time>
      </trkpt>
      <trkpt lat="43.95048" lon="1.79525">
        <ele>286</ele>
        <time>2021-10-24T12:16:45Z</time>
      </trkpt>
      <trkpt lat="43.95042" lon="1.79495">
        <ele>286</ele>
        <time>2021-10-24T12:16:49Z</time>
      </trkpt>
      <trkpt lat="43.95041" lon="1.79487">
        <ele>286</ele>
        <time>2021-10-24T12:16:50Z</time>
      </trkpt>
      <trkpt lat="43.9504" lon="1.7948">
        <ele>286</ele>
        <time>2021-10-24T12:16:51Z</time>
      </trkpt>
      <trkpt lat="43.95038" lon="1.79473">
        <ele>286</ele>
        <time>2021-10-24T12:16:52Z</time>
      </trkpt>
      <trkpt lat="43.95037" lon="1.79467">
        <ele>286</ele>
        <time>2021-10-24T12:16:53Z</time>
      </trkpt>
      <trkpt lat="43.95036" lon="1.79461">
        <ele>286</ele>
        <time>2021-10-24T12:16:54Z</time>
      </trkpt>
      <trkpt lat="43.95035" lon="1.79455">
        <ele>286</ele>
        <time>2021-10-24T12:16:55Z</time>
      </trkpt>
      <trkpt lat="43.95032" lon="1.79443">
        <ele>286</ele>
        <time>2021-10-24T12:16:57Z</time>
      </trkpt>
      <trkpt lat="43.95031" lon="1.79437">
        <ele>286</ele>
        <time>2021-10-24T12:16:58Z</time>
      </trkpt>
      <trkpt lat="43.9503" lon="1.79432">
        <ele>286</ele>
        <time>2021-10-24T12:16:59Z</time>
      </trkpt>
      <trkpt lat="43.95029" lon="1.79427">
        <ele>286</ele>
        <time>2021-10-24T12:17:00Z</time>
      </trkpt>
      <trkpt lat="43.95029" lon="1.79422">
        <ele>286.4</ele>
        <time>2021-10-24T12:17:01Z</time>
      </trkpt>
      <trkpt lat="43.95028" lon="1.79418">
        <ele>286.4</ele>
        <time>2021-10-24T12:17:02Z</time>
      </trkpt>
      <trkpt lat="43.95027" lon="1.79414">
        <ele>286.4</ele>
        <time>2021-10-24T12:17:03Z</time>
      </trkpt>
      <trkpt lat="43.95026" lon="1.7941">
        <ele>286.4</ele>
        <time>2021-10-24T12:17:04Z</time>
      </trkpt>
      <trkpt lat="43.95026" lon="1.79406">
        <ele>286.6</ele>
        <time>2021-10-24T12:17:05Z</time>
      </trkpt>
      <trkpt lat="43.95027" lon="1.79403">
        <ele>286.6</ele>
        <time>2021-10-24T12:17:06Z</time>
      </trkpt>
      <trkpt lat="43.95028" lon="1.79399">
        <ele>286.8</ele>
        <time>2021-10-24T12:17:07Z</time>
      </trkpt>
      <trkpt lat="43.95029" lon="1.79396">
        <ele>286.8</ele>
        <time>2021-10-24T12:17:08Z</time>
      </trkpt>
      <trkpt lat="43.95031" lon="1.79392">
        <ele>286.8</ele>
        <time>2021-10-24T12:17:09Z</time>
      </trkpt>
      <trkpt lat="43.95038" lon="1.79376">
        <ele>286.6</ele>
        <time>2021-10-24T12:17:13Z</time>
      </trkpt>
      <trkpt lat="43.9504" lon="1.79372">
        <ele>286.6</ele>
        <time>2021-10-24T12:17:14Z</time>
      </trkpt>
      <trkpt lat="43.95048" lon="1.79347">
        <ele>286</ele>
        <time>2021-10-24T12:17:19Z</time>
      </trkpt>
      <trkpt lat="43.9505" lon="1.79342">
        <ele>286</ele>
        <time>2021-10-24T12:17:20Z</time>
      </trkpt>
      <trkpt lat="43.95059" lon="1.79305">
        <ele>285.2</ele>
        <time>2021-10-24T12:17:27Z</time>
      </trkpt>
      <trkpt lat="43.95062" lon="1.79295">
        <ele>285.2</ele>
        <time>2021-10-24T12:17:29Z</time>
      </trkpt>
      <trkpt lat="43.95078" lon="1.79252">
        <ele>284.6</ele>
        <time>2021-10-24T12:17:37Z</time>
      </trkpt>
      <trkpt lat="43.95082" lon="1.79242">
        <ele>284.6</ele>
        <time>2021-10-24T12:17:39Z</time>
      </trkpt>
      <trkpt lat="43.95094" lon="1.79216">
        <ele>284.4</ele>
        <time>2021-10-24T12:17:44Z</time>
      </trkpt>
      <trkpt lat="43.95099" lon="1.79205">
        <ele>284.2</ele>
        <time>2021-10-24T12:17:46Z</time>
      </trkpt>
      <trkpt lat="43.9511" lon="1.79178">
        <ele>283.6</ele>
        <time>2021-10-24T12:17:51Z</time>
      </trkpt>
      <trkpt lat="43.95117" lon="1.79161">
        <ele>283.6</ele>
        <time>2021-10-24T12:17:54Z</time>
      </trkpt>
      <trkpt lat="43.95122" lon="1.7915">
        <ele>283.4</ele>
        <time>2021-10-24T12:17:56Z</time>
      </trkpt>
      <trkpt lat="43.95138" lon="1.79111">
        <ele>283.6</ele>
        <time>2021-10-24T12:18:03Z</time>
      </trkpt>
      <trkpt lat="43.95141" lon="1.79105">
        <ele>283.6</ele>
        <time>2021-10-24T12:18:04Z</time>
      </trkpt>
      <trkpt lat="43.95143" lon="1.79099">
        <ele>283.6</ele>
        <time>2021-10-24T12:18:05Z</time>
      </trkpt>
      <trkpt lat="43.95145" lon="1.79093">
        <ele>283.6</ele>
        <time>2021-10-24T12:18:06Z</time>
      </trkpt>
      <trkpt lat="43.95147" lon="1.79088">
        <ele>283.6</ele>
        <time>2021-10-24T12:18:07Z</time>
      </trkpt>
      <trkpt lat="43.9515" lon="1.79083">
        <ele>283.8</ele>
        <time>2021-10-24T12:18:08Z</time>
      </trkpt>
      <trkpt lat="43.95152" lon="1.79078">
        <ele>283.8</ele>
        <time>2021-10-24T12:18:09Z</time>
      </trkpt>
      <trkpt lat="43.95161" lon="1.79058">
        <ele>284.2</ele>
        <time>2021-10-24T12:18:13Z</time>
      </trkpt>
      <trkpt lat="43.95176" lon="1.79027">
        <ele>284.4</ele>
        <time>2021-10-24T12:18:19Z</time>
      </trkpt>
      <trkpt lat="43.95179" lon="1.79022">
        <ele>284.4</ele>
        <time>2021-10-24T12:18:20Z</time>
      </trkpt>
      <trkpt lat="43.95183" lon="1.79011">
        <ele>284.6</ele>
        <time>2021-10-24T12:18:22Z</time>
      </trkpt>
      <trkpt lat="43.95186" lon="1.79006">
        <ele>284.6</ele>
        <time>2021-10-24T12:18:23Z</time>
      </trkpt>
      <trkpt lat="43.95191" lon="1.78995">
        <ele>284.8</ele>
        <time>2021-10-24T12:18:25Z</time>
      </trkpt>
      <trkpt lat="43.95193" lon="1.7899">
        <ele>285</ele>
        <time>2021-10-24T12:18:26Z</time>
      </trkpt>
      <trkpt lat="43.95195" lon="1.78986">
        <ele>285</ele>
        <time>2021-10-24T12:18:27Z</time>
      </trkpt>
      <trkpt lat="43.95198" lon="1.78981">
        <ele>285</ele>
        <time>2021-10-24T12:18:28Z</time>
      </trkpt>
      <trkpt lat="43.95202" lon="1.78972">
        <ele>285</ele>
        <time>2021-10-24T12:18:30Z</time>
      </trkpt>
      <trkpt lat="43.95224" lon="1.78926">
        <ele>284.2</ele>
        <time>2021-10-24T12:18:38Z</time>
      </trkpt>
      <trkpt lat="43.95227" lon="1.7892">
        <ele>284.2</ele>
        <time>2021-10-24T12:18:39Z</time>
      </trkpt>
      <trkpt lat="43.95229" lon="1.78914">
        <ele>284.2</ele>
        <time>2021-10-24T12:18:40Z</time>
      </trkpt>
      <trkpt lat="43.95232" lon="1.78908">
        <ele>284</ele>
        <time>2021-10-24T12:18:41Z</time>
      </trkpt>
      <trkpt lat="43.95235" lon="1.78902">
        <ele>284</ele>
        <time>2021-10-24T12:18:42Z</time>
      </trkpt>
      <trkpt lat="43.95243" lon="1.78885">
        <ele>284</ele>
        <time>2021-10-24T12:18:45Z</time>
      </trkpt>
      <trkpt lat="43.95249" lon="1.78873">
        <ele>284</ele>
        <time>2021-10-24T12:18:47Z</time>
      </trkpt>
      <trkpt lat="43.95258" lon="1.78856">
        <ele>283.8</ele>
        <time>2021-10-24T12:18:50Z</time>
      </trkpt>
      <trkpt lat="43.95261" lon="1.78851">
        <ele>283.8</ele>
        <time>2021-10-24T12:18:51Z</time>
      </trkpt>
      <trkpt lat="43.95263" lon="1.78845">
        <ele>283.8</ele>
        <time>2021-10-24T12:18:52Z</time>
      </trkpt>
      <trkpt lat="43.95269" lon="1.78834">
        <ele>283.8</ele>
        <time>2021-10-24T12:18:54Z</time>
      </trkpt>
      <trkpt lat="43.95271" lon="1.78828">
        <ele>283.8</ele>
        <time>2021-10-24T12:18:55Z</time>
      </trkpt>
      <trkpt lat="43.95274" lon="1.78822">
        <ele>283.8</ele>
        <time>2021-10-24T12:18:56Z</time>
      </trkpt>
      <trkpt lat="43.95276" lon="1.78817">
        <ele>283.8</ele>
        <time>2021-10-24T12:18:57Z</time>
      </trkpt>
      <trkpt lat="43.95279" lon="1.78811">
        <ele>283.8</ele>
        <time>2021-10-24T12:18:58Z</time>
      </trkpt>
      <trkpt lat="43.95284" lon="1.78801">
        <ele>283.6</ele>
        <time>2021-10-24T12:19:00Z</time>
      </trkpt>
      <trkpt lat="43.95287" lon="1.78795">
        <ele>283.6</ele>
        <time>2021-10-24T12:19:01Z</time>
      </trkpt>
      <trkpt lat="43.95289" lon="1.7879">
        <ele>283.6</ele>
        <time>2021-10-24T12:19:02Z</time>
      </trkpt>
      <trkpt lat="43.95292" lon="1.78785">
        <ele>283.6</ele>
        <time>2021-10-24T12:19:03Z</time>
      </trkpt>
      <trkpt lat="43.95297" lon="1.78775">
        <ele>283.4</ele>
        <time>2021-10-24T12:19:05Z</time>
      </trkpt>
      <trkpt lat="43.953" lon="1.7877">
        <ele>283.4</ele>
        <time>2021-10-24T12:19:06Z</time>
      </trkpt>
      <trkpt lat="43.95302" lon="1.78765">
        <ele>283.4</ele>
        <time>2021-10-24T12:19:07Z</time>
      </trkpt>
      <trkpt lat="43.95307" lon="1.78754">
        <ele>283.4</ele>
        <time>2021-10-24T12:19:09Z</time>
      </trkpt>
      <trkpt lat="43.95313" lon="1.78744">
        <ele>283.4</ele>
        <time>2021-10-24T12:19:11Z</time>
      </trkpt>
      <trkpt lat="43.95316" lon="1.78739">
        <ele>283.4</ele>
        <time>2021-10-24T12:19:12Z</time>
      </trkpt>
      <trkpt lat="43.95318" lon="1.78734">
        <ele>283.4</ele>
        <time>2021-10-24T12:19:13Z</time>
      </trkpt>
      <trkpt lat="43.95321" lon="1.78729">
        <ele>283.4</ele>
        <time>2021-10-24T12:19:14Z</time>
      </trkpt>
      <trkpt lat="43.95323" lon="1.78724">
        <ele>283.4</ele>
        <time>2021-10-24T12:19:15Z</time>
      </trkpt>
      <trkpt lat="43.95325" lon="1.78719">
        <ele>283.6</ele>
        <time>2021-10-24T12:19:16Z</time>
      </trkpt>
      <trkpt lat="43.95335" lon="1.787">
        <ele>283.8</ele>
        <time>2021-10-24T12:19:20Z</time>
      </trkpt>
      <trkpt lat="43.95338" lon="1.78696">
        <ele>283.8</ele>
        <time>2021-10-24T12:19:21Z</time>
      </trkpt>
      <trkpt lat="43.95343" lon="1.78686">
        <ele>284.4</ele>
        <time>2021-10-24T12:19:23Z</time>
      </trkpt>
      <trkpt lat="43.95345" lon="1.78681">
        <ele>284.4</ele>
        <time>2021-10-24T12:19:24Z</time>
      </trkpt>
      <trkpt lat="43.95346" lon="1.78675">
        <ele>284.6</ele>
        <time>2021-10-24T12:19:25Z</time>
      </trkpt>
      <trkpt lat="43.95348" lon="1.7867">
        <ele>284.6</ele>
        <time>2021-10-24T12:19:26Z</time>
      </trkpt>
      <trkpt lat="43.95351" lon="1.78659">
        <ele>284.8</ele>
        <time>2021-10-24T12:19:28Z</time>
      </trkpt>
      <trkpt lat="43.95352" lon="1.78653">
        <ele>285</ele>
        <time>2021-10-24T12:19:29Z</time>
      </trkpt>
      <trkpt lat="43.95353" lon="1.78648">
        <ele>285</ele>
        <time>2021-10-24T12:19:30Z</time>
      </trkpt>
      <trkpt lat="43.95354" lon="1.78643">
        <ele>285.2</ele>
        <time>2021-10-24T12:19:31Z</time>
      </trkpt>
      <trkpt lat="43.95354" lon="1.78638">
        <ele>285.2</ele>
        <time>2021-10-24T12:19:32Z</time>
      </trkpt>
      <trkpt lat="43.95356" lon="1.78627">
        <ele>285.6</ele>
        <time>2021-10-24T12:19:34Z</time>
      </trkpt>
      <trkpt lat="43.95357" lon="1.78622">
        <ele>285.6</ele>
        <time>2021-10-24T12:19:35Z</time>
      </trkpt>
      <trkpt lat="43.9536" lon="1.78606">
        <ele>286</ele>
        <time>2021-10-24T12:19:38Z</time>
      </trkpt>
      <trkpt lat="43.95361" lon="1.78601">
        <ele>286</ele>
        <time>2021-10-24T12:19:39Z</time>
      </trkpt>
      <trkpt lat="43.95363" lon="1.78591">
        <ele>286.4</ele>
        <time>2021-10-24T12:19:41Z</time>
      </trkpt>
      <trkpt lat="43.95363" lon="1.78576">
        <ele>286.8</ele>
        <time>2021-10-24T12:19:44Z</time>
      </trkpt>
      <trkpt lat="43.95363" lon="1.78565">
        <ele>287.2</ele>
        <time>2021-10-24T12:19:46Z</time>
      </trkpt>
      <trkpt lat="43.95364" lon="1.7856">
        <ele>287.2</ele>
        <time>2021-10-24T12:19:47Z</time>
      </trkpt>
      <trkpt lat="43.95364" lon="1.78555">
        <ele>287.2</ele>
        <time>2021-10-24T12:19:48Z</time>
      </trkpt>
      <trkpt lat="43.95364" lon="1.78549">
        <ele>287.2</ele>
        <time>2021-10-24T12:19:49Z</time>
      </trkpt>
      <trkpt lat="43.95364" lon="1.78544">
        <ele>287.6</ele>
        <time>2021-10-24T12:19:50Z</time>
      </trkpt>
      <trkpt lat="43.95364" lon="1.7854">
        <ele>287.6</ele>
        <time>2021-10-24T12:19:51Z</time>
      </trkpt>
      <trkpt lat="43.95364" lon="1.78535">
        <ele>287.6</ele>
        <time>2021-10-24T12:19:52Z</time>
      </trkpt>
      <trkpt lat="43.95364" lon="1.7853">
        <ele>287.8</ele>
        <time>2021-10-24T12:19:53Z</time>
      </trkpt>
      <trkpt lat="43.95364" lon="1.78525">
        <ele>287.8</ele>
        <time>2021-10-24T12:19:54Z</time>
      </trkpt>
      <trkpt lat="43.95364" lon="1.7852">
        <ele>287.8</ele>
        <time>2021-10-24T12:19:55Z</time>
      </trkpt>
      <trkpt lat="43.95363" lon="1.78515">
        <ele>288</ele>
        <time>2021-10-24T12:19:56Z</time>
      </trkpt>
      <trkpt lat="43.95363" lon="1.7851">
        <ele>288</ele>
        <time>2021-10-24T12:19:57Z</time>
      </trkpt>
      <trkpt lat="43.95363" lon="1.78505">
        <ele>288.2</ele>
        <time>2021-10-24T12:19:58Z</time>
      </trkpt>
      <trkpt lat="43.95364" lon="1.78501">
        <ele>288.2</ele>
        <time>2021-10-24T12:19:59Z</time>
      </trkpt>
      <trkpt lat="43.95366" lon="1.78496">
        <ele>288.4</ele>
        <time>2021-10-24T12:20:00Z</time>
      </trkpt>
      <trkpt lat="43.95368" lon="1.78486">
        <ele>288.4</ele>
        <time>2021-10-24T12:20:02Z</time>
      </trkpt>
      <trkpt lat="43.9537" lon="1.78476">
        <ele>288.8</ele>
        <time>2021-10-24T12:20:04Z</time>
      </trkpt>
      <trkpt lat="43.95371" lon="1.78472">
        <ele>288.8</ele>
        <time>2021-10-24T12:20:05Z</time>
      </trkpt>
      <trkpt lat="43.95373" lon="1.78464">
        <ele>289</ele>
        <time>2021-10-24T12:20:07Z</time>
      </trkpt>
      <trkpt lat="43.95374" lon="1.78459">
        <ele>289</ele>
        <time>2021-10-24T12:20:08Z</time>
      </trkpt>
      <trkpt lat="43.95379" lon="1.78436">
        <ele>289.8</ele>
        <time>2021-10-24T12:20:13Z</time>
      </trkpt>
      <trkpt lat="43.9538" lon="1.78432">
        <ele>290</ele>
        <time>2021-10-24T12:20:14Z</time>
      </trkpt>
      <trkpt lat="43.95382" lon="1.78423">
        <ele>290.2</ele>
        <time>2021-10-24T12:20:16Z</time>
      </trkpt>
      <trkpt lat="43.95383" lon="1.78418">
        <ele>290.2</ele>
        <time>2021-10-24T12:20:17Z</time>
      </trkpt>
      <trkpt lat="43.95384" lon="1.78414">
        <ele>290.4</ele>
        <time>2021-10-24T12:20:18Z</time>
      </trkpt>
      <trkpt lat="43.95385" lon="1.7841">
        <ele>290.6</ele>
        <time>2021-10-24T12:20:19Z</time>
      </trkpt>
      <trkpt lat="43.95386" lon="1.78406">
        <ele>290.8</ele>
        <time>2021-10-24T12:20:20Z</time>
      </trkpt>
      <trkpt lat="43.95387" lon="1.78402">
        <ele>291</ele>
        <time>2021-10-24T12:20:21Z</time>
      </trkpt>
      <trkpt lat="43.95388" lon="1.78398">
        <ele>291.2</ele>
        <time>2021-10-24T12:20:22Z</time>
      </trkpt>
      <trkpt lat="43.95389" lon="1.78394">
        <ele>291.2</ele>
        <time>2021-10-24T12:20:23Z</time>
      </trkpt>
      <trkpt lat="43.9539" lon="1.78389">
        <ele>291.4</ele>
        <time>2021-10-24T12:20:24Z</time>
      </trkpt>
      <trkpt lat="43.95391" lon="1.78385">
        <ele>291.4</ele>
        <time>2021-10-24T12:20:25Z</time>
      </trkpt>
      <trkpt lat="43.95392" lon="1.78381">
        <ele>291.6</ele>
        <time>2021-10-24T12:20:26Z</time>
      </trkpt>
      <trkpt lat="43.95394" lon="1.78377">
        <ele>291.6</ele>
        <time>2021-10-24T12:20:27Z</time>
      </trkpt>
      <trkpt lat="43.95396" lon="1.78372">
        <ele>291.8</ele>
        <time>2021-10-24T12:20:28Z</time>
      </trkpt>
      <trkpt lat="43.95398" lon="1.78368">
        <ele>291.8</ele>
        <time>2021-10-24T12:20:29Z</time>
      </trkpt>
      <trkpt lat="43.95399" lon="1.78363">
        <ele>292</ele>
        <time>2021-10-24T12:20:30Z</time>
      </trkpt>
      <trkpt lat="43.954" lon="1.78358">
        <ele>292</ele>
        <time>2021-10-24T12:20:31Z</time>
      </trkpt>
      <trkpt lat="43.95402" lon="1.78354">
        <ele>292.2</ele>
        <time>2021-10-24T12:20:32Z</time>
      </trkpt>
      <trkpt lat="43.95403" lon="1.78349">
        <ele>292.2</ele>
        <time>2021-10-24T12:20:33Z</time>
      </trkpt>
      <trkpt lat="43.95405" lon="1.78345">
        <ele>292.2</ele>
        <time>2021-10-24T12:20:34Z</time>
      </trkpt>
      <trkpt lat="43.95406" lon="1.7834">
        <ele>292.2</ele>
        <time>2021-10-24T12:20:35Z</time>
      </trkpt>
      <trkpt lat="43.95407" lon="1.78336">
        <ele>292.2</ele>
        <time>2021-10-24T12:20:36Z</time>
      </trkpt>
      <trkpt lat="43.95409" lon="1.78331">
        <ele>292.4</ele>
        <time>2021-10-24T12:20:37Z</time>
      </trkpt>
      <trkpt lat="43.9541" lon="1.78326">
        <ele>292.4</ele>
        <time>2021-10-24T12:20:38Z</time>
      </trkpt>
      <trkpt lat="43.95412" lon="1.78321">
        <ele>292.4</ele>
        <time>2021-10-24T12:20:39Z</time>
      </trkpt>
      <trkpt lat="43.95413" lon="1.78316">
        <ele>292.4</ele>
        <time>2021-10-24T12:20:40Z</time>
      </trkpt>
      <trkpt lat="43.95414" lon="1.78312">
        <ele>292.4</ele>
        <time>2021-10-24T12:20:41Z</time>
      </trkpt>
      <trkpt lat="43.95415" lon="1.78308">
        <ele>292.4</ele>
        <time>2021-10-24T12:20:42Z</time>
      </trkpt>
      <trkpt lat="43.95417" lon="1.78303">
        <ele>292.4</ele>
        <time>2021-10-24T12:20:43Z</time>
      </trkpt>
      <trkpt lat="43.95418" lon="1.78299">
        <ele>292.4</ele>
        <time>2021-10-24T12:20:44Z</time>
      </trkpt>
      <trkpt lat="43.95421" lon="1.78291">
        <ele>292.6</ele>
        <time>2021-10-24T12:20:46Z</time>
      </trkpt>
      <trkpt lat="43.95423" lon="1.78287">
        <ele>292.6</ele>
        <time>2021-10-24T12:20:47Z</time>
      </trkpt>
      <trkpt lat="43.95438" lon="1.78249">
        <ele>292.6</ele>
        <time>2021-10-24T12:20:55Z</time>
      </trkpt>
      <trkpt lat="43.95452" lon="1.78207">
        <ele>292.2</ele>
        <time>2021-10-24T12:21:03Z</time>
      </trkpt>
      <trkpt lat="43.95455" lon="1.78202">
        <ele>292.2</ele>
        <time>2021-10-24T12:21:04Z</time>
      </trkpt>
      <trkpt lat="43.95458" lon="1.78198">
        <ele>292.2</ele>
        <time>2021-10-24T12:21:05Z</time>
      </trkpt>
      <trkpt lat="43.95461" lon="1.78195">
        <ele>292</ele>
        <time>2021-10-24T12:21:06Z</time>
      </trkpt>
      <trkpt lat="43.95465" lon="1.78193">
        <ele>292</ele>
        <time>2021-10-24T12:21:07Z</time>
      </trkpt>
      <trkpt lat="43.95469" lon="1.7819">
        <ele>291.8</ele>
        <time>2021-10-24T12:21:08Z</time>
      </trkpt>
      <trkpt lat="43.95473" lon="1.78181">
        <ele>291.8</ele>
        <time>2021-10-24T12:21:10Z</time>
      </trkpt>
      <trkpt lat="43.95473" lon="1.78175">
        <ele>291.6</ele>
        <time>2021-10-24T12:21:11Z</time>
      </trkpt>
      <trkpt lat="43.95472" lon="1.78168">
        <ele>291.6</ele>
        <time>2021-10-24T12:21:12Z</time>
      </trkpt>
      <trkpt lat="43.95469" lon="1.78155">
        <ele>291.4</ele>
        <time>2021-10-24T12:21:14Z</time>
      </trkpt>
      <trkpt lat="43.95467" lon="1.7814">
        <ele>291.2</ele>
        <time>2021-10-24T12:21:16Z</time>
      </trkpt>
      <trkpt lat="43.95469" lon="1.78126">
        <ele>291</ele>
        <time>2021-10-24T12:21:18Z</time>
      </trkpt>
      <trkpt lat="43.95471" lon="1.78119">
        <ele>290.6</ele>
        <time>2021-10-24T12:21:19Z</time>
      </trkpt>
      <trkpt lat="43.95475" lon="1.78105">
        <ele>289.8</ele>
        <time>2021-10-24T12:21:21Z</time>
      </trkpt>
      <trkpt lat="43.95477" lon="1.78097">
        <ele>289.6</ele>
        <time>2021-10-24T12:21:22Z</time>
      </trkpt>
      <trkpt lat="43.9548" lon="1.7809">
        <ele>289.4</ele>
        <time>2021-10-24T12:21:23Z</time>
      </trkpt>
      <trkpt lat="43.9549" lon="1.78063">
        <ele>288.6</ele>
        <time>2021-10-24T12:21:27Z</time>
      </trkpt>
      <trkpt lat="43.95493" lon="1.78057">
        <ele>288.2</ele>
        <time>2021-10-24T12:21:28Z</time>
      </trkpt>
      <trkpt lat="43.95496" lon="1.78051">
        <ele>288</ele>
        <time>2021-10-24T12:21:29Z</time>
      </trkpt>
      <trkpt lat="43.95498" lon="1.78045">
        <ele>287.4</ele>
        <time>2021-10-24T12:21:30Z</time>
      </trkpt>
      <trkpt lat="43.95498" lon="1.78038">
        <ele>287.2</ele>
        <time>2021-10-24T12:21:31Z</time>
      </trkpt>
      <trkpt lat="43.95497" lon="1.78034">
        <ele>286.8</ele>
        <time>2021-10-24T12:21:32Z</time>
      </trkpt>
      <trkpt lat="43.95496" lon="1.7803">
        <ele>286.4</ele>
        <time>2021-10-24T12:21:33Z</time>
      </trkpt>
      <trkpt lat="43.95495" lon="1.78026">
        <ele>286.2</ele>
        <time>2021-10-24T12:21:34Z</time>
      </trkpt>
      <trkpt lat="43.95495" lon="1.78023">
        <ele>286</ele>
        <time>2021-10-24T12:21:35Z</time>
      </trkpt>
      <trkpt lat="43.95498" lon="1.78015">
        <ele>285.6</ele>
        <time>2021-10-24T12:21:37Z</time>
      </trkpt>
      <trkpt lat="43.95501" lon="1.78011">
        <ele>285.6</ele>
        <time>2021-10-24T12:21:38Z</time>
      </trkpt>
      <trkpt lat="43.95503" lon="1.78007">
        <ele>285.8</ele>
        <time>2021-10-24T12:21:39Z</time>
      </trkpt>
      <trkpt lat="43.95505" lon="1.78003">
        <ele>285.4</ele>
        <time>2021-10-24T12:21:40Z</time>
      </trkpt>
      <trkpt lat="43.95506" lon="1.77999">
        <ele>285.4</ele>
        <time>2021-10-24T12:21:41Z</time>
      </trkpt>
      <trkpt lat="43.95506" lon="1.77996">
        <ele>285.4</ele>
        <time>2021-10-24T12:21:42Z</time>
      </trkpt>
      <trkpt lat="43.95508" lon="1.77989">
        <ele>284.8</ele>
        <time>2021-10-24T12:21:44Z</time>
      </trkpt>
      <trkpt lat="43.95508" lon="1.77986">
        <ele>284.6</ele>
        <time>2021-10-24T12:21:45Z</time>
      </trkpt>
      <trkpt lat="43.95511" lon="1.77979">
        <ele>283.8</ele>
        <time>2021-10-24T12:21:47Z</time>
      </trkpt>
      <trkpt lat="43.95512" lon="1.77975">
        <ele>283.4</ele>
        <time>2021-10-24T12:21:48Z</time>
      </trkpt>
      <trkpt lat="43.95513" lon="1.77972">
        <ele>283</ele>
        <time>2021-10-24T12:21:49Z</time>
      </trkpt>
      <trkpt lat="43.95514" lon="1.77969">
        <ele>282.6</ele>
        <time>2021-10-24T12:21:50Z</time>
      </trkpt>
      <trkpt lat="43.95514" lon="1.77967">
        <ele>282.4</ele>
        <time>2021-10-24T12:21:51Z</time>
      </trkpt>
      <trkpt lat="43.95515" lon="1.77964">
        <ele>282.2</ele>
        <time>2021-10-24T12:21:52Z</time>
      </trkpt>
      <trkpt lat="43.95516" lon="1.77956">
        <ele>281.8</ele>
        <time>2021-10-24T12:21:54Z</time>
      </trkpt>
      <trkpt lat="43.95516" lon="1.77952">
        <ele>280.6</ele>
        <time>2021-10-24T12:21:55Z</time>
      </trkpt>
      <trkpt lat="43.95517" lon="1.77948">
        <ele>279.8</ele>
        <time>2021-10-24T12:21:56Z</time>
      </trkpt>
      <trkpt lat="43.95517" lon="1.77944">
        <ele>279.2</ele>
        <time>2021-10-24T12:21:57Z</time>
      </trkpt>
      <trkpt lat="43.95517" lon="1.77941">
        <ele>278.4</ele>
        <time>2021-10-24T12:21:58Z</time>
      </trkpt>
      <trkpt lat="43.95517" lon="1.77937">
        <ele>278</ele>
        <time>2021-10-24T12:21:59Z</time>
      </trkpt>
      <trkpt lat="43.95517" lon="1.77934">
        <ele>277.4</ele>
        <time>2021-10-24T12:22:00Z</time>
      </trkpt>
      <trkpt lat="43.95516" lon="1.77931">
        <ele>277.2</ele>
        <time>2021-10-24T12:22:01Z</time>
      </trkpt>
      <trkpt lat="43.95515" lon="1.77927">
        <ele>276.4</ele>
        <time>2021-10-24T12:22:02Z</time>
      </trkpt>
      <trkpt lat="43.95515" lon="1.77925">
        <ele>276.2</ele>
        <time>2021-10-24T12:22:03Z</time>
      </trkpt>
      <trkpt lat="43.95515" lon="1.77922">
        <ele>275.6</ele>
        <time>2021-10-24T12:22:04Z</time>
      </trkpt>
      <trkpt lat="43.95513" lon="1.7792">
        <ele>275</ele>
        <time>2021-10-24T12:22:05Z</time>
      </trkpt>
      <trkpt lat="43.9551" lon="1.77914">
        <ele>274.4</ele>
        <time>2021-10-24T12:22:07Z</time>
      </trkpt>
      <trkpt lat="43.95507" lon="1.77906">
        <ele>274</ele>
        <time>2021-10-24T12:22:09Z</time>
      </trkpt>
      <trkpt lat="43.95506" lon="1.77902">
        <ele>273.8</ele>
        <time>2021-10-24T12:22:10Z</time>
      </trkpt>
      <trkpt lat="43.95504" lon="1.77897">
        <ele>273.4</ele>
        <time>2021-10-24T12:22:11Z</time>
      </trkpt>
      <trkpt lat="43.95503" lon="1.77893">
        <ele>272.6</ele>
        <time>2021-10-24T12:22:12Z</time>
      </trkpt>
      <trkpt lat="43.95501" lon="1.77888">
        <ele>272.4</ele>
        <time>2021-10-24T12:22:13Z</time>
      </trkpt>
      <trkpt lat="43.955" lon="1.77884">
        <ele>272</ele>
        <time>2021-10-24T12:22:14Z</time>
      </trkpt>
      <trkpt lat="43.95498" lon="1.7788">
        <ele>271.8</ele>
        <time>2021-10-24T12:22:15Z</time>
      </trkpt>
      <trkpt lat="43.95497" lon="1.77875">
        <ele>271</ele>
        <time>2021-10-24T12:22:16Z</time>
      </trkpt>
      <trkpt lat="43.95497" lon="1.77871">
        <ele>270.6</ele>
        <time>2021-10-24T12:22:17Z</time>
      </trkpt>
      <trkpt lat="43.95497" lon="1.77867">
        <ele>269.8</ele>
        <time>2021-10-24T12:22:18Z</time>
      </trkpt>
      <trkpt lat="43.95498" lon="1.77859">
        <ele>268.6</ele>
        <time>2021-10-24T12:22:20Z</time>
      </trkpt>
      <trkpt lat="43.955" lon="1.7784">
        <ele>267.4</ele>
        <time>2021-10-24T12:22:23Z</time>
      </trkpt>
      <trkpt lat="43.95502" lon="1.77828">
        <ele>266</ele>
        <time>2021-10-24T12:22:25Z</time>
      </trkpt>
      <trkpt lat="43.95503" lon="1.7782">
        <ele>265.8</ele>
        <time>2021-10-24T12:22:26Z</time>
      </trkpt>
      <trkpt lat="43.95505" lon="1.77814">
        <ele>265.2</ele>
        <time>2021-10-24T12:22:27Z</time>
      </trkpt>
      <trkpt lat="43.95506" lon="1.77809">
        <ele>264.6</ele>
        <time>2021-10-24T12:22:28Z</time>
      </trkpt>
      <trkpt lat="43.95506" lon="1.77803">
        <ele>264.6</ele>
        <time>2021-10-24T12:22:29Z</time>
      </trkpt>
      <trkpt lat="43.95505" lon="1.77799">
        <ele>264.2</ele>
        <time>2021-10-24T12:22:30Z</time>
      </trkpt>
      <trkpt lat="43.95504" lon="1.77795">
        <ele>264.2</ele>
        <time>2021-10-24T12:22:31Z</time>
      </trkpt>
      <trkpt lat="43.95504" lon="1.77792">
        <ele>264</ele>
        <time>2021-10-24T12:22:32Z</time>
      </trkpt>
      <trkpt lat="43.95505" lon="1.77791">
        <ele>264</ele>
        <time>2021-10-24T12:22:33Z</time>
      </trkpt>
      <trkpt lat="43.95506" lon="1.7779">
        <ele>263.6</ele>
        <time>2021-10-24T12:22:34Z</time>
      </trkpt>
      <trkpt lat="43.95506" lon="1.7779">
        <ele>263.4</ele>
        <time>2021-10-24T12:22:35Z</time>
      </trkpt>
      <trkpt lat="43.95509" lon="1.77787">
        <ele>262.4</ele>
        <time>2021-10-24T12:23:00Z</time>
      </trkpt>
      <trkpt lat="43.95511" lon="1.77785">
        <ele>262.4</ele>
        <time>2021-10-24T12:23:03Z</time>
      </trkpt>
      <trkpt lat="43.95512" lon="1.77785">
        <ele>262.4</ele>
        <time>2021-10-24T12:23:04Z</time>
      </trkpt>
      <trkpt lat="43.95513" lon="1.77782">
        <ele>262</ele>
        <time>2021-10-24T12:24:47Z</time>
      </trkpt>
      <trkpt lat="43.95513" lon="1.77782">
        <ele>262</ele>
        <time>2021-10-24T12:24:48Z</time>
      </trkpt>
      <trkpt lat="43.95514" lon="1.7778">
        <ele>262</ele>
        <time>2021-10-24T12:24:50Z</time>
      </trkpt>
      <trkpt lat="43.95515" lon="1.77778">
        <ele>262</ele>
        <time>2021-10-24T12:24:51Z</time>
      </trkpt>
      <trkpt lat="43.95518" lon="1.77775">
        <ele>261.8</ele>
        <time>2021-10-24T12:24:53Z</time>
      </trkpt>
      <trkpt lat="43.9552" lon="1.77774">
        <ele>261.8</ele>
        <time>2021-10-24T12:24:54Z</time>
      </trkpt>
      <trkpt lat="43.95525" lon="1.7777">
        <ele>261.6</ele>
        <time>2021-10-24T12:24:56Z</time>
      </trkpt>
      <trkpt lat="43.95526" lon="1.77769">
        <ele>261.4</ele>
        <time>2021-10-24T12:24:57Z</time>
      </trkpt>
      <trkpt lat="43.95528" lon="1.77768">
        <ele>261.2</ele>
        <time>2021-10-24T12:24:58Z</time>
      </trkpt>
      <trkpt lat="43.95529" lon="1.77768">
        <ele>261</ele>
        <time>2021-10-24T12:24:59Z</time>
      </trkpt>
      <trkpt lat="43.95531" lon="1.77767">
        <ele>260.4</ele>
        <time>2021-10-24T12:25:00Z</time>
      </trkpt>
      <trkpt lat="43.95532" lon="1.77766">
        <ele>260.2</ele>
        <time>2021-10-24T12:25:01Z</time>
      </trkpt>
      <trkpt lat="43.95534" lon="1.77765">
        <ele>260</ele>
        <time>2021-10-24T12:25:02Z</time>
      </trkpt>
      <trkpt lat="43.95538" lon="1.77764">
        <ele>259</ele>
        <time>2021-10-24T12:25:05Z</time>
      </trkpt>
      <trkpt lat="43.95544" lon="1.7776">
        <ele>257.6</ele>
        <time>2021-10-24T12:25:08Z</time>
      </trkpt>
      <trkpt lat="43.95545" lon="1.77758">
        <ele>257.2</ele>
        <time>2021-10-24T12:25:09Z</time>
      </trkpt>
      <trkpt lat="43.95546" lon="1.77757">
        <ele>257</ele>
        <time>2021-10-24T12:25:10Z</time>
      </trkpt>
      <trkpt lat="43.95547" lon="1.77756">
        <ele>256.8</ele>
        <time>2021-10-24T12:25:11Z</time>
      </trkpt>
      <trkpt lat="43.95547" lon="1.77755">
        <ele>256</ele>
        <time>2021-10-24T12:25:12Z</time>
      </trkpt>
      <trkpt lat="43.95548" lon="1.77754">
        <ele>253.4</ele>
        <time>2021-10-24T12:25:32Z</time>
      </trkpt>
      <trkpt lat="43.95548" lon="1.77754">
        <ele>253.4</ele>
        <time>2021-10-24T12:25:35Z</time>
      </trkpt>
      <trkpt lat="43.95548" lon="1.77754">
        <ele>253.4</ele>
        <time>2021-10-24T12:25:36Z</time>
      </trkpt>
      <trkpt lat="43.95548" lon="1.77754">
        <ele>253.4</ele>
        <time>2021-10-24T12:25:37Z</time>
      </trkpt>
      <trkpt lat="43.95548" lon="1.77753">
        <ele>253.2</ele>
        <time>2021-10-24T12:26:00Z</time>
      </trkpt>
      <trkpt lat="43.95547" lon="1.77751">
        <ele>253.2</ele>
        <time>2021-10-24T12:26:03Z</time>
      </trkpt>
      <trkpt lat="43.95547" lon="1.7775">
        <ele>253.2</ele>
        <time>2021-10-24T12:26:04Z</time>
      </trkpt>
      <trkpt lat="43.95545" lon="1.77747">
        <ele>253.4</ele>
        <time>2021-10-24T12:26:06Z</time>
      </trkpt>
      <trkpt lat="43.95543" lon="1.77744">
        <ele>253.4</ele>
        <time>2021-10-24T12:26:07Z</time>
      </trkpt>
      <trkpt lat="43.95542" lon="1.77742">
        <ele>253.4</ele>
        <time>2021-10-24T12:26:08Z</time>
      </trkpt>
      <trkpt lat="43.95541" lon="1.77738">
        <ele>253.6</ele>
        <time>2021-10-24T12:26:10Z</time>
      </trkpt>
      <trkpt lat="43.9554" lon="1.77736">
        <ele>253.8</ele>
        <time>2021-10-24T12:26:11Z</time>
      </trkpt>
      <trkpt lat="43.95539" lon="1.77733">
        <ele>253.8</ele>
        <time>2021-10-24T12:26:12Z</time>
      </trkpt>
      <trkpt lat="43.95538" lon="1.77731">
        <ele>253.8</ele>
        <time>2021-10-24T12:26:13Z</time>
      </trkpt>
      <trkpt lat="43.95537" lon="1.77729">
        <ele>254</ele>
        <time>2021-10-24T12:26:14Z</time>
      </trkpt>
      <trkpt lat="43.95536" lon="1.77727">
        <ele>254</ele>
        <time>2021-10-24T12:26:15Z</time>
      </trkpt>
      <trkpt lat="43.95535" lon="1.77725">
        <ele>254</ele>
        <time>2021-10-24T12:26:16Z</time>
      </trkpt>
      <trkpt lat="43.95534" lon="1.77722">
        <ele>254</ele>
        <time>2021-10-24T12:26:17Z</time>
      </trkpt>
      <trkpt lat="43.95533" lon="1.77721">
        <ele>254</ele>
        <time>2021-10-24T12:26:18Z</time>
      </trkpt>
      <trkpt lat="43.95532" lon="1.77718">
        <ele>254</ele>
        <time>2021-10-24T12:26:19Z</time>
      </trkpt>
      <trkpt lat="43.95525" lon="1.77707">
        <ele>254</ele>
        <time>2021-10-24T12:26:23Z</time>
      </trkpt>
      <trkpt lat="43.95524" lon="1.77706">
        <ele>254</ele>
        <time>2021-10-24T12:26:24Z</time>
      </trkpt>
      <trkpt lat="43.95523" lon="1.77704">
        <ele>254</ele>
        <time>2021-10-24T12:26:25Z</time>
      </trkpt>
      <trkpt lat="43.95521" lon="1.77695">
        <ele>254</ele>
        <time>2021-10-24T12:26:28Z</time>
      </trkpt>
      <trkpt lat="43.95521" lon="1.77692">
        <ele>254</ele>
        <time>2021-10-24T12:26:29Z</time>
      </trkpt>
      <trkpt lat="43.95521" lon="1.77689">
        <ele>254</ele>
        <time>2021-10-24T12:26:30Z</time>
      </trkpt>
      <trkpt lat="43.95521" lon="1.77686">
        <ele>254</ele>
        <time>2021-10-24T12:26:31Z</time>
      </trkpt>
      <trkpt lat="43.95521" lon="1.77684">
        <ele>254</ele>
        <time>2021-10-24T12:26:32Z</time>
      </trkpt>
      <trkpt lat="43.95521" lon="1.77683">
        <ele>254</ele>
        <time>2021-10-24T12:26:33Z</time>
      </trkpt>
      <trkpt lat="43.95521" lon="1.7768">
        <ele>254</ele>
        <time>2021-10-24T12:26:34Z</time>
      </trkpt>
      <trkpt lat="43.95523" lon="1.77678">
        <ele>253.8</ele>
        <time>2021-10-24T12:26:36Z</time>
      </trkpt>
      <trkpt lat="43.95524" lon="1.77676">
        <ele>253.8</ele>
        <time>2021-10-24T12:26:37Z</time>
      </trkpt>
      <trkpt lat="43.95526" lon="1.77674">
        <ele>253.6</ele>
        <time>2021-10-24T12:26:38Z</time>
      </trkpt>
      <trkpt lat="43.95527" lon="1.77673">
        <ele>253.4</ele>
        <time>2021-10-24T12:26:39Z</time>
      </trkpt>
      <trkpt lat="43.95529" lon="1.77672">
        <ele>253.2</ele>
        <time>2021-10-24T12:26:40Z</time>
      </trkpt>
      <trkpt lat="43.9553" lon="1.77671">
        <ele>253</ele>
        <time>2021-10-24T12:26:41Z</time>
      </trkpt>
      <trkpt lat="43.95532" lon="1.77667">
        <ele>252.2</ele>
        <time>2021-10-24T12:26:44Z</time>
      </trkpt>
      <trkpt lat="43.95532" lon="1.77667">
        <ele>252.2</ele>
        <time>2021-10-24T12:26:45Z</time>
      </trkpt>
      <trkpt lat="43.95532" lon="1.77666">
        <ele>241.2</ele>
        <time>2021-10-24T12:27:14Z</time>
      </trkpt>
      <trkpt lat="43.95532" lon="1.77666">
        <ele>250.6</ele>
        <time>2021-10-24T12:27:15Z</time>
      </trkpt>
      <trkpt lat="43.95532" lon="1.77666">
        <ele>250.6</ele>
        <time>2021-10-24T12:27:16Z</time>
      </trkpt>
      <trkpt lat="43.95533" lon="1.77663">
        <ele>250.4</ele>
        <time>2021-10-24T12:27:17Z</time>
      </trkpt>
      <trkpt lat="43.95537" lon="1.77658">
        <ele>250.2</ele>
        <time>2021-10-24T12:27:20Z</time>
      </trkpt>
      <trkpt lat="43.9554" lon="1.77654">
        <ele>250.2</ele>
        <time>2021-10-24T12:27:22Z</time>
      </trkpt>
      <trkpt lat="43.95542" lon="1.77652">
        <ele>250</ele>
        <time>2021-10-24T12:27:23Z</time>
      </trkpt>
      <trkpt lat="43.95543" lon="1.77649">
        <ele>249.8</ele>
        <time>2021-10-24T12:27:24Z</time>
      </trkpt>
      <trkpt lat="43.95545" lon="1.77644">
        <ele>249.4</ele>
        <time>2021-10-24T12:27:26Z</time>
      </trkpt>
      <trkpt lat="43.95545" lon="1.77642">
        <ele>249.2</ele>
        <time>2021-10-24T12:27:27Z</time>
      </trkpt>
      <trkpt lat="43.95546" lon="1.7764">
        <ele>249</ele>
        <time>2021-10-24T12:27:28Z</time>
      </trkpt>
      <trkpt lat="43.95547" lon="1.77638">
        <ele>248.8</ele>
        <time>2021-10-24T12:27:29Z</time>
      </trkpt>
      <trkpt lat="43.95549" lon="1.77636">
        <ele>248.8</ele>
        <time>2021-10-24T12:27:30Z</time>
      </trkpt>
      <trkpt lat="43.9555" lon="1.77634">
        <ele>248.4</ele>
        <time>2021-10-24T12:27:31Z</time>
      </trkpt>
      <trkpt lat="43.95551" lon="1.77632">
        <ele>248.2</ele>
        <time>2021-10-24T12:27:32Z</time>
      </trkpt>
      <trkpt lat="43.95553" lon="1.77627">
        <ele>248.2</ele>
        <time>2021-10-24T12:27:33Z</time>
      </trkpt>
      <trkpt lat="43.95553" lon="1.77627">
        <ele>248</ele>
        <time>2021-10-24T12:27:34Z</time>
      </trkpt>
      <trkpt lat="43.95553" lon="1.77627">
        <ele>248</ele>
        <time>2021-10-24T12:27:35Z</time>
      </trkpt>
      <trkpt lat="43.95553" lon="1.77627">
        <ele>247.8</ele>
        <time>2021-10-24T12:27:36Z</time>
      </trkpt>
      <trkpt lat="43.95553" lon="1.77627">
        <ele>247.8</ele>
        <time>2021-10-24T12:27:37Z</time>
      </trkpt>
      <trkpt lat="43.95557" lon="1.77623">
        <ele>248</ele>
        <time>2021-10-24T12:27:44Z</time>
      </trkpt>
      <trkpt lat="43.95559" lon="1.77622">
        <ele>248</ele>
        <time>2021-10-24T12:27:45Z</time>
      </trkpt>
      <trkpt lat="43.9556" lon="1.77621">
        <ele>248</ele>
        <time>2021-10-24T12:27:46Z</time>
      </trkpt>
      <trkpt lat="43.95562" lon="1.7762">
        <ele>248</ele>
        <time>2021-10-24T12:27:47Z</time>
      </trkpt>
      <trkpt lat="43.95562" lon="1.77619">
        <ele>247.8</ele>
        <time>2021-10-24T12:27:48Z</time>
      </trkpt>
      <trkpt lat="43.95563" lon="1.77617">
        <ele>247.8</ele>
        <time>2021-10-24T12:27:49Z</time>
      </trkpt>
      <trkpt lat="43.95564" lon="1.77614">
        <ele>247.6</ele>
        <time>2021-10-24T12:27:50Z</time>
      </trkpt>
      <trkpt lat="43.95567" lon="1.77609">
        <ele>247</ele>
        <time>2021-10-24T12:27:52Z</time>
      </trkpt>
      <trkpt lat="43.95569" lon="1.77603">
        <ele>246.6</ele>
        <time>2021-10-24T12:27:54Z</time>
      </trkpt>
      <trkpt lat="43.9558" lon="1.77589">
        <ele>245.8</ele>
        <time>2021-10-24T12:28:00Z</time>
      </trkpt>
      <trkpt lat="43.95581" lon="1.77587">
        <ele>245.6</ele>
        <time>2021-10-24T12:28:01Z</time>
      </trkpt>
      <trkpt lat="43.95594" lon="1.77577">
        <ele>244.6</ele>
        <time>2021-10-24T12:28:06Z</time>
      </trkpt>
      <trkpt lat="43.95596" lon="1.77574">
        <ele>244.4</ele>
        <time>2021-10-24T12:28:07Z</time>
      </trkpt>
      <trkpt lat="43.95598" lon="1.77571">
        <ele>243.8</ele>
        <time>2021-10-24T12:28:08Z</time>
      </trkpt>
      <trkpt lat="43.956" lon="1.77569">
        <ele>243.4</ele>
        <time>2021-10-24T12:28:09Z</time>
      </trkpt>
      <trkpt lat="43.95602" lon="1.77567">
        <ele>242.8</ele>
        <time>2021-10-24T12:28:10Z</time>
      </trkpt>
      <trkpt lat="43.95604" lon="1.77565">
        <ele>242</ele>
        <time>2021-10-24T12:28:11Z</time>
      </trkpt>
      <trkpt lat="43.95607" lon="1.77564">
        <ele>241.8</ele>
        <time>2021-10-24T12:28:12Z</time>
      </trkpt>
      <trkpt lat="43.9561" lon="1.77563">
        <ele>241.4</ele>
        <time>2021-10-24T12:28:13Z</time>
      </trkpt>
      <trkpt lat="43.95613" lon="1.77561">
        <ele>241</ele>
        <time>2021-10-24T12:28:14Z</time>
      </trkpt>
      <trkpt lat="43.95615" lon="1.7756">
        <ele>240.4</ele>
        <time>2021-10-24T12:28:15Z</time>
      </trkpt>
      <trkpt lat="43.95618" lon="1.7756">
        <ele>240</ele>
        <time>2021-10-24T12:28:16Z</time>
      </trkpt>
      <trkpt lat="43.95621" lon="1.77558">
        <ele>239.6</ele>
        <time>2021-10-24T12:28:17Z</time>
      </trkpt>
      <trkpt lat="43.95623" lon="1.77557">
        <ele>239.4</ele>
        <time>2021-10-24T12:28:18Z</time>
      </trkpt>
      <trkpt lat="43.95628" lon="1.77556">
        <ele>238.4</ele>
        <time>2021-10-24T12:28:20Z</time>
      </trkpt>
      <trkpt lat="43.95634" lon="1.77553">
        <ele>237.8</ele>
        <time>2021-10-24T12:28:23Z</time>
      </trkpt>
      <trkpt lat="43.95636" lon="1.77553">
        <ele>237.6</ele>
        <time>2021-10-24T12:28:24Z</time>
      </trkpt>
      <trkpt lat="43.95637" lon="1.77553">
        <ele>237.4</ele>
        <time>2021-10-24T12:28:25Z</time>
      </trkpt>
      <trkpt lat="43.95639" lon="1.77551">
        <ele>237.2</ele>
        <time>2021-10-24T12:28:26Z</time>
      </trkpt>
      <trkpt lat="43.95641" lon="1.77549">
        <ele>236.6</ele>
        <time>2021-10-24T12:28:27Z</time>
      </trkpt>
      <trkpt lat="43.95643" lon="1.77545">
        <ele>236.4</ele>
        <time>2021-10-24T12:28:28Z</time>
      </trkpt>
      <trkpt lat="43.95645" lon="1.77543">
        <ele>236.2</ele>
        <time>2021-10-24T12:28:29Z</time>
      </trkpt>
      <trkpt lat="43.95646" lon="1.7754">
        <ele>236</ele>
        <time>2021-10-24T12:28:30Z</time>
      </trkpt>
      <trkpt lat="43.95649" lon="1.77535">
        <ele>235</ele>
        <time>2021-10-24T12:28:32Z</time>
      </trkpt>
      <trkpt lat="43.9565" lon="1.77533">
        <ele>234</ele>
        <time>2021-10-24T12:28:33Z</time>
      </trkpt>
      <trkpt lat="43.95651" lon="1.77531">
        <ele>233.6</ele>
        <time>2021-10-24T12:28:34Z</time>
      </trkpt>
      <trkpt lat="43.95653" lon="1.77529">
        <ele>233</ele>
        <time>2021-10-24T12:28:35Z</time>
      </trkpt>
      <trkpt lat="43.95654" lon="1.77527">
        <ele>232.4</ele>
        <time>2021-10-24T12:28:36Z</time>
      </trkpt>
      <trkpt lat="43.95656" lon="1.77522">
        <ele>231.6</ele>
        <time>2021-10-24T12:28:38Z</time>
      </trkpt>
      <trkpt lat="43.95657" lon="1.7752">
        <ele>231.2</ele>
        <time>2021-10-24T12:28:39Z</time>
      </trkpt>
      <trkpt lat="43.95659" lon="1.77516">
        <ele>230.8</ele>
        <time>2021-10-24T12:28:41Z</time>
      </trkpt>
      <trkpt lat="43.95659" lon="1.77513">
        <ele>230.6</ele>
        <time>2021-10-24T12:28:42Z</time>
      </trkpt>
      <trkpt lat="43.95659" lon="1.77511">
        <ele>230</ele>
        <time>2021-10-24T12:28:43Z</time>
      </trkpt>
      <trkpt lat="43.9566" lon="1.7751">
        <ele>230</ele>
        <time>2021-10-24T12:28:44Z</time>
      </trkpt>
      <trkpt lat="43.95665" lon="1.77505">
        <ele>228.8</ele>
        <time>2021-10-24T12:28:47Z</time>
      </trkpt>
      <trkpt lat="43.95667" lon="1.77504">
        <ele>228.6</ele>
        <time>2021-10-24T12:28:48Z</time>
      </trkpt>
      <trkpt lat="43.95668" lon="1.77503">
        <ele>228.4</ele>
        <time>2021-10-24T12:28:49Z</time>
      </trkpt>
      <trkpt lat="43.95669" lon="1.77502">
        <ele>228.2</ele>
        <time>2021-10-24T12:28:50Z</time>
      </trkpt>
      <trkpt lat="43.9567" lon="1.77501">
        <ele>228</ele>
        <time>2021-10-24T12:28:51Z</time>
      </trkpt>
      <trkpt lat="43.95671" lon="1.775">
        <ele>227.8</ele>
        <time>2021-10-24T12:28:52Z</time>
      </trkpt>
      <trkpt lat="43.95672" lon="1.77498">
        <ele>227.4</ele>
        <time>2021-10-24T12:28:53Z</time>
      </trkpt>
      <trkpt lat="43.95672" lon="1.77498">
        <ele>227</ele>
        <time>2021-10-24T12:28:54Z</time>
      </trkpt>
      <trkpt lat="43.95672" lon="1.77498">
        <ele>226.8</ele>
        <time>2021-10-24T12:28:55Z</time>
      </trkpt>
      <trkpt lat="43.95672" lon="1.77497">
        <ele>226.4</ele>
        <time>2021-10-24T12:28:56Z</time>
      </trkpt>
      <trkpt lat="43.95673" lon="1.77496">
        <ele>226.2</ele>
        <time>2021-10-24T12:28:57Z</time>
      </trkpt>
      <trkpt lat="43.95674" lon="1.77495">
        <ele>226</ele>
        <time>2021-10-24T12:28:58Z</time>
      </trkpt>
      <trkpt lat="43.95675" lon="1.77494">
        <ele>225.8</ele>
        <time>2021-10-24T12:28:59Z</time>
      </trkpt>
      <trkpt lat="43.95675" lon="1.77494">
        <ele>225.6</ele>
        <time>2021-10-24T12:29:00Z</time>
      </trkpt>
      <trkpt lat="43.95676" lon="1.77493">
        <ele>225.2</ele>
        <time>2021-10-24T12:29:02Z</time>
      </trkpt>
      <trkpt lat="43.95677" lon="1.77492">
        <ele>224.6</ele>
        <time>2021-10-24T12:29:04Z</time>
      </trkpt>
      <trkpt lat="43.95678" lon="1.7749">
        <ele>224</ele>
        <time>2021-10-24T12:29:08Z</time>
      </trkpt>
      <trkpt lat="43.95678" lon="1.77489">
        <ele>224</ele>
        <time>2021-10-24T12:29:09Z</time>
      </trkpt>
      <trkpt lat="43.95681" lon="1.77484">
        <ele>223.6</ele>
        <time>2021-10-24T12:29:12Z</time>
      </trkpt>
      <trkpt lat="43.95684" lon="1.7748">
        <ele>223.4</ele>
        <time>2021-10-24T12:29:14Z</time>
      </trkpt>
      <trkpt lat="43.95687" lon="1.77476">
        <ele>223.4</ele>
        <time>2021-10-24T12:29:15Z</time>
      </trkpt>
      <trkpt lat="43.95691" lon="1.77469">
        <ele>223</ele>
        <time>2021-10-24T12:29:17Z</time>
      </trkpt>
      <trkpt lat="43.95706" lon="1.77456">
        <ele>222</ele>
        <time>2021-10-24T12:29:22Z</time>
      </trkpt>
      <trkpt lat="43.95708" lon="1.77453">
        <ele>222</ele>
        <time>2021-10-24T12:29:23Z</time>
      </trkpt>
      <trkpt lat="43.9571" lon="1.7745">
        <ele>221.8</ele>
        <time>2021-10-24T12:29:24Z</time>
      </trkpt>
      <trkpt lat="43.95712" lon="1.77448">
        <ele>221.8</ele>
        <time>2021-10-24T12:29:25Z</time>
      </trkpt>
      <trkpt lat="43.95719" lon="1.77441">
        <ele>220.8</ele>
        <time>2021-10-24T12:29:28Z</time>
      </trkpt>
      <trkpt lat="43.95721" lon="1.77438">
        <ele>220.6</ele>
        <time>2021-10-24T12:29:29Z</time>
      </trkpt>
      <trkpt lat="43.95723" lon="1.77435">
        <ele>220.4</ele>
        <time>2021-10-24T12:29:30Z</time>
      </trkpt>
      <trkpt lat="43.95725" lon="1.77435">
        <ele>220.2</ele>
        <time>2021-10-24T12:29:31Z</time>
      </trkpt>
      <trkpt lat="43.95727" lon="1.77435">
        <ele>220</ele>
        <time>2021-10-24T12:29:32Z</time>
      </trkpt>
      <trkpt lat="43.95729" lon="1.77433">
        <ele>219.8</ele>
        <time>2021-10-24T12:29:33Z</time>
      </trkpt>
      <trkpt lat="43.95736" lon="1.77425">
        <ele>219.6</ele>
        <time>2021-10-24T12:29:35Z</time>
      </trkpt>
      <trkpt lat="43.95739" lon="1.77423">
        <ele>219.4</ele>
        <time>2021-10-24T12:29:36Z</time>
      </trkpt>
      <trkpt lat="43.95742" lon="1.7742">
        <ele>219.4</ele>
        <time>2021-10-24T12:29:37Z</time>
      </trkpt>
      <trkpt lat="43.95745" lon="1.77419">
        <ele>219.2</ele>
        <time>2021-10-24T12:29:38Z</time>
      </trkpt>
      <trkpt lat="43.95747" lon="1.77417">
        <ele>219.2</ele>
        <time>2021-10-24T12:29:39Z</time>
      </trkpt>
      <trkpt lat="43.95759" lon="1.7741">
        <ele>218.4</ele>
        <time>2021-10-24T12:29:42Z</time>
      </trkpt>
      <trkpt lat="43.95766" lon="1.77403">
        <ele>217.8</ele>
        <time>2021-10-24T12:29:44Z</time>
      </trkpt>
      <trkpt lat="43.95771" lon="1.774">
        <ele>217.6</ele>
        <time>2021-10-24T12:29:45Z</time>
      </trkpt>
      <trkpt lat="43.95774" lon="1.77398">
        <ele>217.2</ele>
        <time>2021-10-24T12:29:46Z</time>
      </trkpt>
      <trkpt lat="43.95781" lon="1.77392">
        <ele>216</ele>
        <time>2021-10-24T12:29:49Z</time>
      </trkpt>
      <trkpt lat="43.95784" lon="1.77389">
        <ele>215.8</ele>
        <time>2021-10-24T12:29:50Z</time>
      </trkpt>
      <trkpt lat="43.95789" lon="1.77382">
        <ele>215.6</ele>
        <time>2021-10-24T12:29:52Z</time>
      </trkpt>
      <trkpt lat="43.95792" lon="1.7738">
        <ele>215.2</ele>
        <time>2021-10-24T12:29:53Z</time>
      </trkpt>
      <trkpt lat="43.95794" lon="1.77378">
        <ele>214.6</ele>
        <time>2021-10-24T12:29:54Z</time>
      </trkpt>
      <trkpt lat="43.95796" lon="1.77375">
        <ele>214.4</ele>
        <time>2021-10-24T12:29:55Z</time>
      </trkpt>
      <trkpt lat="43.95797" lon="1.77374">
        <ele>213.8</ele>
        <time>2021-10-24T12:29:56Z</time>
      </trkpt>
      <trkpt lat="43.95797" lon="1.77372">
        <ele>213.4</ele>
        <time>2021-10-24T12:29:57Z</time>
      </trkpt>
      <trkpt lat="43.95798" lon="1.77371">
        <ele>212.8</ele>
        <time>2021-10-24T12:29:58Z</time>
      </trkpt>
      <trkpt lat="43.95798" lon="1.7737">
        <ele>212.4</ele>
        <time>2021-10-24T12:29:59Z</time>
      </trkpt>
      <trkpt lat="43.95798" lon="1.77368">
        <ele>211.8</ele>
        <time>2021-10-24T12:30:00Z</time>
      </trkpt>
      <trkpt lat="43.95798" lon="1.77366">
        <ele>211.4</ele>
        <time>2021-10-24T12:30:01Z</time>
      </trkpt>
      <trkpt lat="43.95798" lon="1.77352">
        <ele>210.2</ele>
        <time>2021-10-24T12:30:06Z</time>
      </trkpt>
      <trkpt lat="43.95797" lon="1.77349">
        <ele>210</ele>
        <time>2021-10-24T12:30:07Z</time>
      </trkpt>
      <trkpt lat="43.95795" lon="1.77347">
        <ele>209.8</ele>
        <time>2021-10-24T12:30:08Z</time>
      </trkpt>
      <trkpt lat="43.95793" lon="1.77344">
        <ele>209.4</ele>
        <time>2021-10-24T12:30:09Z</time>
      </trkpt>
      <trkpt lat="43.9579" lon="1.77341">
        <ele>209</ele>
        <time>2021-10-24T12:30:10Z</time>
      </trkpt>
      <trkpt lat="43.95788" lon="1.77337">
        <ele>208.8</ele>
        <time>2021-10-24T12:30:11Z</time>
      </trkpt>
      <trkpt lat="43.95781" lon="1.7733">
        <ele>207.6</ele>
        <time>2021-10-24T12:30:13Z</time>
      </trkpt>
      <trkpt lat="43.95775" lon="1.77321">
        <ele>206.4</ele>
        <time>2021-10-24T12:30:15Z</time>
      </trkpt>
      <trkpt lat="43.95772" lon="1.77317">
        <ele>205.4</ele>
        <time>2021-10-24T12:30:16Z</time>
      </trkpt>
      <trkpt lat="43.9577" lon="1.77314">
        <ele>204.2</ele>
        <time>2021-10-24T12:30:17Z</time>
      </trkpt>
      <trkpt lat="43.95768" lon="1.7731">
        <ele>204</ele>
        <time>2021-10-24T12:30:18Z</time>
      </trkpt>
      <trkpt lat="43.95767" lon="1.77306">
        <ele>203</ele>
        <time>2021-10-24T12:30:19Z</time>
      </trkpt>
      <trkpt lat="43.95766" lon="1.77302">
        <ele>202.4</ele>
        <time>2021-10-24T12:30:20Z</time>
      </trkpt>
      <trkpt lat="43.95764" lon="1.77299">
        <ele>201.6</ele>
        <time>2021-10-24T12:30:21Z</time>
      </trkpt>
      <trkpt lat="43.95762" lon="1.77296">
        <ele>201.2</ele>
        <time>2021-10-24T12:30:22Z</time>
      </trkpt>
      <trkpt lat="43.9576" lon="1.77292">
        <ele>200.2</ele>
        <time>2021-10-24T12:30:23Z</time>
      </trkpt>
      <trkpt lat="43.95758" lon="1.77288">
        <ele>199.6</ele>
        <time>2021-10-24T12:30:24Z</time>
      </trkpt>
      <trkpt lat="43.95756" lon="1.77285">
        <ele>198.4</ele>
        <time>2021-10-24T12:30:25Z</time>
      </trkpt>
      <trkpt lat="43.95756" lon="1.77282">
        <ele>197.6</ele>
        <time>2021-10-24T12:30:26Z</time>
      </trkpt>
      <trkpt lat="43.95756" lon="1.77277">
        <ele>197</ele>
        <time>2021-10-24T12:30:27Z</time>
      </trkpt>
      <trkpt lat="43.95755" lon="1.77273">
        <ele>196.2</ele>
        <time>2021-10-24T12:30:28Z</time>
      </trkpt>
      <trkpt lat="43.95754" lon="1.77269">
        <ele>195.8</ele>
        <time>2021-10-24T12:30:29Z</time>
      </trkpt>
      <trkpt lat="43.95752" lon="1.77265">
        <ele>194.6</ele>
        <time>2021-10-24T12:30:30Z</time>
      </trkpt>
      <trkpt lat="43.9575" lon="1.77262">
        <ele>194.4</ele>
        <time>2021-10-24T12:30:31Z</time>
      </trkpt>
      <trkpt lat="43.95749" lon="1.77258">
        <ele>193.6</ele>
        <time>2021-10-24T12:30:32Z</time>
      </trkpt>
      <trkpt lat="43.95748" lon="1.77253">
        <ele>192.8</ele>
        <time>2021-10-24T12:30:33Z</time>
      </trkpt>
      <trkpt lat="43.95748" lon="1.77249">
        <ele>192.6</ele>
        <time>2021-10-24T12:30:34Z</time>
      </trkpt>
      <trkpt lat="43.95748" lon="1.77245">
        <ele>191.4</ele>
        <time>2021-10-24T12:30:35Z</time>
      </trkpt>
      <trkpt lat="43.95747" lon="1.7724">
        <ele>191</ele>
        <time>2021-10-24T12:30:36Z</time>
      </trkpt>
      <trkpt lat="43.95747" lon="1.77237">
        <ele>190</ele>
        <time>2021-10-24T12:30:37Z</time>
      </trkpt>
      <trkpt lat="43.95746" lon="1.77234">
        <ele>189.4</ele>
        <time>2021-10-24T12:30:38Z</time>
      </trkpt>
      <trkpt lat="43.95746" lon="1.77231">
        <ele>188.4</ele>
        <time>2021-10-24T12:30:39Z</time>
      </trkpt>
      <trkpt lat="43.95746" lon="1.77225">
        <ele>187</ele>
        <time>2021-10-24T12:30:41Z</time>
      </trkpt>
      <trkpt lat="43.95745" lon="1.7722">
        <ele>186.6</ele>
        <time>2021-10-24T12:30:42Z</time>
      </trkpt>
      <trkpt lat="43.95745" lon="1.77207">
        <ele>185.6</ele>
        <time>2021-10-24T12:30:44Z</time>
      </trkpt>
      <trkpt lat="43.95744" lon="1.77199">
        <ele>185.4</ele>
        <time>2021-10-24T12:30:45Z</time>
      </trkpt>
      <trkpt lat="43.95744" lon="1.77176">
        <ele>184.2</ele>
        <time>2021-10-24T12:30:48Z</time>
      </trkpt>
      <trkpt lat="43.95743" lon="1.77165">
        <ele>183.2</ele>
        <time>2021-10-24T12:30:49Z</time>
      </trkpt>
      <trkpt lat="43.95743" lon="1.77157">
        <ele>182.8</ele>
        <time>2021-10-24T12:30:50Z</time>
      </trkpt>
      <trkpt lat="43.95743" lon="1.7715">
        <ele>182.4</ele>
        <time>2021-10-24T12:30:51Z</time>
      </trkpt>
      <trkpt lat="43.95743" lon="1.77144">
        <ele>181.6</ele>
        <time>2021-10-24T12:30:52Z</time>
      </trkpt>
      <trkpt lat="43.95745" lon="1.77141">
        <ele>180.6</ele>
        <time>2021-10-24T12:30:53Z</time>
      </trkpt>
      <trkpt lat="43.95747" lon="1.77141">
        <ele>180.2</ele>
        <time>2021-10-24T12:30:54Z</time>
      </trkpt>
      <trkpt lat="43.95749" lon="1.77141">
        <ele>179.8</ele>
        <time>2021-10-24T12:30:55Z</time>
      </trkpt>
      <trkpt lat="43.95752" lon="1.7714">
        <ele>179.6</ele>
        <time>2021-10-24T12:30:56Z</time>
      </trkpt>
      <trkpt lat="43.95761" lon="1.77139">
        <ele>179.2</ele>
        <time>2021-10-24T12:31:00Z</time>
      </trkpt>
      <trkpt lat="43.95766" lon="1.77139">
        <ele>179.2</ele>
        <time>2021-10-24T12:31:02Z</time>
      </trkpt>
      <trkpt lat="43.95769" lon="1.77139">
        <ele>179.2</ele>
        <time>2021-10-24T12:31:03Z</time>
      </trkpt>
      <trkpt lat="43.95774" lon="1.77138">
        <ele>179</ele>
        <time>2021-10-24T12:31:05Z</time>
      </trkpt>
      <trkpt lat="43.95783" lon="1.77136">
        <ele>178.8</ele>
        <time>2021-10-24T12:31:08Z</time>
      </trkpt>
      <trkpt lat="43.95791" lon="1.77132">
        <ele>178.4</ele>
        <time>2021-10-24T12:31:11Z</time>
      </trkpt>
      <trkpt lat="43.95794" lon="1.77131">
        <ele>178.2</ele>
        <time>2021-10-24T12:31:12Z</time>
      </trkpt>
      <trkpt lat="43.95814" lon="1.77124">
        <ele>177.4</ele>
        <time>2021-10-24T12:31:18Z</time>
      </trkpt>
      <trkpt lat="43.95829" lon="1.77118">
        <ele>177.2</ele>
        <time>2021-10-24T12:31:22Z</time>
      </trkpt>
      <trkpt lat="43.95832" lon="1.77117">
        <ele>177</ele>
        <time>2021-10-24T12:31:23Z</time>
      </trkpt>
      <trkpt lat="43.95835" lon="1.77116">
        <ele>177</ele>
        <time>2021-10-24T12:31:24Z</time>
      </trkpt>
      <trkpt lat="43.95838" lon="1.77114">
        <ele>176.8</ele>
        <time>2021-10-24T12:31:25Z</time>
      </trkpt>
      <trkpt lat="43.9584" lon="1.77113">
        <ele>176.8</ele>
        <time>2021-10-24T12:31:26Z</time>
      </trkpt>
      <trkpt lat="43.95843" lon="1.77112">
        <ele>176.6</ele>
        <time>2021-10-24T12:31:27Z</time>
      </trkpt>
      <trkpt lat="43.95846" lon="1.7711">
        <ele>176.6</ele>
        <time>2021-10-24T12:31:28Z</time>
      </trkpt>
      <trkpt lat="43.9586" lon="1.77102">
        <ele>176.2</ele>
        <time>2021-10-24T12:31:33Z</time>
      </trkpt>
      <trkpt lat="43.95863" lon="1.77101">
        <ele>176.2</ele>
        <time>2021-10-24T12:31:34Z</time>
      </trkpt>
      <trkpt lat="43.95866" lon="1.77099">
        <ele>176.2</ele>
        <time>2021-10-24T12:31:35Z</time>
      </trkpt>
      <trkpt lat="43.95869" lon="1.77098">
        <ele>176.4</ele>
        <time>2021-10-24T12:31:36Z</time>
      </trkpt>
      <trkpt lat="43.95872" lon="1.77096">
        <ele>176.4</ele>
        <time>2021-10-24T12:31:37Z</time>
      </trkpt>
      <trkpt lat="43.95878" lon="1.77093">
        <ele>176.4</ele>
        <time>2021-10-24T12:31:39Z</time>
      </trkpt>
      <trkpt lat="43.9588" lon="1.77092">
        <ele>176.4</ele>
        <time>2021-10-24T12:31:40Z</time>
      </trkpt>
      <trkpt lat="43.959" lon="1.77086">
        <ele>176</ele>
        <time>2021-10-24T12:31:46Z</time>
      </trkpt>
      <trkpt lat="43.95908" lon="1.77085">
        <ele>175.8</ele>
        <time>2021-10-24T12:31:48Z</time>
      </trkpt>
      <trkpt lat="43.95914" lon="1.77084">
        <ele>175.8</ele>
        <time>2021-10-24T12:31:50Z</time>
      </trkpt>
      <trkpt lat="43.9593" lon="1.77081">
        <ele>175.8</ele>
        <time>2021-10-24T12:31:54Z</time>
      </trkpt>
      <trkpt lat="43.95933" lon="1.7708">
        <ele>175.8</ele>
        <time>2021-10-24T12:31:55Z</time>
      </trkpt>
      <trkpt lat="43.95937" lon="1.7708">
        <ele>175.6</ele>
        <time>2021-10-24T12:31:56Z</time>
      </trkpt>
      <trkpt lat="43.95956" lon="1.77076">
        <ele>175.6</ele>
        <time>2021-10-24T12:32:01Z</time>
      </trkpt>
      <trkpt lat="43.95968" lon="1.77071">
        <ele>175.4</ele>
        <time>2021-10-24T12:32:04Z</time>
      </trkpt>
      <trkpt lat="43.95971" lon="1.77071">
        <ele>175.4</ele>
        <time>2021-10-24T12:32:05Z</time>
      </trkpt>
      <trkpt lat="43.95984" lon="1.77067">
        <ele>175.2</ele>
        <time>2021-10-24T12:32:08Z</time>
      </trkpt>
      <trkpt lat="43.95987" lon="1.77065">
        <ele>175.2</ele>
        <time>2021-10-24T12:32:09Z</time>
      </trkpt>
      <trkpt lat="43.95989" lon="1.77062">
        <ele>175</ele>
        <time>2021-10-24T12:32:10Z</time>
      </trkpt>
      <trkpt lat="43.95991" lon="1.77058">
        <ele>175</ele>
        <time>2021-10-24T12:32:11Z</time>
      </trkpt>
      <trkpt lat="43.95992" lon="1.77054">
        <ele>175</ele>
        <time>2021-10-24T12:32:12Z</time>
      </trkpt>
      <trkpt lat="43.95992" lon="1.77049">
        <ele>175</ele>
        <time>2021-10-24T12:32:13Z</time>
      </trkpt>
      <trkpt lat="43.95991" lon="1.77043">
        <ele>175</ele>
        <time>2021-10-24T12:32:15Z</time>
      </trkpt>
      <trkpt lat="43.9599" lon="1.77039">
        <ele>175</ele>
        <time>2021-10-24T12:32:16Z</time>
      </trkpt>
      <trkpt lat="43.95991" lon="1.77026">
        <ele>175.4</ele>
        <time>2021-10-24T12:32:19Z</time>
      </trkpt>
      <trkpt lat="43.95991" lon="1.77022">
        <ele>175.6</ele>
        <time>2021-10-24T12:32:20Z</time>
      </trkpt>
      <trkpt lat="43.95991" lon="1.77019">
        <ele>175.4</ele>
        <time>2021-10-24T12:32:21Z</time>
      </trkpt>
      <trkpt lat="43.95991" lon="1.77015">
        <ele>175.4</ele>
        <time>2021-10-24T12:32:22Z</time>
      </trkpt>
      <trkpt lat="43.95991" lon="1.77012">
        <ele>175.6</ele>
        <time>2021-10-24T12:32:23Z</time>
      </trkpt>
      <trkpt lat="43.95991" lon="1.77009">
        <ele>175.8</ele>
        <time>2021-10-24T12:32:24Z</time>
      </trkpt>
      <trkpt lat="43.95991" lon="1.77006">
        <ele>175.8</ele>
        <time>2021-10-24T12:32:25Z</time>
      </trkpt>
      <trkpt lat="43.95991" lon="1.77003">
        <ele>176</ele>
        <time>2021-10-24T12:32:26Z</time>
      </trkpt>
      <trkpt lat="43.95991" lon="1.76996">
        <ele>176.2</ele>
        <time>2021-10-24T12:32:28Z</time>
      </trkpt>
      <trkpt lat="43.95991" lon="1.76983">
        <ele>176.4</ele>
        <time>2021-10-24T12:32:32Z</time>
      </trkpt>
      <trkpt lat="43.95991" lon="1.76979">
        <ele>176.4</ele>
        <time>2021-10-24T12:32:33Z</time>
      </trkpt>
      <trkpt lat="43.95991" lon="1.76977">
        <ele>176.6</ele>
        <time>2021-10-24T12:32:34Z</time>
      </trkpt>
      <trkpt lat="43.95991" lon="1.76974">
        <ele>176.6</ele>
        <time>2021-10-24T12:32:35Z</time>
      </trkpt>
      <trkpt lat="43.95992" lon="1.76964">
        <ele>176.8</ele>
        <time>2021-10-24T12:32:38Z</time>
      </trkpt>
      <trkpt lat="43.95993" lon="1.76961">
        <ele>177</ele>
        <time>2021-10-24T12:32:39Z</time>
      </trkpt>
      <trkpt lat="43.95995" lon="1.76956">
        <ele>177.4</ele>
        <time>2021-10-24T12:32:41Z</time>
      </trkpt>
      <trkpt lat="43.95997" lon="1.76954">
        <ele>177.4</ele>
        <time>2021-10-24T12:32:42Z</time>
      </trkpt>
      <trkpt lat="43.95999" lon="1.76951">
        <ele>177.6</ele>
        <time>2021-10-24T12:32:43Z</time>
      </trkpt>
      <trkpt lat="43.96001" lon="1.76949">
        <ele>177.6</ele>
        <time>2021-10-24T12:32:44Z</time>
      </trkpt>
      <trkpt lat="43.96003" lon="1.76948">
        <ele>177.8</ele>
        <time>2021-10-24T12:32:45Z</time>
      </trkpt>
      <trkpt lat="43.96011" lon="1.76942">
        <ele>177.8</ele>
        <time>2021-10-24T12:32:48Z</time>
      </trkpt>
      <trkpt lat="43.96016" lon="1.76938">
        <ele>177.8</ele>
        <time>2021-10-24T12:32:50Z</time>
      </trkpt>
      <trkpt lat="43.96031" lon="1.76931">
        <ele>177.4</ele>
        <time>2021-10-24T12:32:55Z</time>
      </trkpt>
      <trkpt lat="43.96034" lon="1.7693">
        <ele>177.4</ele>
        <time>2021-10-24T12:32:56Z</time>
      </trkpt>
      <trkpt lat="43.96037" lon="1.76928">
        <ele>177.4</ele>
        <time>2021-10-24T12:32:57Z</time>
      </trkpt>
      <trkpt lat="43.9604" lon="1.76927">
        <ele>177.4</ele>
        <time>2021-10-24T12:32:58Z</time>
      </trkpt>
      <trkpt lat="43.96057" lon="1.76924">
        <ele>177.2</ele>
        <time>2021-10-24T12:33:03Z</time>
      </trkpt>
      <trkpt lat="43.96073" lon="1.76922">
        <ele>177</ele>
        <time>2021-10-24T12:33:07Z</time>
      </trkpt>
      <trkpt lat="43.96078" lon="1.76921">
        <ele>176.8</ele>
        <time>2021-10-24T12:33:08Z</time>
      </trkpt>
      <trkpt lat="43.96082" lon="1.76921">
        <ele>176.8</ele>
        <time>2021-10-24T12:33:09Z</time>
      </trkpt>
      <trkpt lat="43.96094" lon="1.76919">
        <ele>176.6</ele>
        <time>2021-10-24T12:33:12Z</time>
      </trkpt>
      <trkpt lat="43.96098" lon="1.76919">
        <ele>176.4</ele>
        <time>2021-10-24T12:33:13Z</time>
      </trkpt>
      <trkpt lat="43.96101" lon="1.76918">
        <ele>176.4</ele>
        <time>2021-10-24T12:33:14Z</time>
      </trkpt>
      <trkpt lat="43.96105" lon="1.76916">
        <ele>176.2</ele>
        <time>2021-10-24T12:33:15Z</time>
      </trkpt>
      <trkpt lat="43.96108" lon="1.76914">
        <ele>176.2</ele>
        <time>2021-10-24T12:33:16Z</time>
      </trkpt>
      <trkpt lat="43.96129" lon="1.76905">
        <ele>176</ele>
        <time>2021-10-24T12:33:22Z</time>
      </trkpt>
      <trkpt lat="43.96132" lon="1.76903">
        <ele>176</ele>
        <time>2021-10-24T12:33:23Z</time>
      </trkpt>
      <trkpt lat="43.96147" lon="1.76896">
        <ele>175.6</ele>
        <time>2021-10-24T12:33:27Z</time>
      </trkpt>
      <trkpt lat="43.96155" lon="1.76893">
        <ele>175.2</ele>
        <time>2021-10-24T12:33:29Z</time>
      </trkpt>
      <trkpt lat="43.96163" lon="1.7689">
        <ele>175</ele>
        <time>2021-10-24T12:33:31Z</time>
      </trkpt>
      <trkpt lat="43.96171" lon="1.76888">
        <ele>175</ele>
        <time>2021-10-24T12:33:33Z</time>
      </trkpt>
      <trkpt lat="43.96175" lon="1.76886">
        <ele>174.8</ele>
        <time>2021-10-24T12:33:34Z</time>
      </trkpt>
      <trkpt lat="43.96182" lon="1.76884">
        <ele>174.8</ele>
        <time>2021-10-24T12:33:36Z</time>
      </trkpt>
      <trkpt lat="43.96195" lon="1.7688">
        <ele>174.8</ele>
        <time>2021-10-24T12:33:39Z</time>
      </trkpt>
      <trkpt lat="43.96199" lon="1.76879">
        <ele>174.6</ele>
        <time>2021-10-24T12:33:40Z</time>
      </trkpt>
      <trkpt lat="43.96203" lon="1.76878">
        <ele>174.4</ele>
        <time>2021-10-24T12:33:41Z</time>
      </trkpt>
      <trkpt lat="43.96215" lon="1.76874">
        <ele>174.2</ele>
        <time>2021-10-24T12:33:44Z</time>
      </trkpt>
      <trkpt lat="43.96222" lon="1.76872">
        <ele>174.2</ele>
        <time>2021-10-24T12:33:46Z</time>
      </trkpt>
      <trkpt lat="43.96226" lon="1.76871">
        <ele>174.2</ele>
        <time>2021-10-24T12:33:47Z</time>
      </trkpt>
      <trkpt lat="43.9623" lon="1.7687">
        <ele>174.2</ele>
        <time>2021-10-24T12:33:48Z</time>
      </trkpt>
      <trkpt lat="43.96245" lon="1.76863">
        <ele>174</ele>
        <time>2021-10-24T12:33:52Z</time>
      </trkpt>
      <trkpt lat="43.96254" lon="1.7686">
        <ele>173.8</ele>
        <time>2021-10-24T12:33:54Z</time>
      </trkpt>
      <trkpt lat="43.96279" lon="1.76854">
        <ele>173.6</ele>
        <time>2021-10-24T12:34:00Z</time>
      </trkpt>
      <trkpt lat="43.96287" lon="1.76852">
        <ele>173.6</ele>
        <time>2021-10-24T12:34:02Z</time>
      </trkpt>
      <trkpt lat="43.96292" lon="1.76851">
        <ele>173.4</ele>
        <time>2021-10-24T12:34:03Z</time>
      </trkpt>
      <trkpt lat="43.963" lon="1.7685">
        <ele>173.2</ele>
        <time>2021-10-24T12:34:05Z</time>
      </trkpt>
      <trkpt lat="43.96304" lon="1.76849">
        <ele>173</ele>
        <time>2021-10-24T12:34:06Z</time>
      </trkpt>
      <trkpt lat="43.96312" lon="1.76844">
        <ele>172.8</ele>
        <time>2021-10-24T12:34:08Z</time>
      </trkpt>
      <trkpt lat="43.96317" lon="1.76842">
        <ele>172.8</ele>
        <time>2021-10-24T12:34:09Z</time>
      </trkpt>
      <trkpt lat="43.96322" lon="1.76841">
        <ele>172.2</ele>
        <time>2021-10-24T12:34:10Z</time>
      </trkpt>
      <trkpt lat="43.96326" lon="1.76842">
        <ele>172.2</ele>
        <time>2021-10-24T12:34:11Z</time>
      </trkpt>
      <trkpt lat="43.96332" lon="1.76844">
        <ele>172</ele>
        <time>2021-10-24T12:34:12Z</time>
      </trkpt>
      <trkpt lat="43.96336" lon="1.76846">
        <ele>171.8</ele>
        <time>2021-10-24T12:34:13Z</time>
      </trkpt>
      <trkpt lat="43.96341" lon="1.76848">
        <ele>171.6</ele>
        <time>2021-10-24T12:34:14Z</time>
      </trkpt>
      <trkpt lat="43.96345" lon="1.7685">
        <ele>171.4</ele>
        <time>2021-10-24T12:34:15Z</time>
      </trkpt>
      <trkpt lat="43.96354" lon="1.76857">
        <ele>171.4</ele>
        <time>2021-10-24T12:34:17Z</time>
      </trkpt>
      <trkpt lat="43.96358" lon="1.76861">
        <ele>171.2</ele>
        <time>2021-10-24T12:34:18Z</time>
      </trkpt>
      <trkpt lat="43.96362" lon="1.76867">
        <ele>171.2</ele>
        <time>2021-10-24T12:34:19Z</time>
      </trkpt>
      <trkpt lat="43.96364" lon="1.76872">
        <ele>171.2</ele>
        <time>2021-10-24T12:34:20Z</time>
      </trkpt>
      <trkpt lat="43.96367" lon="1.76878">
        <ele>171.2</ele>
        <time>2021-10-24T12:34:21Z</time>
      </trkpt>
      <trkpt lat="43.96369" lon="1.76887">
        <ele>171</ele>
        <time>2021-10-24T12:34:22Z</time>
      </trkpt>
      <trkpt lat="43.96371" lon="1.76895">
        <ele>171</ele>
        <time>2021-10-24T12:34:23Z</time>
      </trkpt>
      <trkpt lat="43.96379" lon="1.76933">
        <ele>170.4</ele>
        <time>2021-10-24T12:34:28Z</time>
      </trkpt>
      <trkpt lat="43.96381" lon="1.76941">
        <ele>170.4</ele>
        <time>2021-10-24T12:34:29Z</time>
      </trkpt>
      <trkpt lat="43.96386" lon="1.76954">
        <ele>170.2</ele>
        <time>2021-10-24T12:34:31Z</time>
      </trkpt>
      <trkpt lat="43.96399" lon="1.76975">
        <ele>170</ele>
        <time>2021-10-24T12:34:34Z</time>
      </trkpt>
      <trkpt lat="43.96407" lon="1.76986">
        <ele>169.6</ele>
        <time>2021-10-24T12:34:36Z</time>
      </trkpt>
      <trkpt lat="43.96419" lon="1.76997">
        <ele>168.8</ele>
        <time>2021-10-24T12:34:38Z</time>
      </trkpt>
      <trkpt lat="43.96425" lon="1.77002">
        <ele>168.8</ele>
        <time>2021-10-24T12:34:39Z</time>
      </trkpt>
      <trkpt lat="43.96436" lon="1.77008">
        <ele>168.6</ele>
        <time>2021-10-24T12:34:41Z</time>
      </trkpt>
      <trkpt lat="43.96442" lon="1.77011">
        <ele>168.4</ele>
        <time>2021-10-24T12:34:42Z</time>
      </trkpt>
      <trkpt lat="43.96456" lon="1.77014">
        <ele>168</ele>
        <time>2021-10-24T12:34:44Z</time>
      </trkpt>
      <trkpt lat="43.96461" lon="1.77016">
        <ele>167.8</ele>
        <time>2021-10-24T12:34:45Z</time>
      </trkpt>
      <trkpt lat="43.96467" lon="1.77017">
        <ele>167.8</ele>
        <time>2021-10-24T12:34:46Z</time>
      </trkpt>
      <trkpt lat="43.96472" lon="1.77018">
        <ele>167.6</ele>
        <time>2021-10-24T12:34:47Z</time>
      </trkpt>
      <trkpt lat="43.96479" lon="1.7702">
        <ele>167.4</ele>
        <time>2021-10-24T12:34:48Z</time>
      </trkpt>
      <trkpt lat="43.96484" lon="1.77021">
        <ele>167.4</ele>
        <time>2021-10-24T12:34:49Z</time>
      </trkpt>
      <trkpt lat="43.96488" lon="1.77022">
        <ele>167.2</ele>
        <time>2021-10-24T12:34:50Z</time>
      </trkpt>
      <trkpt lat="43.96493" lon="1.77023">
        <ele>167</ele>
        <time>2021-10-24T12:34:51Z</time>
      </trkpt>
      <trkpt lat="43.96497" lon="1.77025">
        <ele>167</ele>
        <time>2021-10-24T12:34:52Z</time>
      </trkpt>
      <trkpt lat="43.96502" lon="1.77026">
        <ele>166.8</ele>
        <time>2021-10-24T12:34:53Z</time>
      </trkpt>
      <trkpt lat="43.96506" lon="1.77026">
        <ele>166.6</ele>
        <time>2021-10-24T12:34:54Z</time>
      </trkpt>
      <trkpt lat="43.96514" lon="1.77024">
        <ele>166.4</ele>
        <time>2021-10-24T12:34:56Z</time>
      </trkpt>
      <trkpt lat="43.96516" lon="1.7702">
        <ele>166.4</ele>
        <time>2021-10-24T12:34:57Z</time>
      </trkpt>
      <trkpt lat="43.96519" lon="1.77014">
        <ele>166.4</ele>
        <time>2021-10-24T12:34:58Z</time>
      </trkpt>
      <trkpt lat="43.9652" lon="1.77008">
        <ele>166.2</ele>
        <time>2021-10-24T12:34:59Z</time>
      </trkpt>
      <trkpt lat="43.96521" lon="1.77004">
        <ele>166</ele>
        <time>2021-10-24T12:35:00Z</time>
      </trkpt>
      <trkpt lat="43.96523" lon="1.76998">
        <ele>165.8</ele>
        <time>2021-10-24T12:35:01Z</time>
      </trkpt>
      <trkpt lat="43.96526" lon="1.76986">
        <ele>165.8</ele>
        <time>2021-10-24T12:35:03Z</time>
      </trkpt>
      <trkpt lat="43.96529" lon="1.76976">
        <ele>165.6</ele>
        <time>2021-10-24T12:35:05Z</time>
      </trkpt>
      <trkpt lat="43.9653" lon="1.7697">
        <ele>165.6</ele>
        <time>2021-10-24T12:35:06Z</time>
      </trkpt>
      <trkpt lat="43.96531" lon="1.76965">
        <ele>165.6</ele>
        <time>2021-10-24T12:35:07Z</time>
      </trkpt>
      <trkpt lat="43.96533" lon="1.76959">
        <ele>165.6</ele>
        <time>2021-10-24T12:35:08Z</time>
      </trkpt>
      <trkpt lat="43.96534" lon="1.76954">
        <ele>165.6</ele>
        <time>2021-10-24T12:35:09Z</time>
      </trkpt>
      <trkpt lat="43.96534" lon="1.7695">
        <ele>165.6</ele>
        <time>2021-10-24T12:35:10Z</time>
      </trkpt>
      <trkpt lat="43.96535" lon="1.76944">
        <ele>165.6</ele>
        <time>2021-10-24T12:35:11Z</time>
      </trkpt>
      <trkpt lat="43.96536" lon="1.76939">
        <ele>165.6</ele>
        <time>2021-10-24T12:35:12Z</time>
      </trkpt>
      <trkpt lat="43.9654" lon="1.76919">
        <ele>165.8</ele>
        <time>2021-10-24T12:35:16Z</time>
      </trkpt>
      <trkpt lat="43.96544" lon="1.76871">
        <ele>166.2</ele>
        <time>2021-10-24T12:35:25Z</time>
      </trkpt>
      <trkpt lat="43.96542" lon="1.76854">
        <ele>166.4</ele>
        <time>2021-10-24T12:35:28Z</time>
      </trkpt>
      <trkpt lat="43.96542" lon="1.76849">
        <ele>166.6</ele>
        <time>2021-10-24T12:35:29Z</time>
      </trkpt>
      <trkpt lat="43.96541" lon="1.76845">
        <ele>166.8</ele>
        <time>2021-10-24T12:35:30Z</time>
      </trkpt>
      <trkpt lat="43.96537" lon="1.76835">
        <ele>167</ele>
        <time>2021-10-24T12:35:32Z</time>
      </trkpt>
      <trkpt lat="43.96535" lon="1.76829">
        <ele>167.2</ele>
        <time>2021-10-24T12:35:33Z</time>
      </trkpt>
      <trkpt lat="43.96534" lon="1.76824">
        <ele>167.2</ele>
        <time>2021-10-24T12:35:34Z</time>
      </trkpt>
      <trkpt lat="43.96532" lon="1.7682">
        <ele>167.2</ele>
        <time>2021-10-24T12:35:35Z</time>
      </trkpt>
      <trkpt lat="43.96526" lon="1.76799">
        <ele>167.4</ele>
        <time>2021-10-24T12:35:39Z</time>
      </trkpt>
      <trkpt lat="43.96525" lon="1.76789">
        <ele>167.4</ele>
        <time>2021-10-24T12:35:41Z</time>
      </trkpt>
      <trkpt lat="43.96525" lon="1.76783">
        <ele>167.4</ele>
        <time>2021-10-24T12:35:42Z</time>
      </trkpt>
      <trkpt lat="43.96526" lon="1.76776">
        <ele>167.4</ele>
        <time>2021-10-24T12:35:43Z</time>
      </trkpt>
      <trkpt lat="43.96529" lon="1.76763">
        <ele>167.4</ele>
        <time>2021-10-24T12:35:45Z</time>
      </trkpt>
      <trkpt lat="43.96533" lon="1.76752">
        <ele>167.4</ele>
        <time>2021-10-24T12:35:47Z</time>
      </trkpt>
      <trkpt lat="43.96536" lon="1.76746">
        <ele>167.4</ele>
        <time>2021-10-24T12:35:48Z</time>
      </trkpt>
      <trkpt lat="43.96541" lon="1.76734">
        <ele>167.4</ele>
        <time>2021-10-24T12:35:50Z</time>
      </trkpt>
      <trkpt lat="43.96543" lon="1.7673">
        <ele>167.2</ele>
        <time>2021-10-24T12:35:51Z</time>
      </trkpt>
      <trkpt lat="43.96545" lon="1.76725">
        <ele>167.2</ele>
        <time>2021-10-24T12:35:52Z</time>
      </trkpt>
      <trkpt lat="43.96548" lon="1.76718">
        <ele>167</ele>
        <time>2021-10-24T12:35:53Z</time>
      </trkpt>
      <trkpt lat="43.96549" lon="1.76713">
        <ele>167</ele>
        <time>2021-10-24T12:35:54Z</time>
      </trkpt>
      <trkpt lat="43.9655" lon="1.76708">
        <ele>166.8</ele>
        <time>2021-10-24T12:35:55Z</time>
      </trkpt>
      <trkpt lat="43.96551" lon="1.76705">
        <ele>166.8</ele>
        <time>2021-10-24T12:35:56Z</time>
      </trkpt>
      <trkpt lat="43.96552" lon="1.76702">
        <ele>166.8</ele>
        <time>2021-10-24T12:35:57Z</time>
      </trkpt>
      <trkpt lat="43.96553" lon="1.76697">
        <ele>166.8</ele>
        <time>2021-10-24T12:35:58Z</time>
      </trkpt>
      <trkpt lat="43.96552" lon="1.76692">
        <ele>166.8</ele>
        <time>2021-10-24T12:35:59Z</time>
      </trkpt>
      <trkpt lat="43.9655" lon="1.76688">
        <ele>166.8</ele>
        <time>2021-10-24T12:36:00Z</time>
      </trkpt>
      <trkpt lat="43.96549" lon="1.76684">
        <ele>166.8</ele>
        <time>2021-10-24T12:36:01Z</time>
      </trkpt>
      <trkpt lat="43.96547" lon="1.76679">
        <ele>166.8</ele>
        <time>2021-10-24T12:36:02Z</time>
      </trkpt>
      <trkpt lat="43.96544" lon="1.76674">
        <ele>166.8</ele>
        <time>2021-10-24T12:36:03Z</time>
      </trkpt>
      <trkpt lat="43.9653" lon="1.76648">
        <ele>166.8</ele>
        <time>2021-10-24T12:36:08Z</time>
      </trkpt>
      <trkpt lat="43.96524" lon="1.76631">
        <ele>166.8</ele>
        <time>2021-10-24T12:36:11Z</time>
      </trkpt>
      <trkpt lat="43.96521" lon="1.76615">
        <ele>166.6</ele>
        <time>2021-10-24T12:36:13Z</time>
      </trkpt>
      <trkpt lat="43.9652" lon="1.76608">
        <ele>166.6</ele>
        <time>2021-10-24T12:36:14Z</time>
      </trkpt>
      <trkpt lat="43.9652" lon="1.76601">
        <ele>166.4</ele>
        <time>2021-10-24T12:36:15Z</time>
      </trkpt>
      <trkpt lat="43.9652" lon="1.76595">
        <ele>166.4</ele>
        <time>2021-10-24T12:36:16Z</time>
      </trkpt>
      <trkpt lat="43.96521" lon="1.76588">
        <ele>166.4</ele>
        <time>2021-10-24T12:36:17Z</time>
      </trkpt>
      <trkpt lat="43.96521" lon="1.7658">
        <ele>166.2</ele>
        <time>2021-10-24T12:36:18Z</time>
      </trkpt>
      <trkpt lat="43.96522" lon="1.76574">
        <ele>166.2</ele>
        <time>2021-10-24T12:36:19Z</time>
      </trkpt>
      <trkpt lat="43.96522" lon="1.76562">
        <ele>166.2</ele>
        <time>2021-10-24T12:36:21Z</time>
      </trkpt>
      <trkpt lat="43.9652" lon="1.7652">
        <ele>165.6</ele>
        <time>2021-10-24T12:36:27Z</time>
      </trkpt>
      <trkpt lat="43.96518" lon="1.76497">
        <ele>165.4</ele>
        <time>2021-10-24T12:36:30Z</time>
      </trkpt>
      <trkpt lat="43.96517" lon="1.76492">
        <ele>165.4</ele>
        <time>2021-10-24T12:36:31Z</time>
      </trkpt>
      <trkpt lat="43.96516" lon="1.76484">
        <ele>165.2</ele>
        <time>2021-10-24T12:36:32Z</time>
      </trkpt>
      <trkpt lat="43.96515" lon="1.76477">
        <ele>165.2</ele>
        <time>2021-10-24T12:36:33Z</time>
      </trkpt>
      <trkpt lat="43.96513" lon="1.76469">
        <ele>165</ele>
        <time>2021-10-24T12:36:34Z</time>
      </trkpt>
      <trkpt lat="43.96509" lon="1.76443">
        <ele>164.8</ele>
        <time>2021-10-24T12:36:38Z</time>
      </trkpt>
      <trkpt lat="43.96507" lon="1.76435">
        <ele>164.6</ele>
        <time>2021-10-24T12:36:39Z</time>
      </trkpt>
      <trkpt lat="43.96505" lon="1.76422">
        <ele>164.6</ele>
        <time>2021-10-24T12:36:41Z</time>
      </trkpt>
      <trkpt lat="43.96502" lon="1.76408">
        <ele>164.6</ele>
        <time>2021-10-24T12:36:43Z</time>
      </trkpt>
      <trkpt lat="43.96498" lon="1.76393">
        <ele>164.6</ele>
        <time>2021-10-24T12:36:45Z</time>
      </trkpt>
      <trkpt lat="43.96495" lon="1.76381">
        <ele>164.4</ele>
        <time>2021-10-24T12:36:47Z</time>
      </trkpt>
      <trkpt lat="43.96476" lon="1.76305">
        <ele>164</ele>
        <time>2021-10-24T12:36:58Z</time>
      </trkpt>
      <trkpt lat="43.9647" lon="1.76285">
        <ele>163.8</ele>
        <time>2021-10-24T12:37:01Z</time>
      </trkpt>
      <trkpt lat="43.96464" lon="1.76263">
        <ele>163.6</ele>
        <time>2021-10-24T12:37:04Z</time>
      </trkpt>
      <trkpt lat="43.96462" lon="1.76256">
        <ele>163.6</ele>
        <time>2021-10-24T12:37:05Z</time>
      </trkpt>
      <trkpt lat="43.96458" lon="1.76244">
        <ele>163.6</ele>
        <time>2021-10-24T12:37:07Z</time>
      </trkpt>
      <trkpt lat="43.96456" lon="1.76238">
        <ele>163.6</ele>
        <time>2021-10-24T12:37:08Z</time>
      </trkpt>
      <trkpt lat="43.96454" lon="1.7623">
        <ele>163.4</ele>
        <time>2021-10-24T12:37:09Z</time>
      </trkpt>
      <trkpt lat="43.96445" lon="1.76205">
        <ele>163.4</ele>
        <time>2021-10-24T12:37:13Z</time>
      </trkpt>
      <trkpt lat="43.96442" lon="1.76197">
        <ele>163.4</ele>
        <time>2021-10-24T12:37:14Z</time>
      </trkpt>
      <trkpt lat="43.9644" lon="1.76191">
        <ele>163.4</ele>
        <time>2021-10-24T12:37:15Z</time>
      </trkpt>
      <trkpt lat="43.96437" lon="1.76185">
        <ele>163.4</ele>
        <time>2021-10-24T12:37:16Z</time>
      </trkpt>
      <trkpt lat="43.96435" lon="1.7618">
        <ele>163.4</ele>
        <time>2021-10-24T12:37:17Z</time>
      </trkpt>
      <trkpt lat="43.96432" lon="1.76175">
        <ele>163.4</ele>
        <time>2021-10-24T12:37:18Z</time>
      </trkpt>
      <trkpt lat="43.96429" lon="1.76168">
        <ele>163.4</ele>
        <time>2021-10-24T12:37:19Z</time>
      </trkpt>
      <trkpt lat="43.96427" lon="1.76162">
        <ele>163.4</ele>
        <time>2021-10-24T12:37:20Z</time>
      </trkpt>
      <trkpt lat="43.96424" lon="1.76157">
        <ele>163.4</ele>
        <time>2021-10-24T12:37:21Z</time>
      </trkpt>
      <trkpt lat="43.96422" lon="1.76153">
        <ele>163.4</ele>
        <time>2021-10-24T12:37:22Z</time>
      </trkpt>
      <trkpt lat="43.96419" lon="1.76148">
        <ele>163.6</ele>
        <time>2021-10-24T12:37:23Z</time>
      </trkpt>
      <trkpt lat="43.96417" lon="1.76142">
        <ele>163.6</ele>
        <time>2021-10-24T12:37:24Z</time>
      </trkpt>
      <trkpt lat="43.96414" lon="1.76136">
        <ele>163.8</ele>
        <time>2021-10-24T12:37:25Z</time>
      </trkpt>
      <trkpt lat="43.96411" lon="1.76131">
        <ele>163.8</ele>
        <time>2021-10-24T12:37:26Z</time>
      </trkpt>
      <trkpt lat="43.96409" lon="1.76126">
        <ele>163.8</ele>
        <time>2021-10-24T12:37:27Z</time>
      </trkpt>
      <trkpt lat="43.96407" lon="1.76121">
        <ele>164</ele>
        <time>2021-10-24T12:37:28Z</time>
      </trkpt>
      <trkpt lat="43.96404" lon="1.76116">
        <ele>164.2</ele>
        <time>2021-10-24T12:37:29Z</time>
      </trkpt>
      <trkpt lat="43.96402" lon="1.76111">
        <ele>164.2</ele>
        <time>2021-10-24T12:37:30Z</time>
      </trkpt>
      <trkpt lat="43.96401" lon="1.76107">
        <ele>164.2</ele>
        <time>2021-10-24T12:37:31Z</time>
      </trkpt>
      <trkpt lat="43.96398" lon="1.76091">
        <ele>164.6</ele>
        <time>2021-10-24T12:37:34Z</time>
      </trkpt>
      <trkpt lat="43.96397" lon="1.76079">
        <ele>164.8</ele>
        <time>2021-10-24T12:37:36Z</time>
      </trkpt>
      <trkpt lat="43.96397" lon="1.76072">
        <ele>164.8</ele>
        <time>2021-10-24T12:37:37Z</time>
      </trkpt>
      <trkpt lat="43.964" lon="1.76025">
        <ele>165</ele>
        <time>2021-10-24T12:37:44Z</time>
      </trkpt>
      <trkpt lat="43.96401" lon="1.76018">
        <ele>165.2</ele>
        <time>2021-10-24T12:37:45Z</time>
      </trkpt>
      <trkpt lat="43.96401" lon="1.76012">
        <ele>165.2</ele>
        <time>2021-10-24T12:37:46Z</time>
      </trkpt>
      <trkpt lat="43.96401" lon="1.76005">
        <ele>165.2</ele>
        <time>2021-10-24T12:37:47Z</time>
      </trkpt>
      <trkpt lat="43.96402" lon="1.75998">
        <ele>165.2</ele>
        <time>2021-10-24T12:37:48Z</time>
      </trkpt>
      <trkpt lat="43.96402" lon="1.75992">
        <ele>165.2</ele>
        <time>2021-10-24T12:37:49Z</time>
      </trkpt>
      <trkpt lat="43.96403" lon="1.75986">
        <ele>165.2</ele>
        <time>2021-10-24T12:37:50Z</time>
      </trkpt>
      <trkpt lat="43.96403" lon="1.7598">
        <ele>165.2</ele>
        <time>2021-10-24T12:37:51Z</time>
      </trkpt>
      <trkpt lat="43.96403" lon="1.75974">
        <ele>165.2</ele>
        <time>2021-10-24T12:37:52Z</time>
      </trkpt>
      <trkpt lat="43.96403" lon="1.75968">
        <ele>165.2</ele>
        <time>2021-10-24T12:37:53Z</time>
      </trkpt>
      <trkpt lat="43.96403" lon="1.75963">
        <ele>165.2</ele>
        <time>2021-10-24T12:37:54Z</time>
      </trkpt>
      <trkpt lat="43.96403" lon="1.75957">
        <ele>165.2</ele>
        <time>2021-10-24T12:37:55Z</time>
      </trkpt>
      <trkpt lat="43.96404" lon="1.75954">
        <ele>165.2</ele>
        <time>2021-10-24T12:37:56Z</time>
      </trkpt>
      <trkpt lat="43.96407" lon="1.7595">
        <ele>165</ele>
        <time>2021-10-24T12:37:57Z</time>
      </trkpt>
      <trkpt lat="43.9641" lon="1.75947">
        <ele>165</ele>
        <time>2021-10-24T12:37:58Z</time>
      </trkpt>
      <trkpt lat="43.96418" lon="1.75945">
        <ele>165</ele>
        <time>2021-10-24T12:38:00Z</time>
      </trkpt>
      <trkpt lat="43.96423" lon="1.75946">
        <ele>165</ele>
        <time>2021-10-24T12:38:01Z</time>
      </trkpt>
      <trkpt lat="43.96427" lon="1.75946">
        <ele>165</ele>
        <time>2021-10-24T12:38:02Z</time>
      </trkpt>
      <trkpt lat="43.96432" lon="1.75946">
        <ele>165</ele>
        <time>2021-10-24T12:38:03Z</time>
      </trkpt>
      <trkpt lat="43.96462" lon="1.75947">
        <ele>164.6</ele>
        <time>2021-10-24T12:38:09Z</time>
      </trkpt>
      <trkpt lat="43.96509" lon="1.75949">
        <ele>164</ele>
        <time>2021-10-24T12:38:18Z</time>
      </trkpt>
      <trkpt lat="43.96561" lon="1.75949">
        <ele>163.4</ele>
        <time>2021-10-24T12:38:27Z</time>
      </trkpt>
      <trkpt lat="43.96567" lon="1.75949">
        <ele>163.4</ele>
        <time>2021-10-24T12:38:28Z</time>
      </trkpt>
      <trkpt lat="43.96603" lon="1.75951">
        <ele>162.6</ele>
        <time>2021-10-24T12:38:34Z</time>
      </trkpt>
      <trkpt lat="43.96608" lon="1.75951">
        <ele>162.6</ele>
        <time>2021-10-24T12:38:35Z</time>
      </trkpt>
      <trkpt lat="43.96614" lon="1.75951">
        <ele>162.6</ele>
        <time>2021-10-24T12:38:36Z</time>
      </trkpt>
      <trkpt lat="43.96619" lon="1.75951">
        <ele>162.6</ele>
        <time>2021-10-24T12:38:37Z</time>
      </trkpt>
      <trkpt lat="43.96625" lon="1.75952">
        <ele>162.4</ele>
        <time>2021-10-24T12:38:38Z</time>
      </trkpt>
      <trkpt lat="43.9663" lon="1.75952">
        <ele>162.2</ele>
        <time>2021-10-24T12:38:39Z</time>
      </trkpt>
      <trkpt lat="43.96645" lon="1.75952">
        <ele>162</ele>
        <time>2021-10-24T12:38:42Z</time>
      </trkpt>
      <trkpt lat="43.96661" lon="1.75953">
        <ele>161.6</ele>
        <time>2021-10-24T12:38:45Z</time>
      </trkpt>
      <trkpt lat="43.96667" lon="1.75953">
        <ele>161.4</ele>
        <time>2021-10-24T12:38:46Z</time>
      </trkpt>
      <trkpt lat="43.96673" lon="1.75953">
        <ele>161.4</ele>
        <time>2021-10-24T12:38:47Z</time>
      </trkpt>
      <trkpt lat="43.96677" lon="1.75953">
        <ele>161.2</ele>
        <time>2021-10-24T12:38:48Z</time>
      </trkpt>
      <trkpt lat="43.96681" lon="1.75953">
        <ele>161.2</ele>
        <time>2021-10-24T12:38:49Z</time>
      </trkpt>
      <trkpt lat="43.96685" lon="1.75953">
        <ele>161.2</ele>
        <time>2021-10-24T12:38:50Z</time>
      </trkpt>
      <trkpt lat="43.96694" lon="1.75953">
        <ele>161.2</ele>
        <time>2021-10-24T12:38:52Z</time>
      </trkpt>
      <trkpt lat="43.96705" lon="1.75951">
        <ele>161.4</ele>
        <time>2021-10-24T12:38:55Z</time>
      </trkpt>
      <trkpt lat="43.96749" lon="1.75949">
        <ele>161.6</ele>
        <time>2021-10-24T12:39:04Z</time>
      </trkpt>
      <trkpt lat="43.96771" lon="1.75947">
        <ele>161.8</ele>
        <time>2021-10-24T12:39:08Z</time>
      </trkpt>
      <trkpt lat="43.96802" lon="1.75945">
        <ele>161.8</ele>
        <time>2021-10-24T12:39:14Z</time>
      </trkpt>
      <trkpt lat="43.96806" lon="1.75945">
        <ele>161.8</ele>
        <time>2021-10-24T12:39:15Z</time>
      </trkpt>
      <trkpt lat="43.96812" lon="1.75945">
        <ele>161.8</ele>
        <time>2021-10-24T12:39:16Z</time>
      </trkpt>
      <trkpt lat="43.96817" lon="1.75945">
        <ele>161.8</ele>
        <time>2021-10-24T12:39:17Z</time>
      </trkpt>
      <trkpt lat="43.96822" lon="1.75945">
        <ele>161.8</ele>
        <time>2021-10-24T12:39:18Z</time>
      </trkpt>
      <trkpt lat="43.96825" lon="1.75944">
        <ele>161.8</ele>
        <time>2021-10-24T12:39:19Z</time>
      </trkpt>
      <trkpt lat="43.96829" lon="1.75945">
        <ele>161.8</ele>
        <time>2021-10-24T12:39:20Z</time>
      </trkpt>
      <trkpt lat="43.96833" lon="1.75945">
        <ele>162.2</ele>
        <time>2021-10-24T12:39:21Z</time>
      </trkpt>
      <trkpt lat="43.96838" lon="1.75944">
        <ele>162.4</ele>
        <time>2021-10-24T12:39:22Z</time>
      </trkpt>
      <trkpt lat="43.96841" lon="1.75944">
        <ele>162.4</ele>
        <time>2021-10-24T12:39:23Z</time>
      </trkpt>
      <trkpt lat="43.96844" lon="1.75944">
        <ele>162.6</ele>
        <time>2021-10-24T12:39:24Z</time>
      </trkpt>
      <trkpt lat="43.96847" lon="1.75944">
        <ele>162.6</ele>
        <time>2021-10-24T12:39:25Z</time>
      </trkpt>
      <trkpt lat="43.9685" lon="1.75943">
        <ele>162.8</ele>
        <time>2021-10-24T12:39:26Z</time>
      </trkpt>
      <trkpt lat="43.96854" lon="1.75943">
        <ele>162.8</ele>
        <time>2021-10-24T12:39:27Z</time>
      </trkpt>
      <trkpt lat="43.96857" lon="1.75943">
        <ele>163</ele>
        <time>2021-10-24T12:39:28Z</time>
      </trkpt>
      <trkpt lat="43.96859" lon="1.75943">
        <ele>163.2</ele>
        <time>2021-10-24T12:39:29Z</time>
      </trkpt>
      <trkpt lat="43.96862" lon="1.75943">
        <ele>163.4</ele>
        <time>2021-10-24T12:39:30Z</time>
      </trkpt>
      <trkpt lat="43.96864" lon="1.75943">
        <ele>163.8</ele>
        <time>2021-10-24T12:39:31Z</time>
      </trkpt>
      <trkpt lat="43.96867" lon="1.75944">
        <ele>164.2</ele>
        <time>2021-10-24T12:39:32Z</time>
      </trkpt>
      <trkpt lat="43.96869" lon="1.75944">
        <ele>164.6</ele>
        <time>2021-10-24T12:39:33Z</time>
      </trkpt>
      <trkpt lat="43.96872" lon="1.75944">
        <ele>164.8</ele>
        <time>2021-10-24T12:39:34Z</time>
      </trkpt>
      <trkpt lat="43.96873" lon="1.75944">
        <ele>165.2</ele>
        <time>2021-10-24T12:39:35Z</time>
      </trkpt>
      <trkpt lat="43.96876" lon="1.75945">
        <ele>165.4</ele>
        <time>2021-10-24T12:39:36Z</time>
      </trkpt>
      <trkpt lat="43.96878" lon="1.75945">
        <ele>165.6</ele>
        <time>2021-10-24T12:39:37Z</time>
      </trkpt>
      <trkpt lat="43.96881" lon="1.75945">
        <ele>165.8</ele>
        <time>2021-10-24T12:39:38Z</time>
      </trkpt>
      <trkpt lat="43.96883" lon="1.75945">
        <ele>165.8</ele>
        <time>2021-10-24T12:39:39Z</time>
      </trkpt>
      <trkpt lat="43.96885" lon="1.75945">
        <ele>166.2</ele>
        <time>2021-10-24T12:39:40Z</time>
      </trkpt>
      <trkpt lat="43.96888" lon="1.75944">
        <ele>166.4</ele>
        <time>2021-10-24T12:39:41Z</time>
      </trkpt>
      <trkpt lat="43.96891" lon="1.75942">
        <ele>166.6</ele>
        <time>2021-10-24T12:39:42Z</time>
      </trkpt>
      <trkpt lat="43.96894" lon="1.75941">
        <ele>166.6</ele>
        <time>2021-10-24T12:39:43Z</time>
      </trkpt>
      <trkpt lat="43.96896" lon="1.75939">
        <ele>166.8</ele>
        <time>2021-10-24T12:39:44Z</time>
      </trkpt>
      <trkpt lat="43.96898" lon="1.75938">
        <ele>166.8</ele>
        <time>2021-10-24T12:39:45Z</time>
      </trkpt>
      <trkpt lat="43.969" lon="1.75936">
        <ele>167</ele>
        <time>2021-10-24T12:39:46Z</time>
      </trkpt>
      <trkpt lat="43.96904" lon="1.75933">
        <ele>167.2</ele>
        <time>2021-10-24T12:39:47Z</time>
      </trkpt>
      <trkpt lat="43.96907" lon="1.75931">
        <ele>167.2</ele>
        <time>2021-10-24T12:39:48Z</time>
      </trkpt>
      <trkpt lat="43.96909" lon="1.75928">
        <ele>167.4</ele>
        <time>2021-10-24T12:39:49Z</time>
      </trkpt>
      <trkpt lat="43.96911" lon="1.75926">
        <ele>167.6</ele>
        <time>2021-10-24T12:39:50Z</time>
      </trkpt>
      <trkpt lat="43.96914" lon="1.75922">
        <ele>167.8</ele>
        <time>2021-10-24T12:39:51Z</time>
      </trkpt>
      <trkpt lat="43.96917" lon="1.75918">
        <ele>167.8</ele>
        <time>2021-10-24T12:39:52Z</time>
      </trkpt>
      <trkpt lat="43.96919" lon="1.75915">
        <ele>168</ele>
        <time>2021-10-24T12:39:53Z</time>
      </trkpt>
      <trkpt lat="43.96921" lon="1.75911">
        <ele>168.2</ele>
        <time>2021-10-24T12:39:54Z</time>
      </trkpt>
      <trkpt lat="43.96923" lon="1.75907">
        <ele>168.2</ele>
        <time>2021-10-24T12:39:55Z</time>
      </trkpt>
      <trkpt lat="43.96925" lon="1.75903">
        <ele>168.2</ele>
        <time>2021-10-24T12:39:56Z</time>
      </trkpt>
      <trkpt lat="43.96927" lon="1.75898">
        <ele>168.2</ele>
        <time>2021-10-24T12:39:57Z</time>
      </trkpt>
      <trkpt lat="43.96928" lon="1.75894">
        <ele>168.2</ele>
        <time>2021-10-24T12:39:58Z</time>
      </trkpt>
      <trkpt lat="43.9693" lon="1.7589">
        <ele>168.2</ele>
        <time>2021-10-24T12:39:59Z</time>
      </trkpt>
      <trkpt lat="43.96932" lon="1.75885">
        <ele>168.2</ele>
        <time>2021-10-24T12:40:00Z</time>
      </trkpt>
      <trkpt lat="43.96934" lon="1.75881">
        <ele>168.4</ele>
        <time>2021-10-24T12:40:01Z</time>
      </trkpt>
      <trkpt lat="43.96936" lon="1.75877">
        <ele>168.4</ele>
        <time>2021-10-24T12:40:02Z</time>
      </trkpt>
      <trkpt lat="43.96938" lon="1.75873">
        <ele>168.4</ele>
        <time>2021-10-24T12:40:03Z</time>
      </trkpt>
      <trkpt lat="43.9694" lon="1.75869">
        <ele>168.4</ele>
        <time>2021-10-24T12:40:04Z</time>
      </trkpt>
      <trkpt lat="43.96943" lon="1.75866">
        <ele>168.4</ele>
        <time>2021-10-24T12:40:05Z</time>
      </trkpt>
      <trkpt lat="43.96945" lon="1.75863">
        <ele>168.4</ele>
        <time>2021-10-24T12:40:06Z</time>
      </trkpt>
      <trkpt lat="43.96949" lon="1.75859">
        <ele>168.4</ele>
        <time>2021-10-24T12:40:07Z</time>
      </trkpt>
      <trkpt lat="43.96951" lon="1.75856">
        <ele>168.4</ele>
        <time>2021-10-24T12:40:08Z</time>
      </trkpt>
      <trkpt lat="43.96954" lon="1.75854">
        <ele>168.4</ele>
        <time>2021-10-24T12:40:09Z</time>
      </trkpt>
      <trkpt lat="43.96956" lon="1.75852">
        <ele>168.4</ele>
        <time>2021-10-24T12:40:10Z</time>
      </trkpt>
      <trkpt lat="43.96959" lon="1.7585">
        <ele>168.4</ele>
        <time>2021-10-24T12:40:11Z</time>
      </trkpt>
      <trkpt lat="43.96962" lon="1.75847">
        <ele>168.4</ele>
        <time>2021-10-24T12:40:12Z</time>
      </trkpt>
      <trkpt lat="43.96964" lon="1.75845">
        <ele>168.6</ele>
        <time>2021-10-24T12:40:13Z</time>
      </trkpt>
      <trkpt lat="43.96966" lon="1.75843">
        <ele>168.6</ele>
        <time>2021-10-24T12:40:14Z</time>
      </trkpt>
      <trkpt lat="43.96969" lon="1.75841">
        <ele>168.8</ele>
        <time>2021-10-24T12:40:15Z</time>
      </trkpt>
      <trkpt lat="43.9697" lon="1.7584">
        <ele>169</ele>
        <time>2021-10-24T12:40:16Z</time>
      </trkpt>
      <trkpt lat="43.96972" lon="1.75839">
        <ele>169.2</ele>
        <time>2021-10-24T12:40:17Z</time>
      </trkpt>
      <trkpt lat="43.96973" lon="1.75839">
        <ele>169.2</ele>
        <time>2021-10-24T12:40:18Z</time>
      </trkpt>
      <trkpt lat="43.96973" lon="1.75838">
        <ele>169.4</ele>
        <time>2021-10-24T12:40:19Z</time>
      </trkpt>
      <trkpt lat="43.96973" lon="1.75836">
        <ele>169.4</ele>
        <time>2021-10-24T12:40:20Z</time>
      </trkpt>
      <trkpt lat="43.96973" lon="1.75835">
        <ele>169.6</ele>
        <time>2021-10-24T12:40:21Z</time>
      </trkpt>
      <trkpt lat="43.96974" lon="1.75834">
        <ele>169.8</ele>
        <time>2021-10-24T12:40:22Z</time>
      </trkpt>
      <trkpt lat="43.96976" lon="1.75832">
        <ele>169.6</ele>
        <time>2021-10-24T12:40:34Z</time>
      </trkpt>
      <trkpt lat="43.96977" lon="1.75831">
        <ele>169.4</ele>
        <time>2021-10-24T12:40:35Z</time>
      </trkpt>
      <trkpt lat="43.9698" lon="1.75831">
        <ele>169.4</ele>
        <time>2021-10-24T12:40:37Z</time>
      </trkpt>
      <trkpt lat="43.96983" lon="1.75832">
        <ele>169.6</ele>
        <time>2021-10-24T12:40:38Z</time>
      </trkpt>
      <trkpt lat="43.96986" lon="1.75833">
        <ele>169.6</ele>
        <time>2021-10-24T12:40:39Z</time>
      </trkpt>
      <trkpt lat="43.96995" lon="1.75835">
        <ele>169.6</ele>
        <time>2021-10-24T12:40:42Z</time>
      </trkpt>
      <trkpt lat="43.96998" lon="1.75835">
        <ele>169.6</ele>
        <time>2021-10-24T12:40:43Z</time>
      </trkpt>
      <trkpt lat="43.97001" lon="1.75836">
        <ele>169.8</ele>
        <time>2021-10-24T12:40:44Z</time>
      </trkpt>
      <trkpt lat="43.97004" lon="1.75836">
        <ele>169.8</ele>
        <time>2021-10-24T12:40:45Z</time>
      </trkpt>
      <trkpt lat="43.97007" lon="1.75836">
        <ele>169.8</ele>
        <time>2021-10-24T12:40:46Z</time>
      </trkpt>
      <trkpt lat="43.97009" lon="1.75836">
        <ele>169.8</ele>
        <time>2021-10-24T12:40:47Z</time>
      </trkpt>
      <trkpt lat="43.97015" lon="1.75836">
        <ele>169.8</ele>
        <time>2021-10-24T12:40:49Z</time>
      </trkpt>
      <trkpt lat="43.97023" lon="1.75834">
        <ele>169.8</ele>
        <time>2021-10-24T12:40:52Z</time>
      </trkpt>
      <trkpt lat="43.97028" lon="1.75832">
        <ele>169.8</ele>
        <time>2021-10-24T12:40:54Z</time>
      </trkpt>
      <trkpt lat="43.97031" lon="1.7583">
        <ele>170</ele>
        <time>2021-10-24T12:40:55Z</time>
      </trkpt>
      <trkpt lat="43.97033" lon="1.75828">
        <ele>170</ele>
        <time>2021-10-24T12:40:56Z</time>
      </trkpt>
      <trkpt lat="43.97037" lon="1.75826">
        <ele>170.2</ele>
        <time>2021-10-24T12:40:58Z</time>
      </trkpt>
      <trkpt lat="43.97046" lon="1.75818">
        <ele>170.4</ele>
        <time>2021-10-24T12:41:02Z</time>
      </trkpt>
      <trkpt lat="43.97051" lon="1.75813">
        <ele>170.6</ele>
        <time>2021-10-24T12:41:04Z</time>
      </trkpt>
      <trkpt lat="43.97053" lon="1.75811">
        <ele>170.8</ele>
        <time>2021-10-24T12:41:05Z</time>
      </trkpt>
      <trkpt lat="43.97055" lon="1.75808">
        <ele>170.8</ele>
        <time>2021-10-24T12:41:06Z</time>
      </trkpt>
      <trkpt lat="43.97057" lon="1.75806">
        <ele>171</ele>
        <time>2021-10-24T12:41:07Z</time>
      </trkpt>
      <trkpt lat="43.97058" lon="1.75804">
        <ele>171</ele>
        <time>2021-10-24T12:41:08Z</time>
      </trkpt>
      <trkpt lat="43.9706" lon="1.75802">
        <ele>171</ele>
        <time>2021-10-24T12:41:09Z</time>
      </trkpt>
      <trkpt lat="43.97062" lon="1.758">
        <ele>171</ele>
        <time>2021-10-24T12:41:10Z</time>
      </trkpt>
      <trkpt lat="43.97064" lon="1.75798">
        <ele>171.2</ele>
        <time>2021-10-24T12:41:11Z</time>
      </trkpt>
      <trkpt lat="43.97065" lon="1.75797">
        <ele>171.4</ele>
        <time>2021-10-24T12:41:12Z</time>
      </trkpt>
      <trkpt lat="43.97067" lon="1.75795">
        <ele>171.4</ele>
        <time>2021-10-24T12:41:13Z</time>
      </trkpt>
      <trkpt lat="43.97068" lon="1.75794">
        <ele>171.6</ele>
        <time>2021-10-24T12:41:14Z</time>
      </trkpt>
      <trkpt lat="43.97069" lon="1.75792">
        <ele>171.6</ele>
        <time>2021-10-24T12:41:15Z</time>
      </trkpt>
      <trkpt lat="43.97072" lon="1.75788">
        <ele>171.8</ele>
        <time>2021-10-24T12:41:17Z</time>
      </trkpt>
      <trkpt lat="43.97074" lon="1.75787">
        <ele>172</ele>
        <time>2021-10-24T12:41:18Z</time>
      </trkpt>
      <trkpt lat="43.97075" lon="1.75786">
        <ele>172</ele>
        <time>2021-10-24T12:41:19Z</time>
      </trkpt>
      <trkpt lat="43.97076" lon="1.75785">
        <ele>172.2</ele>
        <time>2021-10-24T12:41:20Z</time>
      </trkpt>
      <trkpt lat="43.97077" lon="1.75783">
        <ele>172</ele>
        <time>2021-10-24T12:41:21Z</time>
      </trkpt>
      <trkpt lat="43.97078" lon="1.75782">
        <ele>172.2</ele>
        <time>2021-10-24T12:41:22Z</time>
      </trkpt>
      <trkpt lat="43.9708" lon="1.7578">
        <ele>172.2</ele>
        <time>2021-10-24T12:41:23Z</time>
      </trkpt>
      <trkpt lat="43.97081" lon="1.7578">
        <ele>172.4</ele>
        <time>2021-10-24T12:41:24Z</time>
      </trkpt>
      <trkpt lat="43.97082" lon="1.75778">
        <ele>172.4</ele>
        <time>2021-10-24T12:41:25Z</time>
      </trkpt>
      <trkpt lat="43.97083" lon="1.75777">
        <ele>172.6</ele>
        <time>2021-10-24T12:41:26Z</time>
      </trkpt>
      <trkpt lat="43.97084" lon="1.75776">
        <ele>172.8</ele>
        <time>2021-10-24T12:41:27Z</time>
      </trkpt>
      <trkpt lat="43.97086" lon="1.75775">
        <ele>173</ele>
        <time>2021-10-24T12:41:28Z</time>
      </trkpt>
      <trkpt lat="43.97088" lon="1.75773">
        <ele>173.4</ele>
        <time>2021-10-24T12:41:30Z</time>
      </trkpt>
      <trkpt lat="43.97089" lon="1.75771">
        <ele>173.4</ele>
        <time>2021-10-24T12:41:31Z</time>
      </trkpt>
      <trkpt lat="43.9709" lon="1.7577">
        <ele>173.4</ele>
        <time>2021-10-24T12:41:32Z</time>
      </trkpt>
      <trkpt lat="43.9709" lon="1.7577">
        <ele>173.6</ele>
        <time>2021-10-24T12:41:33Z</time>
      </trkpt>
      <trkpt lat="43.97092" lon="1.75768">
        <ele>173.8</ele>
        <time>2021-10-24T12:41:34Z</time>
      </trkpt>
      <trkpt lat="43.97093" lon="1.75767">
        <ele>173.8</ele>
        <time>2021-10-24T12:41:35Z</time>
      </trkpt>
      <trkpt lat="43.97094" lon="1.75766">
        <ele>174</ele>
        <time>2021-10-24T12:41:36Z</time>
      </trkpt>
      <trkpt lat="43.97095" lon="1.75765">
        <ele>174</ele>
        <time>2021-10-24T12:41:37Z</time>
      </trkpt>
      <trkpt lat="43.97096" lon="1.75764">
        <ele>174.2</ele>
        <time>2021-10-24T12:41:38Z</time>
      </trkpt>
      <trkpt lat="43.97096" lon="1.75763">
        <ele>174.4</ele>
        <time>2021-10-24T12:41:39Z</time>
      </trkpt>
      <trkpt lat="43.97098" lon="1.75762">
        <ele>174.6</ele>
        <time>2021-10-24T12:41:40Z</time>
      </trkpt>
      <trkpt lat="43.97098" lon="1.7576">
        <ele>175</ele>
        <time>2021-10-24T12:41:41Z</time>
      </trkpt>
      <trkpt lat="43.971" lon="1.75759">
        <ele>175.2</ele>
        <time>2021-10-24T12:41:42Z</time>
      </trkpt>
      <trkpt lat="43.97101" lon="1.75758">
        <ele>175.4</ele>
        <time>2021-10-24T12:41:43Z</time>
      </trkpt>
      <trkpt lat="43.97102" lon="1.75756">
        <ele>175.6</ele>
        <time>2021-10-24T12:41:44Z</time>
      </trkpt>
      <trkpt lat="43.97102" lon="1.75755">
        <ele>175.6</ele>
        <time>2021-10-24T12:41:45Z</time>
      </trkpt>
      <trkpt lat="43.97103" lon="1.75754">
        <ele>176</ele>
        <time>2021-10-24T12:41:46Z</time>
      </trkpt>
      <trkpt lat="43.97104" lon="1.75752">
        <ele>176</ele>
        <time>2021-10-24T12:41:47Z</time>
      </trkpt>
      <trkpt lat="43.97105" lon="1.75751">
        <ele>176.2</ele>
        <time>2021-10-24T12:41:48Z</time>
      </trkpt>
      <trkpt lat="43.97106" lon="1.7575">
        <ele>176.4</ele>
        <time>2021-10-24T12:41:49Z</time>
      </trkpt>
      <trkpt lat="43.97106" lon="1.75749">
        <ele>176.4</ele>
        <time>2021-10-24T12:41:50Z</time>
      </trkpt>
      <trkpt lat="43.97107" lon="1.75747">
        <ele>176.8</ele>
        <time>2021-10-24T12:41:51Z</time>
      </trkpt>
      <trkpt lat="43.97108" lon="1.75746">
        <ele>176.8</ele>
        <time>2021-10-24T12:41:52Z</time>
      </trkpt>
      <trkpt lat="43.97109" lon="1.75745">
        <ele>177.4</ele>
        <time>2021-10-24T12:41:53Z</time>
      </trkpt>
      <trkpt lat="43.9711" lon="1.75743">
        <ele>177.4</ele>
        <time>2021-10-24T12:41:54Z</time>
      </trkpt>
      <trkpt lat="43.97111" lon="1.75742">
        <ele>178</ele>
        <time>2021-10-24T12:41:55Z</time>
      </trkpt>
      <trkpt lat="43.97111" lon="1.75741">
        <ele>178</ele>
        <time>2021-10-24T12:41:56Z</time>
      </trkpt>
      <trkpt lat="43.97112" lon="1.7574">
        <ele>178.2</ele>
        <time>2021-10-24T12:41:57Z</time>
      </trkpt>
      <trkpt lat="43.97113" lon="1.75738">
        <ele>178.2</ele>
        <time>2021-10-24T12:41:58Z</time>
      </trkpt>
      <trkpt lat="43.97114" lon="1.75737">
        <ele>178.6</ele>
        <time>2021-10-24T12:41:59Z</time>
      </trkpt>
      <trkpt lat="43.97115" lon="1.75737">
        <ele>178.8</ele>
        <time>2021-10-24T12:42:00Z</time>
      </trkpt>
      <trkpt lat="43.97115" lon="1.75736">
        <ele>178.8</ele>
        <time>2021-10-24T12:42:01Z</time>
      </trkpt>
      <trkpt lat="43.97116" lon="1.75735">
        <ele>179.4</ele>
        <time>2021-10-24T12:42:02Z</time>
      </trkpt>
      <trkpt lat="43.97117" lon="1.75734">
        <ele>179.2</ele>
        <time>2021-10-24T12:42:03Z</time>
      </trkpt>
      <trkpt lat="43.97118" lon="1.75732">
        <ele>179.6</ele>
        <time>2021-10-24T12:42:04Z</time>
      </trkpt>
      <trkpt lat="43.97118" lon="1.75731">
        <ele>179.6</ele>
        <time>2021-10-24T12:42:05Z</time>
      </trkpt>
      <trkpt lat="43.97119" lon="1.7573">
        <ele>180</ele>
        <time>2021-10-24T12:42:06Z</time>
      </trkpt>
      <trkpt lat="43.9712" lon="1.75729">
        <ele>180</ele>
        <time>2021-10-24T12:42:07Z</time>
      </trkpt>
      <trkpt lat="43.97121" lon="1.75727">
        <ele>180.4</ele>
        <time>2021-10-24T12:42:08Z</time>
      </trkpt>
      <trkpt lat="43.97122" lon="1.75725">
        <ele>180.6</ele>
        <time>2021-10-24T12:42:09Z</time>
      </trkpt>
      <trkpt lat="43.97123" lon="1.75724">
        <ele>180.8</ele>
        <time>2021-10-24T12:42:10Z</time>
      </trkpt>
      <trkpt lat="43.97123" lon="1.75723">
        <ele>181</ele>
        <time>2021-10-24T12:42:11Z</time>
      </trkpt>
      <trkpt lat="43.97124" lon="1.75722">
        <ele>181</ele>
        <time>2021-10-24T12:42:12Z</time>
      </trkpt>
      <trkpt lat="43.97125" lon="1.75721">
        <ele>181.2</ele>
        <time>2021-10-24T12:42:13Z</time>
      </trkpt>
      <trkpt lat="43.97126" lon="1.7572">
        <ele>181.4</ele>
        <time>2021-10-24T12:42:14Z</time>
      </trkpt>
      <trkpt lat="43.97127" lon="1.75718">
        <ele>181.6</ele>
        <time>2021-10-24T12:42:15Z</time>
      </trkpt>
      <trkpt lat="43.97128" lon="1.75717">
        <ele>181.8</ele>
        <time>2021-10-24T12:42:16Z</time>
      </trkpt>
      <trkpt lat="43.97129" lon="1.75716">
        <ele>182</ele>
        <time>2021-10-24T12:42:17Z</time>
      </trkpt>
      <trkpt lat="43.9713" lon="1.75714">
        <ele>182.2</ele>
        <time>2021-10-24T12:42:18Z</time>
      </trkpt>
      <trkpt lat="43.97131" lon="1.75712">
        <ele>182.2</ele>
        <time>2021-10-24T12:42:19Z</time>
      </trkpt>
      <trkpt lat="43.97132" lon="1.75711">
        <ele>182.6</ele>
        <time>2021-10-24T12:42:20Z</time>
      </trkpt>
      <trkpt lat="43.97132" lon="1.7571">
        <ele>182.8</ele>
        <time>2021-10-24T12:42:21Z</time>
      </trkpt>
      <trkpt lat="43.97133" lon="1.75708">
        <ele>183</ele>
        <time>2021-10-24T12:42:22Z</time>
      </trkpt>
      <trkpt lat="43.97134" lon="1.75707">
        <ele>183.2</ele>
        <time>2021-10-24T12:42:23Z</time>
      </trkpt>
      <trkpt lat="43.97135" lon="1.75705">
        <ele>183.4</ele>
        <time>2021-10-24T12:42:24Z</time>
      </trkpt>
      <trkpt lat="43.97135" lon="1.75704">
        <ele>183.6</ele>
        <time>2021-10-24T12:42:25Z</time>
      </trkpt>
      <trkpt lat="43.97136" lon="1.75703">
        <ele>183.6</ele>
        <time>2021-10-24T12:42:26Z</time>
      </trkpt>
      <trkpt lat="43.97137" lon="1.75702">
        <ele>183.8</ele>
        <time>2021-10-24T12:42:27Z</time>
      </trkpt>
      <trkpt lat="43.97138" lon="1.757">
        <ele>183.8</ele>
        <time>2021-10-24T12:42:28Z</time>
      </trkpt>
      <trkpt lat="43.97138" lon="1.75698">
        <ele>184</ele>
        <time>2021-10-24T12:42:29Z</time>
      </trkpt>
      <trkpt lat="43.97139" lon="1.75696">
        <ele>184</ele>
        <time>2021-10-24T12:42:30Z</time>
      </trkpt>
      <trkpt lat="43.9714" lon="1.75695">
        <ele>184.4</ele>
        <time>2021-10-24T12:42:31Z</time>
      </trkpt>
      <trkpt lat="43.9714" lon="1.75693">
        <ele>184.6</ele>
        <time>2021-10-24T12:42:32Z</time>
      </trkpt>
      <trkpt lat="43.97141" lon="1.75692">
        <ele>184.6</ele>
        <time>2021-10-24T12:42:33Z</time>
      </trkpt>
      <trkpt lat="43.97142" lon="1.75691">
        <ele>184.8</ele>
        <time>2021-10-24T12:42:34Z</time>
      </trkpt>
      <trkpt lat="43.97142" lon="1.75689">
        <ele>184.8</ele>
        <time>2021-10-24T12:42:35Z</time>
      </trkpt>
      <trkpt lat="43.97143" lon="1.75687">
        <ele>185.2</ele>
        <time>2021-10-24T12:42:36Z</time>
      </trkpt>
      <trkpt lat="43.97144" lon="1.75686">
        <ele>185.2</ele>
        <time>2021-10-24T12:42:37Z</time>
      </trkpt>
      <trkpt lat="43.97145" lon="1.75684">
        <ele>185.4</ele>
        <time>2021-10-24T12:42:38Z</time>
      </trkpt>
      <trkpt lat="43.97146" lon="1.75683">
        <ele>185.6</ele>
        <time>2021-10-24T12:42:39Z</time>
      </trkpt>
      <trkpt lat="43.97147" lon="1.75681">
        <ele>185.6</ele>
        <time>2021-10-24T12:42:40Z</time>
      </trkpt>
      <trkpt lat="43.97147" lon="1.75679">
        <ele>185.6</ele>
        <time>2021-10-24T12:42:41Z</time>
      </trkpt>
      <trkpt lat="43.97148" lon="1.75677">
        <ele>185.6</ele>
        <time>2021-10-24T12:42:42Z</time>
      </trkpt>
      <trkpt lat="43.97149" lon="1.75676">
        <ele>185.8</ele>
        <time>2021-10-24T12:42:43Z</time>
      </trkpt>
      <trkpt lat="43.97149" lon="1.75674">
        <ele>186</ele>
        <time>2021-10-24T12:42:44Z</time>
      </trkpt>
      <trkpt lat="43.9715" lon="1.75671">
        <ele>186.6</ele>
        <time>2021-10-24T12:42:45Z</time>
      </trkpt>
      <trkpt lat="43.97151" lon="1.75669">
        <ele>186.6</ele>
        <time>2021-10-24T12:42:46Z</time>
      </trkpt>
      <trkpt lat="43.97152" lon="1.75668">
        <ele>186.8</ele>
        <time>2021-10-24T12:42:47Z</time>
      </trkpt>
      <trkpt lat="43.97153" lon="1.75666">
        <ele>187.2</ele>
        <time>2021-10-24T12:42:48Z</time>
      </trkpt>
      <trkpt lat="43.97153" lon="1.75665">
        <ele>187.4</ele>
        <time>2021-10-24T12:42:49Z</time>
      </trkpt>
      <trkpt lat="43.97154" lon="1.75663">
        <ele>187.4</ele>
        <time>2021-10-24T12:42:50Z</time>
      </trkpt>
      <trkpt lat="43.97155" lon="1.75661">
        <ele>187.6</ele>
        <time>2021-10-24T12:42:51Z</time>
      </trkpt>
      <trkpt lat="43.97156" lon="1.7566">
        <ele>187.6</ele>
        <time>2021-10-24T12:42:52Z</time>
      </trkpt>
      <trkpt lat="43.97156" lon="1.75659">
        <ele>187.8</ele>
        <time>2021-10-24T12:42:53Z</time>
      </trkpt>
      <trkpt lat="43.97157" lon="1.75657">
        <ele>188</ele>
        <time>2021-10-24T12:42:54Z</time>
      </trkpt>
      <trkpt lat="43.97158" lon="1.75656">
        <ele>188</ele>
        <time>2021-10-24T12:42:55Z</time>
      </trkpt>
      <trkpt lat="43.97159" lon="1.75654">
        <ele>188.2</ele>
        <time>2021-10-24T12:42:56Z</time>
      </trkpt>
      <trkpt lat="43.97159" lon="1.75652">
        <ele>188.6</ele>
        <time>2021-10-24T12:42:57Z</time>
      </trkpt>
      <trkpt lat="43.97159" lon="1.75651">
        <ele>188.6</ele>
        <time>2021-10-24T12:42:58Z</time>
      </trkpt>
      <trkpt lat="43.9716" lon="1.75649">
        <ele>188.8</ele>
        <time>2021-10-24T12:42:59Z</time>
      </trkpt>
      <trkpt lat="43.97161" lon="1.75647">
        <ele>189</ele>
        <time>2021-10-24T12:43:00Z</time>
      </trkpt>
      <trkpt lat="43.97162" lon="1.75644">
        <ele>189</ele>
        <time>2021-10-24T12:43:01Z</time>
      </trkpt>
      <trkpt lat="43.97162" lon="1.75642">
        <ele>189</ele>
        <time>2021-10-24T12:43:02Z</time>
      </trkpt>
      <trkpt lat="43.97162" lon="1.75641">
        <ele>189.2</ele>
        <time>2021-10-24T12:43:03Z</time>
      </trkpt>
      <trkpt lat="43.97163" lon="1.7564">
        <ele>189.4</ele>
        <time>2021-10-24T12:43:04Z</time>
      </trkpt>
      <trkpt lat="43.97164" lon="1.75638">
        <ele>189.6</ele>
        <time>2021-10-24T12:43:05Z</time>
      </trkpt>
      <trkpt lat="43.97165" lon="1.75636">
        <ele>190</ele>
        <time>2021-10-24T12:43:06Z</time>
      </trkpt>
      <trkpt lat="43.97166" lon="1.75634">
        <ele>190</ele>
        <time>2021-10-24T12:43:07Z</time>
      </trkpt>
      <trkpt lat="43.97166" lon="1.75633">
        <ele>190.4</ele>
        <time>2021-10-24T12:43:08Z</time>
      </trkpt>
      <trkpt lat="43.97167" lon="1.75632">
        <ele>190.4</ele>
        <time>2021-10-24T12:43:09Z</time>
      </trkpt>
      <trkpt lat="43.97168" lon="1.7563">
        <ele>190.8</ele>
        <time>2021-10-24T12:43:10Z</time>
      </trkpt>
      <trkpt lat="43.97169" lon="1.75629">
        <ele>191</ele>
        <time>2021-10-24T12:43:11Z</time>
      </trkpt>
      <trkpt lat="43.9717" lon="1.75628">
        <ele>191.2</ele>
        <time>2021-10-24T12:43:12Z</time>
      </trkpt>
      <trkpt lat="43.97171" lon="1.75627">
        <ele>191.4</ele>
        <time>2021-10-24T12:43:13Z</time>
      </trkpt>
      <trkpt lat="43.97172" lon="1.75626">
        <ele>191.4</ele>
        <time>2021-10-24T12:43:14Z</time>
      </trkpt>
      <trkpt lat="43.97172" lon="1.75625">
        <ele>191.6</ele>
        <time>2021-10-24T12:43:15Z</time>
      </trkpt>
      <trkpt lat="43.97174" lon="1.75624">
        <ele>191.6</ele>
        <time>2021-10-24T12:43:16Z</time>
      </trkpt>
      <trkpt lat="43.97175" lon="1.75624">
        <ele>191.8</ele>
        <time>2021-10-24T12:43:17Z</time>
      </trkpt>
      <trkpt lat="43.97176" lon="1.75624">
        <ele>192</ele>
        <time>2021-10-24T12:43:18Z</time>
      </trkpt>
      <trkpt lat="43.97177" lon="1.75625">
        <ele>192.2</ele>
        <time>2021-10-24T12:43:19Z</time>
      </trkpt>
      <trkpt lat="43.97179" lon="1.75625">
        <ele>192.6</ele>
        <time>2021-10-24T12:43:20Z</time>
      </trkpt>
      <trkpt lat="43.9718" lon="1.75626">
        <ele>192.6</ele>
        <time>2021-10-24T12:43:21Z</time>
      </trkpt>
      <trkpt lat="43.97181" lon="1.75628">
        <ele>193</ele>
        <time>2021-10-24T12:43:22Z</time>
      </trkpt>
      <trkpt lat="43.97181" lon="1.75629">
        <ele>193.2</ele>
        <time>2021-10-24T12:43:23Z</time>
      </trkpt>
      <trkpt lat="43.97182" lon="1.75629">
        <ele>193.4</ele>
        <time>2021-10-24T12:43:24Z</time>
      </trkpt>
      <trkpt lat="43.97183" lon="1.7563">
        <ele>193.6</ele>
        <time>2021-10-24T12:43:25Z</time>
      </trkpt>
      <trkpt lat="43.97184" lon="1.75631">
        <ele>193.8</ele>
        <time>2021-10-24T12:43:26Z</time>
      </trkpt>
      <trkpt lat="43.97186" lon="1.75632">
        <ele>194</ele>
        <time>2021-10-24T12:43:27Z</time>
      </trkpt>
      <trkpt lat="43.97186" lon="1.75633">
        <ele>194.2</ele>
        <time>2021-10-24T12:43:28Z</time>
      </trkpt>
      <trkpt lat="43.97187" lon="1.75635">
        <ele>194.6</ele>
        <time>2021-10-24T12:43:29Z</time>
      </trkpt>
      <trkpt lat="43.97188" lon="1.75635">
        <ele>194.6</ele>
        <time>2021-10-24T12:43:30Z</time>
      </trkpt>
      <trkpt lat="43.97189" lon="1.75636">
        <ele>195</ele>
        <time>2021-10-24T12:43:31Z</time>
      </trkpt>
      <trkpt lat="43.9719" lon="1.75637">
        <ele>195</ele>
        <time>2021-10-24T12:43:32Z</time>
      </trkpt>
      <trkpt lat="43.97191" lon="1.75637">
        <ele>195.2</ele>
        <time>2021-10-24T12:43:33Z</time>
      </trkpt>
      <trkpt lat="43.97192" lon="1.75636">
        <ele>195.4</ele>
        <time>2021-10-24T12:43:34Z</time>
      </trkpt>
      <trkpt lat="43.97193" lon="1.75635">
        <ele>195.6</ele>
        <time>2021-10-24T12:43:35Z</time>
      </trkpt>
      <trkpt lat="43.97195" lon="1.75634">
        <ele>195.8</ele>
        <time>2021-10-24T12:43:36Z</time>
      </trkpt>
      <trkpt lat="43.97196" lon="1.75634">
        <ele>196</ele>
        <time>2021-10-24T12:43:37Z</time>
      </trkpt>
      <trkpt lat="43.97197" lon="1.75632">
        <ele>196.2</ele>
        <time>2021-10-24T12:43:38Z</time>
      </trkpt>
      <trkpt lat="43.97199" lon="1.75631">
        <ele>196.4</ele>
        <time>2021-10-24T12:43:39Z</time>
      </trkpt>
      <trkpt lat="43.97199" lon="1.7563">
        <ele>196.4</ele>
        <time>2021-10-24T12:43:40Z</time>
      </trkpt>
      <trkpt lat="43.97201" lon="1.75628">
        <ele>196.6</ele>
        <time>2021-10-24T12:43:41Z</time>
      </trkpt>
      <trkpt lat="43.97202" lon="1.75626">
        <ele>196.8</ele>
        <time>2021-10-24T12:43:42Z</time>
      </trkpt>
      <trkpt lat="43.97203" lon="1.75624">
        <ele>196.8</ele>
        <time>2021-10-24T12:43:43Z</time>
      </trkpt>
      <trkpt lat="43.97204" lon="1.75623">
        <ele>197</ele>
        <time>2021-10-24T12:43:44Z</time>
      </trkpt>
      <trkpt lat="43.97205" lon="1.75622">
        <ele>197</ele>
        <time>2021-10-24T12:43:45Z</time>
      </trkpt>
      <trkpt lat="43.97206" lon="1.7562">
        <ele>197.2</ele>
        <time>2021-10-24T12:43:46Z</time>
      </trkpt>
      <trkpt lat="43.97208" lon="1.75618">
        <ele>197.4</ele>
        <time>2021-10-24T12:43:47Z</time>
      </trkpt>
      <trkpt lat="43.97209" lon="1.75616">
        <ele>197.4</ele>
        <time>2021-10-24T12:43:48Z</time>
      </trkpt>
      <trkpt lat="43.9721" lon="1.75614">
        <ele>197.4</ele>
        <time>2021-10-24T12:43:49Z</time>
      </trkpt>
      <trkpt lat="43.97211" lon="1.75612">
        <ele>197.6</ele>
        <time>2021-10-24T12:43:50Z</time>
      </trkpt>
      <trkpt lat="43.97212" lon="1.75611">
        <ele>197.8</ele>
        <time>2021-10-24T12:43:51Z</time>
      </trkpt>
      <trkpt lat="43.97213" lon="1.75609">
        <ele>198</ele>
        <time>2021-10-24T12:43:52Z</time>
      </trkpt>
      <trkpt lat="43.97215" lon="1.75609">
        <ele>198</ele>
        <time>2021-10-24T12:43:53Z</time>
      </trkpt>
      <trkpt lat="43.97216" lon="1.75608">
        <ele>198.4</ele>
        <time>2021-10-24T12:43:54Z</time>
      </trkpt>
      <trkpt lat="43.97217" lon="1.75607">
        <ele>198.4</ele>
        <time>2021-10-24T12:43:55Z</time>
      </trkpt>
      <trkpt lat="43.97219" lon="1.75606">
        <ele>198.8</ele>
        <time>2021-10-24T12:43:56Z</time>
      </trkpt>
      <trkpt lat="43.9722" lon="1.75606">
        <ele>198.8</ele>
        <time>2021-10-24T12:43:57Z</time>
      </trkpt>
      <trkpt lat="43.97221" lon="1.75605">
        <ele>199</ele>
        <time>2021-10-24T12:43:58Z</time>
      </trkpt>
      <trkpt lat="43.97223" lon="1.75605">
        <ele>199.4</ele>
        <time>2021-10-24T12:43:59Z</time>
      </trkpt>
      <trkpt lat="43.97224" lon="1.75604">
        <ele>199.6</ele>
        <time>2021-10-24T12:44:00Z</time>
      </trkpt>
      <trkpt lat="43.97226" lon="1.75604">
        <ele>199.6</ele>
        <time>2021-10-24T12:44:01Z</time>
      </trkpt>
      <trkpt lat="43.97227" lon="1.75604">
        <ele>199.6</ele>
        <time>2021-10-24T12:44:02Z</time>
      </trkpt>
      <trkpt lat="43.97228" lon="1.75604">
        <ele>200.2</ele>
        <time>2021-10-24T12:44:03Z</time>
      </trkpt>
      <trkpt lat="43.9723" lon="1.75603">
        <ele>200.2</ele>
        <time>2021-10-24T12:44:04Z</time>
      </trkpt>
      <trkpt lat="43.97231" lon="1.75603">
        <ele>200.4</ele>
        <time>2021-10-24T12:44:05Z</time>
      </trkpt>
      <trkpt lat="43.97233" lon="1.75603">
        <ele>200.8</ele>
        <time>2021-10-24T12:44:06Z</time>
      </trkpt>
      <trkpt lat="43.97234" lon="1.75603">
        <ele>201</ele>
        <time>2021-10-24T12:44:07Z</time>
      </trkpt>
      <trkpt lat="43.97236" lon="1.75603">
        <ele>201.6</ele>
        <time>2021-10-24T12:44:08Z</time>
      </trkpt>
      <trkpt lat="43.97237" lon="1.75602">
        <ele>201.8</ele>
        <time>2021-10-24T12:44:09Z</time>
      </trkpt>
      <trkpt lat="43.97238" lon="1.75602">
        <ele>202</ele>
        <time>2021-10-24T12:44:10Z</time>
      </trkpt>
      <trkpt lat="43.97239" lon="1.75601">
        <ele>201.8</ele>
        <time>2021-10-24T12:44:11Z</time>
      </trkpt>
      <trkpt lat="43.97241" lon="1.75601">
        <ele>202.4</ele>
        <time>2021-10-24T12:44:12Z</time>
      </trkpt>
      <trkpt lat="43.97242" lon="1.75601">
        <ele>202.6</ele>
        <time>2021-10-24T12:44:13Z</time>
      </trkpt>
      <trkpt lat="43.97244" lon="1.75602">
        <ele>202.6</ele>
        <time>2021-10-24T12:44:14Z</time>
      </trkpt>
      <trkpt lat="43.97245" lon="1.75602">
        <ele>203</ele>
        <time>2021-10-24T12:44:15Z</time>
      </trkpt>
      <trkpt lat="43.97246" lon="1.75601">
        <ele>203.2</ele>
        <time>2021-10-24T12:44:16Z</time>
      </trkpt>
      <trkpt lat="43.97248" lon="1.75601">
        <ele>203.2</ele>
        <time>2021-10-24T12:44:17Z</time>
      </trkpt>
      <trkpt lat="43.97249" lon="1.75601">
        <ele>203.4</ele>
        <time>2021-10-24T12:44:18Z</time>
      </trkpt>
      <trkpt lat="43.9725" lon="1.75601">
        <ele>203.6</ele>
        <time>2021-10-24T12:44:19Z</time>
      </trkpt>
      <trkpt lat="43.97252" lon="1.75602">
        <ele>203.8</ele>
        <time>2021-10-24T12:44:20Z</time>
      </trkpt>
      <trkpt lat="43.97253" lon="1.75602">
        <ele>204</ele>
        <time>2021-10-24T12:44:21Z</time>
      </trkpt>
      <trkpt lat="43.97254" lon="1.75602">
        <ele>204.4</ele>
        <time>2021-10-24T12:44:22Z</time>
      </trkpt>
      <trkpt lat="43.97256" lon="1.75603">
        <ele>204.6</ele>
        <time>2021-10-24T12:44:23Z</time>
      </trkpt>
      <trkpt lat="43.97257" lon="1.75603">
        <ele>204.8</ele>
        <time>2021-10-24T12:44:24Z</time>
      </trkpt>
      <trkpt lat="43.97259" lon="1.75603">
        <ele>205</ele>
        <time>2021-10-24T12:44:25Z</time>
      </trkpt>
      <trkpt lat="43.9726" lon="1.75603">
        <ele>205.2</ele>
        <time>2021-10-24T12:44:26Z</time>
      </trkpt>
      <trkpt lat="43.97261" lon="1.75603">
        <ele>205.2</ele>
        <time>2021-10-24T12:44:27Z</time>
      </trkpt>
      <trkpt lat="43.97262" lon="1.75603">
        <ele>205.4</ele>
        <time>2021-10-24T12:44:28Z</time>
      </trkpt>
      <trkpt lat="43.97264" lon="1.75603">
        <ele>205.8</ele>
        <time>2021-10-24T12:44:29Z</time>
      </trkpt>
      <trkpt lat="43.97265" lon="1.75603">
        <ele>206</ele>
        <time>2021-10-24T12:44:30Z</time>
      </trkpt>
      <trkpt lat="43.97267" lon="1.75603">
        <ele>206.2</ele>
        <time>2021-10-24T12:44:31Z</time>
      </trkpt>
      <trkpt lat="43.97268" lon="1.75603">
        <ele>206.2</ele>
        <time>2021-10-24T12:44:32Z</time>
      </trkpt>
      <trkpt lat="43.9727" lon="1.75602">
        <ele>206.4</ele>
        <time>2021-10-24T12:44:33Z</time>
      </trkpt>
      <trkpt lat="43.97271" lon="1.75602">
        <ele>206.4</ele>
        <time>2021-10-24T12:44:34Z</time>
      </trkpt>
      <trkpt lat="43.97272" lon="1.75602">
        <ele>206.6</ele>
        <time>2021-10-24T12:44:35Z</time>
      </trkpt>
      <trkpt lat="43.97273" lon="1.75601">
        <ele>206.8</ele>
        <time>2021-10-24T12:44:36Z</time>
      </trkpt>
      <trkpt lat="43.97274" lon="1.756">
        <ele>207</ele>
        <time>2021-10-24T12:44:37Z</time>
      </trkpt>
      <trkpt lat="43.97276" lon="1.75599">
        <ele>207.2</ele>
        <time>2021-10-24T12:44:38Z</time>
      </trkpt>
      <trkpt lat="43.97277" lon="1.75598">
        <ele>207.2</ele>
        <time>2021-10-24T12:44:39Z</time>
      </trkpt>
      <trkpt lat="43.97279" lon="1.75598">
        <ele>207.4</ele>
        <time>2021-10-24T12:44:40Z</time>
      </trkpt>
      <trkpt lat="43.9728" lon="1.75597">
        <ele>207.4</ele>
        <time>2021-10-24T12:44:41Z</time>
      </trkpt>
      <trkpt lat="43.97281" lon="1.75596">
        <ele>207.6</ele>
        <time>2021-10-24T12:44:42Z</time>
      </trkpt>
      <trkpt lat="43.97282" lon="1.75595">
        <ele>207.8</ele>
        <time>2021-10-24T12:44:43Z</time>
      </trkpt>
      <trkpt lat="43.97284" lon="1.75594">
        <ele>208</ele>
        <time>2021-10-24T12:44:44Z</time>
      </trkpt>
      <trkpt lat="43.97285" lon="1.75593">
        <ele>208.2</ele>
        <time>2021-10-24T12:44:45Z</time>
      </trkpt>
      <trkpt lat="43.97287" lon="1.75593">
        <ele>208.2</ele>
        <time>2021-10-24T12:44:46Z</time>
      </trkpt>
      <trkpt lat="43.97288" lon="1.75592">
        <ele>208.6</ele>
        <time>2021-10-24T12:44:47Z</time>
      </trkpt>
      <trkpt lat="43.97289" lon="1.75591">
        <ele>208.6</ele>
        <time>2021-10-24T12:44:48Z</time>
      </trkpt>
      <trkpt lat="43.97289" lon="1.7559">
        <ele>208.8</ele>
        <time>2021-10-24T12:44:49Z</time>
      </trkpt>
      <trkpt lat="43.9729" lon="1.75589">
        <ele>209</ele>
        <time>2021-10-24T12:44:50Z</time>
      </trkpt>
      <trkpt lat="43.97292" lon="1.75588">
        <ele>209.2</ele>
        <time>2021-10-24T12:44:51Z</time>
      </trkpt>
      <trkpt lat="43.97293" lon="1.75588">
        <ele>209.2</ele>
        <time>2021-10-24T12:44:52Z</time>
      </trkpt>
      <trkpt lat="43.97295" lon="1.75586">
        <ele>209.4</ele>
        <time>2021-10-24T12:44:53Z</time>
      </trkpt>
      <trkpt lat="43.97296" lon="1.75586">
        <ele>209.8</ele>
        <time>2021-10-24T12:44:54Z</time>
      </trkpt>
      <trkpt lat="43.97297" lon="1.75585">
        <ele>210</ele>
        <time>2021-10-24T12:44:55Z</time>
      </trkpt>
      <trkpt lat="43.97297" lon="1.75585">
        <ele>210.2</ele>
        <time>2021-10-24T12:44:56Z</time>
      </trkpt>
      <trkpt lat="43.97299" lon="1.75584">
        <ele>210.2</ele>
        <time>2021-10-24T12:44:57Z</time>
      </trkpt>
      <trkpt lat="43.973" lon="1.75584">
        <ele>210.6</ele>
        <time>2021-10-24T12:44:58Z</time>
      </trkpt>
      <trkpt lat="43.97302" lon="1.75583">
        <ele>210.6</ele>
        <time>2021-10-24T12:44:59Z</time>
      </trkpt>
      <trkpt lat="43.97303" lon="1.75582">
        <ele>210.8</ele>
        <time>2021-10-24T12:45:00Z</time>
      </trkpt>
      <trkpt lat="43.97306" lon="1.7558">
        <ele>211</ele>
        <time>2021-10-24T12:45:01Z</time>
      </trkpt>
      <trkpt lat="43.97308" lon="1.75579">
        <ele>211.2</ele>
        <time>2021-10-24T12:45:02Z</time>
      </trkpt>
      <trkpt lat="43.97308" lon="1.75579">
        <ele>211.4</ele>
        <time>2021-10-24T12:45:03Z</time>
      </trkpt>
      <trkpt lat="43.97311" lon="1.75576">
        <ele>211.6</ele>
        <time>2021-10-24T12:45:04Z</time>
      </trkpt>
      <trkpt lat="43.97313" lon="1.75576">
        <ele>211.6</ele>
        <time>2021-10-24T12:45:05Z</time>
      </trkpt>
      <trkpt lat="43.97313" lon="1.75576">
        <ele>211.8</ele>
        <time>2021-10-24T12:45:06Z</time>
      </trkpt>
      <trkpt lat="43.97316" lon="1.75574">
        <ele>211.8</ele>
        <time>2021-10-24T12:45:07Z</time>
      </trkpt>
      <trkpt lat="43.97318" lon="1.75573">
        <ele>212</ele>
        <time>2021-10-24T12:45:08Z</time>
      </trkpt>
      <trkpt lat="43.9732" lon="1.75573">
        <ele>212.2</ele>
        <time>2021-10-24T12:45:09Z</time>
      </trkpt>
      <trkpt lat="43.97322" lon="1.75572">
        <ele>212.4</ele>
        <time>2021-10-24T12:45:10Z</time>
      </trkpt>
      <trkpt lat="43.97322" lon="1.75572">
        <ele>212.4</ele>
        <time>2021-10-24T12:45:11Z</time>
      </trkpt>
      <trkpt lat="43.97325" lon="1.7557">
        <ele>212.6</ele>
        <time>2021-10-24T12:45:12Z</time>
      </trkpt>
      <trkpt lat="43.97325" lon="1.7557">
        <ele>212.6</ele>
        <time>2021-10-24T12:45:13Z</time>
      </trkpt>
      <trkpt lat="43.97328" lon="1.75569">
        <ele>212.8</ele>
        <time>2021-10-24T12:45:14Z</time>
      </trkpt>
      <trkpt lat="43.97329" lon="1.75568">
        <ele>212.8</ele>
        <time>2021-10-24T12:45:15Z</time>
      </trkpt>
      <trkpt lat="43.97329" lon="1.75568">
        <ele>213</ele>
        <time>2021-10-24T12:45:16Z</time>
      </trkpt>
      <trkpt lat="43.97331" lon="1.75567">
        <ele>213.2</ele>
        <time>2021-10-24T12:45:17Z</time>
      </trkpt>
      <trkpt lat="43.97334" lon="1.75565">
        <ele>213.4</ele>
        <time>2021-10-24T12:45:18Z</time>
      </trkpt>
      <trkpt lat="43.97335" lon="1.75565">
        <ele>213.6</ele>
        <time>2021-10-24T12:45:19Z</time>
      </trkpt>
      <trkpt lat="43.97337" lon="1.75564">
        <ele>213.6</ele>
        <time>2021-10-24T12:45:20Z</time>
      </trkpt>
      <trkpt lat="43.97337" lon="1.75564">
        <ele>213.8</ele>
        <time>2021-10-24T12:45:21Z</time>
      </trkpt>
      <trkpt lat="43.9734" lon="1.75563">
        <ele>213.8</ele>
        <time>2021-10-24T12:45:22Z</time>
      </trkpt>
      <trkpt lat="43.97342" lon="1.75562">
        <ele>214</ele>
        <time>2021-10-24T12:45:23Z</time>
      </trkpt>
      <trkpt lat="43.97343" lon="1.75561">
        <ele>214</ele>
        <time>2021-10-24T12:45:24Z</time>
      </trkpt>
      <trkpt lat="43.97345" lon="1.75561">
        <ele>214.2</ele>
        <time>2021-10-24T12:45:25Z</time>
      </trkpt>
      <trkpt lat="43.97346" lon="1.7556">
        <ele>214.4</ele>
        <time>2021-10-24T12:45:26Z</time>
      </trkpt>
      <trkpt lat="43.97346" lon="1.7556">
        <ele>214.4</ele>
        <time>2021-10-24T12:45:27Z</time>
      </trkpt>
      <trkpt lat="43.9735" lon="1.75558">
        <ele>214.6</ele>
        <time>2021-10-24T12:45:28Z</time>
      </trkpt>
      <trkpt lat="43.9735" lon="1.75558">
        <ele>214.6</ele>
        <time>2021-10-24T12:45:29Z</time>
      </trkpt>
      <trkpt lat="43.97352" lon="1.75556">
        <ele>214.8</ele>
        <time>2021-10-24T12:45:30Z</time>
      </trkpt>
      <trkpt lat="43.97352" lon="1.75556">
        <ele>214.8</ele>
        <time>2021-10-24T12:45:31Z</time>
      </trkpt>
      <trkpt lat="43.97354" lon="1.75555">
        <ele>215</ele>
        <time>2021-10-24T12:45:32Z</time>
      </trkpt>
      <trkpt lat="43.97357" lon="1.75554">
        <ele>215.2</ele>
        <time>2021-10-24T12:45:33Z</time>
      </trkpt>
      <trkpt lat="43.97358" lon="1.75553">
        <ele>215.2</ele>
        <time>2021-10-24T12:45:34Z</time>
      </trkpt>
      <trkpt lat="43.9736" lon="1.75552">
        <ele>215.6</ele>
        <time>2021-10-24T12:45:35Z</time>
      </trkpt>
      <trkpt lat="43.97361" lon="1.75552">
        <ele>215.6</ele>
        <time>2021-10-24T12:45:36Z</time>
      </trkpt>
      <trkpt lat="43.97361" lon="1.75552">
        <ele>215.8</ele>
        <time>2021-10-24T12:45:37Z</time>
      </trkpt>
      <trkpt lat="43.97364" lon="1.7555">
        <ele>215.8</ele>
        <time>2021-10-24T12:45:38Z</time>
      </trkpt>
      <trkpt lat="43.97365" lon="1.75549">
        <ele>216</ele>
        <time>2021-10-24T12:45:39Z</time>
      </trkpt>
      <trkpt lat="43.97367" lon="1.75549">
        <ele>216.2</ele>
        <time>2021-10-24T12:45:40Z</time>
      </trkpt>
      <trkpt lat="43.97368" lon="1.75548">
        <ele>216.4</ele>
        <time>2021-10-24T12:45:41Z</time>
      </trkpt>
      <trkpt lat="43.97369" lon="1.75548">
        <ele>216.6</ele>
        <time>2021-10-24T12:45:42Z</time>
      </trkpt>
      <trkpt lat="43.97369" lon="1.75548">
        <ele>216.8</ele>
        <time>2021-10-24T12:45:43Z</time>
      </trkpt>
      <trkpt lat="43.9737" lon="1.75547">
        <ele>217.2</ele>
        <time>2021-10-24T12:45:44Z</time>
      </trkpt>
      <trkpt lat="43.97372" lon="1.75546">
        <ele>217.4</ele>
        <time>2021-10-24T12:45:45Z</time>
      </trkpt>
      <trkpt lat="43.97374" lon="1.75545">
        <ele>217.6</ele>
        <time>2021-10-24T12:45:46Z</time>
      </trkpt>
      <trkpt lat="43.97375" lon="1.75544">
        <ele>217.6</ele>
        <time>2021-10-24T12:45:47Z</time>
      </trkpt>
      <trkpt lat="43.97377" lon="1.75543">
        <ele>217.8</ele>
        <time>2021-10-24T12:45:48Z</time>
      </trkpt>
      <trkpt lat="43.97378" lon="1.75542">
        <ele>218</ele>
        <time>2021-10-24T12:45:49Z</time>
      </trkpt>
      <trkpt lat="43.9738" lon="1.75542">
        <ele>218.2</ele>
        <time>2021-10-24T12:45:50Z</time>
      </trkpt>
      <trkpt lat="43.9738" lon="1.75542">
        <ele>218.6</ele>
        <time>2021-10-24T12:45:51Z</time>
      </trkpt>
      <trkpt lat="43.97383" lon="1.75541">
        <ele>218.6</ele>
        <time>2021-10-24T12:45:52Z</time>
      </trkpt>
      <trkpt lat="43.97384" lon="1.7554">
        <ele>218.8</ele>
        <time>2021-10-24T12:45:53Z</time>
      </trkpt>
      <trkpt lat="43.97385" lon="1.75539">
        <ele>219</ele>
        <time>2021-10-24T12:45:54Z</time>
      </trkpt>
      <trkpt lat="43.97386" lon="1.75538">
        <ele>219.4</ele>
        <time>2021-10-24T12:45:55Z</time>
      </trkpt>
      <trkpt lat="43.97388" lon="1.75538">
        <ele>219.4</ele>
        <time>2021-10-24T12:45:56Z</time>
      </trkpt>
      <trkpt lat="43.97389" lon="1.75537">
        <ele>219.8</ele>
        <time>2021-10-24T12:45:57Z</time>
      </trkpt>
      <trkpt lat="43.9739" lon="1.75537">
        <ele>220</ele>
        <time>2021-10-24T12:45:58Z</time>
      </trkpt>
      <trkpt lat="43.97391" lon="1.75536">
        <ele>220</ele>
        <time>2021-10-24T12:45:59Z</time>
      </trkpt>
      <trkpt lat="43.97393" lon="1.75535">
        <ele>220.4</ele>
        <time>2021-10-24T12:46:00Z</time>
      </trkpt>
      <trkpt lat="43.97394" lon="1.75535">
        <ele>220.2</ele>
        <time>2021-10-24T12:46:01Z</time>
      </trkpt>
      <trkpt lat="43.97395" lon="1.75534">
        <ele>220.6</ele>
        <time>2021-10-24T12:46:02Z</time>
      </trkpt>
      <trkpt lat="43.97397" lon="1.75533">
        <ele>220.8</ele>
        <time>2021-10-24T12:46:03Z</time>
      </trkpt>
      <trkpt lat="43.97398" lon="1.75532">
        <ele>221.4</ele>
        <time>2021-10-24T12:46:04Z</time>
      </trkpt>
      <trkpt lat="43.97399" lon="1.75532">
        <ele>222</ele>
        <time>2021-10-24T12:46:05Z</time>
      </trkpt>
      <trkpt lat="43.97401" lon="1.75531">
        <ele>222.2</ele>
        <time>2021-10-24T12:46:06Z</time>
      </trkpt>
      <trkpt lat="43.97402" lon="1.75531">
        <ele>222.6</ele>
        <time>2021-10-24T12:46:07Z</time>
      </trkpt>
      <trkpt lat="43.97403" lon="1.7553">
        <ele>222.8</ele>
        <time>2021-10-24T12:46:08Z</time>
      </trkpt>
      <trkpt lat="43.97405" lon="1.75529">
        <ele>223.2</ele>
        <time>2021-10-24T12:46:09Z</time>
      </trkpt>
      <trkpt lat="43.97406" lon="1.75529">
        <ele>223.2</ele>
        <time>2021-10-24T12:46:10Z</time>
      </trkpt>
      <trkpt lat="43.97407" lon="1.75528">
        <ele>223.6</ele>
        <time>2021-10-24T12:46:11Z</time>
      </trkpt>
      <trkpt lat="43.97409" lon="1.75527">
        <ele>223.8</ele>
        <time>2021-10-24T12:46:12Z</time>
      </trkpt>
      <trkpt lat="43.9741" lon="1.75527">
        <ele>224</ele>
        <time>2021-10-24T12:46:13Z</time>
      </trkpt>
      <trkpt lat="43.97411" lon="1.75526">
        <ele>224.2</ele>
        <time>2021-10-24T12:46:14Z</time>
      </trkpt>
      <trkpt lat="43.97411" lon="1.75526">
        <ele>224.4</ele>
        <time>2021-10-24T12:46:15Z</time>
      </trkpt>
      <trkpt lat="43.97413" lon="1.75526">
        <ele>224.6</ele>
        <time>2021-10-24T12:46:16Z</time>
      </trkpt>
      <trkpt lat="43.97414" lon="1.75525">
        <ele>224.8</ele>
        <time>2021-10-24T12:46:17Z</time>
      </trkpt>
      <trkpt lat="43.97414" lon="1.75525">
        <ele>225</ele>
        <time>2021-10-24T12:46:18Z</time>
      </trkpt>
      <trkpt lat="43.97415" lon="1.75523">
        <ele>225</ele>
        <time>2021-10-24T12:46:19Z</time>
      </trkpt>
      <trkpt lat="43.97417" lon="1.75522">
        <ele>225.4</ele>
        <time>2021-10-24T12:46:20Z</time>
      </trkpt>
      <trkpt lat="43.97418" lon="1.75522">
        <ele>225.6</ele>
        <time>2021-10-24T12:46:21Z</time>
      </trkpt>
      <trkpt lat="43.97419" lon="1.7552">
        <ele>225.6</ele>
        <time>2021-10-24T12:46:22Z</time>
      </trkpt>
      <trkpt lat="43.97419" lon="1.7552">
        <ele>226.2</ele>
        <time>2021-10-24T12:46:23Z</time>
      </trkpt>
      <trkpt lat="43.97421" lon="1.75519">
        <ele>226.4</ele>
        <time>2021-10-24T12:46:24Z</time>
      </trkpt>
      <trkpt lat="43.97421" lon="1.75519">
        <ele>226.6</ele>
        <time>2021-10-24T12:46:25Z</time>
      </trkpt>
      <trkpt lat="43.97424" lon="1.75517">
        <ele>226.8</ele>
        <time>2021-10-24T12:46:26Z</time>
      </trkpt>
      <trkpt lat="43.97425" lon="1.75516">
        <ele>227.2</ele>
        <time>2021-10-24T12:46:27Z</time>
      </trkpt>
      <trkpt lat="43.97427" lon="1.75514">
        <ele>227.4</ele>
        <time>2021-10-24T12:46:28Z</time>
      </trkpt>
      <trkpt lat="43.97428" lon="1.75513">
        <ele>227.6</ele>
        <time>2021-10-24T12:46:29Z</time>
      </trkpt>
      <trkpt lat="43.97428" lon="1.75513">
        <ele>227.8</ele>
        <time>2021-10-24T12:46:30Z</time>
      </trkpt>
      <trkpt lat="43.97429" lon="1.75512">
        <ele>228</ele>
        <time>2021-10-24T12:46:31Z</time>
      </trkpt>
      <trkpt lat="43.97431" lon="1.7551">
        <ele>228.2</ele>
        <time>2021-10-24T12:46:32Z</time>
      </trkpt>
      <trkpt lat="43.97432" lon="1.75509">
        <ele>228.2</ele>
        <time>2021-10-24T12:46:33Z</time>
      </trkpt>
      <trkpt lat="43.97434" lon="1.75508">
        <ele>228.4</ele>
        <time>2021-10-24T12:46:34Z</time>
      </trkpt>
      <trkpt lat="43.97435" lon="1.75507">
        <ele>228.6</ele>
        <time>2021-10-24T12:46:35Z</time>
      </trkpt>
      <trkpt lat="43.97437" lon="1.75506">
        <ele>228.8</ele>
        <time>2021-10-24T12:46:36Z</time>
      </trkpt>
      <trkpt lat="43.97438" lon="1.75505">
        <ele>229</ele>
        <time>2021-10-24T12:46:37Z</time>
      </trkpt>
      <trkpt lat="43.97439" lon="1.75504">
        <ele>229</ele>
        <time>2021-10-24T12:46:38Z</time>
      </trkpt>
      <trkpt lat="43.97441" lon="1.75504">
        <ele>229.4</ele>
        <time>2021-10-24T12:46:39Z</time>
      </trkpt>
      <trkpt lat="43.97441" lon="1.75503">
        <ele>229.4</ele>
        <time>2021-10-24T12:46:40Z</time>
      </trkpt>
      <trkpt lat="43.97441" lon="1.75503">
        <ele>229.6</ele>
        <time>2021-10-24T12:46:41Z</time>
      </trkpt>
      <trkpt lat="43.97444" lon="1.75502">
        <ele>229.8</ele>
        <time>2021-10-24T12:46:42Z</time>
      </trkpt>
      <trkpt lat="43.97445" lon="1.75501">
        <ele>229.8</ele>
        <time>2021-10-24T12:46:43Z</time>
      </trkpt>
      <trkpt lat="43.97446" lon="1.755">
        <ele>230</ele>
        <time>2021-10-24T12:46:44Z</time>
      </trkpt>
      <trkpt lat="43.97447" lon="1.75499">
        <ele>230</ele>
        <time>2021-10-24T12:46:45Z</time>
      </trkpt>
      <trkpt lat="43.97447" lon="1.75499">
        <ele>230.2</ele>
        <time>2021-10-24T12:46:46Z</time>
      </trkpt>
      <trkpt lat="43.97449" lon="1.75497">
        <ele>230.4</ele>
        <time>2021-10-24T12:46:47Z</time>
      </trkpt>
      <trkpt lat="43.9745" lon="1.75496">
        <ele>230.4</ele>
        <time>2021-10-24T12:46:48Z</time>
      </trkpt>
      <trkpt lat="43.97451" lon="1.75495">
        <ele>230.6</ele>
        <time>2021-10-24T12:46:49Z</time>
      </trkpt>
      <trkpt lat="43.97453" lon="1.75494">
        <ele>230.8</ele>
        <time>2021-10-24T12:46:50Z</time>
      </trkpt>
      <trkpt lat="43.97453" lon="1.75494">
        <ele>230.8</ele>
        <time>2021-10-24T12:46:51Z</time>
      </trkpt>
      <trkpt lat="43.97455" lon="1.75491">
        <ele>231</ele>
        <time>2021-10-24T12:46:52Z</time>
      </trkpt>
      <trkpt lat="43.97456" lon="1.75491">
        <ele>231</ele>
        <time>2021-10-24T12:46:53Z</time>
      </trkpt>
      <trkpt lat="43.97457" lon="1.7549">
        <ele>231</ele>
        <time>2021-10-24T12:46:54Z</time>
      </trkpt>
      <trkpt lat="43.97458" lon="1.75488">
        <ele>231.4</ele>
        <time>2021-10-24T12:46:55Z</time>
      </trkpt>
      <trkpt lat="43.97459" lon="1.75487">
        <ele>231.6</ele>
        <time>2021-10-24T12:46:56Z</time>
      </trkpt>
      <trkpt lat="43.97459" lon="1.75487">
        <ele>231.8</ele>
        <time>2021-10-24T12:46:57Z</time>
      </trkpt>
      <trkpt lat="43.97461" lon="1.75485">
        <ele>231.6</ele>
        <time>2021-10-24T12:46:58Z</time>
      </trkpt>
      <trkpt lat="43.97462" lon="1.75483">
        <ele>231.8</ele>
        <time>2021-10-24T12:46:59Z</time>
      </trkpt>
      <trkpt lat="43.97463" lon="1.75482">
        <ele>232</ele>
        <time>2021-10-24T12:47:00Z</time>
      </trkpt>
      <trkpt lat="43.97463" lon="1.75482">
        <ele>232</ele>
        <time>2021-10-24T12:47:01Z</time>
      </trkpt>
      <trkpt lat="43.97465" lon="1.75479">
        <ele>232.2</ele>
        <time>2021-10-24T12:47:02Z</time>
      </trkpt>
      <trkpt lat="43.97466" lon="1.75478">
        <ele>232.2</ele>
        <time>2021-10-24T12:47:03Z</time>
      </trkpt>
      <trkpt lat="43.97467" lon="1.75477">
        <ele>232.2</ele>
        <time>2021-10-24T12:47:04Z</time>
      </trkpt>
      <trkpt lat="43.97468" lon="1.75477">
        <ele>232.4</ele>
        <time>2021-10-24T12:47:05Z</time>
      </trkpt>
      <trkpt lat="43.97468" lon="1.75477">
        <ele>232.4</ele>
        <time>2021-10-24T12:47:06Z</time>
      </trkpt>
      <trkpt lat="43.97469" lon="1.75476">
        <ele>232.6</ele>
        <time>2021-10-24T12:47:07Z</time>
      </trkpt>
      <trkpt lat="43.97471" lon="1.75475">
        <ele>232.8</ele>
        <time>2021-10-24T12:47:08Z</time>
      </trkpt>
      <trkpt lat="43.97472" lon="1.75474">
        <ele>233</ele>
        <time>2021-10-24T12:47:09Z</time>
      </trkpt>
      <trkpt lat="43.97473" lon="1.75473">
        <ele>233.2</ele>
        <time>2021-10-24T12:47:10Z</time>
      </trkpt>
      <trkpt lat="43.97473" lon="1.75473">
        <ele>233.2</ele>
        <time>2021-10-24T12:47:11Z</time>
      </trkpt>
      <trkpt lat="43.97475" lon="1.75471">
        <ele>233.4</ele>
        <time>2021-10-24T12:47:12Z</time>
      </trkpt>
      <trkpt lat="43.97477" lon="1.75469">
        <ele>233.6</ele>
        <time>2021-10-24T12:47:13Z</time>
      </trkpt>
      <trkpt lat="43.97478" lon="1.75468">
        <ele>233.6</ele>
        <time>2021-10-24T12:47:14Z</time>
      </trkpt>
      <trkpt lat="43.97478" lon="1.75468">
        <ele>233.8</ele>
        <time>2021-10-24T12:47:15Z</time>
      </trkpt>
      <trkpt lat="43.9748" lon="1.75466">
        <ele>234.2</ele>
        <time>2021-10-24T12:47:16Z</time>
      </trkpt>
      <trkpt lat="43.97482" lon="1.75464">
        <ele>234.2</ele>
        <time>2021-10-24T12:47:17Z</time>
      </trkpt>
      <trkpt lat="43.97483" lon="1.75464">
        <ele>234.4</ele>
        <time>2021-10-24T12:47:18Z</time>
      </trkpt>
      <trkpt lat="43.97485" lon="1.75462">
        <ele>234.6</ele>
        <time>2021-10-24T12:47:19Z</time>
      </trkpt>
      <trkpt lat="43.97486" lon="1.75461">
        <ele>234.8</ele>
        <time>2021-10-24T12:47:20Z</time>
      </trkpt>
      <trkpt lat="43.97486" lon="1.75461">
        <ele>234.8</ele>
        <time>2021-10-24T12:47:21Z</time>
      </trkpt>
      <trkpt lat="43.97487" lon="1.7546">
        <ele>235.2</ele>
        <time>2021-10-24T12:47:22Z</time>
      </trkpt>
      <trkpt lat="43.97491" lon="1.75458">
        <ele>235.4</ele>
        <time>2021-10-24T12:47:23Z</time>
      </trkpt>
      <trkpt lat="43.97492" lon="1.75457">
        <ele>235.6</ele>
        <time>2021-10-24T12:47:24Z</time>
      </trkpt>
      <trkpt lat="43.97493" lon="1.75457">
        <ele>236</ele>
        <time>2021-10-24T12:47:25Z</time>
      </trkpt>
      <trkpt lat="43.97493" lon="1.75457">
        <ele>236.2</ele>
        <time>2021-10-24T12:47:26Z</time>
      </trkpt>
      <trkpt lat="43.97497" lon="1.75456">
        <ele>236.6</ele>
        <time>2021-10-24T12:47:27Z</time>
      </trkpt>
      <trkpt lat="43.97498" lon="1.75455">
        <ele>236.8</ele>
        <time>2021-10-24T12:47:28Z</time>
      </trkpt>
      <trkpt lat="43.97499" lon="1.75455">
        <ele>237</ele>
        <time>2021-10-24T12:47:29Z</time>
      </trkpt>
      <trkpt lat="43.97501" lon="1.75454">
        <ele>237</ele>
        <time>2021-10-24T12:47:30Z</time>
      </trkpt>
      <trkpt lat="43.97501" lon="1.75454">
        <ele>237.2</ele>
        <time>2021-10-24T12:47:31Z</time>
      </trkpt>
      <trkpt lat="43.97501" lon="1.75453">
        <ele>237.4</ele>
        <time>2021-10-24T12:47:32Z</time>
      </trkpt>
      <trkpt lat="43.97502" lon="1.75453">
        <ele>237.6</ele>
        <time>2021-10-24T12:47:33Z</time>
      </trkpt>
      <trkpt lat="43.97504" lon="1.75453">
        <ele>237.8</ele>
        <time>2021-10-24T12:47:34Z</time>
      </trkpt>
      <trkpt lat="43.97505" lon="1.75451">
        <ele>237.8</ele>
        <time>2021-10-24T12:47:35Z</time>
      </trkpt>
      <trkpt lat="43.97507" lon="1.7545">
        <ele>238.2</ele>
        <time>2021-10-24T12:47:36Z</time>
      </trkpt>
      <trkpt lat="43.97507" lon="1.7545">
        <ele>238.4</ele>
        <time>2021-10-24T12:47:37Z</time>
      </trkpt>
      <trkpt lat="43.97508" lon="1.75448">
        <ele>238.6</ele>
        <time>2021-10-24T12:47:38Z</time>
      </trkpt>
      <trkpt lat="43.97509" lon="1.75447">
        <ele>238.6</ele>
        <time>2021-10-24T12:47:39Z</time>
      </trkpt>
      <trkpt lat="43.97511" lon="1.75445">
        <ele>238.8</ele>
        <time>2021-10-24T12:47:40Z</time>
      </trkpt>
      <trkpt lat="43.97511" lon="1.75445">
        <ele>239.2</ele>
        <time>2021-10-24T12:47:41Z</time>
      </trkpt>
      <trkpt lat="43.97515" lon="1.75441">
        <ele>239.4</ele>
        <time>2021-10-24T12:47:42Z</time>
      </trkpt>
      <trkpt lat="43.97517" lon="1.75439">
        <ele>239.8</ele>
        <time>2021-10-24T12:47:43Z</time>
      </trkpt>
      <trkpt lat="43.97518" lon="1.75438">
        <ele>240</ele>
        <time>2021-10-24T12:47:44Z</time>
      </trkpt>
      <trkpt lat="43.9752" lon="1.75436">
        <ele>240.4</ele>
        <time>2021-10-24T12:47:45Z</time>
      </trkpt>
      <trkpt lat="43.97522" lon="1.75435">
        <ele>240.6</ele>
        <time>2021-10-24T12:47:46Z</time>
      </trkpt>
      <trkpt lat="43.97522" lon="1.75436">
        <ele>240.8</ele>
        <time>2021-10-24T12:47:47Z</time>
      </trkpt>
      <trkpt lat="43.97523" lon="1.75435">
        <ele>241.2</ele>
        <time>2021-10-24T12:47:48Z</time>
      </trkpt>
      <trkpt lat="43.97523" lon="1.75435">
        <ele>241.4</ele>
        <time>2021-10-24T12:47:49Z</time>
      </trkpt>
      <trkpt lat="43.97525" lon="1.75432">
        <ele>241.4</ele>
        <time>2021-10-24T12:47:50Z</time>
      </trkpt>
      <trkpt lat="43.97526" lon="1.75431">
        <ele>241.6</ele>
        <time>2021-10-24T12:47:51Z</time>
      </trkpt>
      <trkpt lat="43.97527" lon="1.75431">
        <ele>241.8</ele>
        <time>2021-10-24T12:47:52Z</time>
      </trkpt>
      <trkpt lat="43.97528" lon="1.7543">
        <ele>241.8</ele>
        <time>2021-10-24T12:47:53Z</time>
      </trkpt>
      <trkpt lat="43.9753" lon="1.75428">
        <ele>242</ele>
        <time>2021-10-24T12:47:54Z</time>
      </trkpt>
      <trkpt lat="43.9753" lon="1.75428">
        <ele>242.2</ele>
        <time>2021-10-24T12:47:55Z</time>
      </trkpt>
      <trkpt lat="43.97532" lon="1.75425">
        <ele>242.4</ele>
        <time>2021-10-24T12:47:56Z</time>
      </trkpt>
      <trkpt lat="43.97533" lon="1.75424">
        <ele>242.6</ele>
        <time>2021-10-24T12:47:57Z</time>
      </trkpt>
      <trkpt lat="43.97534" lon="1.75423">
        <ele>242.8</ele>
        <time>2021-10-24T12:47:58Z</time>
      </trkpt>
      <trkpt lat="43.97535" lon="1.75422">
        <ele>243</ele>
        <time>2021-10-24T12:47:59Z</time>
      </trkpt>
      <trkpt lat="43.97536" lon="1.75421">
        <ele>243.2</ele>
        <time>2021-10-24T12:48:00Z</time>
      </trkpt>
      <trkpt lat="43.97536" lon="1.75421">
        <ele>243.4</ele>
        <time>2021-10-24T12:48:01Z</time>
      </trkpt>
      <trkpt lat="43.97538" lon="1.75419">
        <ele>243.4</ele>
        <time>2021-10-24T12:48:02Z</time>
      </trkpt>
      <trkpt lat="43.97538" lon="1.75419">
        <ele>243.6</ele>
        <time>2021-10-24T12:48:03Z</time>
      </trkpt>
      <trkpt lat="43.97541" lon="1.75417">
        <ele>243.8</ele>
        <time>2021-10-24T12:48:04Z</time>
      </trkpt>
      <trkpt lat="43.97542" lon="1.75415">
        <ele>243.8</ele>
        <time>2021-10-24T12:48:05Z</time>
      </trkpt>
      <trkpt lat="43.97542" lon="1.75415">
        <ele>244</ele>
        <time>2021-10-24T12:48:06Z</time>
      </trkpt>
      <trkpt lat="43.97545" lon="1.75413">
        <ele>244.2</ele>
        <time>2021-10-24T12:48:07Z</time>
      </trkpt>
      <trkpt lat="43.97546" lon="1.75412">
        <ele>244.4</ele>
        <time>2021-10-24T12:48:08Z</time>
      </trkpt>
      <trkpt lat="43.97548" lon="1.7541">
        <ele>244.4</ele>
        <time>2021-10-24T12:48:09Z</time>
      </trkpt>
      <trkpt lat="43.97549" lon="1.75409">
        <ele>244.8</ele>
        <time>2021-10-24T12:48:10Z</time>
      </trkpt>
      <trkpt lat="43.97549" lon="1.75409">
        <ele>244.8</ele>
        <time>2021-10-24T12:48:11Z</time>
      </trkpt>
      <trkpt lat="43.97552" lon="1.75406">
        <ele>245</ele>
        <time>2021-10-24T12:48:12Z</time>
      </trkpt>
      <trkpt lat="43.97554" lon="1.75405">
        <ele>245.2</ele>
        <time>2021-10-24T12:48:13Z</time>
      </trkpt>
      <trkpt lat="43.97555" lon="1.75403">
        <ele>245.2</ele>
        <time>2021-10-24T12:48:14Z</time>
      </trkpt>
      <trkpt lat="43.97556" lon="1.75401">
        <ele>245.4</ele>
        <time>2021-10-24T12:48:15Z</time>
      </trkpt>
      <trkpt lat="43.97557" lon="1.754">
        <ele>245.4</ele>
        <time>2021-10-24T12:48:16Z</time>
      </trkpt>
      <trkpt lat="43.97559" lon="1.75398">
        <ele>245.6</ele>
        <time>2021-10-24T12:48:17Z</time>
      </trkpt>
      <trkpt lat="43.97561" lon="1.75396">
        <ele>245.8</ele>
        <time>2021-10-24T12:48:18Z</time>
      </trkpt>
      <trkpt lat="43.97563" lon="1.75394">
        <ele>246</ele>
        <time>2021-10-24T12:48:19Z</time>
      </trkpt>
      <trkpt lat="43.97566" lon="1.75391">
        <ele>246.2</ele>
        <time>2021-10-24T12:48:20Z</time>
      </trkpt>
      <trkpt lat="43.97569" lon="1.75389">
        <ele>246.2</ele>
        <time>2021-10-24T12:48:21Z</time>
      </trkpt>
      <trkpt lat="43.97571" lon="1.75386">
        <ele>246.4</ele>
        <time>2021-10-24T12:48:22Z</time>
      </trkpt>
      <trkpt lat="43.97573" lon="1.75384">
        <ele>246.4</ele>
        <time>2021-10-24T12:48:23Z</time>
      </trkpt>
      <trkpt lat="43.97575" lon="1.75382">
        <ele>246.4</ele>
        <time>2021-10-24T12:48:24Z</time>
      </trkpt>
      <trkpt lat="43.97577" lon="1.7538">
        <ele>246.4</ele>
        <time>2021-10-24T12:48:25Z</time>
      </trkpt>
      <trkpt lat="43.97577" lon="1.7538">
        <ele>246.6</ele>
        <time>2021-10-24T12:48:26Z</time>
      </trkpt>
      <trkpt lat="43.9758" lon="1.75377">
        <ele>246.6</ele>
        <time>2021-10-24T12:48:27Z</time>
      </trkpt>
      <trkpt lat="43.9758" lon="1.75376">
        <ele>247</ele>
        <time>2021-10-24T12:48:28Z</time>
      </trkpt>
      <trkpt lat="43.97582" lon="1.75375">
        <ele>247.2</ele>
        <time>2021-10-24T12:48:29Z</time>
      </trkpt>
      <trkpt lat="43.97584" lon="1.75373">
        <ele>247.4</ele>
        <time>2021-10-24T12:48:30Z</time>
      </trkpt>
      <trkpt lat="43.97584" lon="1.75373">
        <ele>247.6</ele>
        <time>2021-10-24T12:48:31Z</time>
      </trkpt>
      <trkpt lat="43.97589" lon="1.75369">
        <ele>247.8</ele>
        <time>2021-10-24T12:48:32Z</time>
      </trkpt>
      <trkpt lat="43.97589" lon="1.75369">
        <ele>248</ele>
        <time>2021-10-24T12:48:33Z</time>
      </trkpt>
      <trkpt lat="43.97592" lon="1.75366">
        <ele>248</ele>
        <time>2021-10-24T12:48:34Z</time>
      </trkpt>
      <trkpt lat="43.97593" lon="1.75364">
        <ele>248</ele>
        <time>2021-10-24T12:48:35Z</time>
      </trkpt>
      <trkpt lat="43.97593" lon="1.75364">
        <ele>248.2</ele>
        <time>2021-10-24T12:48:36Z</time>
      </trkpt>
      <trkpt lat="43.97596" lon="1.75362">
        <ele>248.2</ele>
        <time>2021-10-24T12:48:37Z</time>
      </trkpt>
      <trkpt lat="43.97597" lon="1.7536">
        <ele>248.4</ele>
        <time>2021-10-24T12:48:38Z</time>
      </trkpt>
      <trkpt lat="43.97599" lon="1.75359">
        <ele>248.4</ele>
        <time>2021-10-24T12:48:39Z</time>
      </trkpt>
      <trkpt lat="43.97599" lon="1.75359">
        <ele>248.6</ele>
        <time>2021-10-24T12:48:40Z</time>
      </trkpt>
      <trkpt lat="43.97601" lon="1.75357">
        <ele>248.8</ele>
        <time>2021-10-24T12:48:41Z</time>
      </trkpt>
      <trkpt lat="43.97604" lon="1.75353">
        <ele>249</ele>
        <time>2021-10-24T12:48:42Z</time>
      </trkpt>
      <trkpt lat="43.97606" lon="1.75351">
        <ele>249</ele>
        <time>2021-10-24T12:48:43Z</time>
      </trkpt>
      <trkpt lat="43.97608" lon="1.7535">
        <ele>249.2</ele>
        <time>2021-10-24T12:48:44Z</time>
      </trkpt>
      <trkpt lat="43.9761" lon="1.75348">
        <ele>249.2</ele>
        <time>2021-10-24T12:48:45Z</time>
      </trkpt>
      <trkpt lat="43.9761" lon="1.75348">
        <ele>249.2</ele>
        <time>2021-10-24T12:48:46Z</time>
      </trkpt>
      <trkpt lat="43.97614" lon="1.75344">
        <ele>249.2</ele>
        <time>2021-10-24T12:48:47Z</time>
      </trkpt>
      <trkpt lat="43.97616" lon="1.75341">
        <ele>249.4</ele>
        <time>2021-10-24T12:48:48Z</time>
      </trkpt>
      <trkpt lat="43.97618" lon="1.75339">
        <ele>249.4</ele>
        <time>2021-10-24T12:48:49Z</time>
      </trkpt>
      <trkpt lat="43.9762" lon="1.75337">
        <ele>249.4</ele>
        <time>2021-10-24T12:48:50Z</time>
      </trkpt>
      <trkpt lat="43.97622" lon="1.75335">
        <ele>249.6</ele>
        <time>2021-10-24T12:48:51Z</time>
      </trkpt>
      <trkpt lat="43.97624" lon="1.75332">
        <ele>249.8</ele>
        <time>2021-10-24T12:48:52Z</time>
      </trkpt>
      <trkpt lat="43.97626" lon="1.7533">
        <ele>249.8</ele>
        <time>2021-10-24T12:48:53Z</time>
      </trkpt>
      <trkpt lat="43.97629" lon="1.75328">
        <ele>250</ele>
        <time>2021-10-24T12:48:54Z</time>
      </trkpt>
      <trkpt lat="43.97631" lon="1.75327">
        <ele>250.2</ele>
        <time>2021-10-24T12:48:55Z</time>
      </trkpt>
      <trkpt lat="43.97634" lon="1.75325">
        <ele>250.2</ele>
        <time>2021-10-24T12:48:56Z</time>
      </trkpt>
      <trkpt lat="43.97636" lon="1.75322">
        <ele>250.4</ele>
        <time>2021-10-24T12:48:57Z</time>
      </trkpt>
      <trkpt lat="43.97638" lon="1.7532">
        <ele>250.4</ele>
        <time>2021-10-24T12:48:58Z</time>
      </trkpt>
      <trkpt lat="43.9764" lon="1.75318">
        <ele>250.4</ele>
        <time>2021-10-24T12:48:59Z</time>
      </trkpt>
      <trkpt lat="43.97643" lon="1.75316">
        <ele>250.6</ele>
        <time>2021-10-24T12:49:00Z</time>
      </trkpt>
      <trkpt lat="43.97643" lon="1.75316">
        <ele>250.8</ele>
        <time>2021-10-24T12:49:01Z</time>
      </trkpt>
      <trkpt lat="43.97647" lon="1.75314">
        <ele>250.8</ele>
        <time>2021-10-24T12:49:02Z</time>
      </trkpt>
      <trkpt lat="43.97649" lon="1.75312">
        <ele>251</ele>
        <time>2021-10-24T12:49:03Z</time>
      </trkpt>
      <trkpt lat="43.97651" lon="1.75311">
        <ele>251.2</ele>
        <time>2021-10-24T12:49:04Z</time>
      </trkpt>
      <trkpt lat="43.97653" lon="1.7531">
        <ele>251.4</ele>
        <time>2021-10-24T12:49:05Z</time>
      </trkpt>
      <trkpt lat="43.97653" lon="1.7531">
        <ele>251.6</ele>
        <time>2021-10-24T12:49:06Z</time>
      </trkpt>
      <trkpt lat="43.97658" lon="1.75308">
        <ele>251.6</ele>
        <time>2021-10-24T12:49:07Z</time>
      </trkpt>
      <trkpt lat="43.9766" lon="1.75306">
        <ele>251.8</ele>
        <time>2021-10-24T12:49:08Z</time>
      </trkpt>
      <trkpt lat="43.97662" lon="1.75305">
        <ele>251.8</ele>
        <time>2021-10-24T12:49:09Z</time>
      </trkpt>
      <trkpt lat="43.97665" lon="1.75305">
        <ele>252</ele>
        <time>2021-10-24T12:49:10Z</time>
      </trkpt>
      <trkpt lat="43.97665" lon="1.75305">
        <ele>252</ele>
        <time>2021-10-24T12:49:11Z</time>
      </trkpt>
      <trkpt lat="43.97669" lon="1.75302">
        <ele>252</ele>
        <time>2021-10-24T12:49:12Z</time>
      </trkpt>
      <trkpt lat="43.97671" lon="1.75301">
        <ele>252.2</ele>
        <time>2021-10-24T12:49:13Z</time>
      </trkpt>
      <trkpt lat="43.97674" lon="1.753">
        <ele>252.4</ele>
        <time>2021-10-24T12:49:14Z</time>
      </trkpt>
      <trkpt lat="43.97676" lon="1.75299">
        <ele>252.4</ele>
        <time>2021-10-24T12:49:15Z</time>
      </trkpt>
      <trkpt lat="43.97678" lon="1.75298">
        <ele>252.6</ele>
        <time>2021-10-24T12:49:16Z</time>
      </trkpt>
      <trkpt lat="43.9768" lon="1.75297">
        <ele>252.6</ele>
        <time>2021-10-24T12:49:17Z</time>
      </trkpt>
      <trkpt lat="43.97683" lon="1.75296">
        <ele>252.6</ele>
        <time>2021-10-24T12:49:18Z</time>
      </trkpt>
      <trkpt lat="43.97685" lon="1.75295">
        <ele>252.8</ele>
        <time>2021-10-24T12:49:19Z</time>
      </trkpt>
      <trkpt lat="43.97687" lon="1.75293">
        <ele>252.8</ele>
        <time>2021-10-24T12:49:20Z</time>
      </trkpt>
      <trkpt lat="43.97689" lon="1.75292">
        <ele>252.8</ele>
        <time>2021-10-24T12:49:21Z</time>
      </trkpt>
      <trkpt lat="43.97692" lon="1.75291">
        <ele>253</ele>
        <time>2021-10-24T12:49:22Z</time>
      </trkpt>
      <trkpt lat="43.97694" lon="1.7529">
        <ele>253</ele>
        <time>2021-10-24T12:49:23Z</time>
      </trkpt>
      <trkpt lat="43.97696" lon="1.75289">
        <ele>253.2</ele>
        <time>2021-10-24T12:49:24Z</time>
      </trkpt>
      <trkpt lat="43.97696" lon="1.75289">
        <ele>253.4</ele>
        <time>2021-10-24T12:49:25Z</time>
      </trkpt>
      <trkpt lat="43.97701" lon="1.75287">
        <ele>253.4</ele>
        <time>2021-10-24T12:49:26Z</time>
      </trkpt>
      <trkpt lat="43.97703" lon="1.75286">
        <ele>253.4</ele>
        <time>2021-10-24T12:49:27Z</time>
      </trkpt>
      <trkpt lat="43.97705" lon="1.75285">
        <ele>253.4</ele>
        <time>2021-10-24T12:49:28Z</time>
      </trkpt>
      <trkpt lat="43.97707" lon="1.75283">
        <ele>253.4</ele>
        <time>2021-10-24T12:49:29Z</time>
      </trkpt>
      <trkpt lat="43.97709" lon="1.75282">
        <ele>253.6</ele>
        <time>2021-10-24T12:49:30Z</time>
      </trkpt>
      <trkpt lat="43.97721" lon="1.75278">
        <ele>254</ele>
        <time>2021-10-24T12:49:35Z</time>
      </trkpt>
      <trkpt lat="43.97726" lon="1.75277">
        <ele>254.4</ele>
        <time>2021-10-24T12:49:37Z</time>
      </trkpt>
      <trkpt lat="43.97731" lon="1.75275">
        <ele>254.8</ele>
        <time>2021-10-24T12:49:39Z</time>
      </trkpt>
      <trkpt lat="43.97742" lon="1.75274">
        <ele>255.2</ele>
        <time>2021-10-24T12:49:43Z</time>
      </trkpt>
      <trkpt lat="43.97744" lon="1.75275">
        <ele>255.4</ele>
        <time>2021-10-24T12:49:44Z</time>
      </trkpt>
      <trkpt lat="43.97747" lon="1.75276">
        <ele>255.4</ele>
        <time>2021-10-24T12:49:45Z</time>
      </trkpt>
      <trkpt lat="43.97749" lon="1.75277">
        <ele>255.6</ele>
        <time>2021-10-24T12:49:46Z</time>
      </trkpt>
      <trkpt lat="43.97752" lon="1.75278">
        <ele>255.8</ele>
        <time>2021-10-24T12:49:47Z</time>
      </trkpt>
      <trkpt lat="43.97754" lon="1.75279">
        <ele>255.8</ele>
        <time>2021-10-24T12:49:48Z</time>
      </trkpt>
      <trkpt lat="43.97757" lon="1.7528">
        <ele>256</ele>
        <time>2021-10-24T12:49:49Z</time>
      </trkpt>
      <trkpt lat="43.97759" lon="1.75281">
        <ele>256</ele>
        <time>2021-10-24T12:49:50Z</time>
      </trkpt>
      <trkpt lat="43.97762" lon="1.75282">
        <ele>256.2</ele>
        <time>2021-10-24T12:49:51Z</time>
      </trkpt>
      <trkpt lat="43.97762" lon="1.75282">
        <ele>256.2</ele>
        <time>2021-10-24T12:49:52Z</time>
      </trkpt>
      <trkpt lat="43.97767" lon="1.75283">
        <ele>256.2</ele>
        <time>2021-10-24T12:49:53Z</time>
      </trkpt>
      <trkpt lat="43.97769" lon="1.75284">
        <ele>256.4</ele>
        <time>2021-10-24T12:49:54Z</time>
      </trkpt>
      <trkpt lat="43.97771" lon="1.75285">
        <ele>256.4</ele>
        <time>2021-10-24T12:49:55Z</time>
      </trkpt>
      <trkpt lat="43.97774" lon="1.75286">
        <ele>256.6</ele>
        <time>2021-10-24T12:49:56Z</time>
      </trkpt>
      <trkpt lat="43.97774" lon="1.75286">
        <ele>256.6</ele>
        <time>2021-10-24T12:49:57Z</time>
      </trkpt>
      <trkpt lat="43.97778" lon="1.75288">
        <ele>256.6</ele>
        <time>2021-10-24T12:49:58Z</time>
      </trkpt>
      <trkpt lat="43.97781" lon="1.75289">
        <ele>256.8</ele>
        <time>2021-10-24T12:49:59Z</time>
      </trkpt>
      <trkpt lat="43.97783" lon="1.75289">
        <ele>256.8</ele>
        <time>2021-10-24T12:50:00Z</time>
      </trkpt>
      <trkpt lat="43.97785" lon="1.7529">
        <ele>256.8</ele>
        <time>2021-10-24T12:50:01Z</time>
      </trkpt>
      <trkpt lat="43.97787" lon="1.7529">
        <ele>256.8</ele>
        <time>2021-10-24T12:50:02Z</time>
      </trkpt>
      <trkpt lat="43.97789" lon="1.75291">
        <ele>257</ele>
        <time>2021-10-24T12:50:03Z</time>
      </trkpt>
      <trkpt lat="43.97798" lon="1.75295">
        <ele>257.4</ele>
        <time>2021-10-24T12:50:08Z</time>
      </trkpt>
      <trkpt lat="43.978" lon="1.75296">
        <ele>257.6</ele>
        <time>2021-10-24T12:50:09Z</time>
      </trkpt>
      <trkpt lat="43.97802" lon="1.75297">
        <ele>257.6</ele>
        <time>2021-10-24T12:50:10Z</time>
      </trkpt>
      <trkpt lat="43.97804" lon="1.75298">
        <ele>257.6</ele>
        <time>2021-10-24T12:50:11Z</time>
      </trkpt>
      <trkpt lat="43.97806" lon="1.75298">
        <ele>257.8</ele>
        <time>2021-10-24T12:50:12Z</time>
      </trkpt>
      <trkpt lat="43.97807" lon="1.75299">
        <ele>257.8</ele>
        <time>2021-10-24T12:50:13Z</time>
      </trkpt>
      <trkpt lat="43.97813" lon="1.75303">
        <ele>258</ele>
        <time>2021-10-24T12:50:16Z</time>
      </trkpt>
      <trkpt lat="43.97817" lon="1.75306">
        <ele>258.2</ele>
        <time>2021-10-24T12:50:18Z</time>
      </trkpt>
      <trkpt lat="43.97836" lon="1.75315">
        <ele>258.4</ele>
        <time>2021-10-24T12:50:24Z</time>
      </trkpt>
      <trkpt lat="43.97843" lon="1.75318">
        <ele>257.8</ele>
        <time>2021-10-24T12:50:27Z</time>
      </trkpt>
      <trkpt lat="43.97849" lon="1.75321">
        <ele>257.6</ele>
        <time>2021-10-24T12:50:28Z</time>
      </trkpt>
      <trkpt lat="43.97852" lon="1.75323">
        <ele>257.6</ele>
        <time>2021-10-24T12:50:29Z</time>
      </trkpt>
      <trkpt lat="43.97855" lon="1.75324">
        <ele>257.4</ele>
        <time>2021-10-24T12:50:30Z</time>
      </trkpt>
      <trkpt lat="43.97858" lon="1.75326">
        <ele>257.4</ele>
        <time>2021-10-24T12:50:32Z</time>
      </trkpt>
      <trkpt lat="43.9787" lon="1.75331">
        <ele>257.6</ele>
        <time>2021-10-24T12:50:35Z</time>
      </trkpt>
      <trkpt lat="43.97883" lon="1.75337">
        <ele>257.6</ele>
        <time>2021-10-24T12:50:39Z</time>
      </trkpt>
      <trkpt lat="43.97886" lon="1.75339">
        <ele>257.6</ele>
        <time>2021-10-24T12:50:40Z</time>
      </trkpt>
      <trkpt lat="43.97888" lon="1.75341">
        <ele>257.6</ele>
        <time>2021-10-24T12:50:41Z</time>
      </trkpt>
      <trkpt lat="43.97901" lon="1.75346">
        <ele>258</ele>
        <time>2021-10-24T12:50:46Z</time>
      </trkpt>
      <trkpt lat="43.97901" lon="1.75346">
        <ele>258</ele>
        <time>2021-10-24T12:50:47Z</time>
      </trkpt>
      <trkpt lat="43.97905" lon="1.75347">
        <ele>257.8</ele>
        <time>2021-10-24T12:50:48Z</time>
      </trkpt>
      <trkpt lat="43.97907" lon="1.75347">
        <ele>258.2</ele>
        <time>2021-10-24T12:50:50Z</time>
      </trkpt>
      <trkpt lat="43.97911" lon="1.75348">
        <ele>258.2</ele>
        <time>2021-10-24T12:50:51Z</time>
      </trkpt>
      <trkpt lat="43.97919" lon="1.7535">
        <ele>258.4</ele>
        <time>2021-10-24T12:50:54Z</time>
      </trkpt>
      <trkpt lat="43.97919" lon="1.7535">
        <ele>258.6</ele>
        <time>2021-10-24T12:50:55Z</time>
      </trkpt>
      <trkpt lat="43.97923" lon="1.75349">
        <ele>258.6</ele>
        <time>2021-10-24T12:50:56Z</time>
      </trkpt>
      <trkpt lat="43.97925" lon="1.75349">
        <ele>258.8</ele>
        <time>2021-10-24T12:50:57Z</time>
      </trkpt>
      <trkpt lat="43.97925" lon="1.75349">
        <ele>259</ele>
        <time>2021-10-24T12:50:58Z</time>
      </trkpt>
      <trkpt lat="43.97932" lon="1.7535">
        <ele>259.2</ele>
        <time>2021-10-24T12:51:00Z</time>
      </trkpt>
      <trkpt lat="43.97934" lon="1.7535">
        <ele>259</ele>
        <time>2021-10-24T12:51:01Z</time>
      </trkpt>
      <trkpt lat="43.97936" lon="1.75351">
        <ele>259.2</ele>
        <time>2021-10-24T12:51:02Z</time>
      </trkpt>
      <trkpt lat="43.97939" lon="1.75351">
        <ele>259.4</ele>
        <time>2021-10-24T12:51:03Z</time>
      </trkpt>
      <trkpt lat="43.9795" lon="1.75353">
        <ele>260</ele>
        <time>2021-10-24T12:51:08Z</time>
      </trkpt>
      <trkpt lat="43.97952" lon="1.75354">
        <ele>260.2</ele>
        <time>2021-10-24T12:51:09Z</time>
      </trkpt>
      <trkpt lat="43.97954" lon="1.75354">
        <ele>260.2</ele>
        <time>2021-10-24T12:51:10Z</time>
      </trkpt>
      <trkpt lat="43.97956" lon="1.75355">
        <ele>260.4</ele>
        <time>2021-10-24T12:51:11Z</time>
      </trkpt>
      <trkpt lat="43.97958" lon="1.75355">
        <ele>260.4</ele>
        <time>2021-10-24T12:51:12Z</time>
      </trkpt>
      <trkpt lat="43.9796" lon="1.75354">
        <ele>260.6</ele>
        <time>2021-10-24T12:51:13Z</time>
      </trkpt>
      <trkpt lat="43.97962" lon="1.75353">
        <ele>260.6</ele>
        <time>2021-10-24T12:51:14Z</time>
      </trkpt>
      <trkpt lat="43.97964" lon="1.75353">
        <ele>260.6</ele>
        <time>2021-10-24T12:51:15Z</time>
      </trkpt>
      <trkpt lat="43.97967" lon="1.75353">
        <ele>260.8</ele>
        <time>2021-10-24T12:51:17Z</time>
      </trkpt>
      <trkpt lat="43.97967" lon="1.75353">
        <ele>261</ele>
        <time>2021-10-24T12:51:18Z</time>
      </trkpt>
      <trkpt lat="43.97974" lon="1.75355">
        <ele>261.8</ele>
        <time>2021-10-24T12:51:21Z</time>
      </trkpt>
      <trkpt lat="43.97974" lon="1.75355">
        <ele>261.8</ele>
        <time>2021-10-24T12:51:22Z</time>
      </trkpt>
      <trkpt lat="43.97978" lon="1.75355">
        <ele>262</ele>
        <time>2021-10-24T12:51:23Z</time>
      </trkpt>
      <trkpt lat="43.97979" lon="1.75355">
        <ele>262.2</ele>
        <time>2021-10-24T12:51:24Z</time>
      </trkpt>
      <trkpt lat="43.97981" lon="1.75355">
        <ele>262.4</ele>
        <time>2021-10-24T12:51:25Z</time>
      </trkpt>
      <trkpt lat="43.97983" lon="1.75355">
        <ele>262.4</ele>
        <time>2021-10-24T12:51:26Z</time>
      </trkpt>
      <trkpt lat="43.97984" lon="1.75355">
        <ele>262.6</ele>
        <time>2021-10-24T12:51:27Z</time>
      </trkpt>
      <trkpt lat="43.97986" lon="1.75355">
        <ele>262.4</ele>
        <time>2021-10-24T12:51:28Z</time>
      </trkpt>
      <trkpt lat="43.97988" lon="1.75356">
        <ele>262.4</ele>
        <time>2021-10-24T12:51:29Z</time>
      </trkpt>
      <trkpt lat="43.97989" lon="1.75356">
        <ele>262.6</ele>
        <time>2021-10-24T12:51:30Z</time>
      </trkpt>
      <trkpt lat="43.97991" lon="1.75356">
        <ele>262.8</ele>
        <time>2021-10-24T12:51:31Z</time>
      </trkpt>
      <trkpt lat="43.97993" lon="1.75356">
        <ele>263</ele>
        <time>2021-10-24T12:51:32Z</time>
      </trkpt>
      <trkpt lat="43.97994" lon="1.75356">
        <ele>263.2</ele>
        <time>2021-10-24T12:51:33Z</time>
      </trkpt>
      <trkpt lat="43.97996" lon="1.75356">
        <ele>263.4</ele>
        <time>2021-10-24T12:51:34Z</time>
      </trkpt>
      <trkpt lat="43.97997" lon="1.75357">
        <ele>263.4</ele>
        <time>2021-10-24T12:51:35Z</time>
      </trkpt>
      <trkpt lat="43.97999" lon="1.75357">
        <ele>263.4</ele>
        <time>2021-10-24T12:51:36Z</time>
      </trkpt>
      <trkpt lat="43.98001" lon="1.75357">
        <ele>263.6</ele>
        <time>2021-10-24T12:51:37Z</time>
      </trkpt>
      <trkpt lat="43.98001" lon="1.75357">
        <ele>263.6</ele>
        <time>2021-10-24T12:51:38Z</time>
      </trkpt>
      <trkpt lat="43.98004" lon="1.75357">
        <ele>263.8</ele>
        <time>2021-10-24T12:51:39Z</time>
      </trkpt>
      <trkpt lat="43.98006" lon="1.75357">
        <ele>263.8</ele>
        <time>2021-10-24T12:51:40Z</time>
      </trkpt>
      <trkpt lat="43.98007" lon="1.75357">
        <ele>264</ele>
        <time>2021-10-24T12:51:41Z</time>
      </trkpt>
      <trkpt lat="43.98009" lon="1.75357">
        <ele>264.2</ele>
        <time>2021-10-24T12:51:42Z</time>
      </trkpt>
      <trkpt lat="43.98009" lon="1.75357">
        <ele>264.2</ele>
        <time>2021-10-24T12:51:43Z</time>
      </trkpt>
      <trkpt lat="43.98012" lon="1.75357">
        <ele>264.4</ele>
        <time>2021-10-24T12:51:44Z</time>
      </trkpt>
      <trkpt lat="43.98013" lon="1.75357">
        <ele>264.4</ele>
        <time>2021-10-24T12:51:45Z</time>
      </trkpt>
      <trkpt lat="43.98015" lon="1.75357">
        <ele>264.6</ele>
        <time>2021-10-24T12:51:46Z</time>
      </trkpt>
      <trkpt lat="43.98017" lon="1.75357">
        <ele>264.6</ele>
        <time>2021-10-24T12:51:47Z</time>
      </trkpt>
      <trkpt lat="43.98018" lon="1.75357">
        <ele>264.6</ele>
        <time>2021-10-24T12:51:48Z</time>
      </trkpt>
      <trkpt lat="43.9802" lon="1.75357">
        <ele>264.8</ele>
        <time>2021-10-24T12:51:49Z</time>
      </trkpt>
      <trkpt lat="43.98021" lon="1.75357">
        <ele>264.8</ele>
        <time>2021-10-24T12:51:50Z</time>
      </trkpt>
      <trkpt lat="43.98022" lon="1.75358">
        <ele>265</ele>
        <time>2021-10-24T12:51:51Z</time>
      </trkpt>
      <trkpt lat="43.98024" lon="1.75358">
        <ele>265</ele>
        <time>2021-10-24T12:51:52Z</time>
      </trkpt>
      <trkpt lat="43.98025" lon="1.75357">
        <ele>265.2</ele>
        <time>2021-10-24T12:51:53Z</time>
      </trkpt>
      <trkpt lat="43.98027" lon="1.75357">
        <ele>265.2</ele>
        <time>2021-10-24T12:51:54Z</time>
      </trkpt>
      <trkpt lat="43.98028" lon="1.75357">
        <ele>265.4</ele>
        <time>2021-10-24T12:51:55Z</time>
      </trkpt>
      <trkpt lat="43.9803" lon="1.75357">
        <ele>265.4</ele>
        <time>2021-10-24T12:51:56Z</time>
      </trkpt>
      <trkpt lat="43.98031" lon="1.75356">
        <ele>265.6</ele>
        <time>2021-10-24T12:51:57Z</time>
      </trkpt>
      <trkpt lat="43.98033" lon="1.75356">
        <ele>265.6</ele>
        <time>2021-10-24T12:51:58Z</time>
      </trkpt>
      <trkpt lat="43.98034" lon="1.75356">
        <ele>265.6</ele>
        <time>2021-10-24T12:51:59Z</time>
      </trkpt>
      <trkpt lat="43.98034" lon="1.75356">
        <ele>265.8</ele>
        <time>2021-10-24T12:52:00Z</time>
      </trkpt>
      <trkpt lat="43.98037" lon="1.75355">
        <ele>265.8</ele>
        <time>2021-10-24T12:52:01Z</time>
      </trkpt>
      <trkpt lat="43.98039" lon="1.75355">
        <ele>265.8</ele>
        <time>2021-10-24T12:52:02Z</time>
      </trkpt>
      <trkpt lat="43.98041" lon="1.75355">
        <ele>265.8</ele>
        <time>2021-10-24T12:52:03Z</time>
      </trkpt>
      <trkpt lat="43.98042" lon="1.75355">
        <ele>266</ele>
        <time>2021-10-24T12:52:04Z</time>
      </trkpt>
      <trkpt lat="43.98045" lon="1.75354">
        <ele>266.2</ele>
        <time>2021-10-24T12:52:06Z</time>
      </trkpt>
      <trkpt lat="43.98047" lon="1.75354">
        <ele>266.4</ele>
        <time>2021-10-24T12:52:07Z</time>
      </trkpt>
      <trkpt lat="43.98047" lon="1.75354">
        <ele>266.6</ele>
        <time>2021-10-24T12:52:08Z</time>
      </trkpt>
      <trkpt lat="43.9805" lon="1.75354">
        <ele>266.8</ele>
        <time>2021-10-24T12:52:09Z</time>
      </trkpt>
      <trkpt lat="43.98051" lon="1.75354">
        <ele>267</ele>
        <time>2021-10-24T12:52:10Z</time>
      </trkpt>
      <trkpt lat="43.98052" lon="1.75354">
        <ele>267</ele>
        <time>2021-10-24T12:52:11Z</time>
      </trkpt>
      <trkpt lat="43.98054" lon="1.75354">
        <ele>267.2</ele>
        <time>2021-10-24T12:52:12Z</time>
      </trkpt>
      <trkpt lat="43.98055" lon="1.75354">
        <ele>267.4</ele>
        <time>2021-10-24T12:52:13Z</time>
      </trkpt>
      <trkpt lat="43.98056" lon="1.75353">
        <ele>267.4</ele>
        <time>2021-10-24T12:52:14Z</time>
      </trkpt>
      <trkpt lat="43.98058" lon="1.75353">
        <ele>267.6</ele>
        <time>2021-10-24T12:52:15Z</time>
      </trkpt>
      <trkpt lat="43.98059" lon="1.75353">
        <ele>267.8</ele>
        <time>2021-10-24T12:52:16Z</time>
      </trkpt>
      <trkpt lat="43.9806" lon="1.75353">
        <ele>268</ele>
        <time>2021-10-24T12:52:17Z</time>
      </trkpt>
      <trkpt lat="43.98061" lon="1.75353">
        <ele>268.2</ele>
        <time>2021-10-24T12:52:18Z</time>
      </trkpt>
      <trkpt lat="43.98062" lon="1.75353">
        <ele>268.2</ele>
        <time>2021-10-24T12:52:19Z</time>
      </trkpt>
      <trkpt lat="43.98062" lon="1.75353">
        <ele>268.4</ele>
        <time>2021-10-24T12:52:20Z</time>
      </trkpt>
      <trkpt lat="43.98065" lon="1.75352">
        <ele>268.4</ele>
        <time>2021-10-24T12:52:21Z</time>
      </trkpt>
      <trkpt lat="43.98066" lon="1.75352">
        <ele>268.6</ele>
        <time>2021-10-24T12:52:22Z</time>
      </trkpt>
      <trkpt lat="43.98067" lon="1.75351">
        <ele>268.8</ele>
        <time>2021-10-24T12:52:23Z</time>
      </trkpt>
      <trkpt lat="43.98068" lon="1.75351">
        <ele>269</ele>
        <time>2021-10-24T12:52:24Z</time>
      </trkpt>
      <trkpt lat="43.98069" lon="1.75351">
        <ele>269.4</ele>
        <time>2021-10-24T12:52:25Z</time>
      </trkpt>
      <trkpt lat="43.9807" lon="1.75351">
        <ele>269.4</ele>
        <time>2021-10-24T12:52:26Z</time>
      </trkpt>
      <trkpt lat="43.98071" lon="1.75351">
        <ele>269.8</ele>
        <time>2021-10-24T12:52:27Z</time>
      </trkpt>
      <trkpt lat="43.98073" lon="1.75351">
        <ele>269.8</ele>
        <time>2021-10-24T12:52:28Z</time>
      </trkpt>
      <trkpt lat="43.98074" lon="1.7535">
        <ele>270</ele>
        <time>2021-10-24T12:52:29Z</time>
      </trkpt>
      <trkpt lat="43.98075" lon="1.7535">
        <ele>270</ele>
        <time>2021-10-24T12:52:30Z</time>
      </trkpt>
      <trkpt lat="43.98077" lon="1.7535">
        <ele>270.2</ele>
        <time>2021-10-24T12:52:31Z</time>
      </trkpt>
      <trkpt lat="43.98078" lon="1.7535">
        <ele>270.6</ele>
        <time>2021-10-24T12:52:32Z</time>
      </trkpt>
      <trkpt lat="43.98079" lon="1.7535">
        <ele>270.8</ele>
        <time>2021-10-24T12:52:33Z</time>
      </trkpt>
      <trkpt lat="43.98081" lon="1.7535">
        <ele>270.8</ele>
        <time>2021-10-24T12:52:34Z</time>
      </trkpt>
      <trkpt lat="43.98082" lon="1.75349">
        <ele>271</ele>
        <time>2021-10-24T12:52:35Z</time>
      </trkpt>
      <trkpt lat="43.98083" lon="1.7535">
        <ele>271.4</ele>
        <time>2021-10-24T12:52:36Z</time>
      </trkpt>
      <trkpt lat="43.98085" lon="1.7535">
        <ele>271.6</ele>
        <time>2021-10-24T12:52:37Z</time>
      </trkpt>
      <trkpt lat="43.98086" lon="1.7535">
        <ele>271.8</ele>
        <time>2021-10-24T12:52:38Z</time>
      </trkpt>
      <trkpt lat="43.98088" lon="1.75349">
        <ele>271.8</ele>
        <time>2021-10-24T12:52:39Z</time>
      </trkpt>
      <trkpt lat="43.98089" lon="1.75349">
        <ele>272</ele>
        <time>2021-10-24T12:52:40Z</time>
      </trkpt>
      <trkpt lat="43.9809" lon="1.75349">
        <ele>272.4</ele>
        <time>2021-10-24T12:52:41Z</time>
      </trkpt>
      <trkpt lat="43.98092" lon="1.75349">
        <ele>272.4</ele>
        <time>2021-10-24T12:52:42Z</time>
      </trkpt>
      <trkpt lat="43.98093" lon="1.75348">
        <ele>272.8</ele>
        <time>2021-10-24T12:52:43Z</time>
      </trkpt>
      <trkpt lat="43.98094" lon="1.75348">
        <ele>272.8</ele>
        <time>2021-10-24T12:52:44Z</time>
      </trkpt>
      <trkpt lat="43.98096" lon="1.75348">
        <ele>273</ele>
        <time>2021-10-24T12:52:45Z</time>
      </trkpt>
      <trkpt lat="43.98097" lon="1.75348">
        <ele>273.2</ele>
        <time>2021-10-24T12:52:46Z</time>
      </trkpt>
      <trkpt lat="43.98099" lon="1.75348">
        <ele>273.4</ele>
        <time>2021-10-24T12:52:47Z</time>
      </trkpt>
      <trkpt lat="43.98101" lon="1.75348">
        <ele>273.6</ele>
        <time>2021-10-24T12:52:48Z</time>
      </trkpt>
      <trkpt lat="43.98101" lon="1.75348">
        <ele>273.6</ele>
        <time>2021-10-24T12:52:49Z</time>
      </trkpt>
      <trkpt lat="43.98103" lon="1.75348">
        <ele>273.8</ele>
        <time>2021-10-24T12:52:50Z</time>
      </trkpt>
      <trkpt lat="43.98105" lon="1.75348">
        <ele>273.8</ele>
        <time>2021-10-24T12:52:51Z</time>
      </trkpt>
      <trkpt lat="43.98106" lon="1.75348">
        <ele>274.2</ele>
        <time>2021-10-24T12:52:52Z</time>
      </trkpt>
      <trkpt lat="43.98107" lon="1.75348">
        <ele>274.2</ele>
        <time>2021-10-24T12:52:53Z</time>
      </trkpt>
      <trkpt lat="43.98109" lon="1.75348">
        <ele>274.4</ele>
        <time>2021-10-24T12:52:54Z</time>
      </trkpt>
      <trkpt lat="43.9811" lon="1.75348">
        <ele>274.8</ele>
        <time>2021-10-24T12:52:55Z</time>
      </trkpt>
      <trkpt lat="43.98111" lon="1.75348">
        <ele>275</ele>
        <time>2021-10-24T12:52:56Z</time>
      </trkpt>
      <trkpt lat="43.98112" lon="1.75348">
        <ele>275.2</ele>
        <time>2021-10-24T12:52:57Z</time>
      </trkpt>
      <trkpt lat="43.98114" lon="1.75347">
        <ele>275.2</ele>
        <time>2021-10-24T12:52:58Z</time>
      </trkpt>
      <trkpt lat="43.98114" lon="1.75347">
        <ele>275.4</ele>
        <time>2021-10-24T12:52:59Z</time>
      </trkpt>
      <trkpt lat="43.98116" lon="1.75347">
        <ele>275.6</ele>
        <time>2021-10-24T12:53:00Z</time>
      </trkpt>
      <trkpt lat="43.98118" lon="1.75347">
        <ele>275.8</ele>
        <time>2021-10-24T12:53:01Z</time>
      </trkpt>
      <trkpt lat="43.98119" lon="1.75347">
        <ele>276</ele>
        <time>2021-10-24T12:53:02Z</time>
      </trkpt>
      <trkpt lat="43.98121" lon="1.75347">
        <ele>276</ele>
        <time>2021-10-24T12:53:03Z</time>
      </trkpt>
      <trkpt lat="43.98122" lon="1.75347">
        <ele>276.2</ele>
        <time>2021-10-24T12:53:04Z</time>
      </trkpt>
      <trkpt lat="43.98124" lon="1.75346">
        <ele>276.2</ele>
        <time>2021-10-24T12:53:05Z</time>
      </trkpt>
      <trkpt lat="43.98125" lon="1.75346">
        <ele>276.4</ele>
        <time>2021-10-24T12:53:06Z</time>
      </trkpt>
      <trkpt lat="43.98127" lon="1.75346">
        <ele>276.4</ele>
        <time>2021-10-24T12:53:07Z</time>
      </trkpt>
      <trkpt lat="43.98128" lon="1.75346">
        <ele>276.8</ele>
        <time>2021-10-24T12:53:08Z</time>
      </trkpt>
      <trkpt lat="43.98128" lon="1.75346">
        <ele>277</ele>
        <time>2021-10-24T12:53:09Z</time>
      </trkpt>
      <trkpt lat="43.98131" lon="1.75346">
        <ele>277.2</ele>
        <time>2021-10-24T12:53:10Z</time>
      </trkpt>
      <trkpt lat="43.98133" lon="1.75346">
        <ele>277.2</ele>
        <time>2021-10-24T12:53:11Z</time>
      </trkpt>
      <trkpt lat="43.98134" lon="1.75346">
        <ele>277.4</ele>
        <time>2021-10-24T12:53:12Z</time>
      </trkpt>
      <trkpt lat="43.98136" lon="1.75346">
        <ele>277.6</ele>
        <time>2021-10-24T12:53:13Z</time>
      </trkpt>
      <trkpt lat="43.98136" lon="1.75346">
        <ele>277.8</ele>
        <time>2021-10-24T12:53:14Z</time>
      </trkpt>
      <trkpt lat="43.98139" lon="1.75346">
        <ele>277.8</ele>
        <time>2021-10-24T12:53:15Z</time>
      </trkpt>
      <trkpt lat="43.9814" lon="1.75346">
        <ele>278</ele>
        <time>2021-10-24T12:53:16Z</time>
      </trkpt>
      <trkpt lat="43.98142" lon="1.75346">
        <ele>278</ele>
        <time>2021-10-24T12:53:17Z</time>
      </trkpt>
      <trkpt lat="43.98143" lon="1.75346">
        <ele>278.2</ele>
        <time>2021-10-24T12:53:18Z</time>
      </trkpt>
      <trkpt lat="43.98145" lon="1.75346">
        <ele>278.4</ele>
        <time>2021-10-24T12:53:19Z</time>
      </trkpt>
      <trkpt lat="43.98146" lon="1.75346">
        <ele>278.4</ele>
        <time>2021-10-24T12:53:20Z</time>
      </trkpt>
      <trkpt lat="43.98148" lon="1.75346">
        <ele>278.4</ele>
        <time>2021-10-24T12:53:21Z</time>
      </trkpt>
      <trkpt lat="43.98149" lon="1.75346">
        <ele>278.8</ele>
        <time>2021-10-24T12:53:22Z</time>
      </trkpt>
      <trkpt lat="43.98151" lon="1.75345">
        <ele>278.8</ele>
        <time>2021-10-24T12:53:23Z</time>
      </trkpt>
      <trkpt lat="43.98152" lon="1.75345">
        <ele>279</ele>
        <time>2021-10-24T12:53:24Z</time>
      </trkpt>
      <trkpt lat="43.98154" lon="1.75345">
        <ele>279.2</ele>
        <time>2021-10-24T12:53:25Z</time>
      </trkpt>
      <trkpt lat="43.98155" lon="1.75345">
        <ele>279.2</ele>
        <time>2021-10-24T12:53:26Z</time>
      </trkpt>
      <trkpt lat="43.98156" lon="1.75345">
        <ele>279.4</ele>
        <time>2021-10-24T12:53:27Z</time>
      </trkpt>
      <trkpt lat="43.98158" lon="1.75345">
        <ele>279.4</ele>
        <time>2021-10-24T12:53:28Z</time>
      </trkpt>
      <trkpt lat="43.98159" lon="1.75345">
        <ele>279.4</ele>
        <time>2021-10-24T12:53:29Z</time>
      </trkpt>
      <trkpt lat="43.9816" lon="1.75345">
        <ele>279.4</ele>
        <time>2021-10-24T12:53:30Z</time>
      </trkpt>
      <trkpt lat="43.9816" lon="1.75345">
        <ele>279.6</ele>
        <time>2021-10-24T12:53:31Z</time>
      </trkpt>
      <trkpt lat="43.98163" lon="1.75345">
        <ele>279.8</ele>
        <time>2021-10-24T12:53:32Z</time>
      </trkpt>
      <trkpt lat="43.98164" lon="1.75345">
        <ele>279.8</ele>
        <time>2021-10-24T12:53:33Z</time>
      </trkpt>
      <trkpt lat="43.98166" lon="1.75345">
        <ele>280.2</ele>
        <time>2021-10-24T12:53:34Z</time>
      </trkpt>
      <trkpt lat="43.98167" lon="1.75345">
        <ele>280.2</ele>
        <time>2021-10-24T12:53:35Z</time>
      </trkpt>
      <trkpt lat="43.98167" lon="1.75345">
        <ele>280.4</ele>
        <time>2021-10-24T12:53:36Z</time>
      </trkpt>
      <trkpt lat="43.9817" lon="1.75344">
        <ele>280.4</ele>
        <time>2021-10-24T12:53:37Z</time>
      </trkpt>
      <trkpt lat="43.98171" lon="1.75344">
        <ele>280.6</ele>
        <time>2021-10-24T12:53:38Z</time>
      </trkpt>
      <trkpt lat="43.98172" lon="1.75344">
        <ele>280.6</ele>
        <time>2021-10-24T12:53:39Z</time>
      </trkpt>
      <trkpt lat="43.98173" lon="1.75344">
        <ele>280.8</ele>
        <time>2021-10-24T12:53:40Z</time>
      </trkpt>
      <trkpt lat="43.98174" lon="1.75344">
        <ele>281</ele>
        <time>2021-10-24T12:53:41Z</time>
      </trkpt>
      <trkpt lat="43.98176" lon="1.75344">
        <ele>281</ele>
        <time>2021-10-24T12:53:42Z</time>
      </trkpt>
      <trkpt lat="43.98177" lon="1.75344">
        <ele>281.2</ele>
        <time>2021-10-24T12:53:43Z</time>
      </trkpt>
      <trkpt lat="43.98178" lon="1.75343">
        <ele>281.4</ele>
        <time>2021-10-24T12:53:44Z</time>
      </trkpt>
      <trkpt lat="43.9818" lon="1.75343">
        <ele>281.6</ele>
        <time>2021-10-24T12:53:45Z</time>
      </trkpt>
      <trkpt lat="43.98181" lon="1.75343">
        <ele>281.6</ele>
        <time>2021-10-24T12:53:46Z</time>
      </trkpt>
      <trkpt lat="43.98182" lon="1.75343">
        <ele>281.8</ele>
        <time>2021-10-24T12:53:47Z</time>
      </trkpt>
      <trkpt lat="43.98184" lon="1.75343">
        <ele>282.2</ele>
        <time>2021-10-24T12:53:48Z</time>
      </trkpt>
      <trkpt lat="43.98185" lon="1.75343">
        <ele>282.4</ele>
        <time>2021-10-24T12:53:49Z</time>
      </trkpt>
      <trkpt lat="43.98187" lon="1.75343">
        <ele>282.6</ele>
        <time>2021-10-24T12:53:50Z</time>
      </trkpt>
      <trkpt lat="43.98189" lon="1.75343">
        <ele>282.8</ele>
        <time>2021-10-24T12:53:51Z</time>
      </trkpt>
      <trkpt lat="43.9819" lon="1.75343">
        <ele>283</ele>
        <time>2021-10-24T12:53:52Z</time>
      </trkpt>
      <trkpt lat="43.98192" lon="1.75343">
        <ele>283.2</ele>
        <time>2021-10-24T12:53:53Z</time>
      </trkpt>
      <trkpt lat="43.98193" lon="1.75344">
        <ele>283.2</ele>
        <time>2021-10-24T12:53:54Z</time>
      </trkpt>
      <trkpt lat="43.98194" lon="1.75345">
        <ele>283.4</ele>
        <time>2021-10-24T12:53:55Z</time>
      </trkpt>
      <trkpt lat="43.98195" lon="1.75345">
        <ele>283.6</ele>
        <time>2021-10-24T12:53:56Z</time>
      </trkpt>
      <trkpt lat="43.98197" lon="1.75345">
        <ele>284.2</ele>
        <time>2021-10-24T12:53:57Z</time>
      </trkpt>
      <trkpt lat="43.98198" lon="1.75345">
        <ele>284.4</ele>
        <time>2021-10-24T12:53:58Z</time>
      </trkpt>
      <trkpt lat="43.98199" lon="1.75345">
        <ele>284.8</ele>
        <time>2021-10-24T12:53:59Z</time>
      </trkpt>
      <trkpt lat="43.982" lon="1.75345">
        <ele>285</ele>
        <time>2021-10-24T12:54:00Z</time>
      </trkpt>
      <trkpt lat="43.98202" lon="1.75344">
        <ele>285.2</ele>
        <time>2021-10-24T12:54:01Z</time>
      </trkpt>
      <trkpt lat="43.98203" lon="1.75344">
        <ele>285.2</ele>
        <time>2021-10-24T12:54:02Z</time>
      </trkpt>
      <trkpt lat="43.98204" lon="1.75344">
        <ele>285.6</ele>
        <time>2021-10-24T12:54:03Z</time>
      </trkpt>
      <trkpt lat="43.98205" lon="1.75344">
        <ele>285.8</ele>
        <time>2021-10-24T12:54:04Z</time>
      </trkpt>
      <trkpt lat="43.98206" lon="1.75344">
        <ele>286.2</ele>
        <time>2021-10-24T12:54:05Z</time>
      </trkpt>
      <trkpt lat="43.98207" lon="1.75344">
        <ele>286.4</ele>
        <time>2021-10-24T12:54:06Z</time>
      </trkpt>
      <trkpt lat="43.98209" lon="1.75344">
        <ele>286.4</ele>
        <time>2021-10-24T12:54:07Z</time>
      </trkpt>
      <trkpt lat="43.9821" lon="1.75343">
        <ele>286.8</ele>
        <time>2021-10-24T12:54:08Z</time>
      </trkpt>
      <trkpt lat="43.98211" lon="1.75343">
        <ele>287</ele>
        <time>2021-10-24T12:54:09Z</time>
      </trkpt>
      <trkpt lat="43.98213" lon="1.75343">
        <ele>287.2</ele>
        <time>2021-10-24T12:54:10Z</time>
      </trkpt>
      <trkpt lat="43.98214" lon="1.75343">
        <ele>287.2</ele>
        <time>2021-10-24T12:54:11Z</time>
      </trkpt>
      <trkpt lat="43.98215" lon="1.75343">
        <ele>287.4</ele>
        <time>2021-10-24T12:54:12Z</time>
      </trkpt>
      <trkpt lat="43.98216" lon="1.75343">
        <ele>287.8</ele>
        <time>2021-10-24T12:54:13Z</time>
      </trkpt>
      <trkpt lat="43.98218" lon="1.75343">
        <ele>288</ele>
        <time>2021-10-24T12:54:14Z</time>
      </trkpt>
      <trkpt lat="43.98219" lon="1.75342">
        <ele>288.2</ele>
        <time>2021-10-24T12:54:15Z</time>
      </trkpt>
      <trkpt lat="43.9822" lon="1.75342">
        <ele>288.6</ele>
        <time>2021-10-24T12:54:16Z</time>
      </trkpt>
      <trkpt lat="43.98221" lon="1.75342">
        <ele>288.8</ele>
        <time>2021-10-24T12:54:17Z</time>
      </trkpt>
      <trkpt lat="43.98223" lon="1.75342">
        <ele>289</ele>
        <time>2021-10-24T12:54:18Z</time>
      </trkpt>
      <trkpt lat="43.98224" lon="1.75342">
        <ele>289.6</ele>
        <time>2021-10-24T12:54:19Z</time>
      </trkpt>
      <trkpt lat="43.98225" lon="1.75342">
        <ele>289.6</ele>
        <time>2021-10-24T12:54:20Z</time>
      </trkpt>
      <trkpt lat="43.98226" lon="1.75342">
        <ele>289.6</ele>
        <time>2021-10-24T12:54:21Z</time>
      </trkpt>
      <trkpt lat="43.98227" lon="1.75341">
        <ele>289.8</ele>
        <time>2021-10-24T12:54:22Z</time>
      </trkpt>
      <trkpt lat="43.98228" lon="1.75341">
        <ele>290</ele>
        <time>2021-10-24T12:54:23Z</time>
      </trkpt>
      <trkpt lat="43.9823" lon="1.75341">
        <ele>290.2</ele>
        <time>2021-10-24T12:54:24Z</time>
      </trkpt>
      <trkpt lat="43.98231" lon="1.75341">
        <ele>290.4</ele>
        <time>2021-10-24T12:54:25Z</time>
      </trkpt>
      <trkpt lat="43.98233" lon="1.75341">
        <ele>290.4</ele>
        <time>2021-10-24T12:54:26Z</time>
      </trkpt>
      <trkpt lat="43.98234" lon="1.75341">
        <ele>290.8</ele>
        <time>2021-10-24T12:54:27Z</time>
      </trkpt>
      <trkpt lat="43.98235" lon="1.75341">
        <ele>291.2</ele>
        <time>2021-10-24T12:54:28Z</time>
      </trkpt>
      <trkpt lat="43.98236" lon="1.75341">
        <ele>291.6</ele>
        <time>2021-10-24T12:54:29Z</time>
      </trkpt>
      <trkpt lat="43.98237" lon="1.75341">
        <ele>291.8</ele>
        <time>2021-10-24T12:54:30Z</time>
      </trkpt>
      <trkpt lat="43.98239" lon="1.75341">
        <ele>292</ele>
        <time>2021-10-24T12:54:31Z</time>
      </trkpt>
      <trkpt lat="43.9824" lon="1.75341">
        <ele>292.2</ele>
        <time>2021-10-24T12:54:32Z</time>
      </trkpt>
      <trkpt lat="43.98241" lon="1.75341">
        <ele>292.4</ele>
        <time>2021-10-24T12:54:33Z</time>
      </trkpt>
      <trkpt lat="43.98243" lon="1.75341">
        <ele>292.6</ele>
        <time>2021-10-24T12:54:34Z</time>
      </trkpt>
      <trkpt lat="43.98244" lon="1.75341">
        <ele>292.8</ele>
        <time>2021-10-24T12:54:35Z</time>
      </trkpt>
      <trkpt lat="43.98246" lon="1.7534">
        <ele>293.2</ele>
        <time>2021-10-24T12:54:36Z</time>
      </trkpt>
      <trkpt lat="43.98247" lon="1.7534">
        <ele>293.2</ele>
        <time>2021-10-24T12:54:37Z</time>
      </trkpt>
      <trkpt lat="43.98249" lon="1.75339">
        <ele>293.6</ele>
        <time>2021-10-24T12:54:38Z</time>
      </trkpt>
      <trkpt lat="43.98249" lon="1.75339">
        <ele>293.6</ele>
        <time>2021-10-24T12:54:39Z</time>
      </trkpt>
      <trkpt lat="43.98251" lon="1.75339">
        <ele>293.8</ele>
        <time>2021-10-24T12:54:40Z</time>
      </trkpt>
      <trkpt lat="43.98253" lon="1.75339">
        <ele>293.8</ele>
        <time>2021-10-24T12:54:41Z</time>
      </trkpt>
      <trkpt lat="43.98254" lon="1.75338">
        <ele>294.2</ele>
        <time>2021-10-24T12:54:42Z</time>
      </trkpt>
      <trkpt lat="43.98255" lon="1.75338">
        <ele>294.4</ele>
        <time>2021-10-24T12:54:43Z</time>
      </trkpt>
      <trkpt lat="43.98257" lon="1.75338">
        <ele>294.6</ele>
        <time>2021-10-24T12:54:44Z</time>
      </trkpt>
      <trkpt lat="43.98258" lon="1.75338">
        <ele>294.8</ele>
        <time>2021-10-24T12:54:45Z</time>
      </trkpt>
      <trkpt lat="43.98259" lon="1.75338">
        <ele>295</ele>
        <time>2021-10-24T12:54:46Z</time>
      </trkpt>
      <trkpt lat="43.9826" lon="1.75338">
        <ele>295</ele>
        <time>2021-10-24T12:54:47Z</time>
      </trkpt>
      <trkpt lat="43.98262" lon="1.75337">
        <ele>295.2</ele>
        <time>2021-10-24T12:54:48Z</time>
      </trkpt>
      <trkpt lat="43.98263" lon="1.75338">
        <ele>295.4</ele>
        <time>2021-10-24T12:54:49Z</time>
      </trkpt>
      <trkpt lat="43.98265" lon="1.75338">
        <ele>295.4</ele>
        <time>2021-10-24T12:54:50Z</time>
      </trkpt>
      <trkpt lat="43.98266" lon="1.75338">
        <ele>295.8</ele>
        <time>2021-10-24T12:54:51Z</time>
      </trkpt>
      <trkpt lat="43.98267" lon="1.75338">
        <ele>296</ele>
        <time>2021-10-24T12:54:52Z</time>
      </trkpt>
      <trkpt lat="43.98269" lon="1.75338">
        <ele>296.2</ele>
        <time>2021-10-24T12:54:53Z</time>
      </trkpt>
      <trkpt lat="43.98269" lon="1.75338">
        <ele>296.4</ele>
        <time>2021-10-24T12:54:54Z</time>
      </trkpt>
      <trkpt lat="43.98272" lon="1.75338">
        <ele>296.6</ele>
        <time>2021-10-24T12:54:55Z</time>
      </trkpt>
      <trkpt lat="43.98273" lon="1.75337">
        <ele>296.8</ele>
        <time>2021-10-24T12:54:56Z</time>
      </trkpt>
      <trkpt lat="43.98274" lon="1.75337">
        <ele>296.8</ele>
        <time>2021-10-24T12:54:57Z</time>
      </trkpt>
      <trkpt lat="43.98275" lon="1.75337">
        <ele>297</ele>
        <time>2021-10-24T12:54:58Z</time>
      </trkpt>
      <trkpt lat="43.98277" lon="1.75337">
        <ele>297.2</ele>
        <time>2021-10-24T12:54:59Z</time>
      </trkpt>
      <trkpt lat="43.98278" lon="1.75337">
        <ele>297.2</ele>
        <time>2021-10-24T12:55:00Z</time>
      </trkpt>
      <trkpt lat="43.9828" lon="1.75337">
        <ele>297.2</ele>
        <time>2021-10-24T12:55:01Z</time>
      </trkpt>
      <trkpt lat="43.98281" lon="1.75337">
        <ele>297.4</ele>
        <time>2021-10-24T12:55:02Z</time>
      </trkpt>
      <trkpt lat="43.98282" lon="1.75337">
        <ele>297.6</ele>
        <time>2021-10-24T12:55:03Z</time>
      </trkpt>
      <trkpt lat="43.98284" lon="1.75337">
        <ele>297.6</ele>
        <time>2021-10-24T12:55:04Z</time>
      </trkpt>
      <trkpt lat="43.98285" lon="1.75337">
        <ele>297.8</ele>
        <time>2021-10-24T12:55:05Z</time>
      </trkpt>
      <trkpt lat="43.98286" lon="1.75336">
        <ele>298</ele>
        <time>2021-10-24T12:55:06Z</time>
      </trkpt>
      <trkpt lat="43.98287" lon="1.75337">
        <ele>298</ele>
        <time>2021-10-24T12:55:07Z</time>
      </trkpt>
      <trkpt lat="43.98288" lon="1.75337">
        <ele>298</ele>
        <time>2021-10-24T12:55:08Z</time>
      </trkpt>
      <trkpt lat="43.98288" lon="1.75338">
        <ele>298.2</ele>
        <time>2021-10-24T12:55:09Z</time>
      </trkpt>
      <trkpt lat="43.98291" lon="1.75343">
        <ele>299.4</ele>
        <time>2021-10-24T12:58:40Z</time>
      </trkpt>
      <trkpt lat="43.98293" lon="1.75346">
        <ele>299.4</ele>
        <time>2021-10-24T12:58:42Z</time>
      </trkpt>
      <trkpt lat="43.98293" lon="1.75347">
        <ele>299.4</ele>
        <time>2021-10-24T12:58:43Z</time>
      </trkpt>
      <trkpt lat="43.98299" lon="1.75353">
        <ele>299.8</ele>
        <time>2021-10-24T12:58:48Z</time>
      </trkpt>
      <trkpt lat="43.98312" lon="1.75365">
        <ele>300.2</ele>
        <time>2021-10-24T12:58:57Z</time>
      </trkpt>
      <trkpt lat="43.98316" lon="1.75368">
        <ele>300.4</ele>
        <time>2021-10-24T12:59:00Z</time>
      </trkpt>
      <trkpt lat="43.98318" lon="1.7537">
        <ele>300.4</ele>
        <time>2021-10-24T12:59:01Z</time>
      </trkpt>
      <trkpt lat="43.98323" lon="1.75375">
        <ele>300.4</ele>
        <time>2021-10-24T12:59:04Z</time>
      </trkpt>
      <trkpt lat="43.98326" lon="1.75377">
        <ele>300.6</ele>
        <time>2021-10-24T12:59:06Z</time>
      </trkpt>
      <trkpt lat="43.98338" lon="1.75387">
        <ele>301</ele>
        <time>2021-10-24T12:59:13Z</time>
      </trkpt>
      <trkpt lat="43.98345" lon="1.75394">
        <ele>301.2</ele>
        <time>2021-10-24T12:59:17Z</time>
      </trkpt>
      <trkpt lat="43.98354" lon="1.75402">
        <ele>301.4</ele>
        <time>2021-10-24T12:59:22Z</time>
      </trkpt>
      <trkpt lat="43.98364" lon="1.75414">
        <ele>301.6</ele>
        <time>2021-10-24T12:59:27Z</time>
      </trkpt>
      <trkpt lat="43.9837" lon="1.75421">
        <ele>301.8</ele>
        <time>2021-10-24T12:59:30Z</time>
      </trkpt>
      <trkpt lat="43.98377" lon="1.75432">
        <ele>302</ele>
        <time>2021-10-24T12:59:34Z</time>
      </trkpt>
      <trkpt lat="43.98379" lon="1.75434">
        <ele>302</ele>
        <time>2021-10-24T12:59:35Z</time>
      </trkpt>
      <trkpt lat="43.98381" lon="1.75437">
        <ele>302.2</ele>
        <time>2021-10-24T12:59:36Z</time>
      </trkpt>
      <trkpt lat="43.98383" lon="1.75439">
        <ele>302.2</ele>
        <time>2021-10-24T12:59:37Z</time>
      </trkpt>
      <trkpt lat="43.98388" lon="1.75446">
        <ele>302.2</ele>
        <time>2021-10-24T12:59:40Z</time>
      </trkpt>
      <trkpt lat="43.9839" lon="1.75448">
        <ele>302.4</ele>
        <time>2021-10-24T12:59:41Z</time>
      </trkpt>
      <trkpt lat="43.98401" lon="1.75457">
        <ele>302.6</ele>
        <time>2021-10-24T12:59:46Z</time>
      </trkpt>
      <trkpt lat="43.98405" lon="1.75461">
        <ele>302.6</ele>
        <time>2021-10-24T12:59:48Z</time>
      </trkpt>
      <trkpt lat="43.98408" lon="1.75463">
        <ele>302.6</ele>
        <time>2021-10-24T12:59:49Z</time>
      </trkpt>
      <trkpt lat="43.98414" lon="1.75469">
        <ele>302.8</ele>
        <time>2021-10-24T12:59:52Z</time>
      </trkpt>
      <trkpt lat="43.98416" lon="1.75471">
        <ele>302.8</ele>
        <time>2021-10-24T12:59:53Z</time>
      </trkpt>
      <trkpt lat="43.98418" lon="1.75472">
        <ele>302.8</ele>
        <time>2021-10-24T12:59:54Z</time>
      </trkpt>
      <trkpt lat="43.9842" lon="1.75474">
        <ele>302.8</ele>
        <time>2021-10-24T12:59:55Z</time>
      </trkpt>
      <trkpt lat="43.98426" lon="1.75479">
        <ele>303</ele>
        <time>2021-10-24T12:59:58Z</time>
      </trkpt>
      <trkpt lat="43.98427" lon="1.7548">
        <ele>303.2</ele>
        <time>2021-10-24T12:59:59Z</time>
      </trkpt>
      <trkpt lat="43.98429" lon="1.75482">
        <ele>303.4</ele>
        <time>2021-10-24T13:00:00Z</time>
      </trkpt>
      <trkpt lat="43.98431" lon="1.75483">
        <ele>303.6</ele>
        <time>2021-10-24T13:00:01Z</time>
      </trkpt>
      <trkpt lat="43.98433" lon="1.75484">
        <ele>303.8</ele>
        <time>2021-10-24T13:00:02Z</time>
      </trkpt>
      <trkpt lat="43.98434" lon="1.75485">
        <ele>304</ele>
        <time>2021-10-24T13:00:03Z</time>
      </trkpt>
      <trkpt lat="43.98436" lon="1.75487">
        <ele>304</ele>
        <time>2021-10-24T13:00:04Z</time>
      </trkpt>
      <trkpt lat="43.98437" lon="1.75488">
        <ele>304.4</ele>
        <time>2021-10-24T13:00:05Z</time>
      </trkpt>
      <trkpt lat="43.98439" lon="1.75489">
        <ele>304.6</ele>
        <time>2021-10-24T13:00:06Z</time>
      </trkpt>
      <trkpt lat="43.9844" lon="1.75491">
        <ele>304.8</ele>
        <time>2021-10-24T13:00:07Z</time>
      </trkpt>
      <trkpt lat="43.98455" lon="1.75507">
        <ele>305</ele>
        <time>2021-10-24T13:00:15Z</time>
      </trkpt>
      <trkpt lat="43.98468" lon="1.75532">
        <ele>304.6</ele>
        <time>2021-10-24T13:00:21Z</time>
      </trkpt>
      <trkpt lat="43.98474" lon="1.75549">
        <ele>303.6</ele>
        <time>2021-10-24T13:00:24Z</time>
      </trkpt>
      <trkpt lat="43.9848" lon="1.7556">
        <ele>302.6</ele>
        <time>2021-10-24T13:00:26Z</time>
      </trkpt>
      <trkpt lat="43.98486" lon="1.75571">
        <ele>301.6</ele>
        <time>2021-10-24T13:00:28Z</time>
      </trkpt>
      <trkpt lat="43.98489" lon="1.75577">
        <ele>301.4</ele>
        <time>2021-10-24T13:00:29Z</time>
      </trkpt>
      <trkpt lat="43.98492" lon="1.75582">
        <ele>301</ele>
        <time>2021-10-24T13:00:30Z</time>
      </trkpt>
      <trkpt lat="43.98497" lon="1.75587">
        <ele>300.4</ele>
        <time>2021-10-24T13:00:31Z</time>
      </trkpt>
      <trkpt lat="43.98501" lon="1.75592">
        <ele>300.2</ele>
        <time>2021-10-24T13:00:32Z</time>
      </trkpt>
      <trkpt lat="43.98506" lon="1.75597">
        <ele>299.6</ele>
        <time>2021-10-24T13:00:33Z</time>
      </trkpt>
      <trkpt lat="43.9851" lon="1.75602">
        <ele>299.4</ele>
        <time>2021-10-24T13:00:34Z</time>
      </trkpt>
      <trkpt lat="43.98514" lon="1.75606">
        <ele>299.2</ele>
        <time>2021-10-24T13:00:35Z</time>
      </trkpt>
      <trkpt lat="43.98518" lon="1.7561">
        <ele>299</ele>
        <time>2021-10-24T13:00:36Z</time>
      </trkpt>
      <trkpt lat="43.98523" lon="1.75612">
        <ele>298.8</ele>
        <time>2021-10-24T13:00:37Z</time>
      </trkpt>
      <trkpt lat="43.98527" lon="1.75613">
        <ele>298.6</ele>
        <time>2021-10-24T13:00:38Z</time>
      </trkpt>
      <trkpt lat="43.98531" lon="1.75613">
        <ele>298.6</ele>
        <time>2021-10-24T13:00:39Z</time>
      </trkpt>
      <trkpt lat="43.98536" lon="1.75612">
        <ele>298.2</ele>
        <time>2021-10-24T13:00:40Z</time>
      </trkpt>
      <trkpt lat="43.9854" lon="1.75612">
        <ele>298.2</ele>
        <time>2021-10-24T13:00:41Z</time>
      </trkpt>
      <trkpt lat="43.98545" lon="1.75612">
        <ele>298</ele>
        <time>2021-10-24T13:00:42Z</time>
      </trkpt>
      <trkpt lat="43.98568" lon="1.75608">
        <ele>297.6</ele>
        <time>2021-10-24T13:00:47Z</time>
      </trkpt>
      <trkpt lat="43.98572" lon="1.75608">
        <ele>297.6</ele>
        <time>2021-10-24T13:00:48Z</time>
      </trkpt>
      <trkpt lat="43.98578" lon="1.75607">
        <ele>297.6</ele>
        <time>2021-10-24T13:00:49Z</time>
      </trkpt>
      <trkpt lat="43.98581" lon="1.75606">
        <ele>297.6</ele>
        <time>2021-10-24T13:00:50Z</time>
      </trkpt>
      <trkpt lat="43.98585" lon="1.75605">
        <ele>297.6</ele>
        <time>2021-10-24T13:00:51Z</time>
      </trkpt>
      <trkpt lat="43.98589" lon="1.75603">
        <ele>297.6</ele>
        <time>2021-10-24T13:00:52Z</time>
      </trkpt>
      <trkpt lat="43.98593" lon="1.75602">
        <ele>297.6</ele>
        <time>2021-10-24T13:00:53Z</time>
      </trkpt>
      <trkpt lat="43.98597" lon="1.756">
        <ele>297.6</ele>
        <time>2021-10-24T13:00:54Z</time>
      </trkpt>
      <trkpt lat="43.98601" lon="1.75598">
        <ele>297.8</ele>
        <time>2021-10-24T13:00:55Z</time>
      </trkpt>
      <trkpt lat="43.98608" lon="1.75595">
        <ele>297.8</ele>
        <time>2021-10-24T13:00:57Z</time>
      </trkpt>
      <trkpt lat="43.98613" lon="1.75592">
        <ele>297.8</ele>
        <time>2021-10-24T13:00:58Z</time>
      </trkpt>
      <trkpt lat="43.98616" lon="1.75591">
        <ele>297.8</ele>
        <time>2021-10-24T13:00:59Z</time>
      </trkpt>
      <trkpt lat="43.98619" lon="1.75589">
        <ele>298</ele>
        <time>2021-10-24T13:01:00Z</time>
      </trkpt>
      <trkpt lat="43.98623" lon="1.75587">
        <ele>298</ele>
        <time>2021-10-24T13:01:01Z</time>
      </trkpt>
      <trkpt lat="43.98626" lon="1.75585">
        <ele>298</ele>
        <time>2021-10-24T13:01:02Z</time>
      </trkpt>
      <trkpt lat="43.98629" lon="1.75583">
        <ele>298</ele>
        <time>2021-10-24T13:01:03Z</time>
      </trkpt>
      <trkpt lat="43.98632" lon="1.75582">
        <ele>298</ele>
        <time>2021-10-24T13:01:04Z</time>
      </trkpt>
      <trkpt lat="43.98635" lon="1.75581">
        <ele>298.2</ele>
        <time>2021-10-24T13:01:05Z</time>
      </trkpt>
      <trkpt lat="43.98637" lon="1.75579">
        <ele>298.2</ele>
        <time>2021-10-24T13:01:06Z</time>
      </trkpt>
      <trkpt lat="43.98638" lon="1.75578">
        <ele>298.2</ele>
        <time>2021-10-24T13:01:07Z</time>
      </trkpt>
      <trkpt lat="43.98639" lon="1.75578">
        <ele>298.2</ele>
        <time>2021-10-24T13:01:08Z</time>
      </trkpt>
      <trkpt lat="43.98641" lon="1.75577">
        <ele>297.4</ele>
        <time>2021-10-24T13:01:46Z</time>
      </trkpt>
      <trkpt lat="43.98643" lon="1.75576">
        <ele>297.4</ele>
        <time>2021-10-24T13:01:47Z</time>
      </trkpt>
      <trkpt lat="43.98659" lon="1.75568">
        <ele>297.6</ele>
        <time>2021-10-24T13:01:54Z</time>
      </trkpt>
      <trkpt lat="43.98677" lon="1.75559">
        <ele>297.6</ele>
        <time>2021-10-24T13:02:00Z</time>
      </trkpt>
      <trkpt lat="43.98689" lon="1.75553">
        <ele>297.6</ele>
        <time>2021-10-24T13:02:04Z</time>
      </trkpt>
      <trkpt lat="43.98692" lon="1.75551">
        <ele>297.8</ele>
        <time>2021-10-24T13:02:05Z</time>
      </trkpt>
      <trkpt lat="43.98702" lon="1.75546">
        <ele>298.2</ele>
        <time>2021-10-24T13:02:08Z</time>
      </trkpt>
      <trkpt lat="43.98708" lon="1.75544">
        <ele>298.6</ele>
        <time>2021-10-24T13:02:10Z</time>
      </trkpt>
      <trkpt lat="43.9871" lon="1.75542">
        <ele>298.8</ele>
        <time>2021-10-24T13:02:11Z</time>
      </trkpt>
      <trkpt lat="43.98713" lon="1.75541">
        <ele>298.8</ele>
        <time>2021-10-24T13:02:12Z</time>
      </trkpt>
      <trkpt lat="43.98716" lon="1.7554">
        <ele>299</ele>
        <time>2021-10-24T13:02:13Z</time>
      </trkpt>
      <trkpt lat="43.98719" lon="1.75538">
        <ele>299.2</ele>
        <time>2021-10-24T13:02:14Z</time>
      </trkpt>
      <trkpt lat="43.98721" lon="1.75537">
        <ele>299.4</ele>
        <time>2021-10-24T13:02:15Z</time>
      </trkpt>
      <trkpt lat="43.98724" lon="1.75535">
        <ele>299.8</ele>
        <time>2021-10-24T13:02:16Z</time>
      </trkpt>
      <trkpt lat="43.98727" lon="1.75534">
        <ele>299.8</ele>
        <time>2021-10-24T13:02:17Z</time>
      </trkpt>
      <trkpt lat="43.98729" lon="1.75533">
        <ele>300</ele>
        <time>2021-10-24T13:02:18Z</time>
      </trkpt>
      <trkpt lat="43.98731" lon="1.75532">
        <ele>300.2</ele>
        <time>2021-10-24T13:02:19Z</time>
      </trkpt>
      <trkpt lat="43.98734" lon="1.7553">
        <ele>300.4</ele>
        <time>2021-10-24T13:02:20Z</time>
      </trkpt>
      <trkpt lat="43.98736" lon="1.75529">
        <ele>300.6</ele>
        <time>2021-10-24T13:02:21Z</time>
      </trkpt>
      <trkpt lat="43.98739" lon="1.75528">
        <ele>301</ele>
        <time>2021-10-24T13:02:22Z</time>
      </trkpt>
      <trkpt lat="43.98741" lon="1.75527">
        <ele>301.4</ele>
        <time>2021-10-24T13:02:23Z</time>
      </trkpt>
      <trkpt lat="43.98743" lon="1.75526">
        <ele>301.4</ele>
        <time>2021-10-24T13:02:24Z</time>
      </trkpt>
      <trkpt lat="43.98746" lon="1.75524">
        <ele>301.8</ele>
        <time>2021-10-24T13:02:25Z</time>
      </trkpt>
      <trkpt lat="43.98748" lon="1.75523">
        <ele>301.8</ele>
        <time>2021-10-24T13:02:26Z</time>
      </trkpt>
      <trkpt lat="43.9875" lon="1.75522">
        <ele>302</ele>
        <time>2021-10-24T13:02:27Z</time>
      </trkpt>
      <trkpt lat="43.98753" lon="1.75521">
        <ele>302.2</ele>
        <time>2021-10-24T13:02:28Z</time>
      </trkpt>
      <trkpt lat="43.98755" lon="1.75519">
        <ele>302.2</ele>
        <time>2021-10-24T13:02:29Z</time>
      </trkpt>
      <trkpt lat="43.98758" lon="1.75518">
        <ele>302.4</ele>
        <time>2021-10-24T13:02:30Z</time>
      </trkpt>
      <trkpt lat="43.9876" lon="1.75517">
        <ele>302.6</ele>
        <time>2021-10-24T13:02:31Z</time>
      </trkpt>
      <trkpt lat="43.98763" lon="1.75515">
        <ele>303</ele>
        <time>2021-10-24T13:02:32Z</time>
      </trkpt>
      <trkpt lat="43.98765" lon="1.75514">
        <ele>303.2</ele>
        <time>2021-10-24T13:02:33Z</time>
      </trkpt>
      <trkpt lat="43.98768" lon="1.75512">
        <ele>303.4</ele>
        <time>2021-10-24T13:02:34Z</time>
      </trkpt>
      <trkpt lat="43.9877" lon="1.75511">
        <ele>303.4</ele>
        <time>2021-10-24T13:02:35Z</time>
      </trkpt>
      <trkpt lat="43.98773" lon="1.7551">
        <ele>303.4</ele>
        <time>2021-10-24T13:02:36Z</time>
      </trkpt>
      <trkpt lat="43.98776" lon="1.75508">
        <ele>303.6</ele>
        <time>2021-10-24T13:02:37Z</time>
      </trkpt>
      <trkpt lat="43.98778" lon="1.75507">
        <ele>303.6</ele>
        <time>2021-10-24T13:02:38Z</time>
      </trkpt>
      <trkpt lat="43.98781" lon="1.75506">
        <ele>303.8</ele>
        <time>2021-10-24T13:02:39Z</time>
      </trkpt>
      <trkpt lat="43.98784" lon="1.75504">
        <ele>304</ele>
        <time>2021-10-24T13:02:40Z</time>
      </trkpt>
      <trkpt lat="43.98786" lon="1.75503">
        <ele>304.2</ele>
        <time>2021-10-24T13:02:41Z</time>
      </trkpt>
      <trkpt lat="43.98789" lon="1.75501">
        <ele>304.2</ele>
        <time>2021-10-24T13:02:42Z</time>
      </trkpt>
      <trkpt lat="43.98791" lon="1.75499">
        <ele>304.4</ele>
        <time>2021-10-24T13:02:43Z</time>
      </trkpt>
      <trkpt lat="43.98794" lon="1.75498">
        <ele>304.6</ele>
        <time>2021-10-24T13:02:44Z</time>
      </trkpt>
      <trkpt lat="43.98797" lon="1.75497">
        <ele>304.8</ele>
        <time>2021-10-24T13:02:45Z</time>
      </trkpt>
      <trkpt lat="43.98799" lon="1.75496">
        <ele>305</ele>
        <time>2021-10-24T13:02:46Z</time>
      </trkpt>
      <trkpt lat="43.98802" lon="1.75494">
        <ele>305.2</ele>
        <time>2021-10-24T13:02:47Z</time>
      </trkpt>
      <trkpt lat="43.98805" lon="1.75493">
        <ele>305.4</ele>
        <time>2021-10-24T13:02:48Z</time>
      </trkpt>
      <trkpt lat="43.98807" lon="1.75493">
        <ele>305.6</ele>
        <time>2021-10-24T13:02:49Z</time>
      </trkpt>
      <trkpt lat="43.9881" lon="1.75491">
        <ele>306</ele>
        <time>2021-10-24T13:02:50Z</time>
      </trkpt>
      <trkpt lat="43.98812" lon="1.7549">
        <ele>306</ele>
        <time>2021-10-24T13:02:51Z</time>
      </trkpt>
      <trkpt lat="43.98815" lon="1.75489">
        <ele>306.2</ele>
        <time>2021-10-24T13:02:52Z</time>
      </trkpt>
      <trkpt lat="43.98817" lon="1.75488">
        <ele>306.2</ele>
        <time>2021-10-24T13:02:53Z</time>
      </trkpt>
      <trkpt lat="43.9882" lon="1.75487">
        <ele>306.4</ele>
        <time>2021-10-24T13:02:54Z</time>
      </trkpt>
      <trkpt lat="43.98823" lon="1.75486">
        <ele>306.6</ele>
        <time>2021-10-24T13:02:55Z</time>
      </trkpt>
      <trkpt lat="43.98825" lon="1.75486">
        <ele>306.8</ele>
        <time>2021-10-24T13:02:56Z</time>
      </trkpt>
      <trkpt lat="43.98828" lon="1.75485">
        <ele>306.8</ele>
        <time>2021-10-24T13:02:57Z</time>
      </trkpt>
      <trkpt lat="43.98831" lon="1.75484">
        <ele>307</ele>
        <time>2021-10-24T13:02:58Z</time>
      </trkpt>
      <trkpt lat="43.98834" lon="1.75484">
        <ele>307.2</ele>
        <time>2021-10-24T13:02:59Z</time>
      </trkpt>
      <trkpt lat="43.98837" lon="1.75483">
        <ele>307.2</ele>
        <time>2021-10-24T13:03:00Z</time>
      </trkpt>
      <trkpt lat="43.9884" lon="1.75482">
        <ele>307.4</ele>
        <time>2021-10-24T13:03:01Z</time>
      </trkpt>
      <trkpt lat="43.98843" lon="1.75482">
        <ele>307.6</ele>
        <time>2021-10-24T13:03:02Z</time>
      </trkpt>
      <trkpt lat="43.98846" lon="1.75481">
        <ele>307.8</ele>
        <time>2021-10-24T13:03:03Z</time>
      </trkpt>
      <trkpt lat="43.98849" lon="1.75481">
        <ele>308</ele>
        <time>2021-10-24T13:03:04Z</time>
      </trkpt>
      <trkpt lat="43.98852" lon="1.7548">
        <ele>308.2</ele>
        <time>2021-10-24T13:03:05Z</time>
      </trkpt>
      <trkpt lat="43.98854" lon="1.7548">
        <ele>308.2</ele>
        <time>2021-10-24T13:03:06Z</time>
      </trkpt>
      <trkpt lat="43.98857" lon="1.7548">
        <ele>308.4</ele>
        <time>2021-10-24T13:03:07Z</time>
      </trkpt>
      <trkpt lat="43.98859" lon="1.7548">
        <ele>308.6</ele>
        <time>2021-10-24T13:03:08Z</time>
      </trkpt>
      <trkpt lat="43.98862" lon="1.7548">
        <ele>308.8</ele>
        <time>2021-10-24T13:03:09Z</time>
      </trkpt>
      <trkpt lat="43.98865" lon="1.75479">
        <ele>309</ele>
        <time>2021-10-24T13:03:10Z</time>
      </trkpt>
      <trkpt lat="43.98868" lon="1.7548">
        <ele>309.2</ele>
        <time>2021-10-24T13:03:11Z</time>
      </trkpt>
      <trkpt lat="43.98871" lon="1.7548">
        <ele>309.4</ele>
        <time>2021-10-24T13:03:12Z</time>
      </trkpt>
      <trkpt lat="43.98873" lon="1.7548">
        <ele>310</ele>
        <time>2021-10-24T13:03:13Z</time>
      </trkpt>
      <trkpt lat="43.98876" lon="1.7548">
        <ele>310</ele>
        <time>2021-10-24T13:03:14Z</time>
      </trkpt>
      <trkpt lat="43.98879" lon="1.75481">
        <ele>310.2</ele>
        <time>2021-10-24T13:03:15Z</time>
      </trkpt>
      <trkpt lat="43.98882" lon="1.75481">
        <ele>310.2</ele>
        <time>2021-10-24T13:03:16Z</time>
      </trkpt>
      <trkpt lat="43.98885" lon="1.75481">
        <ele>310.6</ele>
        <time>2021-10-24T13:03:17Z</time>
      </trkpt>
      <trkpt lat="43.98888" lon="1.7548">
        <ele>310.6</ele>
        <time>2021-10-24T13:03:18Z</time>
      </trkpt>
      <trkpt lat="43.9889" lon="1.7548">
        <ele>310.6</ele>
        <time>2021-10-24T13:03:19Z</time>
      </trkpt>
      <trkpt lat="43.98893" lon="1.7548">
        <ele>310.8</ele>
        <time>2021-10-24T13:03:20Z</time>
      </trkpt>
      <trkpt lat="43.98895" lon="1.7548">
        <ele>310.8</ele>
        <time>2021-10-24T13:03:21Z</time>
      </trkpt>
      <trkpt lat="43.98898" lon="1.7548">
        <ele>311</ele>
        <time>2021-10-24T13:03:22Z</time>
      </trkpt>
      <trkpt lat="43.98902" lon="1.75479">
        <ele>311</ele>
        <time>2021-10-24T13:03:23Z</time>
      </trkpt>
      <trkpt lat="43.98904" lon="1.75478">
        <ele>311.2</ele>
        <time>2021-10-24T13:03:24Z</time>
      </trkpt>
      <trkpt lat="43.98908" lon="1.75477">
        <ele>311.4</ele>
        <time>2021-10-24T13:03:25Z</time>
      </trkpt>
      <trkpt lat="43.98911" lon="1.75476">
        <ele>311.4</ele>
        <time>2021-10-24T13:03:26Z</time>
      </trkpt>
      <trkpt lat="43.98914" lon="1.75475">
        <ele>311.4</ele>
        <time>2021-10-24T13:03:27Z</time>
      </trkpt>
      <trkpt lat="43.98918" lon="1.75474">
        <ele>311.6</ele>
        <time>2021-10-24T13:03:28Z</time>
      </trkpt>
      <trkpt lat="43.98921" lon="1.75473">
        <ele>311.6</ele>
        <time>2021-10-24T13:03:29Z</time>
      </trkpt>
      <trkpt lat="43.98924" lon="1.75472">
        <ele>311.6</ele>
        <time>2021-10-24T13:03:30Z</time>
      </trkpt>
      <trkpt lat="43.98927" lon="1.7547">
        <ele>311.6</ele>
        <time>2021-10-24T13:03:31Z</time>
      </trkpt>
      <trkpt lat="43.98931" lon="1.75469">
        <ele>311.6</ele>
        <time>2021-10-24T13:03:32Z</time>
      </trkpt>
      <trkpt lat="43.98934" lon="1.75468">
        <ele>311.6</ele>
        <time>2021-10-24T13:03:33Z</time>
      </trkpt>
      <trkpt lat="43.98938" lon="1.75466">
        <ele>311.8</ele>
        <time>2021-10-24T13:03:34Z</time>
      </trkpt>
      <trkpt lat="43.98942" lon="1.75465">
        <ele>311.8</ele>
        <time>2021-10-24T13:03:35Z</time>
      </trkpt>
      <trkpt lat="43.98945" lon="1.75464">
        <ele>311.8</ele>
        <time>2021-10-24T13:03:36Z</time>
      </trkpt>
      <trkpt lat="43.98949" lon="1.75463">
        <ele>311.8</ele>
        <time>2021-10-24T13:03:37Z</time>
      </trkpt>
      <trkpt lat="43.98953" lon="1.75462">
        <ele>311.6</ele>
        <time>2021-10-24T13:03:38Z</time>
      </trkpt>
      <trkpt lat="43.98956" lon="1.75461">
        <ele>311.6</ele>
        <time>2021-10-24T13:03:39Z</time>
      </trkpt>
      <trkpt lat="43.9896" lon="1.75461">
        <ele>311.6</ele>
        <time>2021-10-24T13:03:40Z</time>
      </trkpt>
      <trkpt lat="43.98987" lon="1.75457">
        <ele>311.4</ele>
        <time>2021-10-24T13:03:46Z</time>
      </trkpt>
      <trkpt lat="43.99001" lon="1.75455">
        <ele>311.4</ele>
        <time>2021-10-24T13:03:49Z</time>
      </trkpt>
      <trkpt lat="43.99005" lon="1.75454">
        <ele>311.2</ele>
        <time>2021-10-24T13:03:50Z</time>
      </trkpt>
      <trkpt lat="43.9901" lon="1.75453">
        <ele>311.2</ele>
        <time>2021-10-24T13:03:51Z</time>
      </trkpt>
      <trkpt lat="43.99014" lon="1.75453">
        <ele>311</ele>
        <time>2021-10-24T13:03:52Z</time>
      </trkpt>
      <trkpt lat="43.99018" lon="1.75452">
        <ele>311</ele>
        <time>2021-10-24T13:03:53Z</time>
      </trkpt>
      <trkpt lat="43.99022" lon="1.75451">
        <ele>311</ele>
        <time>2021-10-24T13:03:54Z</time>
      </trkpt>
      <trkpt lat="43.99026" lon="1.75451">
        <ele>311</ele>
        <time>2021-10-24T13:03:55Z</time>
      </trkpt>
      <trkpt lat="43.99042" lon="1.75449">
        <ele>310.8</ele>
        <time>2021-10-24T13:03:59Z</time>
      </trkpt>
      <trkpt lat="43.99047" lon="1.75449">
        <ele>310.8</ele>
        <time>2021-10-24T13:04:00Z</time>
      </trkpt>
      <trkpt lat="43.99055" lon="1.75448">
        <ele>310.8</ele>
        <time>2021-10-24T13:04:02Z</time>
      </trkpt>
      <trkpt lat="43.99064" lon="1.75447">
        <ele>310.8</ele>
        <time>2021-10-24T13:04:04Z</time>
      </trkpt>
      <trkpt lat="43.99067" lon="1.75447">
        <ele>310.8</ele>
        <time>2021-10-24T13:04:05Z</time>
      </trkpt>
      <trkpt lat="43.99071" lon="1.75446">
        <ele>310.8</ele>
        <time>2021-10-24T13:04:06Z</time>
      </trkpt>
      <trkpt lat="43.99074" lon="1.75445">
        <ele>310.8</ele>
        <time>2021-10-24T13:04:07Z</time>
      </trkpt>
      <trkpt lat="43.99078" lon="1.75444">
        <ele>310.8</ele>
        <time>2021-10-24T13:04:08Z</time>
      </trkpt>
      <trkpt lat="43.99082" lon="1.75444">
        <ele>310.8</ele>
        <time>2021-10-24T13:04:09Z</time>
      </trkpt>
      <trkpt lat="43.99086" lon="1.75443">
        <ele>310.8</ele>
        <time>2021-10-24T13:04:10Z</time>
      </trkpt>
      <trkpt lat="43.9909" lon="1.75443">
        <ele>310.8</ele>
        <time>2021-10-24T13:04:11Z</time>
      </trkpt>
      <trkpt lat="43.99098" lon="1.75442">
        <ele>310.8</ele>
        <time>2021-10-24T13:04:13Z</time>
      </trkpt>
      <trkpt lat="43.99102" lon="1.75441">
        <ele>311</ele>
        <time>2021-10-24T13:04:14Z</time>
      </trkpt>
      <trkpt lat="43.99114" lon="1.7544">
        <ele>311.2</ele>
        <time>2021-10-24T13:04:17Z</time>
      </trkpt>
      <trkpt lat="43.99118" lon="1.75439">
        <ele>311.2</ele>
        <time>2021-10-24T13:04:18Z</time>
      </trkpt>
      <trkpt lat="43.99125" lon="1.75437">
        <ele>311.4</ele>
        <time>2021-10-24T13:04:20Z</time>
      </trkpt>
      <trkpt lat="43.99138" lon="1.75436">
        <ele>311.6</ele>
        <time>2021-10-24T13:04:23Z</time>
      </trkpt>
      <trkpt lat="43.99141" lon="1.75435">
        <ele>312</ele>
        <time>2021-10-24T13:04:24Z</time>
      </trkpt>
      <trkpt lat="43.99148" lon="1.75435">
        <ele>312.2</ele>
        <time>2021-10-24T13:04:26Z</time>
      </trkpt>
      <trkpt lat="43.99152" lon="1.75434">
        <ele>312.4</ele>
        <time>2021-10-24T13:04:27Z</time>
      </trkpt>
      <trkpt lat="43.99155" lon="1.75433">
        <ele>312.4</ele>
        <time>2021-10-24T13:04:28Z</time>
      </trkpt>
      <trkpt lat="43.99158" lon="1.75433">
        <ele>312.6</ele>
        <time>2021-10-24T13:04:29Z</time>
      </trkpt>
      <trkpt lat="43.99162" lon="1.75432">
        <ele>312.6</ele>
        <time>2021-10-24T13:04:30Z</time>
      </trkpt>
      <trkpt lat="43.99165" lon="1.75432">
        <ele>312.6</ele>
        <time>2021-10-24T13:04:31Z</time>
      </trkpt>
      <trkpt lat="43.99168" lon="1.75432">
        <ele>312.8</ele>
        <time>2021-10-24T13:04:32Z</time>
      </trkpt>
      <trkpt lat="43.99172" lon="1.75431">
        <ele>313</ele>
        <time>2021-10-24T13:04:33Z</time>
      </trkpt>
      <trkpt lat="43.99175" lon="1.75431">
        <ele>313</ele>
        <time>2021-10-24T13:04:34Z</time>
      </trkpt>
      <trkpt lat="43.99178" lon="1.75431">
        <ele>313.2</ele>
        <time>2021-10-24T13:04:35Z</time>
      </trkpt>
      <trkpt lat="43.99181" lon="1.7543">
        <ele>313.4</ele>
        <time>2021-10-24T13:04:36Z</time>
      </trkpt>
      <trkpt lat="43.99184" lon="1.7543">
        <ele>313.6</ele>
        <time>2021-10-24T13:04:37Z</time>
      </trkpt>
      <trkpt lat="43.99187" lon="1.7543">
        <ele>313.8</ele>
        <time>2021-10-24T13:04:38Z</time>
      </trkpt>
      <trkpt lat="43.9919" lon="1.7543">
        <ele>313.8</ele>
        <time>2021-10-24T13:04:39Z</time>
      </trkpt>
      <trkpt lat="43.99192" lon="1.75429">
        <ele>314.2</ele>
        <time>2021-10-24T13:04:40Z</time>
      </trkpt>
      <trkpt lat="43.99194" lon="1.75429">
        <ele>314.2</ele>
        <time>2021-10-24T13:04:41Z</time>
      </trkpt>
      <trkpt lat="43.99197" lon="1.75429">
        <ele>314.4</ele>
        <time>2021-10-24T13:04:42Z</time>
      </trkpt>
      <trkpt lat="43.99199" lon="1.75428">
        <ele>314.6</ele>
        <time>2021-10-24T13:04:43Z</time>
      </trkpt>
      <trkpt lat="43.99201" lon="1.75428">
        <ele>314.8</ele>
        <time>2021-10-24T13:04:44Z</time>
      </trkpt>
      <trkpt lat="43.99203" lon="1.75428">
        <ele>315</ele>
        <time>2021-10-24T13:04:45Z</time>
      </trkpt>
      <trkpt lat="43.99205" lon="1.75428">
        <ele>315.2</ele>
        <time>2021-10-24T13:04:46Z</time>
      </trkpt>
      <trkpt lat="43.99206" lon="1.75427">
        <ele>315.4</ele>
        <time>2021-10-24T13:04:47Z</time>
      </trkpt>
      <trkpt lat="43.99208" lon="1.75426">
        <ele>315.6</ele>
        <time>2021-10-24T13:04:48Z</time>
      </trkpt>
      <trkpt lat="43.9921" lon="1.75426">
        <ele>315.8</ele>
        <time>2021-10-24T13:04:49Z</time>
      </trkpt>
      <trkpt lat="43.99212" lon="1.75426">
        <ele>316.2</ele>
        <time>2021-10-24T13:04:50Z</time>
      </trkpt>
      <trkpt lat="43.99214" lon="1.75426">
        <ele>316.4</ele>
        <time>2021-10-24T13:04:51Z</time>
      </trkpt>
      <trkpt lat="43.99216" lon="1.75426">
        <ele>316.6</ele>
        <time>2021-10-24T13:04:52Z</time>
      </trkpt>
      <trkpt lat="43.99217" lon="1.75426">
        <ele>316.8</ele>
        <time>2021-10-24T13:04:53Z</time>
      </trkpt>
      <trkpt lat="43.99219" lon="1.75425">
        <ele>317.2</ele>
        <time>2021-10-24T13:04:54Z</time>
      </trkpt>
      <trkpt lat="43.99221" lon="1.75425">
        <ele>317.2</ele>
        <time>2021-10-24T13:04:55Z</time>
      </trkpt>
      <trkpt lat="43.99222" lon="1.75425">
        <ele>317.6</ele>
        <time>2021-10-24T13:04:56Z</time>
      </trkpt>
      <trkpt lat="43.99224" lon="1.75425">
        <ele>317.8</ele>
        <time>2021-10-24T13:04:57Z</time>
      </trkpt>
      <trkpt lat="43.99226" lon="1.75425">
        <ele>318</ele>
        <time>2021-10-24T13:04:58Z</time>
      </trkpt>
      <trkpt lat="43.99227" lon="1.75425">
        <ele>318</ele>
        <time>2021-10-24T13:04:59Z</time>
      </trkpt>
      <trkpt lat="43.99229" lon="1.75425">
        <ele>318</ele>
        <time>2021-10-24T13:05:00Z</time>
      </trkpt>
      <trkpt lat="43.99231" lon="1.75425">
        <ele>318.2</ele>
        <time>2021-10-24T13:05:01Z</time>
      </trkpt>
      <trkpt lat="43.99233" lon="1.75425">
        <ele>318.4</ele>
        <time>2021-10-24T13:05:02Z</time>
      </trkpt>
      <trkpt lat="43.99234" lon="1.75425">
        <ele>318.8</ele>
        <time>2021-10-24T13:05:03Z</time>
      </trkpt>
      <trkpt lat="43.99236" lon="1.75425">
        <ele>318.8</ele>
        <time>2021-10-24T13:05:04Z</time>
      </trkpt>
      <trkpt lat="43.99238" lon="1.75424">
        <ele>319</ele>
        <time>2021-10-24T13:05:05Z</time>
      </trkpt>
      <trkpt lat="43.9924" lon="1.75424">
        <ele>319.2</ele>
        <time>2021-10-24T13:05:06Z</time>
      </trkpt>
      <trkpt lat="43.99242" lon="1.75424">
        <ele>319.4</ele>
        <time>2021-10-24T13:05:07Z</time>
      </trkpt>
      <trkpt lat="43.99244" lon="1.75424">
        <ele>319.6</ele>
        <time>2021-10-24T13:05:08Z</time>
      </trkpt>
      <trkpt lat="43.99246" lon="1.75424">
        <ele>319.6</ele>
        <time>2021-10-24T13:05:09Z</time>
      </trkpt>
      <trkpt lat="43.99248" lon="1.75424">
        <ele>319.8</ele>
        <time>2021-10-24T13:05:10Z</time>
      </trkpt>
      <trkpt lat="43.99249" lon="1.75425">
        <ele>320</ele>
        <time>2021-10-24T13:05:11Z</time>
      </trkpt>
      <trkpt lat="43.99251" lon="1.75425">
        <ele>320.2</ele>
        <time>2021-10-24T13:05:12Z</time>
      </trkpt>
      <trkpt lat="43.99253" lon="1.75425">
        <ele>320.2</ele>
        <time>2021-10-24T13:05:13Z</time>
      </trkpt>
      <trkpt lat="43.99255" lon="1.75425">
        <ele>320.6</ele>
        <time>2021-10-24T13:05:14Z</time>
      </trkpt>
      <trkpt lat="43.99257" lon="1.75425">
        <ele>320.6</ele>
        <time>2021-10-24T13:05:15Z</time>
      </trkpt>
      <trkpt lat="43.99259" lon="1.75424">
        <ele>320.8</ele>
        <time>2021-10-24T13:05:16Z</time>
      </trkpt>
      <trkpt lat="43.99261" lon="1.75424">
        <ele>321</ele>
        <time>2021-10-24T13:05:17Z</time>
      </trkpt>
      <trkpt lat="43.99262" lon="1.75425">
        <ele>321</ele>
        <time>2021-10-24T13:05:18Z</time>
      </trkpt>
      <trkpt lat="43.99264" lon="1.75425">
        <ele>321.4</ele>
        <time>2021-10-24T13:05:19Z</time>
      </trkpt>
      <trkpt lat="43.99266" lon="1.75425">
        <ele>321.6</ele>
        <time>2021-10-24T13:05:20Z</time>
      </trkpt>
      <trkpt lat="43.99267" lon="1.75425">
        <ele>321.8</ele>
        <time>2021-10-24T13:05:21Z</time>
      </trkpt>
      <trkpt lat="43.99269" lon="1.75426">
        <ele>322</ele>
        <time>2021-10-24T13:05:22Z</time>
      </trkpt>
      <trkpt lat="43.99271" lon="1.75426">
        <ele>322.2</ele>
        <time>2021-10-24T13:05:23Z</time>
      </trkpt>
      <trkpt lat="43.99272" lon="1.75426">
        <ele>322.4</ele>
        <time>2021-10-24T13:05:24Z</time>
      </trkpt>
      <trkpt lat="43.99274" lon="1.75427">
        <ele>322.6</ele>
        <time>2021-10-24T13:05:25Z</time>
      </trkpt>
      <trkpt lat="43.99275" lon="1.75428">
        <ele>322.8</ele>
        <time>2021-10-24T13:05:26Z</time>
      </trkpt>
      <trkpt lat="43.99277" lon="1.75428">
        <ele>322.8</ele>
        <time>2021-10-24T13:05:27Z</time>
      </trkpt>
      <trkpt lat="43.99278" lon="1.7543">
        <ele>323.2</ele>
        <time>2021-10-24T13:05:28Z</time>
      </trkpt>
      <trkpt lat="43.9928" lon="1.7543">
        <ele>323.6</ele>
        <time>2021-10-24T13:05:29Z</time>
      </trkpt>
      <trkpt lat="43.99281" lon="1.75431">
        <ele>323.8</ele>
        <time>2021-10-24T13:05:30Z</time>
      </trkpt>
      <trkpt lat="43.99283" lon="1.75432">
        <ele>324</ele>
        <time>2021-10-24T13:05:31Z</time>
      </trkpt>
      <trkpt lat="43.99284" lon="1.75433">
        <ele>324.2</ele>
        <time>2021-10-24T13:05:32Z</time>
      </trkpt>
      <trkpt lat="43.99286" lon="1.75434">
        <ele>324.4</ele>
        <time>2021-10-24T13:05:33Z</time>
      </trkpt>
      <trkpt lat="43.99287" lon="1.75435">
        <ele>324.6</ele>
        <time>2021-10-24T13:05:34Z</time>
      </trkpt>
      <trkpt lat="43.9929" lon="1.75436">
        <ele>324.8</ele>
        <time>2021-10-24T13:05:35Z</time>
      </trkpt>
      <trkpt lat="43.99292" lon="1.75437">
        <ele>325</ele>
        <time>2021-10-24T13:05:36Z</time>
      </trkpt>
      <trkpt lat="43.99293" lon="1.75437">
        <ele>325.4</ele>
        <time>2021-10-24T13:05:37Z</time>
      </trkpt>
      <trkpt lat="43.99295" lon="1.75438">
        <ele>325.6</ele>
        <time>2021-10-24T13:05:38Z</time>
      </trkpt>
      <trkpt lat="43.99297" lon="1.75439">
        <ele>325.8</ele>
        <time>2021-10-24T13:05:39Z</time>
      </trkpt>
      <trkpt lat="43.99299" lon="1.75439">
        <ele>326</ele>
        <time>2021-10-24T13:05:40Z</time>
      </trkpt>
      <trkpt lat="43.99301" lon="1.7544">
        <ele>326.2</ele>
        <time>2021-10-24T13:05:41Z</time>
      </trkpt>
      <trkpt lat="43.99303" lon="1.75441">
        <ele>326.4</ele>
        <time>2021-10-24T13:05:42Z</time>
      </trkpt>
      <trkpt lat="43.99304" lon="1.75442">
        <ele>326.4</ele>
        <time>2021-10-24T13:05:43Z</time>
      </trkpt>
      <trkpt lat="43.99306" lon="1.75443">
        <ele>326.8</ele>
        <time>2021-10-24T13:05:44Z</time>
      </trkpt>
      <trkpt lat="43.99308" lon="1.75444">
        <ele>327</ele>
        <time>2021-10-24T13:05:45Z</time>
      </trkpt>
      <trkpt lat="43.99309" lon="1.75445">
        <ele>327.2</ele>
        <time>2021-10-24T13:05:46Z</time>
      </trkpt>
      <trkpt lat="43.99311" lon="1.75446">
        <ele>327.4</ele>
        <time>2021-10-24T13:05:47Z</time>
      </trkpt>
      <trkpt lat="43.99313" lon="1.75446">
        <ele>327.4</ele>
        <time>2021-10-24T13:05:48Z</time>
      </trkpt>
      <trkpt lat="43.99314" lon="1.75447">
        <ele>327.8</ele>
        <time>2021-10-24T13:05:49Z</time>
      </trkpt>
      <trkpt lat="43.99316" lon="1.75449">
        <ele>327.8</ele>
        <time>2021-10-24T13:05:50Z</time>
      </trkpt>
      <trkpt lat="43.99318" lon="1.7545">
        <ele>328</ele>
        <time>2021-10-24T13:05:51Z</time>
      </trkpt>
      <trkpt lat="43.9932" lon="1.75451">
        <ele>328.2</ele>
        <time>2021-10-24T13:05:52Z</time>
      </trkpt>
      <trkpt lat="43.99322" lon="1.75452">
        <ele>328.4</ele>
        <time>2021-10-24T13:05:53Z</time>
      </trkpt>
      <trkpt lat="43.99324" lon="1.75453">
        <ele>328.6</ele>
        <time>2021-10-24T13:05:54Z</time>
      </trkpt>
      <trkpt lat="43.99325" lon="1.75454">
        <ele>328.8</ele>
        <time>2021-10-24T13:05:55Z</time>
      </trkpt>
      <trkpt lat="43.99327" lon="1.75455">
        <ele>329.2</ele>
        <time>2021-10-24T13:05:56Z</time>
      </trkpt>
      <trkpt lat="43.99329" lon="1.75456">
        <ele>329.2</ele>
        <time>2021-10-24T13:05:57Z</time>
      </trkpt>
      <trkpt lat="43.99331" lon="1.75457">
        <ele>329.4</ele>
        <time>2021-10-24T13:05:58Z</time>
      </trkpt>
      <trkpt lat="43.99333" lon="1.75458">
        <ele>329.6</ele>
        <time>2021-10-24T13:05:59Z</time>
      </trkpt>
      <trkpt lat="43.99334" lon="1.75459">
        <ele>329.8</ele>
        <time>2021-10-24T13:06:00Z</time>
      </trkpt>
      <trkpt lat="43.99336" lon="1.75461">
        <ele>329.8</ele>
        <time>2021-10-24T13:06:01Z</time>
      </trkpt>
      <trkpt lat="43.99338" lon="1.75462">
        <ele>330.2</ele>
        <time>2021-10-24T13:06:02Z</time>
      </trkpt>
      <trkpt lat="43.9934" lon="1.75462">
        <ele>330.4</ele>
        <time>2021-10-24T13:06:03Z</time>
      </trkpt>
      <trkpt lat="43.99342" lon="1.75463">
        <ele>330.6</ele>
        <time>2021-10-24T13:06:04Z</time>
      </trkpt>
      <trkpt lat="43.99343" lon="1.75464">
        <ele>330.8</ele>
        <time>2021-10-24T13:06:05Z</time>
      </trkpt>
      <trkpt lat="43.99345" lon="1.75465">
        <ele>330.8</ele>
        <time>2021-10-24T13:06:06Z</time>
      </trkpt>
      <trkpt lat="43.99347" lon="1.75466">
        <ele>331</ele>
        <time>2021-10-24T13:06:07Z</time>
      </trkpt>
      <trkpt lat="43.99349" lon="1.75466">
        <ele>331.2</ele>
        <time>2021-10-24T13:06:08Z</time>
      </trkpt>
      <trkpt lat="43.9935" lon="1.75467">
        <ele>331.6</ele>
        <time>2021-10-24T13:06:09Z</time>
      </trkpt>
      <trkpt lat="43.99352" lon="1.75468">
        <ele>331.6</ele>
        <time>2021-10-24T13:06:10Z</time>
      </trkpt>
      <trkpt lat="43.99354" lon="1.75469">
        <ele>332</ele>
        <time>2021-10-24T13:06:11Z</time>
      </trkpt>
      <trkpt lat="43.99356" lon="1.75471">
        <ele>332.2</ele>
        <time>2021-10-24T13:06:12Z</time>
      </trkpt>
      <trkpt lat="43.99357" lon="1.75472">
        <ele>332.4</ele>
        <time>2021-10-24T13:06:13Z</time>
      </trkpt>
      <trkpt lat="43.99359" lon="1.75473">
        <ele>332.6</ele>
        <time>2021-10-24T13:06:14Z</time>
      </trkpt>
      <trkpt lat="43.9936" lon="1.75474">
        <ele>332.8</ele>
        <time>2021-10-24T13:06:15Z</time>
      </trkpt>
      <trkpt lat="43.99363" lon="1.75475">
        <ele>333</ele>
        <time>2021-10-24T13:06:16Z</time>
      </trkpt>
      <trkpt lat="43.99363" lon="1.75475">
        <ele>333</ele>
        <time>2021-10-24T13:06:17Z</time>
      </trkpt>
      <trkpt lat="43.99366" lon="1.75477">
        <ele>333.2</ele>
        <time>2021-10-24T13:06:18Z</time>
      </trkpt>
      <trkpt lat="43.99368" lon="1.75478">
        <ele>333.2</ele>
        <time>2021-10-24T13:06:19Z</time>
      </trkpt>
      <trkpt lat="43.99369" lon="1.75478">
        <ele>333.4</ele>
        <time>2021-10-24T13:06:20Z</time>
      </trkpt>
      <trkpt lat="43.99371" lon="1.75478">
        <ele>333.6</ele>
        <time>2021-10-24T13:06:21Z</time>
      </trkpt>
      <trkpt lat="43.99373" lon="1.75479">
        <ele>333.6</ele>
        <time>2021-10-24T13:06:22Z</time>
      </trkpt>
      <trkpt lat="43.99375" lon="1.7548">
        <ele>333.8</ele>
        <time>2021-10-24T13:06:23Z</time>
      </trkpt>
      <trkpt lat="43.99377" lon="1.7548">
        <ele>333.8</ele>
        <time>2021-10-24T13:06:24Z</time>
      </trkpt>
      <trkpt lat="43.99378" lon="1.75481">
        <ele>334</ele>
        <time>2021-10-24T13:06:25Z</time>
      </trkpt>
      <trkpt lat="43.9938" lon="1.75482">
        <ele>334</ele>
        <time>2021-10-24T13:06:26Z</time>
      </trkpt>
      <trkpt lat="43.99381" lon="1.75483">
        <ele>334</ele>
        <time>2021-10-24T13:06:27Z</time>
      </trkpt>
      <trkpt lat="43.99383" lon="1.75484">
        <ele>334</ele>
        <time>2021-10-24T13:06:28Z</time>
      </trkpt>
      <trkpt lat="43.99385" lon="1.75486">
        <ele>334</ele>
        <time>2021-10-24T13:06:29Z</time>
      </trkpt>
      <trkpt lat="43.99386" lon="1.75486">
        <ele>334.2</ele>
        <time>2021-10-24T13:06:30Z</time>
      </trkpt>
      <trkpt lat="43.99389" lon="1.75487">
        <ele>334.2</ele>
        <time>2021-10-24T13:06:31Z</time>
      </trkpt>
      <trkpt lat="43.99391" lon="1.75488">
        <ele>334.4</ele>
        <time>2021-10-24T13:06:32Z</time>
      </trkpt>
      <trkpt lat="43.99393" lon="1.75489">
        <ele>334.4</ele>
        <time>2021-10-24T13:06:33Z</time>
      </trkpt>
      <trkpt lat="43.99395" lon="1.75489">
        <ele>334.4</ele>
        <time>2021-10-24T13:06:34Z</time>
      </trkpt>
      <trkpt lat="43.99397" lon="1.7549">
        <ele>334.4</ele>
        <time>2021-10-24T13:06:35Z</time>
      </trkpt>
      <trkpt lat="43.994" lon="1.75491">
        <ele>334.4</ele>
        <time>2021-10-24T13:06:36Z</time>
      </trkpt>
      <trkpt lat="43.99403" lon="1.75491">
        <ele>334.4</ele>
        <time>2021-10-24T13:06:37Z</time>
      </trkpt>
      <trkpt lat="43.99405" lon="1.75492">
        <ele>334.4</ele>
        <time>2021-10-24T13:06:38Z</time>
      </trkpt>
      <trkpt lat="43.99409" lon="1.75492">
        <ele>334.4</ele>
        <time>2021-10-24T13:06:39Z</time>
      </trkpt>
      <trkpt lat="43.99412" lon="1.75492">
        <ele>334.4</ele>
        <time>2021-10-24T13:06:40Z</time>
      </trkpt>
      <trkpt lat="43.99415" lon="1.75493">
        <ele>334.4</ele>
        <time>2021-10-24T13:06:41Z</time>
      </trkpt>
      <trkpt lat="43.99443" lon="1.75498">
        <ele>333.4</ele>
        <time>2021-10-24T13:06:48Z</time>
      </trkpt>
      <trkpt lat="43.99453" lon="1.75498">
        <ele>332.8</ele>
        <time>2021-10-24T13:06:50Z</time>
      </trkpt>
      <trkpt lat="43.99465" lon="1.755">
        <ele>332</ele>
        <time>2021-10-24T13:06:52Z</time>
      </trkpt>
      <trkpt lat="43.99477" lon="1.75503">
        <ele>331.6</ele>
        <time>2021-10-24T13:06:54Z</time>
      </trkpt>
      <trkpt lat="43.99483" lon="1.75505">
        <ele>331.2</ele>
        <time>2021-10-24T13:06:55Z</time>
      </trkpt>
      <trkpt lat="43.99489" lon="1.75507">
        <ele>331.2</ele>
        <time>2021-10-24T13:06:56Z</time>
      </trkpt>
      <trkpt lat="43.99494" lon="1.75509">
        <ele>330.8</ele>
        <time>2021-10-24T13:06:57Z</time>
      </trkpt>
      <trkpt lat="43.995" lon="1.7551">
        <ele>330.6</ele>
        <time>2021-10-24T13:06:58Z</time>
      </trkpt>
      <trkpt lat="43.99505" lon="1.75511">
        <ele>330</ele>
        <time>2021-10-24T13:06:59Z</time>
      </trkpt>
      <trkpt lat="43.99509" lon="1.75512">
        <ele>329.6</ele>
        <time>2021-10-24T13:07:00Z</time>
      </trkpt>
      <trkpt lat="43.99514" lon="1.75513">
        <ele>329.6</ele>
        <time>2021-10-24T13:07:01Z</time>
      </trkpt>
      <trkpt lat="43.99518" lon="1.75514">
        <ele>329.6</ele>
        <time>2021-10-24T13:07:02Z</time>
      </trkpt>
      <trkpt lat="43.99522" lon="1.75515">
        <ele>329.4</ele>
        <time>2021-10-24T13:07:03Z</time>
      </trkpt>
      <trkpt lat="43.99525" lon="1.75516">
        <ele>329.4</ele>
        <time>2021-10-24T13:07:04Z</time>
      </trkpt>
      <trkpt lat="43.99528" lon="1.75518">
        <ele>329.4</ele>
        <time>2021-10-24T13:07:05Z</time>
      </trkpt>
      <trkpt lat="43.99531" lon="1.75519">
        <ele>329.4</ele>
        <time>2021-10-24T13:07:06Z</time>
      </trkpt>
      <trkpt lat="43.99533" lon="1.75521">
        <ele>329.4</ele>
        <time>2021-10-24T13:07:07Z</time>
      </trkpt>
      <trkpt lat="43.99536" lon="1.75522">
        <ele>329.4</ele>
        <time>2021-10-24T13:07:08Z</time>
      </trkpt>
      <trkpt lat="43.99538" lon="1.75523">
        <ele>329.4</ele>
        <time>2021-10-24T13:07:09Z</time>
      </trkpt>
      <trkpt lat="43.9954" lon="1.75524">
        <ele>329.4</ele>
        <time>2021-10-24T13:07:10Z</time>
      </trkpt>
      <trkpt lat="43.99542" lon="1.75525">
        <ele>329.4</ele>
        <time>2021-10-24T13:07:11Z</time>
      </trkpt>
      <trkpt lat="43.99545" lon="1.75526">
        <ele>329.4</ele>
        <time>2021-10-24T13:07:12Z</time>
      </trkpt>
      <trkpt lat="43.99547" lon="1.75526">
        <ele>329.4</ele>
        <time>2021-10-24T13:07:13Z</time>
      </trkpt>
      <trkpt lat="43.99548" lon="1.75526">
        <ele>329.4</ele>
        <time>2021-10-24T13:07:14Z</time>
      </trkpt>
      <trkpt lat="43.9955" lon="1.75527">
        <ele>329.4</ele>
        <time>2021-10-24T13:07:15Z</time>
      </trkpt>
      <trkpt lat="43.99551" lon="1.75528">
        <ele>329.4</ele>
        <time>2021-10-24T13:07:16Z</time>
      </trkpt>
      <trkpt lat="43.99553" lon="1.75528">
        <ele>329.4</ele>
        <time>2021-10-24T13:07:17Z</time>
      </trkpt>
      <trkpt lat="43.99553" lon="1.75528">
        <ele>329.4</ele>
        <time>2021-10-24T13:07:18Z</time>
      </trkpt>
      <trkpt lat="43.99555" lon="1.75528">
        <ele>329.4</ele>
        <time>2021-10-24T13:07:19Z</time>
      </trkpt>
      <trkpt lat="43.99556" lon="1.75529">
        <ele>329.4</ele>
        <time>2021-10-24T13:07:20Z</time>
      </trkpt>
      <trkpt lat="43.99556" lon="1.75529">
        <ele>329.6</ele>
        <time>2021-10-24T13:07:21Z</time>
      </trkpt>
      <trkpt lat="43.99556" lon="1.75529">
        <ele>329.4</ele>
        <time>2021-10-24T13:07:48Z</time>
      </trkpt>
      <trkpt lat="43.99556" lon="1.75529">
        <ele>329.4</ele>
        <time>2021-10-24T13:07:50Z</time>
      </trkpt>
      <trkpt lat="43.99555" lon="1.75528">
        <ele>329</ele>
        <time>2021-10-24T13:08:08Z</time>
      </trkpt>
      <trkpt lat="43.99543" lon="1.75526">
        <ele>328.8</ele>
        <time>2021-10-24T13:08:14Z</time>
      </trkpt>
      <trkpt lat="43.99541" lon="1.75525">
        <ele>328.8</ele>
        <time>2021-10-24T13:08:15Z</time>
      </trkpt>
      <trkpt lat="43.9954" lon="1.75524">
        <ele>328.8</ele>
        <time>2021-10-24T13:08:16Z</time>
      </trkpt>
      <trkpt lat="43.99538" lon="1.75523">
        <ele>328.8</ele>
        <time>2021-10-24T13:08:17Z</time>
      </trkpt>
      <trkpt lat="43.99537" lon="1.75523">
        <ele>328.8</ele>
        <time>2021-10-24T13:08:18Z</time>
      </trkpt>
      <trkpt lat="43.99536" lon="1.75522">
        <ele>328.8</ele>
        <time>2021-10-24T13:08:19Z</time>
      </trkpt>
      <trkpt lat="43.99535" lon="1.75521">
        <ele>328.8</ele>
        <time>2021-10-24T13:08:20Z</time>
      </trkpt>
      <trkpt lat="43.99534" lon="1.7552">
        <ele>328.8</ele>
        <time>2021-10-24T13:08:21Z</time>
      </trkpt>
      <trkpt lat="43.99536" lon="1.75517">
        <ele>328.6</ele>
        <time>2021-10-24T13:08:23Z</time>
      </trkpt>
      <trkpt lat="43.9954" lon="1.75518">
        <ele>328.6</ele>
        <time>2021-10-24T13:08:26Z</time>
      </trkpt>
      <trkpt lat="43.99541" lon="1.75518">
        <ele>328.6</ele>
        <time>2021-10-24T13:08:27Z</time>
      </trkpt>
      <trkpt lat="43.99542" lon="1.75518">
        <ele>328.6</ele>
        <time>2021-10-24T13:08:28Z</time>
      </trkpt>
      <trkpt lat="43.99542" lon="1.75519">
        <ele>328.6</ele>
        <time>2021-10-24T13:08:29Z</time>
      </trkpt>
      <trkpt lat="43.99543" lon="1.75519">
        <ele>328.6</ele>
        <time>2021-10-24T13:08:30Z</time>
      </trkpt>
      <trkpt lat="43.99544" lon="1.75519">
        <ele>328.6</ele>
        <time>2021-10-24T13:08:31Z</time>
      </trkpt>
      <trkpt lat="43.99547" lon="1.75521">
        <ele>328.6</ele>
        <time>2021-10-24T13:08:34Z</time>
      </trkpt>
      <trkpt lat="43.99554" lon="1.75522">
        <ele>328.6</ele>
        <time>2021-10-24T13:08:39Z</time>
      </trkpt>
      <trkpt lat="43.99557" lon="1.75523">
        <ele>328.6</ele>
        <time>2021-10-24T13:08:41Z</time>
      </trkpt>
      <trkpt lat="43.9956" lon="1.75524">
        <ele>328.8</ele>
        <time>2021-10-24T13:08:43Z</time>
      </trkpt>
      <trkpt lat="43.99561" lon="1.75524">
        <ele>328.8</ele>
        <time>2021-10-24T13:08:44Z</time>
      </trkpt>
      <trkpt lat="43.99563" lon="1.75525">
        <ele>328.8</ele>
        <time>2021-10-24T13:08:45Z</time>
      </trkpt>
      <trkpt lat="43.99566" lon="1.75526">
        <ele>329</ele>
        <time>2021-10-24T13:08:47Z</time>
      </trkpt>
      <trkpt lat="43.99569" lon="1.75527">
        <ele>329</ele>
        <time>2021-10-24T13:08:49Z</time>
      </trkpt>
      <trkpt lat="43.99575" lon="1.75528">
        <ele>329.4</ele>
        <time>2021-10-24T13:08:53Z</time>
      </trkpt>
      <trkpt lat="43.99576" lon="1.75528">
        <ele>329.4</ele>
        <time>2021-10-24T13:08:54Z</time>
      </trkpt>
      <trkpt lat="43.99577" lon="1.75527">
        <ele>329.4</ele>
        <time>2021-10-24T13:08:55Z</time>
      </trkpt>
      <trkpt lat="43.99578" lon="1.75527">
        <ele>329.6</ele>
        <time>2021-10-24T13:08:56Z</time>
      </trkpt>
      <trkpt lat="43.99579" lon="1.75527">
        <ele>329.6</ele>
        <time>2021-10-24T13:08:57Z</time>
      </trkpt>
      <trkpt lat="43.99585" lon="1.75528">
        <ele>329.8</ele>
        <time>2021-10-24T13:09:00Z</time>
      </trkpt>
      <trkpt lat="43.99587" lon="1.75528">
        <ele>330</ele>
        <time>2021-10-24T13:09:01Z</time>
      </trkpt>
      <trkpt lat="43.99594" lon="1.75528">
        <ele>330</ele>
        <time>2021-10-24T13:09:04Z</time>
      </trkpt>
      <trkpt lat="43.99595" lon="1.75529">
        <ele>330.2</ele>
        <time>2021-10-24T13:09:05Z</time>
      </trkpt>
      <trkpt lat="43.99598" lon="1.75529">
        <ele>330.2</ele>
        <time>2021-10-24T13:09:06Z</time>
      </trkpt>
      <trkpt lat="43.99602" lon="1.75529">
        <ele>330.6</ele>
        <time>2021-10-24T13:09:08Z</time>
      </trkpt>
      <trkpt lat="43.99603" lon="1.75528">
        <ele>330.6</ele>
        <time>2021-10-24T13:09:09Z</time>
      </trkpt>
      <trkpt lat="43.99616" lon="1.75527">
        <ele>331</ele>
        <time>2021-10-24T13:09:14Z</time>
      </trkpt>
      <trkpt lat="43.99621" lon="1.75527">
        <ele>331.4</ele>
        <time>2021-10-24T13:09:16Z</time>
      </trkpt>
      <trkpt lat="43.99626" lon="1.75528">
        <ele>331.6</ele>
        <time>2021-10-24T13:09:18Z</time>
      </trkpt>
      <trkpt lat="43.99628" lon="1.75529">
        <ele>331.8</ele>
        <time>2021-10-24T13:09:19Z</time>
      </trkpt>
      <trkpt lat="43.99629" lon="1.75529">
        <ele>331.8</ele>
        <time>2021-10-24T13:09:20Z</time>
      </trkpt>
      <trkpt lat="43.99632" lon="1.75531">
        <ele>332</ele>
        <time>2021-10-24T13:09:21Z</time>
      </trkpt>
      <trkpt lat="43.99633" lon="1.75532">
        <ele>332.2</ele>
        <time>2021-10-24T13:09:22Z</time>
      </trkpt>
      <trkpt lat="43.99635" lon="1.75533">
        <ele>332.2</ele>
        <time>2021-10-24T13:09:23Z</time>
      </trkpt>
      <trkpt lat="43.99645" lon="1.75535">
        <ele>332.8</ele>
        <time>2021-10-24T13:09:28Z</time>
      </trkpt>
      <trkpt lat="43.99647" lon="1.75536">
        <ele>333</ele>
        <time>2021-10-24T13:09:29Z</time>
      </trkpt>
      <trkpt lat="43.99649" lon="1.75536">
        <ele>333.2</ele>
        <time>2021-10-24T13:09:30Z</time>
      </trkpt>
      <trkpt lat="43.9965" lon="1.75537">
        <ele>333.4</ele>
        <time>2021-10-24T13:09:31Z</time>
      </trkpt>
      <trkpt lat="43.99652" lon="1.75537">
        <ele>333.4</ele>
        <time>2021-10-24T13:09:32Z</time>
      </trkpt>
      <trkpt lat="43.99654" lon="1.75538">
        <ele>333.6</ele>
        <time>2021-10-24T13:09:33Z</time>
      </trkpt>
      <trkpt lat="43.99655" lon="1.75537">
        <ele>333.6</ele>
        <time>2021-10-24T13:09:34Z</time>
      </trkpt>
      <trkpt lat="43.99657" lon="1.75537">
        <ele>333.8</ele>
        <time>2021-10-24T13:09:35Z</time>
      </trkpt>
      <trkpt lat="43.99659" lon="1.75536">
        <ele>333.8</ele>
        <time>2021-10-24T13:09:36Z</time>
      </trkpt>
      <trkpt lat="43.9966" lon="1.75534">
        <ele>333.8</ele>
        <time>2021-10-24T13:09:37Z</time>
      </trkpt>
      <trkpt lat="43.99661" lon="1.75532">
        <ele>334</ele>
        <time>2021-10-24T13:09:38Z</time>
      </trkpt>
      <trkpt lat="43.99662" lon="1.75529">
        <ele>334.2</ele>
        <time>2021-10-24T13:09:39Z</time>
      </trkpt>
      <trkpt lat="43.99663" lon="1.75527">
        <ele>334.2</ele>
        <time>2021-10-24T13:09:40Z</time>
      </trkpt>
      <trkpt lat="43.99664" lon="1.75526">
        <ele>334.2</ele>
        <time>2021-10-24T13:09:41Z</time>
      </trkpt>
      <trkpt lat="43.99666" lon="1.75524">
        <ele>334.4</ele>
        <time>2021-10-24T13:09:42Z</time>
      </trkpt>
      <trkpt lat="43.99667" lon="1.75522">
        <ele>334.6</ele>
        <time>2021-10-24T13:09:43Z</time>
      </trkpt>
      <trkpt lat="43.99668" lon="1.7552">
        <ele>334.6</ele>
        <time>2021-10-24T13:09:44Z</time>
      </trkpt>
      <trkpt lat="43.99668" lon="1.75518">
        <ele>334.8</ele>
        <time>2021-10-24T13:09:45Z</time>
      </trkpt>
      <trkpt lat="43.99669" lon="1.75516">
        <ele>334.8</ele>
        <time>2021-10-24T13:09:46Z</time>
      </trkpt>
      <trkpt lat="43.9967" lon="1.75514">
        <ele>334.8</ele>
        <time>2021-10-24T13:09:47Z</time>
      </trkpt>
      <trkpt lat="43.99672" lon="1.75513">
        <ele>334.8</ele>
        <time>2021-10-24T13:09:48Z</time>
      </trkpt>
      <trkpt lat="43.99674" lon="1.75512">
        <ele>334.8</ele>
        <time>2021-10-24T13:09:49Z</time>
      </trkpt>
      <trkpt lat="43.99676" lon="1.75512">
        <ele>334.8</ele>
        <time>2021-10-24T13:09:50Z</time>
      </trkpt>
      <trkpt lat="43.99678" lon="1.75511">
        <ele>334.8</ele>
        <time>2021-10-24T13:09:51Z</time>
      </trkpt>
      <trkpt lat="43.99679" lon="1.75511">
        <ele>335</ele>
        <time>2021-10-24T13:09:52Z</time>
      </trkpt>
      <trkpt lat="43.99681" lon="1.75511">
        <ele>335</ele>
        <time>2021-10-24T13:09:53Z</time>
      </trkpt>
      <trkpt lat="43.99692" lon="1.75511">
        <ele>335.6</ele>
        <time>2021-10-24T13:09:59Z</time>
      </trkpt>
      <trkpt lat="43.99702" lon="1.75512">
        <ele>335.8</ele>
        <time>2021-10-24T13:10:04Z</time>
      </trkpt>
      <trkpt lat="43.99704" lon="1.75513">
        <ele>336</ele>
        <time>2021-10-24T13:10:05Z</time>
      </trkpt>
      <trkpt lat="43.99706" lon="1.75514">
        <ele>336.2</ele>
        <time>2021-10-24T13:10:06Z</time>
      </trkpt>
      <trkpt lat="43.99708" lon="1.75514">
        <ele>336.2</ele>
        <time>2021-10-24T13:10:07Z</time>
      </trkpt>
      <trkpt lat="43.99717" lon="1.75516">
        <ele>336.4</ele>
        <time>2021-10-24T13:10:10Z</time>
      </trkpt>
      <trkpt lat="43.99721" lon="1.75516">
        <ele>336.4</ele>
        <time>2021-10-24T13:10:11Z</time>
      </trkpt>
      <trkpt lat="43.99724" lon="1.75517">
        <ele>336.6</ele>
        <time>2021-10-24T13:10:12Z</time>
      </trkpt>
      <trkpt lat="43.99726" lon="1.75518">
        <ele>336.6</ele>
        <time>2021-10-24T13:10:13Z</time>
      </trkpt>
      <trkpt lat="43.99729" lon="1.75518">
        <ele>336.8</ele>
        <time>2021-10-24T13:10:14Z</time>
      </trkpt>
      <trkpt lat="43.99731" lon="1.75518">
        <ele>336.8</ele>
        <time>2021-10-24T13:10:15Z</time>
      </trkpt>
      <trkpt lat="43.99733" lon="1.75519">
        <ele>337</ele>
        <time>2021-10-24T13:10:16Z</time>
      </trkpt>
      <trkpt lat="43.99736" lon="1.7552">
        <ele>337</ele>
        <time>2021-10-24T13:10:17Z</time>
      </trkpt>
      <trkpt lat="43.99743" lon="1.7552">
        <ele>337.2</ele>
        <time>2021-10-24T13:10:19Z</time>
      </trkpt>
      <trkpt lat="43.9975" lon="1.75521">
        <ele>337.2</ele>
        <time>2021-10-24T13:10:21Z</time>
      </trkpt>
      <trkpt lat="43.99751" lon="1.75522">
        <ele>337.2</ele>
        <time>2021-10-24T13:10:22Z</time>
      </trkpt>
      <trkpt lat="43.99753" lon="1.75524">
        <ele>337.4</ele>
        <time>2021-10-24T13:10:23Z</time>
      </trkpt>
      <trkpt lat="43.99757" lon="1.75526">
        <ele>337.4</ele>
        <time>2021-10-24T13:10:24Z</time>
      </trkpt>
      <trkpt lat="43.99759" lon="1.75526">
        <ele>337.4</ele>
        <time>2021-10-24T13:10:25Z</time>
      </trkpt>
      <trkpt lat="43.99764" lon="1.75525">
        <ele>337.4</ele>
        <time>2021-10-24T13:10:26Z</time>
      </trkpt>
      <trkpt lat="43.99767" lon="1.75525">
        <ele>337.6</ele>
        <time>2021-10-24T13:10:27Z</time>
      </trkpt>
      <trkpt lat="43.99769" lon="1.75526">
        <ele>337.8</ele>
        <time>2021-10-24T13:10:28Z</time>
      </trkpt>
      <trkpt lat="43.99772" lon="1.75528">
        <ele>337.8</ele>
        <time>2021-10-24T13:10:29Z</time>
      </trkpt>
      <trkpt lat="43.99776" lon="1.75529">
        <ele>338.2</ele>
        <time>2021-10-24T13:10:31Z</time>
      </trkpt>
      <trkpt lat="43.99778" lon="1.75529">
        <ele>338.4</ele>
        <time>2021-10-24T13:10:32Z</time>
      </trkpt>
      <trkpt lat="43.99787" lon="1.75535">
        <ele>338.8</ele>
        <time>2021-10-24T13:10:36Z</time>
      </trkpt>
      <trkpt lat="43.99792" lon="1.75537">
        <ele>339</ele>
        <time>2021-10-24T13:10:38Z</time>
      </trkpt>
      <trkpt lat="43.99792" lon="1.75538">
        <ele>339.2</ele>
        <time>2021-10-24T13:10:39Z</time>
      </trkpt>
      <trkpt lat="43.99792" lon="1.75538">
        <ele>339.4</ele>
        <time>2021-10-24T13:10:40Z</time>
      </trkpt>
      <trkpt lat="43.99795" lon="1.75541">
        <ele>339.8</ele>
        <time>2021-10-24T13:10:42Z</time>
      </trkpt>
      <trkpt lat="43.99798" lon="1.75543">
        <ele>339.8</ele>
        <time>2021-10-24T13:10:43Z</time>
      </trkpt>
      <trkpt lat="43.99801" lon="1.75545">
        <ele>340</ele>
        <time>2021-10-24T13:10:44Z</time>
      </trkpt>
      <trkpt lat="43.99803" lon="1.75547">
        <ele>340</ele>
        <time>2021-10-24T13:10:45Z</time>
      </trkpt>
      <trkpt lat="43.99804" lon="1.75549">
        <ele>340.4</ele>
        <time>2021-10-24T13:10:46Z</time>
      </trkpt>
      <trkpt lat="43.99805" lon="1.75551">
        <ele>340.6</ele>
        <time>2021-10-24T13:10:47Z</time>
      </trkpt>
      <trkpt lat="43.99807" lon="1.75554">
        <ele>340.6</ele>
        <time>2021-10-24T13:10:48Z</time>
      </trkpt>
      <trkpt lat="43.99808" lon="1.75555">
        <ele>340.8</ele>
        <time>2021-10-24T13:10:49Z</time>
      </trkpt>
      <trkpt lat="43.99808" lon="1.75556">
        <ele>340.8</ele>
        <time>2021-10-24T13:10:50Z</time>
      </trkpt>
      <trkpt lat="43.99808" lon="1.75557">
        <ele>341</ele>
        <time>2021-10-24T13:10:51Z</time>
      </trkpt>
      <trkpt lat="43.99807" lon="1.75561">
        <ele>341</ele>
        <time>2021-10-24T13:10:52Z</time>
      </trkpt>
      <trkpt lat="43.99806" lon="1.75564">
        <ele>341.2</ele>
        <time>2021-10-24T13:10:53Z</time>
      </trkpt>
      <trkpt lat="43.99807" lon="1.75566">
        <ele>341.2</ele>
        <time>2021-10-24T13:10:54Z</time>
      </trkpt>
      <trkpt lat="43.99807" lon="1.75568">
        <ele>341.2</ele>
        <time>2021-10-24T13:10:55Z</time>
      </trkpt>
      <trkpt lat="43.99808" lon="1.75571">
        <ele>341.4</ele>
        <time>2021-10-24T13:10:56Z</time>
      </trkpt>
      <trkpt lat="43.99809" lon="1.75573">
        <ele>341.4</ele>
        <time>2021-10-24T13:10:57Z</time>
      </trkpt>
      <trkpt lat="43.9981" lon="1.75576">
        <ele>341.6</ele>
        <time>2021-10-24T13:10:58Z</time>
      </trkpt>
      <trkpt lat="43.99812" lon="1.75578">
        <ele>341.6</ele>
        <time>2021-10-24T13:10:59Z</time>
      </trkpt>
      <trkpt lat="43.99813" lon="1.7558">
        <ele>341.8</ele>
        <time>2021-10-24T13:11:00Z</time>
      </trkpt>
      <trkpt lat="43.99815" lon="1.75582">
        <ele>341.8</ele>
        <time>2021-10-24T13:11:01Z</time>
      </trkpt>
      <trkpt lat="43.99817" lon="1.75583">
        <ele>342</ele>
        <time>2021-10-24T13:11:02Z</time>
      </trkpt>
      <trkpt lat="43.99818" lon="1.75584">
        <ele>342</ele>
        <time>2021-10-24T13:11:03Z</time>
      </trkpt>
      <trkpt lat="43.9982" lon="1.75584">
        <ele>342</ele>
        <time>2021-10-24T13:11:04Z</time>
      </trkpt>
      <trkpt lat="43.99822" lon="1.75585">
        <ele>342.2</ele>
        <time>2021-10-24T13:11:05Z</time>
      </trkpt>
      <trkpt lat="43.99824" lon="1.75585">
        <ele>342.2</ele>
        <time>2021-10-24T13:11:06Z</time>
      </trkpt>
      <trkpt lat="43.99826" lon="1.75585">
        <ele>342.4</ele>
        <time>2021-10-24T13:11:07Z</time>
      </trkpt>
      <trkpt lat="43.99828" lon="1.75586">
        <ele>342.4</ele>
        <time>2021-10-24T13:11:08Z</time>
      </trkpt>
      <trkpt lat="43.99831" lon="1.75587">
        <ele>342.6</ele>
        <time>2021-10-24T13:11:09Z</time>
      </trkpt>
      <trkpt lat="43.99833" lon="1.75587">
        <ele>342.8</ele>
        <time>2021-10-24T13:11:10Z</time>
      </trkpt>
      <trkpt lat="43.99835" lon="1.75588">
        <ele>342.8</ele>
        <time>2021-10-24T13:11:11Z</time>
      </trkpt>
      <trkpt lat="43.99836" lon="1.75588">
        <ele>343</ele>
        <time>2021-10-24T13:11:12Z</time>
      </trkpt>
      <trkpt lat="43.99838" lon="1.7559">
        <ele>343.2</ele>
        <time>2021-10-24T13:11:13Z</time>
      </trkpt>
      <trkpt lat="43.99841" lon="1.75591">
        <ele>343.4</ele>
        <time>2021-10-24T13:11:14Z</time>
      </trkpt>
      <trkpt lat="43.99843" lon="1.75593">
        <ele>343.6</ele>
        <time>2021-10-24T13:11:15Z</time>
      </trkpt>
      <trkpt lat="43.99845" lon="1.75594">
        <ele>343.8</ele>
        <time>2021-10-24T13:11:16Z</time>
      </trkpt>
      <trkpt lat="43.99847" lon="1.75596">
        <ele>343.8</ele>
        <time>2021-10-24T13:11:17Z</time>
      </trkpt>
      <trkpt lat="43.9985" lon="1.75597">
        <ele>344</ele>
        <time>2021-10-24T13:11:18Z</time>
      </trkpt>
      <trkpt lat="43.99852" lon="1.75598">
        <ele>344.4</ele>
        <time>2021-10-24T13:11:19Z</time>
      </trkpt>
      <trkpt lat="43.99853" lon="1.75599">
        <ele>344.6</ele>
        <time>2021-10-24T13:11:20Z</time>
      </trkpt>
      <trkpt lat="43.99855" lon="1.75601">
        <ele>344.8</ele>
        <time>2021-10-24T13:11:21Z</time>
      </trkpt>
      <trkpt lat="43.99858" lon="1.75603">
        <ele>345</ele>
        <time>2021-10-24T13:11:22Z</time>
      </trkpt>
      <trkpt lat="43.9986" lon="1.75604">
        <ele>345.2</ele>
        <time>2021-10-24T13:11:23Z</time>
      </trkpt>
      <trkpt lat="43.99861" lon="1.75605">
        <ele>345.2</ele>
        <time>2021-10-24T13:11:24Z</time>
      </trkpt>
      <trkpt lat="43.99862" lon="1.75606">
        <ele>345.6</ele>
        <time>2021-10-24T13:11:25Z</time>
      </trkpt>
      <trkpt lat="43.99863" lon="1.75608">
        <ele>345.6</ele>
        <time>2021-10-24T13:11:26Z</time>
      </trkpt>
      <trkpt lat="43.99864" lon="1.75609">
        <ele>345.8</ele>
        <time>2021-10-24T13:11:27Z</time>
      </trkpt>
      <trkpt lat="43.99867" lon="1.75611">
        <ele>346</ele>
        <time>2021-10-24T13:11:28Z</time>
      </trkpt>
      <trkpt lat="43.99869" lon="1.75613">
        <ele>346</ele>
        <time>2021-10-24T13:11:29Z</time>
      </trkpt>
      <trkpt lat="43.99871" lon="1.75616">
        <ele>346.2</ele>
        <time>2021-10-24T13:11:30Z</time>
      </trkpt>
      <trkpt lat="43.99873" lon="1.75618">
        <ele>346.4</ele>
        <time>2021-10-24T13:11:31Z</time>
      </trkpt>
      <trkpt lat="43.99876" lon="1.7562">
        <ele>346.6</ele>
        <time>2021-10-24T13:11:32Z</time>
      </trkpt>
      <trkpt lat="43.99878" lon="1.75623">
        <ele>346.6</ele>
        <time>2021-10-24T13:11:33Z</time>
      </trkpt>
      <trkpt lat="43.99881" lon="1.75626">
        <ele>346.6</ele>
        <time>2021-10-24T13:11:34Z</time>
      </trkpt>
      <trkpt lat="43.99884" lon="1.75626">
        <ele>346.4</ele>
        <time>2021-10-24T13:11:35Z</time>
      </trkpt>
      <trkpt lat="43.99887" lon="1.75628">
        <ele>346.4</ele>
        <time>2021-10-24T13:11:36Z</time>
      </trkpt>
      <trkpt lat="43.99891" lon="1.75628">
        <ele>346.4</ele>
        <time>2021-10-24T13:11:37Z</time>
      </trkpt>
      <trkpt lat="43.99894" lon="1.75628">
        <ele>346.4</ele>
        <time>2021-10-24T13:11:38Z</time>
      </trkpt>
      <trkpt lat="43.99898" lon="1.75629">
        <ele>346.2</ele>
        <time>2021-10-24T13:11:39Z</time>
      </trkpt>
      <trkpt lat="43.99902" lon="1.75631">
        <ele>346.2</ele>
        <time>2021-10-24T13:11:40Z</time>
      </trkpt>
      <trkpt lat="43.99907" lon="1.7563">
        <ele>346</ele>
        <time>2021-10-24T13:11:41Z</time>
      </trkpt>
      <trkpt lat="43.99911" lon="1.75629">
        <ele>346</ele>
        <time>2021-10-24T13:11:42Z</time>
      </trkpt>
      <trkpt lat="43.99916" lon="1.7563">
        <ele>345.8</ele>
        <time>2021-10-24T13:11:43Z</time>
      </trkpt>
      <trkpt lat="43.9992" lon="1.75632">
        <ele>345.8</ele>
        <time>2021-10-24T13:11:44Z</time>
      </trkpt>
      <trkpt lat="43.99928" lon="1.75638">
        <ele>345.6</ele>
        <time>2021-10-24T13:11:46Z</time>
      </trkpt>
      <trkpt lat="43.99932" lon="1.75642">
        <ele>345.6</ele>
        <time>2021-10-24T13:11:47Z</time>
      </trkpt>
      <trkpt lat="43.99936" lon="1.75644">
        <ele>345.6</ele>
        <time>2021-10-24T13:11:48Z</time>
      </trkpt>
      <trkpt lat="43.99966" lon="1.75666">
        <ele>344.8</ele>
        <time>2021-10-24T13:11:54Z</time>
      </trkpt>
      <trkpt lat="43.99971" lon="1.75667">
        <ele>344.6</ele>
        <time>2021-10-24T13:11:55Z</time>
      </trkpt>
      <trkpt lat="43.99975" lon="1.75671">
        <ele>344.6</ele>
        <time>2021-10-24T13:11:56Z</time>
      </trkpt>
      <trkpt lat="43.99979" lon="1.75671">
        <ele>344.4</ele>
        <time>2021-10-24T13:11:57Z</time>
      </trkpt>
      <trkpt lat="43.99981" lon="1.75672">
        <ele>344.4</ele>
        <time>2021-10-24T13:11:58Z</time>
      </trkpt>
      <trkpt lat="43.99984" lon="1.75674">
        <ele>344.2</ele>
        <time>2021-10-24T13:11:59Z</time>
      </trkpt>
      <trkpt lat="43.99986" lon="1.75675">
        <ele>344</ele>
        <time>2021-10-24T13:12:00Z</time>
      </trkpt>
      <trkpt lat="43.99988" lon="1.75676">
        <ele>344</ele>
        <time>2021-10-24T13:12:01Z</time>
      </trkpt>
      <trkpt lat="43.9999" lon="1.75676">
        <ele>343.8</ele>
        <time>2021-10-24T13:12:02Z</time>
      </trkpt>
      <trkpt lat="43.99992" lon="1.75677">
        <ele>343.8</ele>
        <time>2021-10-24T13:12:03Z</time>
      </trkpt>
      <trkpt lat="43.99993" lon="1.75678">
        <ele>343.8</ele>
        <time>2021-10-24T13:12:04Z</time>
      </trkpt>
      <trkpt lat="43.99995" lon="1.75678">
        <ele>343.6</ele>
        <time>2021-10-24T13:12:05Z</time>
      </trkpt>
      <trkpt lat="43.99996" lon="1.75679">
        <ele>343.6</ele>
        <time>2021-10-24T13:12:06Z</time>
      </trkpt>
      <trkpt lat="43.99998" lon="1.75679">
        <ele>343.6</ele>
        <time>2021-10-24T13:12:07Z</time>
      </trkpt>
      <trkpt lat="43.99999" lon="1.75679">
        <ele>343.6</ele>
        <time>2021-10-24T13:12:08Z</time>
      </trkpt>
      <trkpt lat="44" lon="1.75679">
        <ele>343.4</ele>
        <time>2021-10-24T13:12:09Z</time>
      </trkpt>
      <trkpt lat="44.00001" lon="1.7568">
        <ele>343.4</ele>
        <time>2021-10-24T13:12:10Z</time>
      </trkpt>
      <trkpt lat="44.00003" lon="1.7568">
        <ele>343.2</ele>
        <time>2021-10-24T13:12:11Z</time>
      </trkpt>
      <trkpt lat="44.00004" lon="1.75681">
        <ele>343.2</ele>
        <time>2021-10-24T13:12:12Z</time>
      </trkpt>
      <trkpt lat="44.00005" lon="1.75683">
        <ele>343.2</ele>
        <time>2021-10-24T13:12:13Z</time>
      </trkpt>
      <trkpt lat="44.00006" lon="1.75686">
        <ele>343.2</ele>
        <time>2021-10-24T13:12:14Z</time>
      </trkpt>
      <trkpt lat="44.00007" lon="1.75689">
        <ele>343.2</ele>
        <time>2021-10-24T13:12:15Z</time>
      </trkpt>
      <trkpt lat="44.00008" lon="1.75691">
        <ele>343.2</ele>
        <time>2021-10-24T13:12:16Z</time>
      </trkpt>
      <trkpt lat="44.00009" lon="1.75694">
        <ele>343.2</ele>
        <time>2021-10-24T13:12:17Z</time>
      </trkpt>
      <trkpt lat="44.00012" lon="1.75699">
        <ele>343</ele>
        <time>2021-10-24T13:12:19Z</time>
      </trkpt>
      <trkpt lat="44.00014" lon="1.75701">
        <ele>343</ele>
        <time>2021-10-24T13:12:20Z</time>
      </trkpt>
      <trkpt lat="44.00015" lon="1.75704">
        <ele>343</ele>
        <time>2021-10-24T13:12:21Z</time>
      </trkpt>
      <trkpt lat="44.00017" lon="1.75707">
        <ele>343</ele>
        <time>2021-10-24T13:12:22Z</time>
      </trkpt>
      <trkpt lat="44.00019" lon="1.7571">
        <ele>343</ele>
        <time>2021-10-24T13:12:23Z</time>
      </trkpt>
      <trkpt lat="44.0002" lon="1.75712">
        <ele>343</ele>
        <time>2021-10-24T13:12:24Z</time>
      </trkpt>
      <trkpt lat="44.00022" lon="1.75715">
        <ele>343</ele>
        <time>2021-10-24T13:12:25Z</time>
      </trkpt>
      <trkpt lat="44.00023" lon="1.75718">
        <ele>343</ele>
        <time>2021-10-24T13:12:26Z</time>
      </trkpt>
      <trkpt lat="44.00027" lon="1.75725">
        <ele>343.2</ele>
        <time>2021-10-24T13:12:30Z</time>
      </trkpt>
      <trkpt lat="44.00029" lon="1.75728">
        <ele>343.4</ele>
        <time>2021-10-24T13:12:31Z</time>
      </trkpt>
      <trkpt lat="44.00031" lon="1.75731">
        <ele>343.4</ele>
        <time>2021-10-24T13:12:32Z</time>
      </trkpt>
      <trkpt lat="44.00034" lon="1.75736">
        <ele>343.6</ele>
        <time>2021-10-24T13:12:34Z</time>
      </trkpt>
      <trkpt lat="44.00036" lon="1.75739">
        <ele>343.8</ele>
        <time>2021-10-24T13:12:35Z</time>
      </trkpt>
      <trkpt lat="44.00038" lon="1.75742">
        <ele>344</ele>
        <time>2021-10-24T13:12:36Z</time>
      </trkpt>
      <trkpt lat="44.00039" lon="1.75744">
        <ele>344.2</ele>
        <time>2021-10-24T13:12:37Z</time>
      </trkpt>
      <trkpt lat="44.00045" lon="1.75751">
        <ele>344.2</ele>
        <time>2021-10-24T13:12:40Z</time>
      </trkpt>
      <trkpt lat="44.00063" lon="1.75765">
        <ele>344.4</ele>
        <time>2021-10-24T13:12:45Z</time>
      </trkpt>
      <trkpt lat="44.00065" lon="1.75767">
        <ele>344.2</ele>
        <time>2021-10-24T13:12:46Z</time>
      </trkpt>
      <trkpt lat="44.00083" lon="1.75771">
        <ele>343.4</ele>
        <time>2021-10-24T13:12:51Z</time>
      </trkpt>
      <trkpt lat="44.00092" lon="1.75771">
        <ele>343.2</ele>
        <time>2021-10-24T13:12:53Z</time>
      </trkpt>
      <trkpt lat="44.001" lon="1.75772">
        <ele>343.2</ele>
        <time>2021-10-24T13:12:55Z</time>
      </trkpt>
      <trkpt lat="44.00104" lon="1.75773">
        <ele>343</ele>
        <time>2021-10-24T13:12:56Z</time>
      </trkpt>
      <trkpt lat="44.00108" lon="1.75774">
        <ele>342.8</ele>
        <time>2021-10-24T13:12:57Z</time>
      </trkpt>
      <trkpt lat="44.00117" lon="1.75772">
        <ele>342.6</ele>
        <time>2021-10-24T13:12:59Z</time>
      </trkpt>
      <trkpt lat="44.00121" lon="1.75771">
        <ele>342.4</ele>
        <time>2021-10-24T13:13:00Z</time>
      </trkpt>
      <trkpt lat="44.00123" lon="1.7577">
        <ele>342.4</ele>
        <time>2021-10-24T13:13:01Z</time>
      </trkpt>
      <trkpt lat="44.00127" lon="1.75771">
        <ele>342.4</ele>
        <time>2021-10-24T13:13:02Z</time>
      </trkpt>
      <trkpt lat="44.0013" lon="1.75772">
        <ele>342.4</ele>
        <time>2021-10-24T13:13:03Z</time>
      </trkpt>
      <trkpt lat="44.00133" lon="1.75771">
        <ele>342.2</ele>
        <time>2021-10-24T13:13:04Z</time>
      </trkpt>
      <trkpt lat="44.00135" lon="1.7577">
        <ele>342</ele>
        <time>2021-10-24T13:13:05Z</time>
      </trkpt>
      <trkpt lat="44.00138" lon="1.75769">
        <ele>341.8</ele>
        <time>2021-10-24T13:13:06Z</time>
      </trkpt>
      <trkpt lat="44.00142" lon="1.75767">
        <ele>341.8</ele>
        <time>2021-10-24T13:13:07Z</time>
      </trkpt>
      <trkpt lat="44.00145" lon="1.75766">
        <ele>341.6</ele>
        <time>2021-10-24T13:13:08Z</time>
      </trkpt>
      <trkpt lat="44.00149" lon="1.75764">
        <ele>341.6</ele>
        <time>2021-10-24T13:13:09Z</time>
      </trkpt>
      <trkpt lat="44.00157" lon="1.75759">
        <ele>341.4</ele>
        <time>2021-10-24T13:13:11Z</time>
      </trkpt>
      <trkpt lat="44.00165" lon="1.75757">
        <ele>341.2</ele>
        <time>2021-10-24T13:13:13Z</time>
      </trkpt>
      <trkpt lat="44.00168" lon="1.75756">
        <ele>341.2</ele>
        <time>2021-10-24T13:13:14Z</time>
      </trkpt>
      <trkpt lat="44.00173" lon="1.75754">
        <ele>340.8</ele>
        <time>2021-10-24T13:13:15Z</time>
      </trkpt>
      <trkpt lat="44.00178" lon="1.75752">
        <ele>340.4</ele>
        <time>2021-10-24T13:13:16Z</time>
      </trkpt>
      <trkpt lat="44.00182" lon="1.75749">
        <ele>340.2</ele>
        <time>2021-10-24T13:13:17Z</time>
      </trkpt>
      <trkpt lat="44.00185" lon="1.75747">
        <ele>340</ele>
        <time>2021-10-24T13:13:18Z</time>
      </trkpt>
      <trkpt lat="44.00189" lon="1.75747">
        <ele>340</ele>
        <time>2021-10-24T13:13:19Z</time>
      </trkpt>
      <trkpt lat="44.00192" lon="1.75745">
        <ele>339.4</ele>
        <time>2021-10-24T13:13:20Z</time>
      </trkpt>
      <trkpt lat="44.00197" lon="1.75747">
        <ele>339.4</ele>
        <time>2021-10-24T13:13:21Z</time>
      </trkpt>
      <trkpt lat="44.00201" lon="1.75749">
        <ele>338.8</ele>
        <time>2021-10-24T13:13:22Z</time>
      </trkpt>
      <trkpt lat="44.00203" lon="1.7575">
        <ele>338.4</ele>
        <time>2021-10-24T13:13:23Z</time>
      </trkpt>
      <trkpt lat="44.00206" lon="1.75754">
        <ele>338.2</ele>
        <time>2021-10-24T13:13:24Z</time>
      </trkpt>
      <trkpt lat="44.00209" lon="1.75759">
        <ele>337.8</ele>
        <time>2021-10-24T13:13:25Z</time>
      </trkpt>
      <trkpt lat="44.00212" lon="1.75765">
        <ele>337.8</ele>
        <time>2021-10-24T13:13:26Z</time>
      </trkpt>
      <trkpt lat="44.00215" lon="1.75772">
        <ele>337.6</ele>
        <time>2021-10-24T13:13:27Z</time>
      </trkpt>
      <trkpt lat="44.00216" lon="1.75778">
        <ele>337.2</ele>
        <time>2021-10-24T13:13:28Z</time>
      </trkpt>
      <trkpt lat="44.00218" lon="1.75783">
        <ele>336.8</ele>
        <time>2021-10-24T13:13:29Z</time>
      </trkpt>
      <trkpt lat="44.00221" lon="1.75787">
        <ele>336.2</ele>
        <time>2021-10-24T13:13:30Z</time>
      </trkpt>
      <trkpt lat="44.00223" lon="1.75791">
        <ele>336</ele>
        <time>2021-10-24T13:13:31Z</time>
      </trkpt>
      <trkpt lat="44.00226" lon="1.75794">
        <ele>335.6</ele>
        <time>2021-10-24T13:13:32Z</time>
      </trkpt>
      <trkpt lat="44.00229" lon="1.75797">
        <ele>335.4</ele>
        <time>2021-10-24T13:13:33Z</time>
      </trkpt>
      <trkpt lat="44.00234" lon="1.75798">
        <ele>335</ele>
        <time>2021-10-24T13:13:34Z</time>
      </trkpt>
      <trkpt lat="44.00238" lon="1.75799">
        <ele>334.8</ele>
        <time>2021-10-24T13:13:35Z</time>
      </trkpt>
      <trkpt lat="44.00242" lon="1.758">
        <ele>334.6</ele>
        <time>2021-10-24T13:13:36Z</time>
      </trkpt>
      <trkpt lat="44.00246" lon="1.758">
        <ele>334.4</ele>
        <time>2021-10-24T13:13:37Z</time>
      </trkpt>
      <trkpt lat="44.00251" lon="1.75801">
        <ele>334.4</ele>
        <time>2021-10-24T13:13:38Z</time>
      </trkpt>
      <trkpt lat="44.00254" lon="1.75801">
        <ele>334.4</ele>
        <time>2021-10-24T13:13:39Z</time>
      </trkpt>
      <trkpt lat="44.00258" lon="1.75802">
        <ele>334.4</ele>
        <time>2021-10-24T13:13:40Z</time>
      </trkpt>
      <trkpt lat="44.00262" lon="1.75803">
        <ele>334.4</ele>
        <time>2021-10-24T13:13:41Z</time>
      </trkpt>
      <trkpt lat="44.00265" lon="1.75803">
        <ele>334.2</ele>
        <time>2021-10-24T13:13:42Z</time>
      </trkpt>
      <trkpt lat="44.00269" lon="1.75804">
        <ele>334.2</ele>
        <time>2021-10-24T13:13:43Z</time>
      </trkpt>
      <trkpt lat="44.00277" lon="1.75806">
        <ele>334.2</ele>
        <time>2021-10-24T13:13:45Z</time>
      </trkpt>
      <trkpt lat="44.00281" lon="1.75808">
        <ele>334.2</ele>
        <time>2021-10-24T13:13:46Z</time>
      </trkpt>
      <trkpt lat="44.00284" lon="1.7581">
        <ele>334.2</ele>
        <time>2021-10-24T13:13:47Z</time>
      </trkpt>
      <trkpt lat="44.00287" lon="1.75812">
        <ele>334.2</ele>
        <time>2021-10-24T13:13:48Z</time>
      </trkpt>
      <trkpt lat="44.00289" lon="1.75813">
        <ele>334.2</ele>
        <time>2021-10-24T13:13:49Z</time>
      </trkpt>
      <trkpt lat="44.00292" lon="1.75813">
        <ele>334.2</ele>
        <time>2021-10-24T13:13:50Z</time>
      </trkpt>
      <trkpt lat="44.00295" lon="1.75814">
        <ele>334.2</ele>
        <time>2021-10-24T13:13:51Z</time>
      </trkpt>
      <trkpt lat="44.00298" lon="1.75814">
        <ele>334.2</ele>
        <time>2021-10-24T13:13:52Z</time>
      </trkpt>
      <trkpt lat="44.003" lon="1.75814">
        <ele>334.6</ele>
        <time>2021-10-24T13:13:53Z</time>
      </trkpt>
      <trkpt lat="44.00303" lon="1.75815">
        <ele>334.6</ele>
        <time>2021-10-24T13:13:54Z</time>
      </trkpt>
      <trkpt lat="44.00305" lon="1.75815">
        <ele>334.8</ele>
        <time>2021-10-24T13:13:55Z</time>
      </trkpt>
      <trkpt lat="44.00308" lon="1.75816">
        <ele>334.8</ele>
        <time>2021-10-24T13:13:56Z</time>
      </trkpt>
      <trkpt lat="44.00313" lon="1.75819">
        <ele>334.8</ele>
        <time>2021-10-24T13:13:57Z</time>
      </trkpt>
      <trkpt lat="44.00318" lon="1.75822">
        <ele>335.2</ele>
        <time>2021-10-24T13:13:59Z</time>
      </trkpt>
      <trkpt lat="44.00325" lon="1.75827">
        <ele>335.6</ele>
        <time>2021-10-24T13:14:02Z</time>
      </trkpt>
      <trkpt lat="44.00332" lon="1.75832">
        <ele>336</ele>
        <time>2021-10-24T13:14:04Z</time>
      </trkpt>
      <trkpt lat="44.00346" lon="1.7584">
        <ele>336.6</ele>
        <time>2021-10-24T13:14:08Z</time>
      </trkpt>
      <trkpt lat="44.00351" lon="1.75843">
        <ele>336.8</ele>
        <time>2021-10-24T13:14:10Z</time>
      </trkpt>
      <trkpt lat="44.00354" lon="1.75845">
        <ele>337</ele>
        <time>2021-10-24T13:14:11Z</time>
      </trkpt>
      <trkpt lat="44.00357" lon="1.75847">
        <ele>337</ele>
        <time>2021-10-24T13:14:12Z</time>
      </trkpt>
      <trkpt lat="44.00359" lon="1.7585">
        <ele>337.4</ele>
        <time>2021-10-24T13:14:13Z</time>
      </trkpt>
      <trkpt lat="44.00371" lon="1.75862">
        <ele>337.8</ele>
        <time>2021-10-24T13:14:16Z</time>
      </trkpt>
      <trkpt lat="44.00374" lon="1.75867">
        <ele>337.8</ele>
        <time>2021-10-24T13:14:17Z</time>
      </trkpt>
      <trkpt lat="44.00377" lon="1.75869">
        <ele>338</ele>
        <time>2021-10-24T13:14:18Z</time>
      </trkpt>
      <trkpt lat="44.00379" lon="1.75871">
        <ele>338.2</ele>
        <time>2021-10-24T13:14:19Z</time>
      </trkpt>
      <trkpt lat="44.00381" lon="1.75874">
        <ele>338.4</ele>
        <time>2021-10-24T13:14:20Z</time>
      </trkpt>
      <trkpt lat="44.00383" lon="1.75878">
        <ele>338.4</ele>
        <time>2021-10-24T13:14:21Z</time>
      </trkpt>
      <trkpt lat="44.00385" lon="1.75883">
        <ele>338.8</ele>
        <time>2021-10-24T13:14:22Z</time>
      </trkpt>
      <trkpt lat="44.00387" lon="1.75888">
        <ele>338.8</ele>
        <time>2021-10-24T13:14:23Z</time>
      </trkpt>
      <trkpt lat="44.00388" lon="1.75893">
        <ele>339</ele>
        <time>2021-10-24T13:14:24Z</time>
      </trkpt>
      <trkpt lat="44.0039" lon="1.75896">
        <ele>339.2</ele>
        <time>2021-10-24T13:14:25Z</time>
      </trkpt>
      <trkpt lat="44.00392" lon="1.75899">
        <ele>339.2</ele>
        <time>2021-10-24T13:14:26Z</time>
      </trkpt>
      <trkpt lat="44.00394" lon="1.75902">
        <ele>339.4</ele>
        <time>2021-10-24T13:14:27Z</time>
      </trkpt>
      <trkpt lat="44.00396" lon="1.75905">
        <ele>339.4</ele>
        <time>2021-10-24T13:14:28Z</time>
      </trkpt>
      <trkpt lat="44.00398" lon="1.75907">
        <ele>339.4</ele>
        <time>2021-10-24T13:14:29Z</time>
      </trkpt>
      <trkpt lat="44.004" lon="1.7591">
        <ele>339.4</ele>
        <time>2021-10-24T13:14:30Z</time>
      </trkpt>
      <trkpt lat="44.00403" lon="1.75912">
        <ele>339.4</ele>
        <time>2021-10-24T13:14:31Z</time>
      </trkpt>
      <trkpt lat="44.00406" lon="1.75916">
        <ele>339.6</ele>
        <time>2021-10-24T13:14:32Z</time>
      </trkpt>
      <trkpt lat="44.00409" lon="1.75918">
        <ele>339.6</ele>
        <time>2021-10-24T13:14:33Z</time>
      </trkpt>
      <trkpt lat="44.00411" lon="1.7592">
        <ele>339.6</ele>
        <time>2021-10-24T13:14:34Z</time>
      </trkpt>
      <trkpt lat="44.00414" lon="1.75923">
        <ele>339.8</ele>
        <time>2021-10-24T13:14:35Z</time>
      </trkpt>
      <trkpt lat="44.00416" lon="1.75926">
        <ele>339.8</ele>
        <time>2021-10-24T13:14:36Z</time>
      </trkpt>
      <trkpt lat="44.00419" lon="1.75929">
        <ele>339.8</ele>
        <time>2021-10-24T13:14:37Z</time>
      </trkpt>
      <trkpt lat="44.00421" lon="1.75932">
        <ele>339.8</ele>
        <time>2021-10-24T13:14:38Z</time>
      </trkpt>
      <trkpt lat="44.00424" lon="1.75934">
        <ele>339.8</ele>
        <time>2021-10-24T13:14:39Z</time>
      </trkpt>
      <trkpt lat="44.00426" lon="1.75935">
        <ele>339.8</ele>
        <time>2021-10-24T13:14:40Z</time>
      </trkpt>
      <trkpt lat="44.00428" lon="1.75937">
        <ele>339.8</ele>
        <time>2021-10-24T13:14:41Z</time>
      </trkpt>
      <trkpt lat="44.00433" lon="1.75941">
        <ele>340</ele>
        <time>2021-10-24T13:14:43Z</time>
      </trkpt>
      <trkpt lat="44.00439" lon="1.75947">
        <ele>340</ele>
        <time>2021-10-24T13:14:45Z</time>
      </trkpt>
      <trkpt lat="44.00444" lon="1.75952">
        <ele>340.2</ele>
        <time>2021-10-24T13:14:47Z</time>
      </trkpt>
      <trkpt lat="44.00448" lon="1.75955">
        <ele>340.2</ele>
        <time>2021-10-24T13:14:48Z</time>
      </trkpt>
      <trkpt lat="44.00454" lon="1.75962">
        <ele>340.2</ele>
        <time>2021-10-24T13:14:50Z</time>
      </trkpt>
      <trkpt lat="44.00466" lon="1.75977">
        <ele>340.4</ele>
        <time>2021-10-24T13:14:54Z</time>
      </trkpt>
      <trkpt lat="44.00484" lon="1.75997">
        <ele>340.4</ele>
        <time>2021-10-24T13:14:59Z</time>
      </trkpt>
      <trkpt lat="44.00487" lon="1.75999">
        <ele>340.4</ele>
        <time>2021-10-24T13:15:00Z</time>
      </trkpt>
      <trkpt lat="44.00493" lon="1.76006">
        <ele>340.4</ele>
        <time>2021-10-24T13:15:02Z</time>
      </trkpt>
      <trkpt lat="44.00508" lon="1.76021">
        <ele>340.4</ele>
        <time>2021-10-24T13:15:06Z</time>
      </trkpt>
      <trkpt lat="44.00511" lon="1.76023">
        <ele>340.4</ele>
        <time>2021-10-24T13:15:07Z</time>
      </trkpt>
      <trkpt lat="44.00516" lon="1.76029">
        <ele>340</ele>
        <time>2021-10-24T13:15:08Z</time>
      </trkpt>
      <trkpt lat="44.00519" lon="1.76032">
        <ele>340</ele>
        <time>2021-10-24T13:15:09Z</time>
      </trkpt>
      <trkpt lat="44.00524" lon="1.76035">
        <ele>339.8</ele>
        <time>2021-10-24T13:15:10Z</time>
      </trkpt>
      <trkpt lat="44.00532" lon="1.76039">
        <ele>339.8</ele>
        <time>2021-10-24T13:15:12Z</time>
      </trkpt>
      <trkpt lat="44.00536" lon="1.76043">
        <ele>339.8</ele>
        <time>2021-10-24T13:15:13Z</time>
      </trkpt>
      <trkpt lat="44.00539" lon="1.76045">
        <ele>339.8</ele>
        <time>2021-10-24T13:15:14Z</time>
      </trkpt>
      <trkpt lat="44.00542" lon="1.76046">
        <ele>339.8</ele>
        <time>2021-10-24T13:15:15Z</time>
      </trkpt>
      <trkpt lat="44.00546" lon="1.76049">
        <ele>339.8</ele>
        <time>2021-10-24T13:15:16Z</time>
      </trkpt>
      <trkpt lat="44.00549" lon="1.76052">
        <ele>339.8</ele>
        <time>2021-10-24T13:15:17Z</time>
      </trkpt>
      <trkpt lat="44.00552" lon="1.76054">
        <ele>339.8</ele>
        <time>2021-10-24T13:15:18Z</time>
      </trkpt>
      <trkpt lat="44.00556" lon="1.76057">
        <ele>339.8</ele>
        <time>2021-10-24T13:15:19Z</time>
      </trkpt>
      <trkpt lat="44.00561" lon="1.76058">
        <ele>339.8</ele>
        <time>2021-10-24T13:15:20Z</time>
      </trkpt>
      <trkpt lat="44.00564" lon="1.76059">
        <ele>339.8</ele>
        <time>2021-10-24T13:15:21Z</time>
      </trkpt>
      <trkpt lat="44.00567" lon="1.7606">
        <ele>339.8</ele>
        <time>2021-10-24T13:15:22Z</time>
      </trkpt>
      <trkpt lat="44.00572" lon="1.76061">
        <ele>340</ele>
        <time>2021-10-24T13:15:23Z</time>
      </trkpt>
      <trkpt lat="44.00574" lon="1.76061">
        <ele>340.2</ele>
        <time>2021-10-24T13:15:24Z</time>
      </trkpt>
      <trkpt lat="44.00576" lon="1.76061">
        <ele>340.4</ele>
        <time>2021-10-24T13:15:25Z</time>
      </trkpt>
      <trkpt lat="44.00579" lon="1.76062">
        <ele>340.4</ele>
        <time>2021-10-24T13:15:26Z</time>
      </trkpt>
      <trkpt lat="44.00581" lon="1.76063">
        <ele>340.6</ele>
        <time>2021-10-24T13:15:27Z</time>
      </trkpt>
      <trkpt lat="44.00584" lon="1.76064">
        <ele>340.8</ele>
        <time>2021-10-24T13:15:28Z</time>
      </trkpt>
      <trkpt lat="44.00588" lon="1.76064">
        <ele>341</ele>
        <time>2021-10-24T13:15:29Z</time>
      </trkpt>
      <trkpt lat="44.00598" lon="1.76065">
        <ele>341.6</ele>
        <time>2021-10-24T13:15:31Z</time>
      </trkpt>
      <trkpt lat="44.00601" lon="1.76066">
        <ele>341.8</ele>
        <time>2021-10-24T13:15:32Z</time>
      </trkpt>
      <trkpt lat="44.00603" lon="1.76067">
        <ele>342</ele>
        <time>2021-10-24T13:15:33Z</time>
      </trkpt>
      <trkpt lat="44.00611" lon="1.76069">
        <ele>342.8</ele>
        <time>2021-10-24T13:15:36Z</time>
      </trkpt>
      <trkpt lat="44.00613" lon="1.76069">
        <ele>343</ele>
        <time>2021-10-24T13:15:37Z</time>
      </trkpt>
      <trkpt lat="44.00618" lon="1.76073">
        <ele>343.2</ele>
        <time>2021-10-24T13:15:39Z</time>
      </trkpt>
      <trkpt lat="44.0062" lon="1.76073">
        <ele>343.4</ele>
        <time>2021-10-24T13:15:40Z</time>
      </trkpt>
      <trkpt lat="44.00622" lon="1.76075">
        <ele>343.8</ele>
        <time>2021-10-24T13:15:41Z</time>
      </trkpt>
      <trkpt lat="44.00624" lon="1.76076">
        <ele>343.8</ele>
        <time>2021-10-24T13:15:42Z</time>
      </trkpt>
      <trkpt lat="44.00625" lon="1.76078">
        <ele>344</ele>
        <time>2021-10-24T13:15:43Z</time>
      </trkpt>
      <trkpt lat="44.00627" lon="1.76079">
        <ele>344</ele>
        <time>2021-10-24T13:15:44Z</time>
      </trkpt>
      <trkpt lat="44.00629" lon="1.76081">
        <ele>344.2</ele>
        <time>2021-10-24T13:15:45Z</time>
      </trkpt>
      <trkpt lat="44.00631" lon="1.76084">
        <ele>344.2</ele>
        <time>2021-10-24T13:15:46Z</time>
      </trkpt>
      <trkpt lat="44.00633" lon="1.76086">
        <ele>344.4</ele>
        <time>2021-10-24T13:15:47Z</time>
      </trkpt>
      <trkpt lat="44.00635" lon="1.76088">
        <ele>344.6</ele>
        <time>2021-10-24T13:15:48Z</time>
      </trkpt>
      <trkpt lat="44.00637" lon="1.7609">
        <ele>344.8</ele>
        <time>2021-10-24T13:15:49Z</time>
      </trkpt>
      <trkpt lat="44.00639" lon="1.76092">
        <ele>345</ele>
        <time>2021-10-24T13:15:50Z</time>
      </trkpt>
      <trkpt lat="44.0064" lon="1.76094">
        <ele>345.2</ele>
        <time>2021-10-24T13:15:51Z</time>
      </trkpt>
      <trkpt lat="44.00642" lon="1.76096">
        <ele>345.4</ele>
        <time>2021-10-24T13:15:52Z</time>
      </trkpt>
      <trkpt lat="44.00645" lon="1.76099">
        <ele>345.4</ele>
        <time>2021-10-24T13:15:53Z</time>
      </trkpt>
      <trkpt lat="44.00647" lon="1.76101">
        <ele>345.6</ele>
        <time>2021-10-24T13:15:54Z</time>
      </trkpt>
      <trkpt lat="44.00649" lon="1.76102">
        <ele>345.6</ele>
        <time>2021-10-24T13:15:55Z</time>
      </trkpt>
      <trkpt lat="44.0065" lon="1.76105">
        <ele>345.8</ele>
        <time>2021-10-24T13:15:56Z</time>
      </trkpt>
      <trkpt lat="44.00652" lon="1.76108">
        <ele>346</ele>
        <time>2021-10-24T13:15:57Z</time>
      </trkpt>
      <trkpt lat="44.00654" lon="1.76111">
        <ele>346</ele>
        <time>2021-10-24T13:15:58Z</time>
      </trkpt>
      <trkpt lat="44.00656" lon="1.76113">
        <ele>346.2</ele>
        <time>2021-10-24T13:15:59Z</time>
      </trkpt>
      <trkpt lat="44.00658" lon="1.76116">
        <ele>346.2</ele>
        <time>2021-10-24T13:16:00Z</time>
      </trkpt>
      <trkpt lat="44.00659" lon="1.76118">
        <ele>346.4</ele>
        <time>2021-10-24T13:16:01Z</time>
      </trkpt>
      <trkpt lat="44.00661" lon="1.76121">
        <ele>346.6</ele>
        <time>2021-10-24T13:16:02Z</time>
      </trkpt>
      <trkpt lat="44.00663" lon="1.76122">
        <ele>346.6</ele>
        <time>2021-10-24T13:16:03Z</time>
      </trkpt>
      <trkpt lat="44.00665" lon="1.76124">
        <ele>346.8</ele>
        <time>2021-10-24T13:16:04Z</time>
      </trkpt>
      <trkpt lat="44.00667" lon="1.76126">
        <ele>347</ele>
        <time>2021-10-24T13:16:05Z</time>
      </trkpt>
      <trkpt lat="44.00669" lon="1.76128">
        <ele>347.2</ele>
        <time>2021-10-24T13:16:06Z</time>
      </trkpt>
      <trkpt lat="44.0067" lon="1.76129">
        <ele>347.4</ele>
        <time>2021-10-24T13:16:07Z</time>
      </trkpt>
      <trkpt lat="44.00672" lon="1.76132">
        <ele>347.8</ele>
        <time>2021-10-24T13:16:08Z</time>
      </trkpt>
      <trkpt lat="44.00674" lon="1.76134">
        <ele>347.8</ele>
        <time>2021-10-24T13:16:09Z</time>
      </trkpt>
      <trkpt lat="44.00676" lon="1.76137">
        <ele>348</ele>
        <time>2021-10-24T13:16:10Z</time>
      </trkpt>
      <trkpt lat="44.00678" lon="1.76139">
        <ele>348.2</ele>
        <time>2021-10-24T13:16:11Z</time>
      </trkpt>
      <trkpt lat="44.0068" lon="1.76142">
        <ele>348.4</ele>
        <time>2021-10-24T13:16:12Z</time>
      </trkpt>
      <trkpt lat="44.00683" lon="1.76145">
        <ele>348.4</ele>
        <time>2021-10-24T13:16:13Z</time>
      </trkpt>
      <trkpt lat="44.00685" lon="1.76147">
        <ele>348.6</ele>
        <time>2021-10-24T13:16:14Z</time>
      </trkpt>
      <trkpt lat="44.00687" lon="1.76149">
        <ele>348.8</ele>
        <time>2021-10-24T13:16:15Z</time>
      </trkpt>
      <trkpt lat="44.0069" lon="1.76151">
        <ele>348.8</ele>
        <time>2021-10-24T13:16:16Z</time>
      </trkpt>
      <trkpt lat="44.00692" lon="1.76153">
        <ele>348.8</ele>
        <time>2021-10-24T13:16:17Z</time>
      </trkpt>
      <trkpt lat="44.00694" lon="1.76156">
        <ele>348.8</ele>
        <time>2021-10-24T13:16:18Z</time>
      </trkpt>
      <trkpt lat="44.00698" lon="1.7616">
        <ele>348.8</ele>
        <time>2021-10-24T13:16:19Z</time>
      </trkpt>
      <trkpt lat="44.00701" lon="1.76163">
        <ele>348.8</ele>
        <time>2021-10-24T13:16:20Z</time>
      </trkpt>
      <trkpt lat="44.00705" lon="1.76164">
        <ele>348.8</ele>
        <time>2021-10-24T13:16:21Z</time>
      </trkpt>
      <trkpt lat="44.00708" lon="1.76167">
        <ele>348.8</ele>
        <time>2021-10-24T13:16:22Z</time>
      </trkpt>
      <trkpt lat="44.00711" lon="1.7617">
        <ele>348.8</ele>
        <time>2021-10-24T13:16:23Z</time>
      </trkpt>
      <trkpt lat="44.00714" lon="1.76173">
        <ele>348.8</ele>
        <time>2021-10-24T13:16:24Z</time>
      </trkpt>
      <trkpt lat="44.00718" lon="1.76175">
        <ele>348.6</ele>
        <time>2021-10-24T13:16:25Z</time>
      </trkpt>
      <trkpt lat="44.00721" lon="1.76177">
        <ele>348.6</ele>
        <time>2021-10-24T13:16:26Z</time>
      </trkpt>
      <trkpt lat="44.00724" lon="1.7618">
        <ele>348.4</ele>
        <time>2021-10-24T13:16:27Z</time>
      </trkpt>
      <trkpt lat="44.00726" lon="1.76182">
        <ele>348.4</ele>
        <time>2021-10-24T13:16:28Z</time>
      </trkpt>
      <trkpt lat="44.00738" lon="1.76191">
        <ele>348.2</ele>
        <time>2021-10-24T13:16:32Z</time>
      </trkpt>
      <trkpt lat="44.00758" lon="1.76208">
        <ele>347.6</ele>
        <time>2021-10-24T13:16:39Z</time>
      </trkpt>
      <trkpt lat="44.00761" lon="1.7621">
        <ele>347.4</ele>
        <time>2021-10-24T13:16:40Z</time>
      </trkpt>
      <trkpt lat="44.00769" lon="1.76213">
        <ele>347</ele>
        <time>2021-10-24T13:16:42Z</time>
      </trkpt>
      <trkpt lat="44.00781" lon="1.76216">
        <ele>345.8</ele>
        <time>2021-10-24T13:16:45Z</time>
      </trkpt>
      <trkpt lat="44.00797" lon="1.76216">
        <ele>344.6</ele>
        <time>2021-10-24T13:16:48Z</time>
      </trkpt>
      <trkpt lat="44.00807" lon="1.76216">
        <ele>344.2</ele>
        <time>2021-10-24T13:16:50Z</time>
      </trkpt>
      <trkpt lat="44.00819" lon="1.76216">
        <ele>343.4</ele>
        <time>2021-10-24T13:16:52Z</time>
      </trkpt>
      <trkpt lat="44.00832" lon="1.76213">
        <ele>342.8</ele>
        <time>2021-10-24T13:16:54Z</time>
      </trkpt>
      <trkpt lat="44.00842" lon="1.76209">
        <ele>342</ele>
        <time>2021-10-24T13:16:56Z</time>
      </trkpt>
      <trkpt lat="44.00847" lon="1.76208">
        <ele>342</ele>
        <time>2021-10-24T13:16:57Z</time>
      </trkpt>
      <trkpt lat="44.00853" lon="1.76205">
        <ele>341.8</ele>
        <time>2021-10-24T13:16:58Z</time>
      </trkpt>
      <trkpt lat="44.00858" lon="1.76203">
        <ele>341.4</ele>
        <time>2021-10-24T13:16:59Z</time>
      </trkpt>
      <trkpt lat="44.00863" lon="1.762">
        <ele>341.4</ele>
        <time>2021-10-24T13:17:00Z</time>
      </trkpt>
      <trkpt lat="44.00868" lon="1.76198">
        <ele>341</ele>
        <time>2021-10-24T13:17:01Z</time>
      </trkpt>
      <trkpt lat="44.00872" lon="1.76195">
        <ele>341</ele>
        <time>2021-10-24T13:17:02Z</time>
      </trkpt>
      <trkpt lat="44.00875" lon="1.76193">
        <ele>340.8</ele>
        <time>2021-10-24T13:17:03Z</time>
      </trkpt>
      <trkpt lat="44.00886" lon="1.76186">
        <ele>340.8</ele>
        <time>2021-10-24T13:17:06Z</time>
      </trkpt>
      <trkpt lat="44.0089" lon="1.76183">
        <ele>340.4</ele>
        <time>2021-10-24T13:17:07Z</time>
      </trkpt>
      <trkpt lat="44.00895" lon="1.7618">
        <ele>340.8</ele>
        <time>2021-10-24T13:17:08Z</time>
      </trkpt>
      <trkpt lat="44.009" lon="1.76177">
        <ele>340.8</ele>
        <time>2021-10-24T13:17:09Z</time>
      </trkpt>
      <trkpt lat="44.00904" lon="1.76173">
        <ele>340.8</ele>
        <time>2021-10-24T13:17:10Z</time>
      </trkpt>
      <trkpt lat="44.00908" lon="1.76169">
        <ele>340.8</ele>
        <time>2021-10-24T13:17:11Z</time>
      </trkpt>
      <trkpt lat="44.00913" lon="1.76165">
        <ele>340.8</ele>
        <time>2021-10-24T13:17:12Z</time>
      </trkpt>
      <trkpt lat="44.00916" lon="1.7616">
        <ele>341</ele>
        <time>2021-10-24T13:17:13Z</time>
      </trkpt>
      <trkpt lat="44.0092" lon="1.76152">
        <ele>341.2</ele>
        <time>2021-10-24T13:17:15Z</time>
      </trkpt>
      <trkpt lat="44.00933" lon="1.76124">
        <ele>341.2</ele>
        <time>2021-10-24T13:17:21Z</time>
      </trkpt>
      <trkpt lat="44.00934" lon="1.76119">
        <ele>341.4</ele>
        <time>2021-10-24T13:17:22Z</time>
      </trkpt>
      <trkpt lat="44.00939" lon="1.76108">
        <ele>341.2</ele>
        <time>2021-10-24T13:17:25Z</time>
      </trkpt>
      <trkpt lat="44.00941" lon="1.76104">
        <ele>341</ele>
        <time>2021-10-24T13:17:26Z</time>
      </trkpt>
      <trkpt lat="44.00943" lon="1.761">
        <ele>340.8</ele>
        <time>2021-10-24T13:17:27Z</time>
      </trkpt>
      <trkpt lat="44.00945" lon="1.76096">
        <ele>340.6</ele>
        <time>2021-10-24T13:17:28Z</time>
      </trkpt>
      <trkpt lat="44.00947" lon="1.76092">
        <ele>340.6</ele>
        <time>2021-10-24T13:17:29Z</time>
      </trkpt>
      <trkpt lat="44.00956" lon="1.76074">
        <ele>340</ele>
        <time>2021-10-24T13:17:33Z</time>
      </trkpt>
      <trkpt lat="44.00958" lon="1.7607">
        <ele>339.8</ele>
        <time>2021-10-24T13:17:34Z</time>
      </trkpt>
      <trkpt lat="44.00959" lon="1.76066">
        <ele>339.6</ele>
        <time>2021-10-24T13:17:35Z</time>
      </trkpt>
      <trkpt lat="44.00962" lon="1.76062">
        <ele>339.6</ele>
        <time>2021-10-24T13:17:36Z</time>
      </trkpt>
      <trkpt lat="44.00964" lon="1.76057">
        <ele>339.4</ele>
        <time>2021-10-24T13:17:37Z</time>
      </trkpt>
      <trkpt lat="44.00969" lon="1.7605">
        <ele>338.8</ele>
        <time>2021-10-24T13:17:39Z</time>
      </trkpt>
      <trkpt lat="44.00969" lon="1.76049">
        <ele>338.4</ele>
        <time>2021-10-24T13:17:40Z</time>
      </trkpt>
      <trkpt lat="44.00971" lon="1.76047">
        <ele>336</ele>
        <time>2021-10-24T13:20:17Z</time>
      </trkpt>
      <trkpt lat="44.00979" lon="1.76038">
        <ele>335.6</ele>
        <time>2021-10-24T13:20:23Z</time>
      </trkpt>
      <trkpt lat="44.00981" lon="1.76037">
        <ele>335.4</ele>
        <time>2021-10-24T13:20:24Z</time>
      </trkpt>
      <trkpt lat="44.00984" lon="1.76034">
        <ele>335</ele>
        <time>2021-10-24T13:20:26Z</time>
      </trkpt>
      <trkpt lat="44.00994" lon="1.76029">
        <ele>334</ele>
        <time>2021-10-24T13:20:30Z</time>
      </trkpt>
      <trkpt lat="44.01" lon="1.76027">
        <ele>333.6</ele>
        <time>2021-10-24T13:20:32Z</time>
      </trkpt>
      <trkpt lat="44.01014" lon="1.76029">
        <ele>332.2</ele>
        <time>2021-10-24T13:20:36Z</time>
      </trkpt>
      <trkpt lat="44.01017" lon="1.76031">
        <ele>331.8</ele>
        <time>2021-10-24T13:20:37Z</time>
      </trkpt>
      <trkpt lat="44.0102" lon="1.76034">
        <ele>331.6</ele>
        <time>2021-10-24T13:20:38Z</time>
      </trkpt>
      <trkpt lat="44.01022" lon="1.76038">
        <ele>331.2</ele>
        <time>2021-10-24T13:20:39Z</time>
      </trkpt>
      <trkpt lat="44.01024" lon="1.76043">
        <ele>331</ele>
        <time>2021-10-24T13:20:40Z</time>
      </trkpt>
      <trkpt lat="44.01026" lon="1.76047">
        <ele>330.6</ele>
        <time>2021-10-24T13:20:41Z</time>
      </trkpt>
      <trkpt lat="44.01026" lon="1.76052">
        <ele>330.4</ele>
        <time>2021-10-24T13:20:42Z</time>
      </trkpt>
      <trkpt lat="44.01026" lon="1.76058">
        <ele>330</ele>
        <time>2021-10-24T13:20:43Z</time>
      </trkpt>
      <trkpt lat="44.01026" lon="1.76063">
        <ele>329.4</ele>
        <time>2021-10-24T13:20:44Z</time>
      </trkpt>
      <trkpt lat="44.01025" lon="1.76069">
        <ele>329.2</ele>
        <time>2021-10-24T13:20:45Z</time>
      </trkpt>
      <trkpt lat="44.01024" lon="1.76074">
        <ele>328.6</ele>
        <time>2021-10-24T13:20:46Z</time>
      </trkpt>
      <trkpt lat="44.0102" lon="1.76091">
        <ele>328</ele>
        <time>2021-10-24T13:20:49Z</time>
      </trkpt>
      <trkpt lat="44.01018" lon="1.76096">
        <ele>327.6</ele>
        <time>2021-10-24T13:20:50Z</time>
      </trkpt>
      <trkpt lat="44.01017" lon="1.76102">
        <ele>327.4</ele>
        <time>2021-10-24T13:20:51Z</time>
      </trkpt>
      <trkpt lat="44.01015" lon="1.76114">
        <ele>326.6</ele>
        <time>2021-10-24T13:20:53Z</time>
      </trkpt>
      <trkpt lat="44.01009" lon="1.76139">
        <ele>325</ele>
        <time>2021-10-24T13:20:57Z</time>
      </trkpt>
      <trkpt lat="44.01008" lon="1.76146">
        <ele>324.8</ele>
        <time>2021-10-24T13:20:58Z</time>
      </trkpt>
      <trkpt lat="44.01006" lon="1.7616">
        <ele>323.4</ele>
        <time>2021-10-24T13:21:00Z</time>
      </trkpt>
      <trkpt lat="44.01003" lon="1.76175">
        <ele>322.2</ele>
        <time>2021-10-24T13:21:02Z</time>
      </trkpt>
      <trkpt lat="44.01001" lon="1.76182">
        <ele>321.8</ele>
        <time>2021-10-24T13:21:03Z</time>
      </trkpt>
      <trkpt lat="44.00999" lon="1.76189">
        <ele>321.4</ele>
        <time>2021-10-24T13:21:04Z</time>
      </trkpt>
      <trkpt lat="44.00995" lon="1.76202">
        <ele>321</ele>
        <time>2021-10-24T13:21:06Z</time>
      </trkpt>
      <trkpt lat="44.00989" lon="1.76224">
        <ele>320</ele>
        <time>2021-10-24T13:21:09Z</time>
      </trkpt>
      <trkpt lat="44.00985" lon="1.76238">
        <ele>318.8</ele>
        <time>2021-10-24T13:21:11Z</time>
      </trkpt>
      <trkpt lat="44.00982" lon="1.76244">
        <ele>318.6</ele>
        <time>2021-10-24T13:21:12Z</time>
      </trkpt>
      <trkpt lat="44.0098" lon="1.76251">
        <ele>318.2</ele>
        <time>2021-10-24T13:21:13Z</time>
      </trkpt>
      <trkpt lat="44.00978" lon="1.76257">
        <ele>318.2</ele>
        <time>2021-10-24T13:21:14Z</time>
      </trkpt>
      <trkpt lat="44.00972" lon="1.7627">
        <ele>317.6</ele>
        <time>2021-10-24T13:21:16Z</time>
      </trkpt>
      <trkpt lat="44.00962" lon="1.76298">
        <ele>317</ele>
        <time>2021-10-24T13:21:20Z</time>
      </trkpt>
      <trkpt lat="44.00959" lon="1.76304">
        <ele>316.8</ele>
        <time>2021-10-24T13:21:21Z</time>
      </trkpt>
      <trkpt lat="44.00957" lon="1.7631">
        <ele>316.4</ele>
        <time>2021-10-24T13:21:22Z</time>
      </trkpt>
      <trkpt lat="44.00954" lon="1.76317">
        <ele>316.4</ele>
        <time>2021-10-24T13:21:23Z</time>
      </trkpt>
      <trkpt lat="44.00953" lon="1.76332">
        <ele>316.2</ele>
        <time>2021-10-24T13:21:25Z</time>
      </trkpt>
      <trkpt lat="44.00954" lon="1.76347">
        <ele>316</ele>
        <time>2021-10-24T13:21:27Z</time>
      </trkpt>
      <trkpt lat="44.00956" lon="1.76353">
        <ele>316</ele>
        <time>2021-10-24T13:21:28Z</time>
      </trkpt>
      <trkpt lat="44.00957" lon="1.7636">
        <ele>315.8</ele>
        <time>2021-10-24T13:21:29Z</time>
      </trkpt>
      <trkpt lat="44.00959" lon="1.76366">
        <ele>315.6</ele>
        <time>2021-10-24T13:21:30Z</time>
      </trkpt>
      <trkpt lat="44.00962" lon="1.76373">
        <ele>315.2</ele>
        <time>2021-10-24T13:21:31Z</time>
      </trkpt>
      <trkpt lat="44.00964" lon="1.76379">
        <ele>315</ele>
        <time>2021-10-24T13:21:32Z</time>
      </trkpt>
      <trkpt lat="44.00966" lon="1.76386">
        <ele>315.2</ele>
        <time>2021-10-24T13:21:33Z</time>
      </trkpt>
      <trkpt lat="44.00976" lon="1.76418">
        <ele>314.2</ele>
        <time>2021-10-24T13:21:38Z</time>
      </trkpt>
      <trkpt lat="44.00978" lon="1.76424">
        <ele>314</ele>
        <time>2021-10-24T13:21:39Z</time>
      </trkpt>
      <trkpt lat="44.0098" lon="1.7643">
        <ele>313.8</ele>
        <time>2021-10-24T13:21:40Z</time>
      </trkpt>
      <trkpt lat="44.00982" lon="1.76436">
        <ele>313.4</ele>
        <time>2021-10-24T13:21:41Z</time>
      </trkpt>
      <trkpt lat="44.00984" lon="1.76443">
        <ele>313.2</ele>
        <time>2021-10-24T13:21:42Z</time>
      </trkpt>
      <trkpt lat="44.00987" lon="1.76449">
        <ele>313</ele>
        <time>2021-10-24T13:21:43Z</time>
      </trkpt>
      <trkpt lat="44.00994" lon="1.76472">
        <ele>312.6</ele>
        <time>2021-10-24T13:21:47Z</time>
      </trkpt>
      <trkpt lat="44.00996" lon="1.76478">
        <ele>312.4</ele>
        <time>2021-10-24T13:21:48Z</time>
      </trkpt>
      <trkpt lat="44.00997" lon="1.76484">
        <ele>312.2</ele>
        <time>2021-10-24T13:21:49Z</time>
      </trkpt>
      <trkpt lat="44.00999" lon="1.7649">
        <ele>311.8</ele>
        <time>2021-10-24T13:21:50Z</time>
      </trkpt>
      <trkpt lat="44.01001" lon="1.76496">
        <ele>311.6</ele>
        <time>2021-10-24T13:21:51Z</time>
      </trkpt>
      <trkpt lat="44.01003" lon="1.76501">
        <ele>311.6</ele>
        <time>2021-10-24T13:21:52Z</time>
      </trkpt>
      <trkpt lat="44.01004" lon="1.76506">
        <ele>311.4</ele>
        <time>2021-10-24T13:21:53Z</time>
      </trkpt>
      <trkpt lat="44.01005" lon="1.76512">
        <ele>311.4</ele>
        <time>2021-10-24T13:21:54Z</time>
      </trkpt>
      <trkpt lat="44.01007" lon="1.76517">
        <ele>311.2</ele>
        <time>2021-10-24T13:21:55Z</time>
      </trkpt>
      <trkpt lat="44.01009" lon="1.76523">
        <ele>311.2</ele>
        <time>2021-10-24T13:21:56Z</time>
      </trkpt>
      <trkpt lat="44.01014" lon="1.76539">
        <ele>311</ele>
        <time>2021-10-24T13:21:59Z</time>
      </trkpt>
      <trkpt lat="44.01024" lon="1.76565">
        <ele>311</ele>
        <time>2021-10-24T13:22:04Z</time>
      </trkpt>
      <trkpt lat="44.01027" lon="1.76575">
        <ele>310.8</ele>
        <time>2021-10-24T13:22:06Z</time>
      </trkpt>
      <trkpt lat="44.01031" lon="1.76591">
        <ele>310.8</ele>
        <time>2021-10-24T13:22:09Z</time>
      </trkpt>
      <trkpt lat="44.01032" lon="1.76598">
        <ele>310.6</ele>
        <time>2021-10-24T13:22:10Z</time>
      </trkpt>
      <trkpt lat="44.01033" lon="1.7661">
        <ele>310.6</ele>
        <time>2021-10-24T13:22:12Z</time>
      </trkpt>
      <trkpt lat="44.01033" lon="1.76623">
        <ele>310.4</ele>
        <time>2021-10-24T13:22:14Z</time>
      </trkpt>
      <trkpt lat="44.01033" lon="1.76629">
        <ele>310.2</ele>
        <time>2021-10-24T13:22:15Z</time>
      </trkpt>
      <trkpt lat="44.01033" lon="1.76634">
        <ele>310.2</ele>
        <time>2021-10-24T13:22:16Z</time>
      </trkpt>
      <trkpt lat="44.01033" lon="1.7664">
        <ele>310.2</ele>
        <time>2021-10-24T13:22:17Z</time>
      </trkpt>
      <trkpt lat="44.01033" lon="1.76646">
        <ele>310.2</ele>
        <time>2021-10-24T13:22:18Z</time>
      </trkpt>
      <trkpt lat="44.01033" lon="1.76651">
        <ele>310.2</ele>
        <time>2021-10-24T13:22:19Z</time>
      </trkpt>
      <trkpt lat="44.01034" lon="1.76661">
        <ele>310.2</ele>
        <time>2021-10-24T13:22:21Z</time>
      </trkpt>
      <trkpt lat="44.01035" lon="1.76672">
        <ele>310.2</ele>
        <time>2021-10-24T13:22:23Z</time>
      </trkpt>
      <trkpt lat="44.01036" lon="1.76677">
        <ele>310</ele>
        <time>2021-10-24T13:22:24Z</time>
      </trkpt>
      <trkpt lat="44.01037" lon="1.76681">
        <ele>310</ele>
        <time>2021-10-24T13:22:25Z</time>
      </trkpt>
      <trkpt lat="44.01038" lon="1.76686">
        <ele>310</ele>
        <time>2021-10-24T13:22:26Z</time>
      </trkpt>
      <trkpt lat="44.01039" lon="1.76691">
        <ele>310</ele>
        <time>2021-10-24T13:22:27Z</time>
      </trkpt>
      <trkpt lat="44.01043" lon="1.767">
        <ele>310</ele>
        <time>2021-10-24T13:22:29Z</time>
      </trkpt>
      <trkpt lat="44.01044" lon="1.76703">
        <ele>310</ele>
        <time>2021-10-24T13:22:30Z</time>
      </trkpt>
      <trkpt lat="44.01057" lon="1.76722">
        <ele>310</ele>
        <time>2021-10-24T13:22:35Z</time>
      </trkpt>
      <trkpt lat="44.01061" lon="1.76732">
        <ele>310</ele>
        <time>2021-10-24T13:22:37Z</time>
      </trkpt>
      <trkpt lat="44.01062" lon="1.76737">
        <ele>310</ele>
        <time>2021-10-24T13:22:38Z</time>
      </trkpt>
      <trkpt lat="44.01065" lon="1.76755">
        <ele>310</ele>
        <time>2021-10-24T13:22:41Z</time>
      </trkpt>
      <trkpt lat="44.01066" lon="1.7676">
        <ele>310</ele>
        <time>2021-10-24T13:22:42Z</time>
      </trkpt>
      <trkpt lat="44.01066" lon="1.76766">
        <ele>310</ele>
        <time>2021-10-24T13:22:43Z</time>
      </trkpt>
      <trkpt lat="44.01067" lon="1.76781">
        <ele>309.8</ele>
        <time>2021-10-24T13:22:46Z</time>
      </trkpt>
      <trkpt lat="44.01067" lon="1.76787">
        <ele>309.8</ele>
        <time>2021-10-24T13:22:47Z</time>
      </trkpt>
      <trkpt lat="44.01067" lon="1.76792">
        <ele>309.6</ele>
        <time>2021-10-24T13:22:48Z</time>
      </trkpt>
      <trkpt lat="44.01066" lon="1.76798">
        <ele>309.6</ele>
        <time>2021-10-24T13:22:49Z</time>
      </trkpt>
      <trkpt lat="44.01056" lon="1.76826">
        <ele>309.2</ele>
        <time>2021-10-24T13:22:54Z</time>
      </trkpt>
      <trkpt lat="44.01051" lon="1.76837">
        <ele>309</ele>
        <time>2021-10-24T13:22:56Z</time>
      </trkpt>
      <trkpt lat="44.01048" lon="1.76843">
        <ele>308.8</ele>
        <time>2021-10-24T13:22:57Z</time>
      </trkpt>
      <trkpt lat="44.01045" lon="1.76849">
        <ele>308.8</ele>
        <time>2021-10-24T13:22:58Z</time>
      </trkpt>
      <trkpt lat="44.01043" lon="1.76855">
        <ele>308.6</ele>
        <time>2021-10-24T13:22:59Z</time>
      </trkpt>
      <trkpt lat="44.0104" lon="1.7686">
        <ele>308.6</ele>
        <time>2021-10-24T13:23:00Z</time>
      </trkpt>
      <trkpt lat="44.01038" lon="1.76865">
        <ele>308.4</ele>
        <time>2021-10-24T13:23:01Z</time>
      </trkpt>
      <trkpt lat="44.01036" lon="1.76871">
        <ele>308.4</ele>
        <time>2021-10-24T13:23:02Z</time>
      </trkpt>
      <trkpt lat="44.01033" lon="1.76877">
        <ele>308.4</ele>
        <time>2021-10-24T13:23:03Z</time>
      </trkpt>
      <trkpt lat="44.01031" lon="1.76883">
        <ele>308.2</ele>
        <time>2021-10-24T13:23:04Z</time>
      </trkpt>
      <trkpt lat="44.01029" lon="1.76888">
        <ele>308.2</ele>
        <time>2021-10-24T13:23:05Z</time>
      </trkpt>
      <trkpt lat="44.01027" lon="1.76894">
        <ele>308.2</ele>
        <time>2021-10-24T13:23:06Z</time>
      </trkpt>
      <trkpt lat="44.01025" lon="1.76899">
        <ele>308</ele>
        <time>2021-10-24T13:23:07Z</time>
      </trkpt>
      <trkpt lat="44.01023" lon="1.76906">
        <ele>308</ele>
        <time>2021-10-24T13:23:08Z</time>
      </trkpt>
      <trkpt lat="44.01023" lon="1.7691">
        <ele>308</ele>
        <time>2021-10-24T13:23:09Z</time>
      </trkpt>
      <trkpt lat="44.01022" lon="1.76915">
        <ele>308</ele>
        <time>2021-10-24T13:23:10Z</time>
      </trkpt>
      <trkpt lat="44.01018" lon="1.76924">
        <ele>308</ele>
        <time>2021-10-24T13:23:12Z</time>
      </trkpt>
      <trkpt lat="44.01014" lon="1.76939">
        <ele>308</ele>
        <time>2021-10-24T13:23:15Z</time>
      </trkpt>
      <trkpt lat="44.01013" lon="1.76944">
        <ele>308</ele>
        <time>2021-10-24T13:23:16Z</time>
      </trkpt>
      <trkpt lat="44.01012" lon="1.76949">
        <ele>308</ele>
        <time>2021-10-24T13:23:17Z</time>
      </trkpt>
      <trkpt lat="44.01012" lon="1.76954">
        <ele>308</ele>
        <time>2021-10-24T13:23:18Z</time>
      </trkpt>
      <trkpt lat="44.01012" lon="1.76959">
        <ele>308</ele>
        <time>2021-10-24T13:23:19Z</time>
      </trkpt>
      <trkpt lat="44.01011" lon="1.76963">
        <ele>308</ele>
        <time>2021-10-24T13:23:20Z</time>
      </trkpt>
      <trkpt lat="44.01011" lon="1.76966">
        <ele>308</ele>
        <time>2021-10-24T13:23:21Z</time>
      </trkpt>
      <trkpt lat="44.01011" lon="1.76969">
        <ele>307.8</ele>
        <time>2021-10-24T13:23:22Z</time>
      </trkpt>
      <trkpt lat="44.0101" lon="1.76972">
        <ele>307.8</ele>
        <time>2021-10-24T13:23:23Z</time>
      </trkpt>
      <trkpt lat="44.0101" lon="1.76974">
        <ele>307.6</ele>
        <time>2021-10-24T13:23:24Z</time>
      </trkpt>
      <trkpt lat="44.01009" lon="1.76977">
        <ele>307.6</ele>
        <time>2021-10-24T13:23:25Z</time>
      </trkpt>
      <trkpt lat="44.01009" lon="1.7698">
        <ele>307.4</ele>
        <time>2021-10-24T13:23:26Z</time>
      </trkpt>
      <trkpt lat="44.01009" lon="1.76982">
        <ele>307.4</ele>
        <time>2021-10-24T13:23:27Z</time>
      </trkpt>
      <trkpt lat="44.01007" lon="1.76991">
        <ele>307.2</ele>
        <time>2021-10-24T13:23:30Z</time>
      </trkpt>
      <trkpt lat="44.00998" lon="1.77017">
        <ele>307.2</ele>
        <time>2021-10-24T13:23:37Z</time>
      </trkpt>
      <trkpt lat="44.00987" lon="1.77043">
        <ele>306.8</ele>
        <time>2021-10-24T13:23:43Z</time>
      </trkpt>
      <trkpt lat="44.00962" lon="1.77075">
        <ele>306</ele>
        <time>2021-10-24T13:23:51Z</time>
      </trkpt>
      <trkpt lat="44.00951" lon="1.77083">
        <ele>305.8</ele>
        <time>2021-10-24T13:23:54Z</time>
      </trkpt>
      <trkpt lat="44.00943" lon="1.77087">
        <ele>305.6</ele>
        <time>2021-10-24T13:23:56Z</time>
      </trkpt>
      <trkpt lat="44.00938" lon="1.77089">
        <ele>305.6</ele>
        <time>2021-10-24T13:23:57Z</time>
      </trkpt>
      <trkpt lat="44.00934" lon="1.77091">
        <ele>305.4</ele>
        <time>2021-10-24T13:23:58Z</time>
      </trkpt>
      <trkpt lat="44.00912" lon="1.77097">
        <ele>304.6</ele>
        <time>2021-10-24T13:24:03Z</time>
      </trkpt>
      <trkpt lat="44.00893" lon="1.77101">
        <ele>304.2</ele>
        <time>2021-10-24T13:24:07Z</time>
      </trkpt>
      <trkpt lat="44.00868" lon="1.77106">
        <ele>303.6</ele>
        <time>2021-10-24T13:24:12Z</time>
      </trkpt>
      <trkpt lat="44.00863" lon="1.77107">
        <ele>303.6</ele>
        <time>2021-10-24T13:24:13Z</time>
      </trkpt>
      <trkpt lat="44.00859" lon="1.77108">
        <ele>303.4</ele>
        <time>2021-10-24T13:24:14Z</time>
      </trkpt>
      <trkpt lat="44.00854" lon="1.77109">
        <ele>303.4</ele>
        <time>2021-10-24T13:24:15Z</time>
      </trkpt>
      <trkpt lat="44.00851" lon="1.7711">
        <ele>303.2</ele>
        <time>2021-10-24T13:24:16Z</time>
      </trkpt>
      <trkpt lat="44.00847" lon="1.77112">
        <ele>303</ele>
        <time>2021-10-24T13:24:17Z</time>
      </trkpt>
      <trkpt lat="44.00842" lon="1.77115">
        <ele>303</ele>
        <time>2021-10-24T13:24:18Z</time>
      </trkpt>
      <trkpt lat="44.00838" lon="1.77117">
        <ele>302.8</ele>
        <time>2021-10-24T13:24:19Z</time>
      </trkpt>
      <trkpt lat="44.00834" lon="1.77119">
        <ele>302.8</ele>
        <time>2021-10-24T13:24:20Z</time>
      </trkpt>
      <trkpt lat="44.00829" lon="1.77122">
        <ele>302.8</ele>
        <time>2021-10-24T13:24:21Z</time>
      </trkpt>
      <trkpt lat="44.00822" lon="1.7713">
        <ele>302.8</ele>
        <time>2021-10-24T13:24:23Z</time>
      </trkpt>
      <trkpt lat="44.00816" lon="1.7714">
        <ele>302.6</ele>
        <time>2021-10-24T13:24:25Z</time>
      </trkpt>
      <trkpt lat="44.00813" lon="1.77145">
        <ele>302.6</ele>
        <time>2021-10-24T13:24:26Z</time>
      </trkpt>
      <trkpt lat="44.0081" lon="1.7715">
        <ele>302.6</ele>
        <time>2021-10-24T13:24:27Z</time>
      </trkpt>
      <trkpt lat="44.00808" lon="1.77155">
        <ele>302.6</ele>
        <time>2021-10-24T13:24:28Z</time>
      </trkpt>
      <trkpt lat="44.00803" lon="1.77165">
        <ele>302.6</ele>
        <time>2021-10-24T13:24:30Z</time>
      </trkpt>
      <trkpt lat="44.00801" lon="1.7717">
        <ele>302.6</ele>
        <time>2021-10-24T13:24:31Z</time>
      </trkpt>
      <trkpt lat="44.00798" lon="1.7718">
        <ele>302.6</ele>
        <time>2021-10-24T13:24:33Z</time>
      </trkpt>
      <trkpt lat="44.00796" lon="1.77186">
        <ele>302.6</ele>
        <time>2021-10-24T13:24:34Z</time>
      </trkpt>
      <trkpt lat="44.0079" lon="1.77201">
        <ele>302.8</ele>
        <time>2021-10-24T13:24:37Z</time>
      </trkpt>
      <trkpt lat="44.00788" lon="1.77206">
        <ele>303</ele>
        <time>2021-10-24T13:24:38Z</time>
      </trkpt>
      <trkpt lat="44.00786" lon="1.77211">
        <ele>303</ele>
        <time>2021-10-24T13:24:39Z</time>
      </trkpt>
      <trkpt lat="44.00782" lon="1.77221">
        <ele>303.2</ele>
        <time>2021-10-24T13:24:41Z</time>
      </trkpt>
      <trkpt lat="44.00777" lon="1.77231">
        <ele>303.4</ele>
        <time>2021-10-24T13:24:43Z</time>
      </trkpt>
      <trkpt lat="44.00772" lon="1.7724">
        <ele>303.6</ele>
        <time>2021-10-24T13:24:45Z</time>
      </trkpt>
      <trkpt lat="44.00768" lon="1.77248">
        <ele>303.8</ele>
        <time>2021-10-24T13:24:47Z</time>
      </trkpt>
      <trkpt lat="44.00766" lon="1.77252">
        <ele>303.8</ele>
        <time>2021-10-24T13:24:48Z</time>
      </trkpt>
      <trkpt lat="44.00764" lon="1.77256">
        <ele>303.8</ele>
        <time>2021-10-24T13:24:49Z</time>
      </trkpt>
      <trkpt lat="44.00762" lon="1.77259">
        <ele>303.8</ele>
        <time>2021-10-24T13:24:50Z</time>
      </trkpt>
      <trkpt lat="44.00752" lon="1.77269">
        <ele>304</ele>
        <time>2021-10-24T13:24:53Z</time>
      </trkpt>
      <trkpt lat="44.00749" lon="1.77271">
        <ele>304.2</ele>
        <time>2021-10-24T13:24:54Z</time>
      </trkpt>
      <trkpt lat="44.00739" lon="1.7728">
        <ele>304.4</ele>
        <time>2021-10-24T13:24:57Z</time>
      </trkpt>
      <trkpt lat="44.00732" lon="1.77284">
        <ele>304.6</ele>
        <time>2021-10-24T13:24:59Z</time>
      </trkpt>
      <trkpt lat="44.00728" lon="1.77286">
        <ele>304.8</ele>
        <time>2021-10-24T13:25:00Z</time>
      </trkpt>
      <trkpt lat="44.00725" lon="1.77288">
        <ele>305</ele>
        <time>2021-10-24T13:25:01Z</time>
      </trkpt>
      <trkpt lat="44.00721" lon="1.7729">
        <ele>305</ele>
        <time>2021-10-24T13:25:02Z</time>
      </trkpt>
      <trkpt lat="44.00715" lon="1.77293">
        <ele>305</ele>
        <time>2021-10-24T13:25:04Z</time>
      </trkpt>
      <trkpt lat="44.00712" lon="1.77295">
        <ele>305.2</ele>
        <time>2021-10-24T13:25:05Z</time>
      </trkpt>
      <trkpt lat="44.00705" lon="1.77298">
        <ele>305.2</ele>
        <time>2021-10-24T13:25:07Z</time>
      </trkpt>
      <trkpt lat="44.00687" lon="1.77307">
        <ele>305.4</ele>
        <time>2021-10-24T13:25:12Z</time>
      </trkpt>
      <trkpt lat="44.00684" lon="1.77308">
        <ele>305.6</ele>
        <time>2021-10-24T13:25:13Z</time>
      </trkpt>
      <trkpt lat="44.00681" lon="1.7731">
        <ele>305.6</ele>
        <time>2021-10-24T13:25:14Z</time>
      </trkpt>
      <trkpt lat="44.00665" lon="1.7732">
        <ele>305.6</ele>
        <time>2021-10-24T13:25:19Z</time>
      </trkpt>
      <trkpt lat="44.00658" lon="1.77325">
        <ele>305.8</ele>
        <time>2021-10-24T13:25:21Z</time>
      </trkpt>
      <trkpt lat="44.00628" lon="1.77351">
        <ele>306.4</ele>
        <time>2021-10-24T13:25:30Z</time>
      </trkpt>
      <trkpt lat="44.00619" lon="1.77361">
        <ele>306.6</ele>
        <time>2021-10-24T13:25:33Z</time>
      </trkpt>
      <trkpt lat="44.00616" lon="1.77364">
        <ele>306.8</ele>
        <time>2021-10-24T13:25:34Z</time>
      </trkpt>
      <trkpt lat="44.00613" lon="1.77367">
        <ele>306.8</ele>
        <time>2021-10-24T13:25:35Z</time>
      </trkpt>
      <trkpt lat="44.0061" lon="1.7737">
        <ele>307</ele>
        <time>2021-10-24T13:25:36Z</time>
      </trkpt>
      <trkpt lat="44.00604" lon="1.77376">
        <ele>307.2</ele>
        <time>2021-10-24T13:25:38Z</time>
      </trkpt>
      <trkpt lat="44.00599" lon="1.77382">
        <ele>307.4</ele>
        <time>2021-10-24T13:25:40Z</time>
      </trkpt>
      <trkpt lat="44.00576" lon="1.77406">
        <ele>307.6</ele>
        <time>2021-10-24T13:25:48Z</time>
      </trkpt>
      <trkpt lat="44.00573" lon="1.77409">
        <ele>307.8</ele>
        <time>2021-10-24T13:25:49Z</time>
      </trkpt>
      <trkpt lat="44.00554" lon="1.77428">
        <ele>308.2</ele>
        <time>2021-10-24T13:25:55Z</time>
      </trkpt>
      <trkpt lat="44.00531" lon="1.77453">
        <ele>308.6</ele>
        <time>2021-10-24T13:26:02Z</time>
      </trkpt>
      <trkpt lat="44.00509" lon="1.77481">
        <ele>308.6</ele>
        <time>2021-10-24T13:26:09Z</time>
      </trkpt>
      <trkpt lat="44.00503" lon="1.7749">
        <ele>308.6</ele>
        <time>2021-10-24T13:26:11Z</time>
      </trkpt>
      <trkpt lat="44.005" lon="1.77493">
        <ele>308.6</ele>
        <time>2021-10-24T13:26:12Z</time>
      </trkpt>
      <trkpt lat="44.00486" lon="1.77511">
        <ele>308.6</ele>
        <time>2021-10-24T13:26:16Z</time>
      </trkpt>
      <trkpt lat="44.0048" lon="1.7752">
        <ele>308.6</ele>
        <time>2021-10-24T13:26:18Z</time>
      </trkpt>
      <trkpt lat="44.0047" lon="1.77534">
        <ele>308.4</ele>
        <time>2021-10-24T13:26:21Z</time>
      </trkpt>
      <trkpt lat="44.00467" lon="1.77539">
        <ele>308.4</ele>
        <time>2021-10-24T13:26:22Z</time>
      </trkpt>
      <trkpt lat="44.00445" lon="1.77563">
        <ele>308.2</ele>
        <time>2021-10-24T13:26:27Z</time>
      </trkpt>
      <trkpt lat="44.00432" lon="1.77574">
        <ele>308</ele>
        <time>2021-10-24T13:26:30Z</time>
      </trkpt>
      <trkpt lat="44.00429" lon="1.77577">
        <ele>308</ele>
        <time>2021-10-24T13:26:31Z</time>
      </trkpt>
      <trkpt lat="44.00425" lon="1.77579">
        <ele>307.8</ele>
        <time>2021-10-24T13:26:32Z</time>
      </trkpt>
      <trkpt lat="44.0042" lon="1.7758">
        <ele>307.6</ele>
        <time>2021-10-24T13:26:33Z</time>
      </trkpt>
      <trkpt lat="44.00407" lon="1.77584">
        <ele>307.4</ele>
        <time>2021-10-24T13:26:35Z</time>
      </trkpt>
      <trkpt lat="44.00402" lon="1.77585">
        <ele>307.4</ele>
        <time>2021-10-24T13:26:36Z</time>
      </trkpt>
      <trkpt lat="44.00392" lon="1.77585">
        <ele>307.2</ele>
        <time>2021-10-24T13:26:38Z</time>
      </trkpt>
      <trkpt lat="44.00366" lon="1.77581">
        <ele>306.8</ele>
        <time>2021-10-24T13:26:43Z</time>
      </trkpt>
      <trkpt lat="44.00361" lon="1.77579">
        <ele>306.6</ele>
        <time>2021-10-24T13:26:44Z</time>
      </trkpt>
      <trkpt lat="44.00347" lon="1.77574">
        <ele>306.4</ele>
        <time>2021-10-24T13:26:47Z</time>
      </trkpt>
      <trkpt lat="44.00334" lon="1.77568">
        <ele>306.2</ele>
        <time>2021-10-24T13:26:50Z</time>
      </trkpt>
      <trkpt lat="44.00308" lon="1.77552">
        <ele>306.2</ele>
        <time>2021-10-24T13:26:56Z</time>
      </trkpt>
      <trkpt lat="44.00304" lon="1.77549">
        <ele>306.2</ele>
        <time>2021-10-24T13:26:57Z</time>
      </trkpt>
      <trkpt lat="44.00299" lon="1.77545">
        <ele>306.2</ele>
        <time>2021-10-24T13:26:58Z</time>
      </trkpt>
      <trkpt lat="44.00295" lon="1.77541">
        <ele>306.2</ele>
        <time>2021-10-24T13:26:59Z</time>
      </trkpt>
      <trkpt lat="44.00291" lon="1.77537">
        <ele>306.2</ele>
        <time>2021-10-24T13:27:00Z</time>
      </trkpt>
      <trkpt lat="44.00288" lon="1.77533">
        <ele>306.4</ele>
        <time>2021-10-24T13:27:01Z</time>
      </trkpt>
      <trkpt lat="44.00285" lon="1.77529">
        <ele>306.4</ele>
        <time>2021-10-24T13:27:02Z</time>
      </trkpt>
      <trkpt lat="44.00282" lon="1.77525">
        <ele>306.4</ele>
        <time>2021-10-24T13:27:03Z</time>
      </trkpt>
      <trkpt lat="44.0028" lon="1.7752">
        <ele>306.4</ele>
        <time>2021-10-24T13:27:04Z</time>
      </trkpt>
      <trkpt lat="44.00278" lon="1.77515">
        <ele>306.6</ele>
        <time>2021-10-24T13:27:05Z</time>
      </trkpt>
      <trkpt lat="44.00275" lon="1.77509">
        <ele>306.8</ele>
        <time>2021-10-24T13:27:06Z</time>
      </trkpt>
      <trkpt lat="44.00272" lon="1.775">
        <ele>306.8</ele>
        <time>2021-10-24T13:27:08Z</time>
      </trkpt>
      <trkpt lat="44.0027" lon="1.77495">
        <ele>307</ele>
        <time>2021-10-24T13:27:09Z</time>
      </trkpt>
      <trkpt lat="44.00268" lon="1.7749">
        <ele>307</ele>
        <time>2021-10-24T13:27:10Z</time>
      </trkpt>
      <trkpt lat="44.00267" lon="1.77484">
        <ele>307</ele>
        <time>2021-10-24T13:27:11Z</time>
      </trkpt>
      <trkpt lat="44.00265" lon="1.77479">
        <ele>307.2</ele>
        <time>2021-10-24T13:27:12Z</time>
      </trkpt>
      <trkpt lat="44.00264" lon="1.77475">
        <ele>307.4</ele>
        <time>2021-10-24T13:27:13Z</time>
      </trkpt>
      <trkpt lat="44.00263" lon="1.77469">
        <ele>307.4</ele>
        <time>2021-10-24T13:27:14Z</time>
      </trkpt>
      <trkpt lat="44.0026" lon="1.7746">
        <ele>307.6</ele>
        <time>2021-10-24T13:27:16Z</time>
      </trkpt>
      <trkpt lat="44.00259" lon="1.77454">
        <ele>307.8</ele>
        <time>2021-10-24T13:27:17Z</time>
      </trkpt>
      <trkpt lat="44.00257" lon="1.7745">
        <ele>308</ele>
        <time>2021-10-24T13:27:18Z</time>
      </trkpt>
      <trkpt lat="44.00255" lon="1.77446">
        <ele>308.2</ele>
        <time>2021-10-24T13:27:19Z</time>
      </trkpt>
      <trkpt lat="44.00254" lon="1.77441">
        <ele>308.2</ele>
        <time>2021-10-24T13:27:20Z</time>
      </trkpt>
      <trkpt lat="44.00252" lon="1.77436">
        <ele>308.4</ele>
        <time>2021-10-24T13:27:21Z</time>
      </trkpt>
      <trkpt lat="44.00249" lon="1.77429">
        <ele>308.8</ele>
        <time>2021-10-24T13:27:23Z</time>
      </trkpt>
      <trkpt lat="44.00235" lon="1.77408">
        <ele>309.4</ele>
        <time>2021-10-24T13:27:29Z</time>
      </trkpt>
      <trkpt lat="44.00232" lon="1.77405">
        <ele>309.6</ele>
        <time>2021-10-24T13:27:30Z</time>
      </trkpt>
      <trkpt lat="44.0023" lon="1.77402">
        <ele>309.6</ele>
        <time>2021-10-24T13:27:31Z</time>
      </trkpt>
      <trkpt lat="44.00227" lon="1.774">
        <ele>309.8</ele>
        <time>2021-10-24T13:27:32Z</time>
      </trkpt>
      <trkpt lat="44.00224" lon="1.77397">
        <ele>309.8</ele>
        <time>2021-10-24T13:27:33Z</time>
      </trkpt>
      <trkpt lat="44.00221" lon="1.77394">
        <ele>310</ele>
        <time>2021-10-24T13:27:34Z</time>
      </trkpt>
      <trkpt lat="44.00219" lon="1.77392">
        <ele>310.2</ele>
        <time>2021-10-24T13:27:35Z</time>
      </trkpt>
      <trkpt lat="44.00216" lon="1.77389">
        <ele>310.2</ele>
        <time>2021-10-24T13:27:36Z</time>
      </trkpt>
      <trkpt lat="44.00214" lon="1.77387">
        <ele>310.4</ele>
        <time>2021-10-24T13:27:37Z</time>
      </trkpt>
      <trkpt lat="44.00211" lon="1.77385">
        <ele>310.6</ele>
        <time>2021-10-24T13:27:38Z</time>
      </trkpt>
      <trkpt lat="44.00208" lon="1.77382">
        <ele>310.6</ele>
        <time>2021-10-24T13:27:39Z</time>
      </trkpt>
      <trkpt lat="44.00206" lon="1.7738">
        <ele>310.6</ele>
        <time>2021-10-24T13:27:40Z</time>
      </trkpt>
      <trkpt lat="44.00202" lon="1.77377">
        <ele>310.8</ele>
        <time>2021-10-24T13:27:41Z</time>
      </trkpt>
      <trkpt lat="44.002" lon="1.77374">
        <ele>310.8</ele>
        <time>2021-10-24T13:27:42Z</time>
      </trkpt>
      <trkpt lat="44.00198" lon="1.77371">
        <ele>310.8</ele>
        <time>2021-10-24T13:27:43Z</time>
      </trkpt>
      <trkpt lat="44.00195" lon="1.77369">
        <ele>310.8</ele>
        <time>2021-10-24T13:27:44Z</time>
      </trkpt>
      <trkpt lat="44.00192" lon="1.77365">
        <ele>311</ele>
        <time>2021-10-24T13:27:45Z</time>
      </trkpt>
      <trkpt lat="44.00189" lon="1.77363">
        <ele>311</ele>
        <time>2021-10-24T13:27:46Z</time>
      </trkpt>
      <trkpt lat="44.00187" lon="1.77361">
        <ele>311</ele>
        <time>2021-10-24T13:27:47Z</time>
      </trkpt>
      <trkpt lat="44.00184" lon="1.77357">
        <ele>311</ele>
        <time>2021-10-24T13:27:48Z</time>
      </trkpt>
      <trkpt lat="44.00181" lon="1.77355">
        <ele>311.2</ele>
        <time>2021-10-24T13:27:49Z</time>
      </trkpt>
      <trkpt lat="44.00179" lon="1.77353">
        <ele>311.2</ele>
        <time>2021-10-24T13:27:50Z</time>
      </trkpt>
      <trkpt lat="44.00168" lon="1.77341">
        <ele>311.6</ele>
        <time>2021-10-24T13:27:54Z</time>
      </trkpt>
      <trkpt lat="44.00165" lon="1.77339">
        <ele>311.8</ele>
        <time>2021-10-24T13:27:55Z</time>
      </trkpt>
      <trkpt lat="44.00163" lon="1.77337">
        <ele>311.8</ele>
        <time>2021-10-24T13:27:56Z</time>
      </trkpt>
      <trkpt lat="44.00156" lon="1.77332">
        <ele>312</ele>
        <time>2021-10-24T13:27:58Z</time>
      </trkpt>
      <trkpt lat="44.00142" lon="1.77322">
        <ele>312.6</ele>
        <time>2021-10-24T13:28:03Z</time>
      </trkpt>
      <trkpt lat="44.00125" lon="1.77313">
        <ele>313.2</ele>
        <time>2021-10-24T13:28:08Z</time>
      </trkpt>
      <trkpt lat="44.00115" lon="1.77312">
        <ele>313.4</ele>
        <time>2021-10-24T13:28:11Z</time>
      </trkpt>
      <trkpt lat="44.00105" lon="1.77314">
        <ele>313.6</ele>
        <time>2021-10-24T13:28:14Z</time>
      </trkpt>
      <trkpt lat="44.00092" lon="1.77321">
        <ele>314.2</ele>
        <time>2021-10-24T13:28:18Z</time>
      </trkpt>
      <trkpt lat="44.00086" lon="1.77325">
        <ele>314.4</ele>
        <time>2021-10-24T13:28:20Z</time>
      </trkpt>
      <trkpt lat="44.00071" lon="1.77342">
        <ele>314.6</ele>
        <time>2021-10-24T13:28:25Z</time>
      </trkpt>
      <trkpt lat="44.00066" lon="1.77348">
        <ele>314.8</ele>
        <time>2021-10-24T13:28:27Z</time>
      </trkpt>
      <trkpt lat="44.00058" lon="1.77359">
        <ele>315.2</ele>
        <time>2021-10-24T13:28:30Z</time>
      </trkpt>
      <trkpt lat="44.00053" lon="1.77365">
        <ele>315.4</ele>
        <time>2021-10-24T13:28:32Z</time>
      </trkpt>
      <trkpt lat="44.00048" lon="1.77371">
        <ele>315.4</ele>
        <time>2021-10-24T13:28:34Z</time>
      </trkpt>
      <trkpt lat="44.00028" lon="1.774">
        <ele>316.2</ele>
        <time>2021-10-24T13:28:42Z</time>
      </trkpt>
      <trkpt lat="44.00025" lon="1.77403">
        <ele>316.4</ele>
        <time>2021-10-24T13:28:43Z</time>
      </trkpt>
      <trkpt lat="44.00023" lon="1.77406">
        <ele>316.4</ele>
        <time>2021-10-24T13:28:44Z</time>
      </trkpt>
      <trkpt lat="44.0002" lon="1.77409">
        <ele>316.6</ele>
        <time>2021-10-24T13:28:45Z</time>
      </trkpt>
      <trkpt lat="44.00018" lon="1.77413">
        <ele>316.6</ele>
        <time>2021-10-24T13:28:46Z</time>
      </trkpt>
      <trkpt lat="44.00004" lon="1.7743">
        <ele>317.2</ele>
        <time>2021-10-24T13:28:52Z</time>
      </trkpt>
      <trkpt lat="43.99999" lon="1.77435">
        <ele>317.4</ele>
        <time>2021-10-24T13:28:54Z</time>
      </trkpt>
      <trkpt lat="43.99997" lon="1.77438">
        <ele>317.6</ele>
        <time>2021-10-24T13:28:55Z</time>
      </trkpt>
      <trkpt lat="43.99992" lon="1.77444">
        <ele>317.8</ele>
        <time>2021-10-24T13:28:57Z</time>
      </trkpt>
      <trkpt lat="43.9999" lon="1.77447">
        <ele>317.8</ele>
        <time>2021-10-24T13:28:58Z</time>
      </trkpt>
      <trkpt lat="43.99984" lon="1.77454">
        <ele>318</ele>
        <time>2021-10-24T13:29:00Z</time>
      </trkpt>
      <trkpt lat="43.99981" lon="1.77458">
        <ele>318.2</ele>
        <time>2021-10-24T13:29:01Z</time>
      </trkpt>
      <trkpt lat="43.99977" lon="1.77462">
        <ele>318.2</ele>
        <time>2021-10-24T13:29:02Z</time>
      </trkpt>
      <trkpt lat="43.99973" lon="1.77468">
        <ele>318.4</ele>
        <time>2021-10-24T13:29:04Z</time>
      </trkpt>
      <trkpt lat="43.99971" lon="1.77471">
        <ele>318.6</ele>
        <time>2021-10-24T13:29:05Z</time>
      </trkpt>
      <trkpt lat="43.99968" lon="1.77474">
        <ele>318.6</ele>
        <time>2021-10-24T13:29:06Z</time>
      </trkpt>
      <trkpt lat="43.99966" lon="1.77477">
        <ele>318.8</ele>
        <time>2021-10-24T13:29:07Z</time>
      </trkpt>
      <trkpt lat="43.99963" lon="1.77481">
        <ele>319</ele>
        <time>2021-10-24T13:29:08Z</time>
      </trkpt>
      <trkpt lat="43.9996" lon="1.77484">
        <ele>319</ele>
        <time>2021-10-24T13:29:09Z</time>
      </trkpt>
      <trkpt lat="43.99958" lon="1.77487">
        <ele>319.2</ele>
        <time>2021-10-24T13:29:10Z</time>
      </trkpt>
      <trkpt lat="43.99955" lon="1.77491">
        <ele>319.2</ele>
        <time>2021-10-24T13:29:11Z</time>
      </trkpt>
      <trkpt lat="43.99952" lon="1.77494">
        <ele>319.4</ele>
        <time>2021-10-24T13:29:12Z</time>
      </trkpt>
      <trkpt lat="43.9995" lon="1.77497">
        <ele>319.4</ele>
        <time>2021-10-24T13:29:13Z</time>
      </trkpt>
      <trkpt lat="43.99947" lon="1.775">
        <ele>319.4</ele>
        <time>2021-10-24T13:29:14Z</time>
      </trkpt>
      <trkpt lat="43.99945" lon="1.77504">
        <ele>319.6</ele>
        <time>2021-10-24T13:29:15Z</time>
      </trkpt>
      <trkpt lat="43.99942" lon="1.77507">
        <ele>319.6</ele>
        <time>2021-10-24T13:29:16Z</time>
      </trkpt>
      <trkpt lat="43.99939" lon="1.77511">
        <ele>319.6</ele>
        <time>2021-10-24T13:29:17Z</time>
      </trkpt>
      <trkpt lat="43.99937" lon="1.77514">
        <ele>319.8</ele>
        <time>2021-10-24T13:29:18Z</time>
      </trkpt>
      <trkpt lat="43.99935" lon="1.77517">
        <ele>319.8</ele>
        <time>2021-10-24T13:29:19Z</time>
      </trkpt>
      <trkpt lat="43.99932" lon="1.77521">
        <ele>320</ele>
        <time>2021-10-24T13:29:20Z</time>
      </trkpt>
      <trkpt lat="43.9993" lon="1.77524">
        <ele>320</ele>
        <time>2021-10-24T13:29:21Z</time>
      </trkpt>
      <trkpt lat="43.99922" lon="1.77534">
        <ele>320.2</ele>
        <time>2021-10-24T13:29:25Z</time>
      </trkpt>
      <trkpt lat="43.9992" lon="1.77537">
        <ele>320.2</ele>
        <time>2021-10-24T13:29:26Z</time>
      </trkpt>
      <trkpt lat="43.99916" lon="1.77543">
        <ele>320.2</ele>
        <time>2021-10-24T13:29:28Z</time>
      </trkpt>
      <trkpt lat="43.99895" lon="1.77569">
        <ele>319.8</ele>
        <time>2021-10-24T13:29:35Z</time>
      </trkpt>
      <trkpt lat="43.9988" lon="1.77588">
        <ele>318.8</ele>
        <time>2021-10-24T13:29:39Z</time>
      </trkpt>
      <trkpt lat="43.99871" lon="1.77598">
        <ele>318.4</ele>
        <time>2021-10-24T13:29:41Z</time>
      </trkpt>
      <trkpt lat="43.99857" lon="1.77617">
        <ele>317.8</ele>
        <time>2021-10-24T13:29:44Z</time>
      </trkpt>
      <trkpt lat="43.99853" lon="1.77622">
        <ele>317.6</ele>
        <time>2021-10-24T13:29:45Z</time>
      </trkpt>
      <trkpt lat="43.99849" lon="1.77628">
        <ele>317</ele>
        <time>2021-10-24T13:29:46Z</time>
      </trkpt>
      <trkpt lat="43.99845" lon="1.77633">
        <ele>316.8</ele>
        <time>2021-10-24T13:29:47Z</time>
      </trkpt>
      <trkpt lat="43.99841" lon="1.77638">
        <ele>316.4</ele>
        <time>2021-10-24T13:29:48Z</time>
      </trkpt>
      <trkpt lat="43.99837" lon="1.77643">
        <ele>316.2</ele>
        <time>2021-10-24T13:29:49Z</time>
      </trkpt>
      <trkpt lat="43.99823" lon="1.77654">
        <ele>315.6</ele>
        <time>2021-10-24T13:29:52Z</time>
      </trkpt>
      <trkpt lat="43.99819" lon="1.77657">
        <ele>315.2</ele>
        <time>2021-10-24T13:29:53Z</time>
      </trkpt>
      <trkpt lat="43.99809" lon="1.77663">
        <ele>315</ele>
        <time>2021-10-24T13:29:55Z</time>
      </trkpt>
      <trkpt lat="43.99804" lon="1.77666">
        <ele>314.8</ele>
        <time>2021-10-24T13:29:56Z</time>
      </trkpt>
      <trkpt lat="43.99799" lon="1.7767">
        <ele>314.4</ele>
        <time>2021-10-24T13:29:57Z</time>
      </trkpt>
      <trkpt lat="43.99795" lon="1.77673">
        <ele>314.2</ele>
        <time>2021-10-24T13:29:58Z</time>
      </trkpt>
      <trkpt lat="43.99792" lon="1.77678">
        <ele>314</ele>
        <time>2021-10-24T13:29:59Z</time>
      </trkpt>
      <trkpt lat="43.99792" lon="1.77682">
        <ele>313.8</ele>
        <time>2021-10-24T13:30:00Z</time>
      </trkpt>
      <trkpt lat="43.99792" lon="1.77685">
        <ele>313.4</ele>
        <time>2021-10-24T13:30:01Z</time>
      </trkpt>
      <trkpt lat="43.99793" lon="1.77687">
        <ele>313.4</ele>
        <time>2021-10-24T13:30:02Z</time>
      </trkpt>
      <trkpt lat="43.99793" lon="1.77688">
        <ele>313.2</ele>
        <time>2021-10-24T13:30:03Z</time>
      </trkpt>
      <trkpt lat="43.99794" lon="1.7769">
        <ele>313.2</ele>
        <time>2021-10-24T13:30:04Z</time>
      </trkpt>
      <trkpt lat="43.99795" lon="1.77692">
        <ele>313.2</ele>
        <time>2021-10-24T13:30:05Z</time>
      </trkpt>
      <trkpt lat="43.99795" lon="1.77693">
        <ele>313.2</ele>
        <time>2021-10-24T13:30:06Z</time>
      </trkpt>
      <trkpt lat="43.99795" lon="1.77695">
        <ele>313</ele>
        <time>2021-10-24T13:30:07Z</time>
      </trkpt>
      <trkpt lat="43.99795" lon="1.77697">
        <ele>313.2</ele>
        <time>2021-10-24T13:30:08Z</time>
      </trkpt>
      <trkpt lat="43.99796" lon="1.77699">
        <ele>313.2</ele>
        <time>2021-10-24T13:30:09Z</time>
      </trkpt>
      <trkpt lat="43.99798" lon="1.77704">
        <ele>313.6</ele>
        <time>2021-10-24T13:30:12Z</time>
      </trkpt>
      <trkpt lat="43.99801" lon="1.77715">
        <ele>314.6</ele>
        <time>2021-10-24T13:30:17Z</time>
      </trkpt>
      <trkpt lat="43.99801" lon="1.77717">
        <ele>315</ele>
        <time>2021-10-24T13:30:18Z</time>
      </trkpt>
      <trkpt lat="43.99802" lon="1.77722">
        <ele>315.4</ele>
        <time>2021-10-24T13:30:20Z</time>
      </trkpt>
      <trkpt lat="43.99803" lon="1.77729">
        <ele>316</ele>
        <time>2021-10-24T13:30:23Z</time>
      </trkpt>
      <trkpt lat="43.99803" lon="1.77731">
        <ele>316.2</ele>
        <time>2021-10-24T13:30:24Z</time>
      </trkpt>
      <trkpt lat="43.99803" lon="1.77733">
        <ele>316.4</ele>
        <time>2021-10-24T13:30:25Z</time>
      </trkpt>
      <trkpt lat="43.99802" lon="1.77733">
        <ele>316.6</ele>
        <time>2021-10-24T13:30:26Z</time>
      </trkpt>
      <trkpt lat="43.998" lon="1.77734">
        <ele>317.4</ele>
        <time>2021-10-24T13:31:53Z</time>
      </trkpt>
      <trkpt lat="43.99795" lon="1.77739">
        <ele>317.2</ele>
        <time>2021-10-24T13:31:58Z</time>
      </trkpt>
      <trkpt lat="43.99794" lon="1.7774">
        <ele>317.2</ele>
        <time>2021-10-24T13:31:59Z</time>
      </trkpt>
      <trkpt lat="43.99793" lon="1.77741">
        <ele>317.2</ele>
        <time>2021-10-24T13:32:00Z</time>
      </trkpt>
      <trkpt lat="43.99792" lon="1.77742">
        <ele>317</ele>
        <time>2021-10-24T13:32:01Z</time>
      </trkpt>
      <trkpt lat="43.99788" lon="1.77747">
        <ele>316.8</ele>
        <time>2021-10-24T13:32:05Z</time>
      </trkpt>
      <trkpt lat="43.99788" lon="1.77748">
        <ele>316.8</ele>
        <time>2021-10-24T13:32:06Z</time>
      </trkpt>
      <trkpt lat="43.99783" lon="1.77754">
        <ele>316.8</ele>
        <time>2021-10-24T13:32:11Z</time>
      </trkpt>
      <trkpt lat="43.99781" lon="1.77755">
        <ele>317</ele>
        <time>2021-10-24T13:32:12Z</time>
      </trkpt>
      <trkpt lat="43.99776" lon="1.77759">
        <ele>317</ele>
        <time>2021-10-24T13:32:16Z</time>
      </trkpt>
      <trkpt lat="43.99774" lon="1.7776">
        <ele>317</ele>
        <time>2021-10-24T13:32:17Z</time>
      </trkpt>
      <trkpt lat="43.9977" lon="1.77763">
        <ele>317</ele>
        <time>2021-10-24T13:32:20Z</time>
      </trkpt>
      <trkpt lat="43.99763" lon="1.77768">
        <ele>317</ele>
        <time>2021-10-24T13:32:25Z</time>
      </trkpt>
      <trkpt lat="43.99759" lon="1.7777">
        <ele>316.8</ele>
        <time>2021-10-24T13:32:28Z</time>
      </trkpt>
      <trkpt lat="43.99757" lon="1.77771">
        <ele>316.8</ele>
        <time>2021-10-24T13:32:29Z</time>
      </trkpt>
      <trkpt lat="43.99756" lon="1.77772">
        <ele>316.8</ele>
        <time>2021-10-24T13:32:30Z</time>
      </trkpt>
      <trkpt lat="43.99746" lon="1.77776">
        <ele>316.6</ele>
        <time>2021-10-24T13:32:36Z</time>
      </trkpt>
      <trkpt lat="43.99743" lon="1.77777">
        <ele>316.6</ele>
        <time>2021-10-24T13:32:38Z</time>
      </trkpt>
      <trkpt lat="43.99736" lon="1.77779">
        <ele>316.4</ele>
        <time>2021-10-24T13:32:41Z</time>
      </trkpt>
      <trkpt lat="43.9973" lon="1.77782">
        <ele>316.2</ele>
        <time>2021-10-24T13:32:44Z</time>
      </trkpt>
      <trkpt lat="43.99714" lon="1.77788">
        <ele>315.6</ele>
        <time>2021-10-24T13:32:51Z</time>
      </trkpt>
      <trkpt lat="43.997" lon="1.77792">
        <ele>315.2</ele>
        <time>2021-10-24T13:32:56Z</time>
      </trkpt>
      <trkpt lat="43.99697" lon="1.77793">
        <ele>315</ele>
        <time>2021-10-24T13:32:57Z</time>
      </trkpt>
      <trkpt lat="43.99694" lon="1.77794">
        <ele>315</ele>
        <time>2021-10-24T13:32:58Z</time>
      </trkpt>
      <trkpt lat="43.99668" lon="1.778">
        <ele>315</ele>
        <time>2021-10-24T13:33:07Z</time>
      </trkpt>
      <trkpt lat="43.99665" lon="1.77801">
        <ele>315</ele>
        <time>2021-10-24T13:33:08Z</time>
      </trkpt>
      <trkpt lat="43.99662" lon="1.77801">
        <ele>315</ele>
        <time>2021-10-24T13:33:09Z</time>
      </trkpt>
      <trkpt lat="43.99659" lon="1.77801">
        <ele>315.2</ele>
        <time>2021-10-24T13:33:10Z</time>
      </trkpt>
      <trkpt lat="43.99651" lon="1.77801">
        <ele>315.2</ele>
        <time>2021-10-24T13:33:13Z</time>
      </trkpt>
      <trkpt lat="43.99648" lon="1.778">
        <ele>315.4</ele>
        <time>2021-10-24T13:33:14Z</time>
      </trkpt>
      <trkpt lat="43.99642" lon="1.77801">
        <ele>315.4</ele>
        <time>2021-10-24T13:33:16Z</time>
      </trkpt>
      <trkpt lat="43.99629" lon="1.77804">
        <ele>315.8</ele>
        <time>2021-10-24T13:33:21Z</time>
      </trkpt>
      <trkpt lat="43.99626" lon="1.77804">
        <ele>315.8</ele>
        <time>2021-10-24T13:33:22Z</time>
      </trkpt>
      <trkpt lat="43.99623" lon="1.77804">
        <ele>315.8</ele>
        <time>2021-10-24T13:33:23Z</time>
      </trkpt>
      <trkpt lat="43.99621" lon="1.77805">
        <ele>316</ele>
        <time>2021-10-24T13:33:24Z</time>
      </trkpt>
      <trkpt lat="43.9961" lon="1.77807">
        <ele>315.8</ele>
        <time>2021-10-24T13:33:28Z</time>
      </trkpt>
      <trkpt lat="43.99607" lon="1.77808">
        <ele>315.8</ele>
        <time>2021-10-24T13:33:29Z</time>
      </trkpt>
      <trkpt lat="43.99605" lon="1.77808">
        <ele>315.8</ele>
        <time>2021-10-24T13:33:30Z</time>
      </trkpt>
      <trkpt lat="43.99602" lon="1.77809">
        <ele>315.6</ele>
        <time>2021-10-24T13:33:31Z</time>
      </trkpt>
      <trkpt lat="43.99597" lon="1.7781">
        <ele>315.6</ele>
        <time>2021-10-24T13:33:33Z</time>
      </trkpt>
      <trkpt lat="43.99594" lon="1.77811">
        <ele>315.4</ele>
        <time>2021-10-24T13:33:34Z</time>
      </trkpt>
      <trkpt lat="43.99579" lon="1.77814">
        <ele>315</ele>
        <time>2021-10-24T13:33:39Z</time>
      </trkpt>
      <trkpt lat="43.99575" lon="1.77814">
        <ele>315</ele>
        <time>2021-10-24T13:33:40Z</time>
      </trkpt>
      <trkpt lat="43.99572" lon="1.77814">
        <ele>315</ele>
        <time>2021-10-24T13:33:41Z</time>
      </trkpt>
      <trkpt lat="43.99558" lon="1.77816">
        <ele>314.4</ele>
        <time>2021-10-24T13:33:45Z</time>
      </trkpt>
      <trkpt lat="43.99555" lon="1.77817">
        <ele>313.8</ele>
        <time>2021-10-24T13:33:46Z</time>
      </trkpt>
      <trkpt lat="43.99552" lon="1.77818">
        <ele>313.4</ele>
        <time>2021-10-24T13:33:47Z</time>
      </trkpt>
      <trkpt lat="43.9955" lon="1.77818">
        <ele>313</ele>
        <time>2021-10-24T13:33:48Z</time>
      </trkpt>
      <trkpt lat="43.99547" lon="1.77818">
        <ele>312.4</ele>
        <time>2021-10-24T13:33:49Z</time>
      </trkpt>
      <trkpt lat="43.99544" lon="1.77819">
        <ele>312</ele>
        <time>2021-10-24T13:33:50Z</time>
      </trkpt>
      <trkpt lat="43.9954" lon="1.77822">
        <ele>311.2</ele>
        <time>2021-10-24T13:33:52Z</time>
      </trkpt>
      <trkpt lat="43.99538" lon="1.77824">
        <ele>310.8</ele>
        <time>2021-10-24T13:33:53Z</time>
      </trkpt>
      <trkpt lat="43.99518" lon="1.77831">
        <ele>309.8</ele>
        <time>2021-10-24T13:34:00Z</time>
      </trkpt>
      <trkpt lat="43.99512" lon="1.77831">
        <ele>309.4</ele>
        <time>2021-10-24T13:34:02Z</time>
      </trkpt>
      <trkpt lat="43.99504" lon="1.7783">
        <ele>309.2</ele>
        <time>2021-10-24T13:34:04Z</time>
      </trkpt>
      <trkpt lat="43.99499" lon="1.77829">
        <ele>308.8</ele>
        <time>2021-10-24T13:34:05Z</time>
      </trkpt>
      <trkpt lat="43.99494" lon="1.77827">
        <ele>308.8</ele>
        <time>2021-10-24T13:34:06Z</time>
      </trkpt>
      <trkpt lat="43.9949" lon="1.77827">
        <ele>308.6</ele>
        <time>2021-10-24T13:34:07Z</time>
      </trkpt>
      <trkpt lat="43.99486" lon="1.77827">
        <ele>308.4</ele>
        <time>2021-10-24T13:34:08Z</time>
      </trkpt>
      <trkpt lat="43.99477" lon="1.77827">
        <ele>307.6</ele>
        <time>2021-10-24T13:34:10Z</time>
      </trkpt>
      <trkpt lat="43.99459" lon="1.7783">
        <ele>306.4</ele>
        <time>2021-10-24T13:34:14Z</time>
      </trkpt>
      <trkpt lat="43.99449" lon="1.77831">
        <ele>306.2</ele>
        <time>2021-10-24T13:34:16Z</time>
      </trkpt>
      <trkpt lat="43.9944" lon="1.77832">
        <ele>305.6</ele>
        <time>2021-10-24T13:34:18Z</time>
      </trkpt>
      <trkpt lat="43.99434" lon="1.77833">
        <ele>305.4</ele>
        <time>2021-10-24T13:34:19Z</time>
      </trkpt>
      <trkpt lat="43.9941" lon="1.77835">
        <ele>304.4</ele>
        <time>2021-10-24T13:34:23Z</time>
      </trkpt>
      <trkpt lat="43.99403" lon="1.77836">
        <ele>304.2</ele>
        <time>2021-10-24T13:34:24Z</time>
      </trkpt>
      <trkpt lat="43.9938" lon="1.77839">
        <ele>303</ele>
        <time>2021-10-24T13:34:27Z</time>
      </trkpt>
      <trkpt lat="43.99373" lon="1.7784">
        <ele>302.4</ele>
        <time>2021-10-24T13:34:28Z</time>
      </trkpt>
      <trkpt lat="43.99365" lon="1.77841">
        <ele>301.8</ele>
        <time>2021-10-24T13:34:29Z</time>
      </trkpt>
      <trkpt lat="43.9935" lon="1.77843">
        <ele>300.6</ele>
        <time>2021-10-24T13:34:31Z</time>
      </trkpt>
      <trkpt lat="43.99342" lon="1.77845">
        <ele>299.8</ele>
        <time>2021-10-24T13:34:32Z</time>
      </trkpt>
      <trkpt lat="43.99335" lon="1.77846">
        <ele>298.8</ele>
        <time>2021-10-24T13:34:33Z</time>
      </trkpt>
      <trkpt lat="43.99328" lon="1.77847">
        <ele>298.4</ele>
        <time>2021-10-24T13:34:34Z</time>
      </trkpt>
      <trkpt lat="43.99321" lon="1.77847">
        <ele>297.4</ele>
        <time>2021-10-24T13:34:35Z</time>
      </trkpt>
      <trkpt lat="43.99314" lon="1.77847">
        <ele>296.6</ele>
        <time>2021-10-24T13:34:36Z</time>
      </trkpt>
      <trkpt lat="43.99308" lon="1.77847">
        <ele>295.6</ele>
        <time>2021-10-24T13:34:37Z</time>
      </trkpt>
      <trkpt lat="43.99301" lon="1.77846">
        <ele>295</ele>
        <time>2021-10-24T13:34:38Z</time>
      </trkpt>
      <trkpt lat="43.99297" lon="1.77845">
        <ele>293.8</ele>
        <time>2021-10-24T13:34:39Z</time>
      </trkpt>
      <trkpt lat="43.99292" lon="1.77844">
        <ele>293</ele>
        <time>2021-10-24T13:34:40Z</time>
      </trkpt>
      <trkpt lat="43.99289" lon="1.77844">
        <ele>292.4</ele>
        <time>2021-10-24T13:34:41Z</time>
      </trkpt>
      <trkpt lat="43.99286" lon="1.77843">
        <ele>291.6</ele>
        <time>2021-10-24T13:34:42Z</time>
      </trkpt>
      <trkpt lat="43.99284" lon="1.77842">
        <ele>291.4</ele>
        <time>2021-10-24T13:34:43Z</time>
      </trkpt>
      <trkpt lat="43.99282" lon="1.77842">
        <ele>290.4</ele>
        <time>2021-10-24T13:34:44Z</time>
      </trkpt>
      <trkpt lat="43.9928" lon="1.77841">
        <ele>290</ele>
        <time>2021-10-24T13:34:45Z</time>
      </trkpt>
      <trkpt lat="43.99277" lon="1.7784">
        <ele>289.4</ele>
        <time>2021-10-24T13:34:46Z</time>
      </trkpt>
      <trkpt lat="43.99275" lon="1.77839">
        <ele>289.2</ele>
        <time>2021-10-24T13:34:47Z</time>
      </trkpt>
      <trkpt lat="43.99271" lon="1.77839">
        <ele>288.6</ele>
        <time>2021-10-24T13:34:48Z</time>
      </trkpt>
      <trkpt lat="43.99244" lon="1.77834">
        <ele>287.2</ele>
        <time>2021-10-24T13:34:53Z</time>
      </trkpt>
      <trkpt lat="43.99225" lon="1.77829">
        <ele>285.8</ele>
        <time>2021-10-24T13:34:56Z</time>
      </trkpt>
      <trkpt lat="43.99219" lon="1.77828">
        <ele>285.6</ele>
        <time>2021-10-24T13:34:57Z</time>
      </trkpt>
      <trkpt lat="43.99213" lon="1.77827">
        <ele>285.4</ele>
        <time>2021-10-24T13:34:58Z</time>
      </trkpt>
      <trkpt lat="43.99207" lon="1.77826">
        <ele>285.2</ele>
        <time>2021-10-24T13:34:59Z</time>
      </trkpt>
      <trkpt lat="43.99178" lon="1.77824">
        <ele>284.8</ele>
        <time>2021-10-24T13:35:04Z</time>
      </trkpt>
      <trkpt lat="43.99173" lon="1.77824">
        <ele>284.6</ele>
        <time>2021-10-24T13:35:05Z</time>
      </trkpt>
      <trkpt lat="43.99167" lon="1.77824">
        <ele>284.6</ele>
        <time>2021-10-24T13:35:06Z</time>
      </trkpt>
      <trkpt lat="43.99162" lon="1.77824">
        <ele>283.6</ele>
        <time>2021-10-24T13:35:07Z</time>
      </trkpt>
      <trkpt lat="43.99157" lon="1.77825">
        <ele>283.4</ele>
        <time>2021-10-24T13:35:08Z</time>
      </trkpt>
      <trkpt lat="43.99153" lon="1.77825">
        <ele>283</ele>
        <time>2021-10-24T13:35:09Z</time>
      </trkpt>
      <trkpt lat="43.99148" lon="1.77826">
        <ele>282.8</ele>
        <time>2021-10-24T13:35:10Z</time>
      </trkpt>
      <trkpt lat="43.99144" lon="1.77828">
        <ele>282.2</ele>
        <time>2021-10-24T13:35:11Z</time>
      </trkpt>
      <trkpt lat="43.9914" lon="1.77828">
        <ele>281.8</ele>
        <time>2021-10-24T13:35:12Z</time>
      </trkpt>
      <trkpt lat="43.99133" lon="1.7783">
        <ele>281</ele>
        <time>2021-10-24T13:35:14Z</time>
      </trkpt>
      <trkpt lat="43.99117" lon="1.77831">
        <ele>280.6</ele>
        <time>2021-10-24T13:35:17Z</time>
      </trkpt>
      <trkpt lat="43.99105" lon="1.77832">
        <ele>279.4</ele>
        <time>2021-10-24T13:35:19Z</time>
      </trkpt>
      <trkpt lat="43.99086" lon="1.77836">
        <ele>278.2</ele>
        <time>2021-10-24T13:35:22Z</time>
      </trkpt>
      <trkpt lat="43.9908" lon="1.77839">
        <ele>277.2</ele>
        <time>2021-10-24T13:35:23Z</time>
      </trkpt>
      <trkpt lat="43.99074" lon="1.77841">
        <ele>276.8</ele>
        <time>2021-10-24T13:35:24Z</time>
      </trkpt>
      <trkpt lat="43.99068" lon="1.77844">
        <ele>276.2</ele>
        <time>2021-10-24T13:35:25Z</time>
      </trkpt>
      <trkpt lat="43.99062" lon="1.77847">
        <ele>276</ele>
        <time>2021-10-24T13:35:26Z</time>
      </trkpt>
      <trkpt lat="43.99057" lon="1.77849">
        <ele>275.2</ele>
        <time>2021-10-24T13:35:27Z</time>
      </trkpt>
      <trkpt lat="43.99046" lon="1.77854">
        <ele>274</ele>
        <time>2021-10-24T13:35:29Z</time>
      </trkpt>
      <trkpt lat="43.99033" lon="1.7786">
        <ele>273.4</ele>
        <time>2021-10-24T13:35:31Z</time>
      </trkpt>
      <trkpt lat="43.99026" lon="1.77864">
        <ele>273</ele>
        <time>2021-10-24T13:35:32Z</time>
      </trkpt>
      <trkpt lat="43.9902" lon="1.77868">
        <ele>272.8</ele>
        <time>2021-10-24T13:35:33Z</time>
      </trkpt>
      <trkpt lat="43.99014" lon="1.77872">
        <ele>272.4</ele>
        <time>2021-10-24T13:35:34Z</time>
      </trkpt>
      <trkpt lat="43.99009" lon="1.77877">
        <ele>272</ele>
        <time>2021-10-24T13:35:35Z</time>
      </trkpt>
      <trkpt lat="43.99004" lon="1.77881">
        <ele>271.8</ele>
        <time>2021-10-24T13:35:36Z</time>
      </trkpt>
      <trkpt lat="43.99" lon="1.77884">
        <ele>271.4</ele>
        <time>2021-10-24T13:35:37Z</time>
      </trkpt>
      <trkpt lat="43.98996" lon="1.77888">
        <ele>271</ele>
        <time>2021-10-24T13:35:38Z</time>
      </trkpt>
      <trkpt lat="43.98992" lon="1.77891">
        <ele>270.6</ele>
        <time>2021-10-24T13:35:39Z</time>
      </trkpt>
      <trkpt lat="43.98979" lon="1.77902">
        <ele>269.6</ele>
        <time>2021-10-24T13:35:42Z</time>
      </trkpt>
      <trkpt lat="43.98974" lon="1.77907">
        <ele>269.4</ele>
        <time>2021-10-24T13:35:43Z</time>
      </trkpt>
      <trkpt lat="43.98964" lon="1.77917">
        <ele>268.6</ele>
        <time>2021-10-24T13:35:45Z</time>
      </trkpt>
      <trkpt lat="43.98961" lon="1.7792">
        <ele>268.4</ele>
        <time>2021-10-24T13:35:46Z</time>
      </trkpt>
      <trkpt lat="43.98957" lon="1.77924">
        <ele>268.2</ele>
        <time>2021-10-24T13:35:47Z</time>
      </trkpt>
      <trkpt lat="43.98954" lon="1.77927">
        <ele>267.6</ele>
        <time>2021-10-24T13:35:48Z</time>
      </trkpt>
      <trkpt lat="43.98951" lon="1.77931">
        <ele>267.4</ele>
        <time>2021-10-24T13:35:49Z</time>
      </trkpt>
      <trkpt lat="43.98949" lon="1.77934">
        <ele>267.2</ele>
        <time>2021-10-24T13:35:50Z</time>
      </trkpt>
      <trkpt lat="43.98946" lon="1.77937">
        <ele>266.8</ele>
        <time>2021-10-24T13:35:51Z</time>
      </trkpt>
      <trkpt lat="43.98943" lon="1.77944">
        <ele>266.2</ele>
        <time>2021-10-24T13:35:53Z</time>
      </trkpt>
      <trkpt lat="43.98942" lon="1.77946">
        <ele>266</ele>
        <time>2021-10-24T13:35:54Z</time>
      </trkpt>
      <trkpt lat="43.98933" lon="1.77963">
        <ele>265.2</ele>
        <time>2021-10-24T13:35:59Z</time>
      </trkpt>
      <trkpt lat="43.98929" lon="1.77968">
        <ele>265</ele>
        <time>2021-10-24T13:36:00Z</time>
      </trkpt>
      <trkpt lat="43.98926" lon="1.77972">
        <ele>265</ele>
        <time>2021-10-24T13:36:01Z</time>
      </trkpt>
      <trkpt lat="43.98924" lon="1.77977">
        <ele>264.6</ele>
        <time>2021-10-24T13:36:02Z</time>
      </trkpt>
      <trkpt lat="43.98921" lon="1.77981">
        <ele>264.4</ele>
        <time>2021-10-24T13:36:03Z</time>
      </trkpt>
      <trkpt lat="43.98917" lon="1.77985">
        <ele>264.2</ele>
        <time>2021-10-24T13:36:04Z</time>
      </trkpt>
      <trkpt lat="43.98914" lon="1.77988">
        <ele>264</ele>
        <time>2021-10-24T13:36:05Z</time>
      </trkpt>
      <trkpt lat="43.98911" lon="1.77992">
        <ele>263.6</ele>
        <time>2021-10-24T13:36:06Z</time>
      </trkpt>
      <trkpt lat="43.98901" lon="1.78006">
        <ele>262.6</ele>
        <time>2021-10-24T13:36:09Z</time>
      </trkpt>
      <trkpt lat="43.98897" lon="1.78011">
        <ele>262.6</ele>
        <time>2021-10-24T13:36:10Z</time>
      </trkpt>
      <trkpt lat="43.98894" lon="1.78016">
        <ele>262.2</ele>
        <time>2021-10-24T13:36:11Z</time>
      </trkpt>
      <trkpt lat="43.98892" lon="1.7802">
        <ele>262</ele>
        <time>2021-10-24T13:36:12Z</time>
      </trkpt>
      <trkpt lat="43.9889" lon="1.78024">
        <ele>261.6</ele>
        <time>2021-10-24T13:36:13Z</time>
      </trkpt>
      <trkpt lat="43.98887" lon="1.78029">
        <ele>261.2</ele>
        <time>2021-10-24T13:36:14Z</time>
      </trkpt>
      <trkpt lat="43.98883" lon="1.78033">
        <ele>261</ele>
        <time>2021-10-24T13:36:15Z</time>
      </trkpt>
      <trkpt lat="43.9888" lon="1.78038">
        <ele>260.6</ele>
        <time>2021-10-24T13:36:16Z</time>
      </trkpt>
      <trkpt lat="43.98878" lon="1.78041">
        <ele>260.4</ele>
        <time>2021-10-24T13:36:17Z</time>
      </trkpt>
      <trkpt lat="43.98875" lon="1.78045">
        <ele>260.2</ele>
        <time>2021-10-24T13:36:18Z</time>
      </trkpt>
      <trkpt lat="43.9887" lon="1.78048">
        <ele>260</ele>
        <time>2021-10-24T13:36:19Z</time>
      </trkpt>
      <trkpt lat="43.98863" lon="1.78054">
        <ele>259.8</ele>
        <time>2021-10-24T13:36:21Z</time>
      </trkpt>
      <trkpt lat="43.98859" lon="1.78058">
        <ele>259.8</ele>
        <time>2021-10-24T13:36:22Z</time>
      </trkpt>
      <trkpt lat="43.98855" lon="1.78063">
        <ele>259.6</ele>
        <time>2021-10-24T13:36:23Z</time>
      </trkpt>
      <trkpt lat="43.98852" lon="1.78067">
        <ele>259.4</ele>
        <time>2021-10-24T13:36:24Z</time>
      </trkpt>
      <trkpt lat="43.98846" lon="1.78072">
        <ele>259.2</ele>
        <time>2021-10-24T13:36:25Z</time>
      </trkpt>
      <trkpt lat="43.98842" lon="1.78076">
        <ele>259</ele>
        <time>2021-10-24T13:36:26Z</time>
      </trkpt>
      <trkpt lat="43.98829" lon="1.78088">
        <ele>258.2</ele>
        <time>2021-10-24T13:36:29Z</time>
      </trkpt>
      <trkpt lat="43.98826" lon="1.78092">
        <ele>257.6</ele>
        <time>2021-10-24T13:36:30Z</time>
      </trkpt>
      <trkpt lat="43.98821" lon="1.78097">
        <ele>257.4</ele>
        <time>2021-10-24T13:36:31Z</time>
      </trkpt>
      <trkpt lat="43.98816" lon="1.78103">
        <ele>257</ele>
        <time>2021-10-24T13:36:32Z</time>
      </trkpt>
      <trkpt lat="43.98815" lon="1.78107">
        <ele>256.8</ele>
        <time>2021-10-24T13:36:33Z</time>
      </trkpt>
      <trkpt lat="43.98814" lon="1.7811">
        <ele>256.6</ele>
        <time>2021-10-24T13:36:34Z</time>
      </trkpt>
      <trkpt lat="43.98811" lon="1.78118">
        <ele>256.4</ele>
        <time>2021-10-24T13:36:36Z</time>
      </trkpt>
      <trkpt lat="43.9881" lon="1.78123">
        <ele>256.4</ele>
        <time>2021-10-24T13:36:37Z</time>
      </trkpt>
      <trkpt lat="43.98809" lon="1.78127">
        <ele>256.2</ele>
        <time>2021-10-24T13:36:38Z</time>
      </trkpt>
      <trkpt lat="43.98807" lon="1.78132">
        <ele>256</ele>
        <time>2021-10-24T13:36:39Z</time>
      </trkpt>
      <trkpt lat="43.98806" lon="1.78136">
        <ele>255.8</ele>
        <time>2021-10-24T13:36:40Z</time>
      </trkpt>
      <trkpt lat="43.98805" lon="1.7814">
        <ele>255.6</ele>
        <time>2021-10-24T13:36:41Z</time>
      </trkpt>
      <trkpt lat="43.98799" lon="1.78149">
        <ele>255.6</ele>
        <time>2021-10-24T13:36:42Z</time>
      </trkpt>
      <trkpt lat="43.98794" lon="1.78154">
        <ele>255.6</ele>
        <time>2021-10-24T13:36:43Z</time>
      </trkpt>
      <trkpt lat="43.98793" lon="1.78158">
        <ele>255.4</ele>
        <time>2021-10-24T13:36:44Z</time>
      </trkpt>
      <trkpt lat="43.98793" lon="1.78162">
        <ele>255.2</ele>
        <time>2021-10-24T13:36:45Z</time>
      </trkpt>
      <trkpt lat="43.98791" lon="1.78167">
        <ele>255</ele>
        <time>2021-10-24T13:36:46Z</time>
      </trkpt>
      <trkpt lat="43.98787" lon="1.78178">
        <ele>254.8</ele>
        <time>2021-10-24T13:36:48Z</time>
      </trkpt>
      <trkpt lat="43.98783" lon="1.7819">
        <ele>254.6</ele>
        <time>2021-10-24T13:36:50Z</time>
      </trkpt>
      <trkpt lat="43.98778" lon="1.78203">
        <ele>254.4</ele>
        <time>2021-10-24T13:36:52Z</time>
      </trkpt>
      <trkpt lat="43.98775" lon="1.78208">
        <ele>254.4</ele>
        <time>2021-10-24T13:36:53Z</time>
      </trkpt>
      <trkpt lat="43.98773" lon="1.78215">
        <ele>254.4</ele>
        <time>2021-10-24T13:36:54Z</time>
      </trkpt>
      <trkpt lat="43.98772" lon="1.78219">
        <ele>254.2</ele>
        <time>2021-10-24T13:36:55Z</time>
      </trkpt>
      <trkpt lat="43.98771" lon="1.78224">
        <ele>254.2</ele>
        <time>2021-10-24T13:36:56Z</time>
      </trkpt>
      <trkpt lat="43.98769" lon="1.78229">
        <ele>254.2</ele>
        <time>2021-10-24T13:36:57Z</time>
      </trkpt>
      <trkpt lat="43.98766" lon="1.78236">
        <ele>254</ele>
        <time>2021-10-24T13:36:58Z</time>
      </trkpt>
      <trkpt lat="43.98762" lon="1.78243">
        <ele>254</ele>
        <time>2021-10-24T13:36:59Z</time>
      </trkpt>
      <trkpt lat="43.9876" lon="1.78248">
        <ele>253.8</ele>
        <time>2021-10-24T13:37:00Z</time>
      </trkpt>
      <trkpt lat="43.98757" lon="1.78254">
        <ele>253.6</ele>
        <time>2021-10-24T13:37:01Z</time>
      </trkpt>
      <trkpt lat="43.98755" lon="1.7826">
        <ele>253.6</ele>
        <time>2021-10-24T13:37:02Z</time>
      </trkpt>
      <trkpt lat="43.98752" lon="1.78265">
        <ele>253.4</ele>
        <time>2021-10-24T13:37:03Z</time>
      </trkpt>
      <trkpt lat="43.98748" lon="1.7827">
        <ele>253.2</ele>
        <time>2021-10-24T13:37:04Z</time>
      </trkpt>
      <trkpt lat="43.98744" lon="1.78274">
        <ele>252.8</ele>
        <time>2021-10-24T13:37:05Z</time>
      </trkpt>
      <trkpt lat="43.98741" lon="1.78278">
        <ele>252.6</ele>
        <time>2021-10-24T13:37:06Z</time>
      </trkpt>
      <trkpt lat="43.98737" lon="1.78283">
        <ele>252.6</ele>
        <time>2021-10-24T13:37:07Z</time>
      </trkpt>
      <trkpt lat="43.98731" lon="1.78292">
        <ele>252.4</ele>
        <time>2021-10-24T13:37:09Z</time>
      </trkpt>
      <trkpt lat="43.9872" lon="1.78306">
        <ele>252.2</ele>
        <time>2021-10-24T13:37:12Z</time>
      </trkpt>
      <trkpt lat="43.98714" lon="1.78314">
        <ele>252.2</ele>
        <time>2021-10-24T13:37:14Z</time>
      </trkpt>
      <trkpt lat="43.98704" lon="1.78326">
        <ele>251.2</ele>
        <time>2021-10-24T13:37:17Z</time>
      </trkpt>
      <trkpt lat="43.98702" lon="1.78329">
        <ele>250.8</ele>
        <time>2021-10-24T13:37:18Z</time>
      </trkpt>
      <trkpt lat="43.98701" lon="1.78335">
        <ele>250.6</ele>
        <time>2021-10-24T13:37:19Z</time>
      </trkpt>
      <trkpt lat="43.98701" lon="1.78341">
        <ele>250.2</ele>
        <time>2021-10-24T13:37:20Z</time>
      </trkpt>
      <trkpt lat="43.98701" lon="1.78348">
        <ele>250</ele>
        <time>2021-10-24T13:37:21Z</time>
      </trkpt>
      <trkpt lat="43.98699" lon="1.78352">
        <ele>249.6</ele>
        <time>2021-10-24T13:37:22Z</time>
      </trkpt>
      <trkpt lat="43.987" lon="1.78357">
        <ele>249.2</ele>
        <time>2021-10-24T13:37:23Z</time>
      </trkpt>
      <trkpt lat="43.98701" lon="1.78362">
        <ele>249</ele>
        <time>2021-10-24T13:37:24Z</time>
      </trkpt>
      <trkpt lat="43.98702" lon="1.78366">
        <ele>249</ele>
        <time>2021-10-24T13:37:25Z</time>
      </trkpt>
      <trkpt lat="43.98701" lon="1.7837">
        <ele>248.8</ele>
        <time>2021-10-24T13:37:26Z</time>
      </trkpt>
      <trkpt lat="43.98702" lon="1.7838">
        <ele>248.8</ele>
        <time>2021-10-24T13:37:29Z</time>
      </trkpt>
      <trkpt lat="43.98701" lon="1.78383">
        <ele>248.8</ele>
        <time>2021-10-24T13:37:30Z</time>
      </trkpt>
      <trkpt lat="43.987" lon="1.7839">
        <ele>248.8</ele>
        <time>2021-10-24T13:37:31Z</time>
      </trkpt>
      <trkpt lat="43.98699" lon="1.78394">
        <ele>248.6</ele>
        <time>2021-10-24T13:37:32Z</time>
      </trkpt>
      <trkpt lat="43.98697" lon="1.784">
        <ele>248.6</ele>
        <time>2021-10-24T13:37:33Z</time>
      </trkpt>
      <trkpt lat="43.98694" lon="1.78409">
        <ele>249</ele>
        <time>2021-10-24T13:37:35Z</time>
      </trkpt>
      <trkpt lat="43.98692" lon="1.78413">
        <ele>248.8</ele>
        <time>2021-10-24T13:37:36Z</time>
      </trkpt>
      <trkpt lat="43.98688" lon="1.78418">
        <ele>249</ele>
        <time>2021-10-24T13:37:37Z</time>
      </trkpt>
      <trkpt lat="43.98687" lon="1.78425">
        <ele>249.2</ele>
        <time>2021-10-24T13:37:39Z</time>
      </trkpt>
      <trkpt lat="43.98685" lon="1.78436">
        <ele>249.2</ele>
        <time>2021-10-24T13:37:41Z</time>
      </trkpt>
      <trkpt lat="43.98683" lon="1.78442">
        <ele>249.2</ele>
        <time>2021-10-24T13:37:42Z</time>
      </trkpt>
      <trkpt lat="43.98681" lon="1.78445">
        <ele>249.2</ele>
        <time>2021-10-24T13:37:43Z</time>
      </trkpt>
      <trkpt lat="43.9868" lon="1.78449">
        <ele>249.2</ele>
        <time>2021-10-24T13:37:44Z</time>
      </trkpt>
      <trkpt lat="43.98677" lon="1.78452">
        <ele>249.2</ele>
        <time>2021-10-24T13:37:45Z</time>
      </trkpt>
      <trkpt lat="43.98675" lon="1.78455">
        <ele>249.2</ele>
        <time>2021-10-24T13:37:46Z</time>
      </trkpt>
      <trkpt lat="43.98673" lon="1.78459">
        <ele>249.2</ele>
        <time>2021-10-24T13:37:47Z</time>
      </trkpt>
      <trkpt lat="43.98672" lon="1.78462">
        <ele>249.2</ele>
        <time>2021-10-24T13:37:48Z</time>
      </trkpt>
      <trkpt lat="43.98669" lon="1.78468">
        <ele>249.2</ele>
        <time>2021-10-24T13:37:49Z</time>
      </trkpt>
      <trkpt lat="43.98667" lon="1.78472">
        <ele>249</ele>
        <time>2021-10-24T13:37:50Z</time>
      </trkpt>
      <trkpt lat="43.98664" lon="1.78475">
        <ele>249</ele>
        <time>2021-10-24T13:37:51Z</time>
      </trkpt>
      <trkpt lat="43.98662" lon="1.78479">
        <ele>249.2</ele>
        <time>2021-10-24T13:37:52Z</time>
      </trkpt>
      <trkpt lat="43.98661" lon="1.78483">
        <ele>249.2</ele>
        <time>2021-10-24T13:37:53Z</time>
      </trkpt>
      <trkpt lat="43.9866" lon="1.78486">
        <ele>249.2</ele>
        <time>2021-10-24T13:37:54Z</time>
      </trkpt>
      <trkpt lat="43.98659" lon="1.7849">
        <ele>249.4</ele>
        <time>2021-10-24T13:37:55Z</time>
      </trkpt>
      <trkpt lat="43.98656" lon="1.78495">
        <ele>249.4</ele>
        <time>2021-10-24T13:37:56Z</time>
      </trkpt>
      <trkpt lat="43.98654" lon="1.78501">
        <ele>249.8</ele>
        <time>2021-10-24T13:37:57Z</time>
      </trkpt>
      <trkpt lat="43.98651" lon="1.78504">
        <ele>249.8</ele>
        <time>2021-10-24T13:37:58Z</time>
      </trkpt>
      <trkpt lat="43.98646" lon="1.78515">
        <ele>250</ele>
        <time>2021-10-24T13:38:00Z</time>
      </trkpt>
      <trkpt lat="43.98645" lon="1.78518">
        <ele>250.2</ele>
        <time>2021-10-24T13:38:01Z</time>
      </trkpt>
      <trkpt lat="43.98644" lon="1.78522">
        <ele>250.4</ele>
        <time>2021-10-24T13:38:02Z</time>
      </trkpt>
      <trkpt lat="43.98642" lon="1.78526">
        <ele>250.4</ele>
        <time>2021-10-24T13:38:03Z</time>
      </trkpt>
      <trkpt lat="43.98638" lon="1.78533">
        <ele>250.6</ele>
        <time>2021-10-24T13:38:05Z</time>
      </trkpt>
      <trkpt lat="43.98632" lon="1.78542">
        <ele>250.8</ele>
        <time>2021-10-24T13:38:07Z</time>
      </trkpt>
      <trkpt lat="43.98624" lon="1.78557">
        <ele>250.8</ele>
        <time>2021-10-24T13:38:09Z</time>
      </trkpt>
      <trkpt lat="43.98617" lon="1.78571">
        <ele>250.8</ele>
        <time>2021-10-24T13:38:11Z</time>
      </trkpt>
      <trkpt lat="43.9861" lon="1.78586">
        <ele>250.6</ele>
        <time>2021-10-24T13:38:13Z</time>
      </trkpt>
      <trkpt lat="43.98608" lon="1.78591">
        <ele>250.6</ele>
        <time>2021-10-24T13:38:14Z</time>
      </trkpt>
      <trkpt lat="43.98606" lon="1.78596">
        <ele>250.6</ele>
        <time>2021-10-24T13:38:15Z</time>
      </trkpt>
      <trkpt lat="43.98604" lon="1.786">
        <ele>250.4</ele>
        <time>2021-10-24T13:38:16Z</time>
      </trkpt>
      <trkpt lat="43.986" lon="1.78607">
        <ele>250.2</ele>
        <time>2021-10-24T13:38:17Z</time>
      </trkpt>
      <trkpt lat="43.98599" lon="1.78611">
        <ele>249.8</ele>
        <time>2021-10-24T13:38:18Z</time>
      </trkpt>
      <trkpt lat="43.98598" lon="1.78617">
        <ele>249.6</ele>
        <time>2021-10-24T13:38:19Z</time>
      </trkpt>
      <trkpt lat="43.98596" lon="1.78621">
        <ele>249.2</ele>
        <time>2021-10-24T13:38:20Z</time>
      </trkpt>
      <trkpt lat="43.98594" lon="1.78626">
        <ele>249</ele>
        <time>2021-10-24T13:38:21Z</time>
      </trkpt>
      <trkpt lat="43.98583" lon="1.78646">
        <ele>248.4</ele>
        <time>2021-10-24T13:38:25Z</time>
      </trkpt>
      <trkpt lat="43.98577" lon="1.78657">
        <ele>248</ele>
        <time>2021-10-24T13:38:27Z</time>
      </trkpt>
      <trkpt lat="43.98574" lon="1.78665">
        <ele>247.8</ele>
        <time>2021-10-24T13:38:28Z</time>
      </trkpt>
      <trkpt lat="43.98572" lon="1.7867">
        <ele>247.6</ele>
        <time>2021-10-24T13:38:29Z</time>
      </trkpt>
      <trkpt lat="43.9857" lon="1.78677">
        <ele>247.2</ele>
        <time>2021-10-24T13:38:30Z</time>
      </trkpt>
      <trkpt lat="43.98571" lon="1.78684">
        <ele>246.6</ele>
        <time>2021-10-24T13:38:31Z</time>
      </trkpt>
      <trkpt lat="43.98573" lon="1.78691">
        <ele>246.4</ele>
        <time>2021-10-24T13:38:32Z</time>
      </trkpt>
      <trkpt lat="43.98573" lon="1.78696">
        <ele>245.8</ele>
        <time>2021-10-24T13:38:33Z</time>
      </trkpt>
      <trkpt lat="43.98573" lon="1.78704">
        <ele>245.4</ele>
        <time>2021-10-24T13:38:34Z</time>
      </trkpt>
      <trkpt lat="43.98569" lon="1.78715">
        <ele>245</ele>
        <time>2021-10-24T13:38:36Z</time>
      </trkpt>
      <trkpt lat="43.98567" lon="1.78723">
        <ele>245</ele>
        <time>2021-10-24T13:38:37Z</time>
      </trkpt>
      <trkpt lat="43.98566" lon="1.78727">
        <ele>244.8</ele>
        <time>2021-10-24T13:38:38Z</time>
      </trkpt>
      <trkpt lat="43.98564" lon="1.78739">
        <ele>244.8</ele>
        <time>2021-10-24T13:38:40Z</time>
      </trkpt>
      <trkpt lat="43.98561" lon="1.78746">
        <ele>244.6</ele>
        <time>2021-10-24T13:38:41Z</time>
      </trkpt>
      <trkpt lat="43.9856" lon="1.78754">
        <ele>244.6</ele>
        <time>2021-10-24T13:38:42Z</time>
      </trkpt>
      <trkpt lat="43.9856" lon="1.78757">
        <ele>244.2</ele>
        <time>2021-10-24T13:38:43Z</time>
      </trkpt>
      <trkpt lat="43.9856" lon="1.78761">
        <ele>244.2</ele>
        <time>2021-10-24T13:38:44Z</time>
      </trkpt>
      <trkpt lat="43.98557" lon="1.78767">
        <ele>244</ele>
        <time>2021-10-24T13:38:45Z</time>
      </trkpt>
      <trkpt lat="43.98548" lon="1.78785">
        <ele>243.4</ele>
        <time>2021-10-24T13:38:49Z</time>
      </trkpt>
      <trkpt lat="43.98546" lon="1.78789">
        <ele>243.2</ele>
        <time>2021-10-24T13:38:50Z</time>
      </trkpt>
      <trkpt lat="43.98545" lon="1.78796">
        <ele>243.2</ele>
        <time>2021-10-24T13:38:51Z</time>
      </trkpt>
      <trkpt lat="43.98544" lon="1.78801">
        <ele>243.2</ele>
        <time>2021-10-24T13:38:52Z</time>
      </trkpt>
      <trkpt lat="43.98541" lon="1.78808">
        <ele>243.2</ele>
        <time>2021-10-24T13:38:53Z</time>
      </trkpt>
      <trkpt lat="43.9854" lon="1.7882">
        <ele>243</ele>
        <time>2021-10-24T13:38:55Z</time>
      </trkpt>
      <trkpt lat="43.98535" lon="1.78829">
        <ele>242.8</ele>
        <time>2021-10-24T13:38:56Z</time>
      </trkpt>
      <trkpt lat="43.98532" lon="1.78836">
        <ele>242.8</ele>
        <time>2021-10-24T13:38:57Z</time>
      </trkpt>
      <trkpt lat="43.98533" lon="1.78852">
        <ele>242</ele>
        <time>2021-10-24T13:38:59Z</time>
      </trkpt>
      <trkpt lat="43.98533" lon="1.78858">
        <ele>241.8</ele>
        <time>2021-10-24T13:39:00Z</time>
      </trkpt>
      <trkpt lat="43.98534" lon="1.78864">
        <ele>241.6</ele>
        <time>2021-10-24T13:39:01Z</time>
      </trkpt>
      <trkpt lat="43.98536" lon="1.78868">
        <ele>241.6</ele>
        <time>2021-10-24T13:39:02Z</time>
      </trkpt>
      <trkpt lat="43.98537" lon="1.78873">
        <ele>241.2</ele>
        <time>2021-10-24T13:39:03Z</time>
      </trkpt>
      <trkpt lat="43.98538" lon="1.78875">
        <ele>240.8</ele>
        <time>2021-10-24T13:39:04Z</time>
      </trkpt>
      <trkpt lat="43.98538" lon="1.78877">
        <ele>240.6</ele>
        <time>2021-10-24T13:39:05Z</time>
      </trkpt>
      <trkpt lat="43.9854" lon="1.78879">
        <ele>240.4</ele>
        <time>2021-10-24T13:39:06Z</time>
      </trkpt>
      <trkpt lat="43.98542" lon="1.78887">
        <ele>239.8</ele>
        <time>2021-10-24T13:39:08Z</time>
      </trkpt>
      <trkpt lat="43.98546" lon="1.78897">
        <ele>239.6</ele>
        <time>2021-10-24T13:39:10Z</time>
      </trkpt>
      <trkpt lat="43.98546" lon="1.78903">
        <ele>239.6</ele>
        <time>2021-10-24T13:39:11Z</time>
      </trkpt>
      <trkpt lat="43.98547" lon="1.78909">
        <ele>239.4</ele>
        <time>2021-10-24T13:39:12Z</time>
      </trkpt>
      <trkpt lat="43.98546" lon="1.78923">
        <ele>238.4</ele>
        <time>2021-10-24T13:39:14Z</time>
      </trkpt>
      <trkpt lat="43.98545" lon="1.78929">
        <ele>238</ele>
        <time>2021-10-24T13:39:15Z</time>
      </trkpt>
      <trkpt lat="43.98545" lon="1.78936">
        <ele>237.8</ele>
        <time>2021-10-24T13:39:16Z</time>
      </trkpt>
      <trkpt lat="43.98545" lon="1.78942">
        <ele>237.2</ele>
        <time>2021-10-24T13:39:17Z</time>
      </trkpt>
      <trkpt lat="43.98545" lon="1.7895">
        <ele>237</ele>
        <time>2021-10-24T13:39:18Z</time>
      </trkpt>
      <trkpt lat="43.98545" lon="1.78963">
        <ele>236.2</ele>
        <time>2021-10-24T13:39:20Z</time>
      </trkpt>
      <trkpt lat="43.98543" lon="1.78978">
        <ele>235.8</ele>
        <time>2021-10-24T13:39:22Z</time>
      </trkpt>
      <trkpt lat="43.98544" lon="1.78984">
        <ele>235.6</ele>
        <time>2021-10-24T13:39:23Z</time>
      </trkpt>
      <trkpt lat="43.98541" lon="1.79002">
        <ele>235.2</ele>
        <time>2021-10-24T13:39:26Z</time>
      </trkpt>
      <trkpt lat="43.98534" lon="1.79015">
        <ele>234.6</ele>
        <time>2021-10-24T13:39:28Z</time>
      </trkpt>
      <trkpt lat="43.9853" lon="1.79023">
        <ele>234.2</ele>
        <time>2021-10-24T13:39:29Z</time>
      </trkpt>
      <trkpt lat="43.98527" lon="1.79031">
        <ele>234</ele>
        <time>2021-10-24T13:39:30Z</time>
      </trkpt>
      <trkpt lat="43.98519" lon="1.7905">
        <ele>232.4</ele>
        <time>2021-10-24T13:39:33Z</time>
      </trkpt>
      <trkpt lat="43.98508" lon="1.79073">
        <ele>231.6</ele>
        <time>2021-10-24T13:39:36Z</time>
      </trkpt>
      <trkpt lat="43.98505" lon="1.79079">
        <ele>231.4</ele>
        <time>2021-10-24T13:39:37Z</time>
      </trkpt>
      <trkpt lat="43.98501" lon="1.79086">
        <ele>231</ele>
        <time>2021-10-24T13:39:38Z</time>
      </trkpt>
      <trkpt lat="43.98497" lon="1.79094">
        <ele>230.8</ele>
        <time>2021-10-24T13:39:39Z</time>
      </trkpt>
      <trkpt lat="43.98495" lon="1.79098">
        <ele>230.6</ele>
        <time>2021-10-24T13:39:40Z</time>
      </trkpt>
      <trkpt lat="43.98493" lon="1.79102">
        <ele>230.4</ele>
        <time>2021-10-24T13:39:41Z</time>
      </trkpt>
      <trkpt lat="43.98491" lon="1.79106">
        <ele>229.6</ele>
        <time>2021-10-24T13:39:42Z</time>
      </trkpt>
      <trkpt lat="43.98488" lon="1.79109">
        <ele>229</ele>
        <time>2021-10-24T13:39:43Z</time>
      </trkpt>
      <trkpt lat="43.98481" lon="1.79118">
        <ele>228.2</ele>
        <time>2021-10-24T13:39:45Z</time>
      </trkpt>
      <trkpt lat="43.98478" lon="1.79121">
        <ele>228</ele>
        <time>2021-10-24T13:39:46Z</time>
      </trkpt>
      <trkpt lat="43.98468" lon="1.79136">
        <ele>227.4</ele>
        <time>2021-10-24T13:39:49Z</time>
      </trkpt>
      <trkpt lat="43.98465" lon="1.79141">
        <ele>227.2</ele>
        <time>2021-10-24T13:39:50Z</time>
      </trkpt>
      <trkpt lat="43.98464" lon="1.79145">
        <ele>226.6</ele>
        <time>2021-10-24T13:39:51Z</time>
      </trkpt>
      <trkpt lat="43.98464" lon="1.79148">
        <ele>226</ele>
        <time>2021-10-24T13:39:52Z</time>
      </trkpt>
      <trkpt lat="43.98464" lon="1.79152">
        <ele>225.8</ele>
        <time>2021-10-24T13:39:53Z</time>
      </trkpt>
      <trkpt lat="43.98465" lon="1.79155">
        <ele>225.6</ele>
        <time>2021-10-24T13:39:54Z</time>
      </trkpt>
      <trkpt lat="43.98466" lon="1.79158">
        <ele>225.4</ele>
        <time>2021-10-24T13:39:55Z</time>
      </trkpt>
      <trkpt lat="43.98468" lon="1.7916">
        <ele>225.2</ele>
        <time>2021-10-24T13:39:56Z</time>
      </trkpt>
      <trkpt lat="43.98469" lon="1.79162">
        <ele>225.2</ele>
        <time>2021-10-24T13:39:57Z</time>
      </trkpt>
      <trkpt lat="43.9847" lon="1.79165">
        <ele>225.2</ele>
        <time>2021-10-24T13:39:58Z</time>
      </trkpt>
      <trkpt lat="43.98476" lon="1.79183">
        <ele>225</ele>
        <time>2021-10-24T13:40:03Z</time>
      </trkpt>
      <trkpt lat="43.98476" lon="1.7919">
        <ele>225</ele>
        <time>2021-10-24T13:40:04Z</time>
      </trkpt>
      <trkpt lat="43.98476" lon="1.79197">
        <ele>225</ele>
        <time>2021-10-24T13:40:05Z</time>
      </trkpt>
      <trkpt lat="43.98476" lon="1.79205">
        <ele>224.8</ele>
        <time>2021-10-24T13:40:06Z</time>
      </trkpt>
      <trkpt lat="43.98476" lon="1.79213">
        <ele>224.8</ele>
        <time>2021-10-24T13:40:07Z</time>
      </trkpt>
      <trkpt lat="43.98473" lon="1.79231">
        <ele>224.8</ele>
        <time>2021-10-24T13:40:09Z</time>
      </trkpt>
      <trkpt lat="43.98471" lon="1.79241">
        <ele>224.4</ele>
        <time>2021-10-24T13:40:10Z</time>
      </trkpt>
      <trkpt lat="43.98466" lon="1.7926">
        <ele>223.4</ele>
        <time>2021-10-24T13:40:12Z</time>
      </trkpt>
      <trkpt lat="43.98463" lon="1.7927">
        <ele>223.2</ele>
        <time>2021-10-24T13:40:13Z</time>
      </trkpt>
      <trkpt lat="43.98457" lon="1.7929">
        <ele>221.8</ele>
        <time>2021-10-24T13:40:15Z</time>
      </trkpt>
      <trkpt lat="43.98454" lon="1.79299">
        <ele>221.6</ele>
        <time>2021-10-24T13:40:16Z</time>
      </trkpt>
      <trkpt lat="43.98449" lon="1.79308">
        <ele>221</ele>
        <time>2021-10-24T13:40:17Z</time>
      </trkpt>
      <trkpt lat="43.98444" lon="1.79315">
        <ele>220.8</ele>
        <time>2021-10-24T13:40:18Z</time>
      </trkpt>
      <trkpt lat="43.98439" lon="1.7932">
        <ele>220.4</ele>
        <time>2021-10-24T13:40:19Z</time>
      </trkpt>
      <trkpt lat="43.98434" lon="1.79325">
        <ele>220.2</ele>
        <time>2021-10-24T13:40:20Z</time>
      </trkpt>
      <trkpt lat="43.98429" lon="1.7933">
        <ele>219.6</ele>
        <time>2021-10-24T13:40:21Z</time>
      </trkpt>
      <trkpt lat="43.9842" lon="1.79341">
        <ele>219</ele>
        <time>2021-10-24T13:40:23Z</time>
      </trkpt>
      <trkpt lat="43.98415" lon="1.79347">
        <ele>218.4</ele>
        <time>2021-10-24T13:40:24Z</time>
      </trkpt>
      <trkpt lat="43.98411" lon="1.79353">
        <ele>218</ele>
        <time>2021-10-24T13:40:25Z</time>
      </trkpt>
      <trkpt lat="43.98407" lon="1.79359">
        <ele>217.6</ele>
        <time>2021-10-24T13:40:26Z</time>
      </trkpt>
      <trkpt lat="43.98403" lon="1.79365">
        <ele>217.4</ele>
        <time>2021-10-24T13:40:27Z</time>
      </trkpt>
      <trkpt lat="43.984" lon="1.79369">
        <ele>217</ele>
        <time>2021-10-24T13:40:28Z</time>
      </trkpt>
      <trkpt lat="43.98397" lon="1.79373">
        <ele>216.6</ele>
        <time>2021-10-24T13:40:29Z</time>
      </trkpt>
      <trkpt lat="43.98393" lon="1.79375">
        <ele>216.2</ele>
        <time>2021-10-24T13:40:30Z</time>
      </trkpt>
      <trkpt lat="43.9839" lon="1.79376">
        <ele>216</ele>
        <time>2021-10-24T13:40:31Z</time>
      </trkpt>
      <trkpt lat="43.98387" lon="1.79378">
        <ele>216</ele>
        <time>2021-10-24T13:40:32Z</time>
      </trkpt>
      <trkpt lat="43.98384" lon="1.79379">
        <ele>215.6</ele>
        <time>2021-10-24T13:40:33Z</time>
      </trkpt>
      <trkpt lat="43.98381" lon="1.79381">
        <ele>215.4</ele>
        <time>2021-10-24T13:40:34Z</time>
      </trkpt>
      <trkpt lat="43.98373" lon="1.79386">
        <ele>214.4</ele>
        <time>2021-10-24T13:40:37Z</time>
      </trkpt>
      <trkpt lat="43.98371" lon="1.79388">
        <ele>214</ele>
        <time>2021-10-24T13:40:38Z</time>
      </trkpt>
      <trkpt lat="43.98368" lon="1.79389">
        <ele>213.8</ele>
        <time>2021-10-24T13:40:39Z</time>
      </trkpt>
      <trkpt lat="43.98366" lon="1.7939">
        <ele>213.4</ele>
        <time>2021-10-24T13:40:40Z</time>
      </trkpt>
      <trkpt lat="43.98363" lon="1.79392">
        <ele>213.2</ele>
        <time>2021-10-24T13:40:41Z</time>
      </trkpt>
      <trkpt lat="43.98361" lon="1.79394">
        <ele>213</ele>
        <time>2021-10-24T13:40:42Z</time>
      </trkpt>
      <trkpt lat="43.98358" lon="1.79395">
        <ele>212.8</ele>
        <time>2021-10-24T13:40:43Z</time>
      </trkpt>
      <trkpt lat="43.98356" lon="1.79396">
        <ele>212.6</ele>
        <time>2021-10-24T13:40:44Z</time>
      </trkpt>
      <trkpt lat="43.98353" lon="1.79398">
        <ele>212.4</ele>
        <time>2021-10-24T13:40:45Z</time>
      </trkpt>
      <trkpt lat="43.98351" lon="1.79398">
        <ele>212.2</ele>
        <time>2021-10-24T13:40:46Z</time>
      </trkpt>
      <trkpt lat="43.98349" lon="1.79398">
        <ele>212</ele>
        <time>2021-10-24T13:40:47Z</time>
      </trkpt>
      <trkpt lat="43.98347" lon="1.79398">
        <ele>211.8</ele>
        <time>2021-10-24T13:40:48Z</time>
      </trkpt>
      <trkpt lat="43.98346" lon="1.79397">
        <ele>211.6</ele>
        <time>2021-10-24T13:40:49Z</time>
      </trkpt>
      <trkpt lat="43.98345" lon="1.79396">
        <ele>211.4</ele>
        <time>2021-10-24T13:40:50Z</time>
      </trkpt>
      <trkpt lat="43.98344" lon="1.79393">
        <ele>211.2</ele>
        <time>2021-10-24T13:40:51Z</time>
      </trkpt>
      <trkpt lat="43.98343" lon="1.79388">
        <ele>211</ele>
        <time>2021-10-24T13:40:53Z</time>
      </trkpt>
      <trkpt lat="43.98343" lon="1.79386">
        <ele>211</ele>
        <time>2021-10-24T13:40:54Z</time>
      </trkpt>
      <trkpt lat="43.98342" lon="1.79381">
        <ele>210.8</ele>
        <time>2021-10-24T13:40:56Z</time>
      </trkpt>
      <trkpt lat="43.98337" lon="1.79363">
        <ele>210.8</ele>
        <time>2021-10-24T13:41:01Z</time>
      </trkpt>
      <trkpt lat="43.98331" lon="1.7934">
        <ele>210.8</ele>
        <time>2021-10-24T13:41:06Z</time>
      </trkpt>
      <trkpt lat="43.98324" lon="1.79315">
        <ele>211.8</ele>
        <time>2021-10-24T13:41:11Z</time>
      </trkpt>
      <trkpt lat="43.98322" lon="1.79311">
        <ele>211.8</ele>
        <time>2021-10-24T13:41:12Z</time>
      </trkpt>
      <trkpt lat="43.98321" lon="1.79307">
        <ele>212</ele>
        <time>2021-10-24T13:41:13Z</time>
      </trkpt>
      <trkpt lat="43.9832" lon="1.79303">
        <ele>212</ele>
        <time>2021-10-24T13:41:14Z</time>
      </trkpt>
      <trkpt lat="43.98319" lon="1.79299">
        <ele>212</ele>
        <time>2021-10-24T13:41:15Z</time>
      </trkpt>
      <trkpt lat="43.98318" lon="1.79295">
        <ele>212.4</ele>
        <time>2021-10-24T13:41:16Z</time>
      </trkpt>
      <trkpt lat="43.98317" lon="1.79291">
        <ele>212.6</ele>
        <time>2021-10-24T13:41:17Z</time>
      </trkpt>
      <trkpt lat="43.98316" lon="1.79288">
        <ele>212.6</ele>
        <time>2021-10-24T13:41:18Z</time>
      </trkpt>
      <trkpt lat="43.98313" lon="1.7928">
        <ele>212.8</ele>
        <time>2021-10-24T13:41:20Z</time>
      </trkpt>
      <trkpt lat="43.98309" lon="1.79268">
        <ele>212.6</ele>
        <time>2021-10-24T13:41:23Z</time>
      </trkpt>
      <trkpt lat="43.98308" lon="1.79264">
        <ele>212.6</ele>
        <time>2021-10-24T13:41:24Z</time>
      </trkpt>
      <trkpt lat="43.98306" lon="1.79261">
        <ele>212.6</ele>
        <time>2021-10-24T13:41:25Z</time>
      </trkpt>
      <trkpt lat="43.98304" lon="1.7926">
        <ele>212.6</ele>
        <time>2021-10-24T13:41:26Z</time>
      </trkpt>
      <trkpt lat="43.98302" lon="1.79259">
        <ele>212.4</ele>
        <time>2021-10-24T13:41:27Z</time>
      </trkpt>
      <trkpt lat="43.983" lon="1.7926">
        <ele>212.4</ele>
        <time>2021-10-24T13:41:28Z</time>
      </trkpt>
      <trkpt lat="43.98296" lon="1.79262">
        <ele>212.2</ele>
        <time>2021-10-24T13:41:30Z</time>
      </trkpt>
      <trkpt lat="43.98294" lon="1.79264">
        <ele>212.2</ele>
        <time>2021-10-24T13:41:31Z</time>
      </trkpt>
      <trkpt lat="43.98292" lon="1.79265">
        <ele>212</ele>
        <time>2021-10-24T13:41:32Z</time>
      </trkpt>
      <trkpt lat="43.9829" lon="1.79266">
        <ele>211.8</ele>
        <time>2021-10-24T13:41:33Z</time>
      </trkpt>
      <trkpt lat="43.98288" lon="1.79268">
        <ele>211.6</ele>
        <time>2021-10-24T13:41:34Z</time>
      </trkpt>
      <trkpt lat="43.98287" lon="1.79269">
        <ele>211.4</ele>
        <time>2021-10-24T13:41:35Z</time>
      </trkpt>
      <trkpt lat="43.98285" lon="1.79271">
        <ele>211.2</ele>
        <time>2021-10-24T13:41:36Z</time>
      </trkpt>
      <trkpt lat="43.98284" lon="1.79272">
        <ele>210.8</ele>
        <time>2021-10-24T13:41:37Z</time>
      </trkpt>
      <trkpt lat="43.98263" lon="1.79282">
        <ele>210.6</ele>
        <time>2021-10-24T13:41:45Z</time>
      </trkpt>
      <trkpt lat="43.98247" lon="1.79296">
        <ele>210.2</ele>
        <time>2021-10-24T13:41:51Z</time>
      </trkpt>
      <trkpt lat="43.98242" lon="1.79302">
        <ele>210</ele>
        <time>2021-10-24T13:41:53Z</time>
      </trkpt>
      <trkpt lat="43.98239" lon="1.79305">
        <ele>209.8</ele>
        <time>2021-10-24T13:41:54Z</time>
      </trkpt>
      <trkpt lat="43.98238" lon="1.79309">
        <ele>209.6</ele>
        <time>2021-10-24T13:41:55Z</time>
      </trkpt>
      <trkpt lat="43.98237" lon="1.79313">
        <ele>209.4</ele>
        <time>2021-10-24T13:41:56Z</time>
      </trkpt>
      <trkpt lat="43.98236" lon="1.79317">
        <ele>209.4</ele>
        <time>2021-10-24T13:41:57Z</time>
      </trkpt>
      <trkpt lat="43.98235" lon="1.79321">
        <ele>209.2</ele>
        <time>2021-10-24T13:41:58Z</time>
      </trkpt>
      <trkpt lat="43.98235" lon="1.79326">
        <ele>209.2</ele>
        <time>2021-10-24T13:41:59Z</time>
      </trkpt>
      <trkpt lat="43.98234" lon="1.7933">
        <ele>209</ele>
        <time>2021-10-24T13:42:00Z</time>
      </trkpt>
      <trkpt lat="43.98234" lon="1.79335">
        <ele>209</ele>
        <time>2021-10-24T13:42:01Z</time>
      </trkpt>
      <trkpt lat="43.98234" lon="1.79339">
        <ele>208.8</ele>
        <time>2021-10-24T13:42:02Z</time>
      </trkpt>
      <trkpt lat="43.98235" lon="1.79347">
        <ele>208.8</ele>
        <time>2021-10-24T13:42:04Z</time>
      </trkpt>
      <trkpt lat="43.98235" lon="1.79351">
        <ele>208.8</ele>
        <time>2021-10-24T13:42:05Z</time>
      </trkpt>
      <trkpt lat="43.98235" lon="1.79355">
        <ele>208.8</ele>
        <time>2021-10-24T13:42:06Z</time>
      </trkpt>
      <trkpt lat="43.98236" lon="1.79362">
        <ele>208.6</ele>
        <time>2021-10-24T13:42:08Z</time>
      </trkpt>
      <trkpt lat="43.98235" lon="1.79366">
        <ele>208.6</ele>
        <time>2021-10-24T13:42:09Z</time>
      </trkpt>
      <trkpt lat="43.98234" lon="1.79368">
        <ele>208.4</ele>
        <time>2021-10-24T13:42:10Z</time>
      </trkpt>
      <trkpt lat="43.98232" lon="1.7937">
        <ele>208.2</ele>
        <time>2021-10-24T13:42:11Z</time>
      </trkpt>
      <trkpt lat="43.98231" lon="1.79371">
        <ele>208</ele>
        <time>2021-10-24T13:42:12Z</time>
      </trkpt>
      <trkpt lat="43.98227" lon="1.79374">
        <ele>207.8</ele>
        <time>2021-10-24T13:42:14Z</time>
      </trkpt>
      <trkpt lat="43.98219" lon="1.79381">
        <ele>207.4</ele>
        <time>2021-10-24T13:42:17Z</time>
      </trkpt>
      <trkpt lat="43.98217" lon="1.79383">
        <ele>207.2</ele>
        <time>2021-10-24T13:42:18Z</time>
      </trkpt>
      <trkpt lat="43.98209" lon="1.79392">
        <ele>206.8</ele>
        <time>2021-10-24T13:42:21Z</time>
      </trkpt>
      <trkpt lat="43.98204" lon="1.79397">
        <ele>206.4</ele>
        <time>2021-10-24T13:42:23Z</time>
      </trkpt>
      <trkpt lat="43.98202" lon="1.794">
        <ele>206.2</ele>
        <time>2021-10-24T13:42:24Z</time>
      </trkpt>
      <trkpt lat="43.98194" lon="1.79408">
        <ele>205.8</ele>
        <time>2021-10-24T13:42:27Z</time>
      </trkpt>
      <trkpt lat="43.98187" lon="1.79415">
        <ele>205.2</ele>
        <time>2021-10-24T13:42:29Z</time>
      </trkpt>
      <trkpt lat="43.98179" lon="1.79425">
        <ele>204.6</ele>
        <time>2021-10-24T13:42:32Z</time>
      </trkpt>
      <trkpt lat="43.98175" lon="1.79428">
        <ele>204.6</ele>
        <time>2021-10-24T13:42:33Z</time>
      </trkpt>
      <trkpt lat="43.98172" lon="1.79431">
        <ele>204.4</ele>
        <time>2021-10-24T13:42:34Z</time>
      </trkpt>
      <trkpt lat="43.98169" lon="1.79434">
        <ele>204</ele>
        <time>2021-10-24T13:42:35Z</time>
      </trkpt>
      <trkpt lat="43.98167" lon="1.79438">
        <ele>203.8</ele>
        <time>2021-10-24T13:42:36Z</time>
      </trkpt>
      <trkpt lat="43.98167" lon="1.79442">
        <ele>203.4</ele>
        <time>2021-10-24T13:42:37Z</time>
      </trkpt>
      <trkpt lat="43.98169" lon="1.79446">
        <ele>203.2</ele>
        <time>2021-10-24T13:42:38Z</time>
      </trkpt>
      <trkpt lat="43.98174" lon="1.79459">
        <ele>202.6</ele>
        <time>2021-10-24T13:42:41Z</time>
      </trkpt>
      <trkpt lat="43.98176" lon="1.79464">
        <ele>202</ele>
        <time>2021-10-24T13:42:42Z</time>
      </trkpt>
      <trkpt lat="43.98181" lon="1.79474">
        <ele>201.8</ele>
        <time>2021-10-24T13:42:44Z</time>
      </trkpt>
      <trkpt lat="43.98183" lon="1.79479">
        <ele>201.8</ele>
        <time>2021-10-24T13:42:45Z</time>
      </trkpt>
      <trkpt lat="43.98185" lon="1.79482">
        <ele>201.2</ele>
        <time>2021-10-24T13:42:46Z</time>
      </trkpt>
      <trkpt lat="43.98186" lon="1.79485">
        <ele>201.2</ele>
        <time>2021-10-24T13:42:47Z</time>
      </trkpt>
      <trkpt lat="43.98187" lon="1.79488">
        <ele>201</ele>
        <time>2021-10-24T13:42:48Z</time>
      </trkpt>
      <trkpt lat="43.98189" lon="1.7949">
        <ele>200.8</ele>
        <time>2021-10-24T13:42:49Z</time>
      </trkpt>
      <trkpt lat="43.98189" lon="1.79491">
        <ele>200.8</ele>
        <time>2021-10-24T13:42:50Z</time>
      </trkpt>
      <trkpt lat="43.9819" lon="1.79491">
        <ele>200.6</ele>
        <time>2021-10-24T13:42:51Z</time>
      </trkpt>
      <trkpt lat="43.98192" lon="1.79491">
        <ele>200.4</ele>
        <time>2021-10-24T13:42:52Z</time>
      </trkpt>
      <trkpt lat="43.98193" lon="1.7949">
        <ele>200.2</ele>
        <time>2021-10-24T13:42:53Z</time>
      </trkpt>
      <trkpt lat="43.98195" lon="1.79489">
        <ele>200.2</ele>
        <time>2021-10-24T13:42:55Z</time>
      </trkpt>
      <trkpt lat="43.98198" lon="1.79488">
        <ele>200.2</ele>
        <time>2021-10-24T13:42:57Z</time>
      </trkpt>
      <trkpt lat="43.98198" lon="1.79486">
        <ele>200.2</ele>
        <time>2021-10-24T13:42:58Z</time>
      </trkpt>
      <trkpt lat="43.98198" lon="1.79484">
        <ele>200.2</ele>
        <time>2021-10-24T13:42:59Z</time>
      </trkpt>
      <trkpt lat="43.98195" lon="1.79484">
        <ele>200.2</ele>
        <time>2021-10-24T13:43:01Z</time>
      </trkpt>
      <trkpt lat="43.98194" lon="1.79485">
        <ele>200.4</ele>
        <time>2021-10-24T13:43:02Z</time>
      </trkpt>
      <trkpt lat="43.98194" lon="1.79486">
        <ele>200.4</ele>
        <time>2021-10-24T13:43:03Z</time>
      </trkpt>
      <trkpt lat="43.98193" lon="1.79487">
        <ele>200.4</ele>
        <time>2021-10-24T13:43:04Z</time>
      </trkpt>
      <trkpt lat="43.98192" lon="1.79488">
        <ele>200.6</ele>
        <time>2021-10-24T13:43:05Z</time>
      </trkpt>
      <trkpt lat="43.98191" lon="1.79489">
        <ele>200.6</ele>
        <time>2021-10-24T13:43:06Z</time>
      </trkpt>
      <trkpt lat="43.98189" lon="1.79492">
        <ele>200.6</ele>
        <time>2021-10-24T13:43:08Z</time>
      </trkpt>
      <trkpt lat="43.98189" lon="1.79493">
        <ele>200.8</ele>
        <time>2021-10-24T13:43:09Z</time>
      </trkpt>
      <trkpt lat="43.98189" lon="1.79495">
        <ele>200.8</ele>
        <time>2021-10-24T13:43:10Z</time>
      </trkpt>
      <trkpt lat="43.98189" lon="1.79497">
        <ele>200.4</ele>
        <time>2021-10-24T13:43:11Z</time>
      </trkpt>
      <trkpt lat="43.98188" lon="1.79499">
        <ele>200.4</ele>
        <time>2021-10-24T13:43:12Z</time>
      </trkpt>
      <trkpt lat="43.98187" lon="1.795">
        <ele>200.4</ele>
        <time>2021-10-24T13:43:13Z</time>
      </trkpt>
      <trkpt lat="43.98185" lon="1.79501">
        <ele>200</ele>
        <time>2021-10-24T13:43:14Z</time>
      </trkpt>
      <trkpt lat="43.98184" lon="1.79503">
        <ele>200</ele>
        <time>2021-10-24T13:43:15Z</time>
      </trkpt>
      <trkpt lat="43.98182" lon="1.79504">
        <ele>199.8</ele>
        <time>2021-10-24T13:43:16Z</time>
      </trkpt>
      <trkpt lat="43.9818" lon="1.79505">
        <ele>199.8</ele>
        <time>2021-10-24T13:43:17Z</time>
      </trkpt>
      <trkpt lat="43.98164" lon="1.79515">
        <ele>199.4</ele>
        <time>2021-10-24T13:43:25Z</time>
      </trkpt>
      <trkpt lat="43.98159" lon="1.79523">
        <ele>199</ele>
        <time>2021-10-24T13:43:28Z</time>
      </trkpt>
      <trkpt lat="43.98153" lon="1.79532">
        <ele>198.4</ele>
        <time>2021-10-24T13:43:31Z</time>
      </trkpt>
      <trkpt lat="43.98152" lon="1.79533">
        <ele>198.2</ele>
        <time>2021-10-24T13:43:32Z</time>
      </trkpt>
      <trkpt lat="43.9815" lon="1.79536">
        <ele>198.2</ele>
        <time>2021-10-24T13:43:33Z</time>
      </trkpt>
      <trkpt lat="43.98149" lon="1.79538">
        <ele>198</ele>
        <time>2021-10-24T13:43:34Z</time>
      </trkpt>
      <trkpt lat="43.98144" lon="1.79546">
        <ele>197.6</ele>
        <time>2021-10-24T13:43:37Z</time>
      </trkpt>
      <trkpt lat="43.98141" lon="1.79551">
        <ele>197.2</ele>
        <time>2021-10-24T13:43:39Z</time>
      </trkpt>
      <trkpt lat="43.98138" lon="1.79554">
        <ele>197.2</ele>
        <time>2021-10-24T13:43:40Z</time>
      </trkpt>
      <trkpt lat="43.98136" lon="1.79557">
        <ele>196.6</ele>
        <time>2021-10-24T13:43:41Z</time>
      </trkpt>
      <trkpt lat="43.98134" lon="1.79559">
        <ele>196.4</ele>
        <time>2021-10-24T13:43:42Z</time>
      </trkpt>
      <trkpt lat="43.98132" lon="1.79563">
        <ele>196.2</ele>
        <time>2021-10-24T13:43:43Z</time>
      </trkpt>
      <trkpt lat="43.9813" lon="1.79567">
        <ele>196</ele>
        <time>2021-10-24T13:43:44Z</time>
      </trkpt>
      <trkpt lat="43.98128" lon="1.7957">
        <ele>196</ele>
        <time>2021-10-24T13:43:45Z</time>
      </trkpt>
      <trkpt lat="43.98126" lon="1.79574">
        <ele>195.8</ele>
        <time>2021-10-24T13:43:46Z</time>
      </trkpt>
      <trkpt lat="43.98126" lon="1.79577">
        <ele>195.8</ele>
        <time>2021-10-24T13:43:47Z</time>
      </trkpt>
      <trkpt lat="43.98126" lon="1.7958">
        <ele>195.8</ele>
        <time>2021-10-24T13:43:48Z</time>
      </trkpt>
      <trkpt lat="43.98127" lon="1.79583">
        <ele>195.8</ele>
        <time>2021-10-24T13:43:49Z</time>
      </trkpt>
      <trkpt lat="43.98127" lon="1.79586">
        <ele>195.8</ele>
        <time>2021-10-24T13:43:50Z</time>
      </trkpt>
      <trkpt lat="43.98128" lon="1.79589">
        <ele>195.8</ele>
        <time>2021-10-24T13:43:51Z</time>
      </trkpt>
      <trkpt lat="43.9813" lon="1.7959">
        <ele>195.8</ele>
        <time>2021-10-24T13:43:52Z</time>
      </trkpt>
      <trkpt lat="43.98131" lon="1.79591">
        <ele>195.8</ele>
        <time>2021-10-24T13:43:53Z</time>
      </trkpt>
      <trkpt lat="43.98132" lon="1.79592">
        <ele>195.8</ele>
        <time>2021-10-24T13:43:54Z</time>
      </trkpt>
      <trkpt lat="43.98134" lon="1.79593">
        <ele>195.8</ele>
        <time>2021-10-24T13:43:55Z</time>
      </trkpt>
      <trkpt lat="43.98134" lon="1.79595">
        <ele>195.8</ele>
        <time>2021-10-24T13:43:56Z</time>
      </trkpt>
      <trkpt lat="43.9813" lon="1.79595">
        <ele>196.2</ele>
        <time>2021-10-24T13:43:59Z</time>
      </trkpt>
      <trkpt lat="43.98127" lon="1.79589">
        <ele>196.2</ele>
        <time>2021-10-24T13:44:01Z</time>
      </trkpt>
      <trkpt lat="43.98127" lon="1.79583">
        <ele>196.4</ele>
        <time>2021-10-24T13:44:03Z</time>
      </trkpt>
      <trkpt lat="43.98127" lon="1.7958">
        <ele>196.6</ele>
        <time>2021-10-24T13:44:04Z</time>
      </trkpt>
      <trkpt lat="43.98127" lon="1.79578">
        <ele>196.8</ele>
        <time>2021-10-24T13:44:05Z</time>
      </trkpt>
      <trkpt lat="43.98127" lon="1.79575">
        <ele>196.4</ele>
        <time>2021-10-24T13:44:06Z</time>
      </trkpt>
      <trkpt lat="43.98129" lon="1.79573">
        <ele>196.2</ele>
        <time>2021-10-24T13:44:07Z</time>
      </trkpt>
      <trkpt lat="43.9813" lon="1.79572">
        <ele>196.2</ele>
        <time>2021-10-24T13:44:08Z</time>
      </trkpt>
      <trkpt lat="43.98133" lon="1.79572">
        <ele>196</ele>
        <time>2021-10-24T13:44:09Z</time>
      </trkpt>
      <trkpt lat="43.98137" lon="1.79572">
        <ele>196</ele>
        <time>2021-10-24T13:44:11Z</time>
      </trkpt>
      <trkpt lat="43.98138" lon="1.79573">
        <ele>196.2</ele>
        <time>2021-10-24T13:44:12Z</time>
      </trkpt>
      <trkpt lat="43.9814" lon="1.79575">
        <ele>196.2</ele>
        <time>2021-10-24T13:44:13Z</time>
      </trkpt>
      <trkpt lat="43.98141" lon="1.79577">
        <ele>196.2</ele>
        <time>2021-10-24T13:44:14Z</time>
      </trkpt>
      <trkpt lat="43.98143" lon="1.79579">
        <ele>196.2</ele>
        <time>2021-10-24T13:44:15Z</time>
      </trkpt>
      <trkpt lat="43.98144" lon="1.7958">
        <ele>196.6</ele>
        <time>2021-10-24T13:44:16Z</time>
      </trkpt>
      <trkpt lat="43.98145" lon="1.79582">
        <ele>196.6</ele>
        <time>2021-10-24T13:44:17Z</time>
      </trkpt>
      <trkpt lat="43.98147" lon="1.79586">
        <ele>197</ele>
        <time>2021-10-24T13:44:19Z</time>
      </trkpt>
      <trkpt lat="43.98149" lon="1.79588">
        <ele>197</ele>
        <time>2021-10-24T13:44:20Z</time>
      </trkpt>
      <trkpt lat="43.9815" lon="1.79589">
        <ele>197.2</ele>
        <time>2021-10-24T13:44:21Z</time>
      </trkpt>
      <trkpt lat="43.98151" lon="1.79591">
        <ele>197.2</ele>
        <time>2021-10-24T13:44:22Z</time>
      </trkpt>
      <trkpt lat="43.98152" lon="1.79592">
        <ele>197.4</ele>
        <time>2021-10-24T13:44:23Z</time>
      </trkpt>
      <trkpt lat="43.98153" lon="1.79593">
        <ele>197.4</ele>
        <time>2021-10-24T13:44:25Z</time>
      </trkpt>
      <trkpt lat="43.98156" lon="1.79598">
        <ele>198.2</ele>
        <time>2021-10-24T13:44:28Z</time>
      </trkpt>
      <trkpt lat="43.98157" lon="1.79601">
        <ele>199</ele>
        <time>2021-10-24T13:44:36Z</time>
      </trkpt>
      <trkpt lat="43.98159" lon="1.79604">
        <ele>199</ele>
        <time>2021-10-24T13:44:38Z</time>
      </trkpt>
      <trkpt lat="43.9816" lon="1.7961">
        <ele>199</ele>
        <time>2021-10-24T13:44:40Z</time>
      </trkpt>
      <trkpt lat="43.9816" lon="1.79613">
        <ele>199</ele>
        <time>2021-10-24T13:44:41Z</time>
      </trkpt>
      <trkpt lat="43.98158" lon="1.79616">
        <ele>199</ele>
        <time>2021-10-24T13:44:42Z</time>
      </trkpt>
      <trkpt lat="43.98152" lon="1.79622">
        <ele>199</ele>
        <time>2021-10-24T13:44:45Z</time>
      </trkpt>
      <trkpt lat="43.9815" lon="1.79625">
        <ele>198.8</ele>
        <time>2021-10-24T13:44:46Z</time>
      </trkpt>
      <trkpt lat="43.98144" lon="1.79632">
        <ele>198.8</ele>
        <time>2021-10-24T13:44:48Z</time>
      </trkpt>
      <trkpt lat="43.98128" lon="1.7965">
        <ele>198.2</ele>
        <time>2021-10-24T13:44:53Z</time>
      </trkpt>
      <trkpt lat="43.98121" lon="1.79658">
        <ele>197.8</ele>
        <time>2021-10-24T13:44:55Z</time>
      </trkpt>
      <trkpt lat="43.98115" lon="1.79667">
        <ele>197.6</ele>
        <time>2021-10-24T13:44:57Z</time>
      </trkpt>
      <trkpt lat="43.98105" lon="1.7968">
        <ele>197</ele>
        <time>2021-10-24T13:45:01Z</time>
      </trkpt>
      <trkpt lat="43.98097" lon="1.79688">
        <ele>196</ele>
        <time>2021-10-24T13:45:03Z</time>
      </trkpt>
      <trkpt lat="43.98095" lon="1.7969">
        <ele>195.8</ele>
        <time>2021-10-24T13:45:04Z</time>
      </trkpt>
      <trkpt lat="43.98092" lon="1.79693">
        <ele>195.2</ele>
        <time>2021-10-24T13:45:05Z</time>
      </trkpt>
      <trkpt lat="43.98088" lon="1.79694">
        <ele>195</ele>
        <time>2021-10-24T13:45:06Z</time>
      </trkpt>
      <trkpt lat="43.98086" lon="1.79693">
        <ele>194.6</ele>
        <time>2021-10-24T13:45:07Z</time>
      </trkpt>
      <trkpt lat="43.98083" lon="1.79691">
        <ele>194.6</ele>
        <time>2021-10-24T13:45:08Z</time>
      </trkpt>
      <trkpt lat="43.9808" lon="1.79689">
        <ele>194.4</ele>
        <time>2021-10-24T13:45:09Z</time>
      </trkpt>
      <trkpt lat="43.98078" lon="1.79688">
        <ele>194.2</ele>
        <time>2021-10-24T13:45:10Z</time>
      </trkpt>
      <trkpt lat="43.98075" lon="1.79689">
        <ele>194.2</ele>
        <time>2021-10-24T13:45:11Z</time>
      </trkpt>
      <trkpt lat="43.98071" lon="1.79692">
        <ele>194</ele>
        <time>2021-10-24T13:45:12Z</time>
      </trkpt>
      <trkpt lat="43.98067" lon="1.79695">
        <ele>193.8</ele>
        <time>2021-10-24T13:45:13Z</time>
      </trkpt>
      <trkpt lat="43.98051" lon="1.7971">
        <ele>193</ele>
        <time>2021-10-24T13:45:17Z</time>
      </trkpt>
      <trkpt lat="43.98044" lon="1.79715">
        <ele>192.6</ele>
        <time>2021-10-24T13:45:18Z</time>
      </trkpt>
      <trkpt lat="43.98034" lon="1.79724">
        <ele>192.2</ele>
        <time>2021-10-24T13:45:20Z</time>
      </trkpt>
      <trkpt lat="43.98029" lon="1.79729">
        <ele>191.8</ele>
        <time>2021-10-24T13:45:21Z</time>
      </trkpt>
      <trkpt lat="43.98025" lon="1.79732">
        <ele>191.4</ele>
        <time>2021-10-24T13:45:22Z</time>
      </trkpt>
      <trkpt lat="43.98022" lon="1.79736">
        <ele>190.6</ele>
        <time>2021-10-24T13:45:23Z</time>
      </trkpt>
      <trkpt lat="43.98018" lon="1.79739">
        <ele>190.4</ele>
        <time>2021-10-24T13:45:24Z</time>
      </trkpt>
      <trkpt lat="43.98017" lon="1.79744">
        <ele>190</ele>
        <time>2021-10-24T13:45:25Z</time>
      </trkpt>
      <trkpt lat="43.98017" lon="1.79748">
        <ele>189.8</ele>
        <time>2021-10-24T13:45:26Z</time>
      </trkpt>
      <trkpt lat="43.98017" lon="1.79751">
        <ele>189.6</ele>
        <time>2021-10-24T13:45:27Z</time>
      </trkpt>
      <trkpt lat="43.98019" lon="1.79755">
        <ele>189.4</ele>
        <time>2021-10-24T13:45:28Z</time>
      </trkpt>
      <trkpt lat="43.98021" lon="1.79758">
        <ele>189.2</ele>
        <time>2021-10-24T13:45:29Z</time>
      </trkpt>
      <trkpt lat="43.98022" lon="1.7976">
        <ele>188.6</ele>
        <time>2021-10-24T13:45:30Z</time>
      </trkpt>
      <trkpt lat="43.98024" lon="1.79763">
        <ele>188.4</ele>
        <time>2021-10-24T13:45:31Z</time>
      </trkpt>
      <trkpt lat="43.98025" lon="1.79766">
        <ele>188.2</ele>
        <time>2021-10-24T13:45:32Z</time>
      </trkpt>
      <trkpt lat="43.98028" lon="1.79775">
        <ele>188</ele>
        <time>2021-10-24T13:45:35Z</time>
      </trkpt>
      <trkpt lat="43.98028" lon="1.79778">
        <ele>187.8</ele>
        <time>2021-10-24T13:45:36Z</time>
      </trkpt>
      <trkpt lat="43.9803" lon="1.79785">
        <ele>187.6</ele>
        <time>2021-10-24T13:45:38Z</time>
      </trkpt>
      <trkpt lat="43.98031" lon="1.79789">
        <ele>187.4</ele>
        <time>2021-10-24T13:45:39Z</time>
      </trkpt>
      <trkpt lat="43.98034" lon="1.79799">
        <ele>187.6</ele>
        <time>2021-10-24T13:45:42Z</time>
      </trkpt>
      <trkpt lat="43.98038" lon="1.79811">
        <ele>187.2</ele>
        <time>2021-10-24T13:45:46Z</time>
      </trkpt>
      <trkpt lat="43.9804" lon="1.79817">
        <ele>187.2</ele>
        <time>2021-10-24T13:45:48Z</time>
      </trkpt>
      <trkpt lat="43.98039" lon="1.79825">
        <ele>187.2</ele>
        <time>2021-10-24T13:45:50Z</time>
      </trkpt>
      <trkpt lat="43.98036" lon="1.79829">
        <ele>187.2</ele>
        <time>2021-10-24T13:45:51Z</time>
      </trkpt>
      <trkpt lat="43.98025" lon="1.7984">
        <ele>187</ele>
        <time>2021-10-24T13:45:54Z</time>
      </trkpt>
      <trkpt lat="43.98022" lon="1.79844">
        <ele>186.6</ele>
        <time>2021-10-24T13:45:55Z</time>
      </trkpt>
      <trkpt lat="43.98018" lon="1.79848">
        <ele>186.6</ele>
        <time>2021-10-24T13:45:56Z</time>
      </trkpt>
      <trkpt lat="43.98011" lon="1.79855">
        <ele>185.8</ele>
        <time>2021-10-24T13:45:58Z</time>
      </trkpt>
      <trkpt lat="43.98003" lon="1.79862">
        <ele>185.4</ele>
        <time>2021-10-24T13:46:00Z</time>
      </trkpt>
      <trkpt lat="43.98" lon="1.79866">
        <ele>185.2</ele>
        <time>2021-10-24T13:46:01Z</time>
      </trkpt>
      <trkpt lat="43.97996" lon="1.7987">
        <ele>184.8</ele>
        <time>2021-10-24T13:46:02Z</time>
      </trkpt>
      <trkpt lat="43.97992" lon="1.79873">
        <ele>184.6</ele>
        <time>2021-10-24T13:46:03Z</time>
      </trkpt>
      <trkpt lat="43.9799" lon="1.79876">
        <ele>184.4</ele>
        <time>2021-10-24T13:46:04Z</time>
      </trkpt>
      <trkpt lat="43.97987" lon="1.79879">
        <ele>184.2</ele>
        <time>2021-10-24T13:46:05Z</time>
      </trkpt>
      <trkpt lat="43.97961" lon="1.79905">
        <ele>183.4</ele>
        <time>2021-10-24T13:46:12Z</time>
      </trkpt>
      <trkpt lat="43.97957" lon="1.79908">
        <ele>182.8</ele>
        <time>2021-10-24T13:46:13Z</time>
      </trkpt>
      <trkpt lat="43.97953" lon="1.79912">
        <ele>182.6</ele>
        <time>2021-10-24T13:46:14Z</time>
      </trkpt>
      <trkpt lat="43.97949" lon="1.79917">
        <ele>182.6</ele>
        <time>2021-10-24T13:46:15Z</time>
      </trkpt>
      <trkpt lat="43.97946" lon="1.7992">
        <ele>182</ele>
        <time>2021-10-24T13:46:16Z</time>
      </trkpt>
      <trkpt lat="43.97943" lon="1.79923">
        <ele>181.6</ele>
        <time>2021-10-24T13:46:17Z</time>
      </trkpt>
      <trkpt lat="43.9794" lon="1.79925">
        <ele>181.4</ele>
        <time>2021-10-24T13:46:18Z</time>
      </trkpt>
      <trkpt lat="43.97937" lon="1.79928">
        <ele>181</ele>
        <time>2021-10-24T13:46:19Z</time>
      </trkpt>
      <trkpt lat="43.97936" lon="1.79929">
        <ele>180.8</ele>
        <time>2021-10-24T13:46:20Z</time>
      </trkpt>
      <trkpt lat="43.97934" lon="1.79931">
        <ele>180.6</ele>
        <time>2021-10-24T13:46:21Z</time>
      </trkpt>
      <trkpt lat="43.97934" lon="1.79931">
        <ele>180.2</ele>
        <time>2021-10-24T13:47:12Z</time>
      </trkpt>
      <trkpt lat="43.97933" lon="1.79933">
        <ele>180.2</ele>
        <time>2021-10-24T13:47:13Z</time>
      </trkpt>
      <trkpt lat="43.97936" lon="1.79945">
        <ele>180.2</ele>
        <time>2021-10-24T13:47:17Z</time>
      </trkpt>
      <trkpt lat="43.97937" lon="1.79947">
        <ele>180.2</ele>
        <time>2021-10-24T13:47:18Z</time>
      </trkpt>
      <trkpt lat="43.97938" lon="1.7995">
        <ele>180</ele>
        <time>2021-10-24T13:47:19Z</time>
      </trkpt>
      <trkpt lat="43.97948" lon="1.7997">
        <ele>180</ele>
        <time>2021-10-24T13:47:26Z</time>
      </trkpt>
      <trkpt lat="43.97963" lon="1.79997">
        <ele>180</ele>
        <time>2021-10-24T13:47:34Z</time>
      </trkpt>
      <trkpt lat="43.97965" lon="1.80001">
        <ele>180</ele>
        <time>2021-10-24T13:47:35Z</time>
      </trkpt>
      <trkpt lat="43.97979" lon="1.8003">
        <ele>180</ele>
        <time>2021-10-24T13:47:42Z</time>
      </trkpt>
      <trkpt lat="43.97981" lon="1.80034">
        <ele>180</ele>
        <time>2021-10-24T13:47:43Z</time>
      </trkpt>
      <trkpt lat="43.97984" lon="1.80038">
        <ele>180</ele>
        <time>2021-10-24T13:47:44Z</time>
      </trkpt>
      <trkpt lat="43.9799" lon="1.80049">
        <ele>179.8</ele>
        <time>2021-10-24T13:47:47Z</time>
      </trkpt>
      <trkpt lat="43.97992" lon="1.80052">
        <ele>179.8</ele>
        <time>2021-10-24T13:47:48Z</time>
      </trkpt>
      <trkpt lat="43.98" lon="1.80068">
        <ele>179.8</ele>
        <time>2021-10-24T13:47:52Z</time>
      </trkpt>
      <trkpt lat="43.98013" lon="1.80092">
        <ele>179.8</ele>
        <time>2021-10-24T13:47:58Z</time>
      </trkpt>
      <trkpt lat="43.98019" lon="1.80105">
        <ele>179.8</ele>
        <time>2021-10-24T13:48:01Z</time>
      </trkpt>
      <trkpt lat="43.98021" lon="1.80109">
        <ele>179.8</ele>
        <time>2021-10-24T13:48:02Z</time>
      </trkpt>
      <trkpt lat="43.98025" lon="1.80117">
        <ele>179.8</ele>
        <time>2021-10-24T13:48:04Z</time>
      </trkpt>
      <trkpt lat="43.98027" lon="1.80121">
        <ele>179.8</ele>
        <time>2021-10-24T13:48:05Z</time>
      </trkpt>
      <trkpt lat="43.98029" lon="1.80125">
        <ele>179.8</ele>
        <time>2021-10-24T13:48:06Z</time>
      </trkpt>
      <trkpt lat="43.98033" lon="1.80133">
        <ele>180</ele>
        <time>2021-10-24T13:48:08Z</time>
      </trkpt>
      <trkpt lat="43.98034" lon="1.80138">
        <ele>180</ele>
        <time>2021-10-24T13:48:09Z</time>
      </trkpt>
      <trkpt lat="43.98038" lon="1.80146">
        <ele>180.2</ele>
        <time>2021-10-24T13:48:11Z</time>
      </trkpt>
      <trkpt lat="43.98039" lon="1.8015">
        <ele>180.2</ele>
        <time>2021-10-24T13:48:12Z</time>
      </trkpt>
      <trkpt lat="43.98042" lon="1.80159">
        <ele>180.4</ele>
        <time>2021-10-24T13:48:14Z</time>
      </trkpt>
      <trkpt lat="43.98044" lon="1.80163">
        <ele>180.6</ele>
        <time>2021-10-24T13:48:15Z</time>
      </trkpt>
      <trkpt lat="43.98046" lon="1.80166">
        <ele>180.6</ele>
        <time>2021-10-24T13:48:16Z</time>
      </trkpt>
      <trkpt lat="43.98049" lon="1.80175">
        <ele>180.8</ele>
        <time>2021-10-24T13:48:18Z</time>
      </trkpt>
      <trkpt lat="43.9805" lon="1.80179">
        <ele>180.8</ele>
        <time>2021-10-24T13:48:19Z</time>
      </trkpt>
      <trkpt lat="43.98056" lon="1.80195">
        <ele>181.4</ele>
        <time>2021-10-24T13:48:23Z</time>
      </trkpt>
      <trkpt lat="43.98057" lon="1.802">
        <ele>181.4</ele>
        <time>2021-10-24T13:48:24Z</time>
      </trkpt>
      <trkpt lat="43.98058" lon="1.80204">
        <ele>181.6</ele>
        <time>2021-10-24T13:48:25Z</time>
      </trkpt>
      <trkpt lat="43.9806" lon="1.80208">
        <ele>181.6</ele>
        <time>2021-10-24T13:48:26Z</time>
      </trkpt>
      <trkpt lat="43.98067" lon="1.8023">
        <ele>182.4</ele>
        <time>2021-10-24T13:48:31Z</time>
      </trkpt>
      <trkpt lat="43.98073" lon="1.80249">
        <ele>182.8</ele>
        <time>2021-10-24T13:48:35Z</time>
      </trkpt>
      <trkpt lat="43.9808" lon="1.8027">
        <ele>183</ele>
        <time>2021-10-24T13:48:40Z</time>
      </trkpt>
      <trkpt lat="43.98082" lon="1.80275">
        <ele>183.2</ele>
        <time>2021-10-24T13:48:41Z</time>
      </trkpt>
      <trkpt lat="43.98086" lon="1.80288">
        <ele>183.4</ele>
        <time>2021-10-24T13:48:44Z</time>
      </trkpt>
      <trkpt lat="43.98087" lon="1.80292">
        <ele>183.4</ele>
        <time>2021-10-24T13:48:45Z</time>
      </trkpt>
      <trkpt lat="43.9809" lon="1.80301">
        <ele>183.6</ele>
        <time>2021-10-24T13:48:47Z</time>
      </trkpt>
      <trkpt lat="43.98091" lon="1.80305">
        <ele>183.6</ele>
        <time>2021-10-24T13:48:48Z</time>
      </trkpt>
      <trkpt lat="43.98093" lon="1.80309">
        <ele>183.6</ele>
        <time>2021-10-24T13:48:49Z</time>
      </trkpt>
      <trkpt lat="43.98094" lon="1.80313">
        <ele>183.6</ele>
        <time>2021-10-24T13:48:50Z</time>
      </trkpt>
      <trkpt lat="43.98095" lon="1.80318">
        <ele>183.6</ele>
        <time>2021-10-24T13:48:51Z</time>
      </trkpt>
      <trkpt lat="43.98097" lon="1.80322">
        <ele>183.8</ele>
        <time>2021-10-24T13:48:52Z</time>
      </trkpt>
      <trkpt lat="43.98098" lon="1.80326">
        <ele>183.8</ele>
        <time>2021-10-24T13:48:53Z</time>
      </trkpt>
      <trkpt lat="43.98099" lon="1.8033">
        <ele>184</ele>
        <time>2021-10-24T13:48:54Z</time>
      </trkpt>
      <trkpt lat="43.98102" lon="1.80338">
        <ele>184.2</ele>
        <time>2021-10-24T13:48:56Z</time>
      </trkpt>
      <trkpt lat="43.98103" lon="1.80342">
        <ele>184.4</ele>
        <time>2021-10-24T13:48:57Z</time>
      </trkpt>
      <trkpt lat="43.98104" lon="1.80345">
        <ele>184.4</ele>
        <time>2021-10-24T13:48:58Z</time>
      </trkpt>
      <trkpt lat="43.98105" lon="1.80349">
        <ele>184.6</ele>
        <time>2021-10-24T13:48:59Z</time>
      </trkpt>
      <trkpt lat="43.98106" lon="1.80352">
        <ele>184.6</ele>
        <time>2021-10-24T13:49:00Z</time>
      </trkpt>
      <trkpt lat="43.98107" lon="1.80355">
        <ele>184.8</ele>
        <time>2021-10-24T13:49:01Z</time>
      </trkpt>
      <trkpt lat="43.98108" lon="1.80358">
        <ele>185</ele>
        <time>2021-10-24T13:49:02Z</time>
      </trkpt>
      <trkpt lat="43.98108" lon="1.8036">
        <ele>185</ele>
        <time>2021-10-24T13:49:03Z</time>
      </trkpt>
      <trkpt lat="43.98109" lon="1.80362">
        <ele>185</ele>
        <time>2021-10-24T13:49:04Z</time>
      </trkpt>
      <trkpt lat="43.98109" lon="1.80364">
        <ele>185</ele>
        <time>2021-10-24T13:49:05Z</time>
      </trkpt>
      <trkpt lat="43.9811" lon="1.80366">
        <ele>185.2</ele>
        <time>2021-10-24T13:49:06Z</time>
      </trkpt>
      <trkpt lat="43.98109" lon="1.80371">
        <ele>185.2</ele>
        <time>2021-10-24T13:49:08Z</time>
      </trkpt>
      <trkpt lat="43.98108" lon="1.80375">
        <ele>185.4</ele>
        <time>2021-10-24T13:49:09Z</time>
      </trkpt>
      <trkpt lat="43.98107" lon="1.80379">
        <ele>185.4</ele>
        <time>2021-10-24T13:49:10Z</time>
      </trkpt>
      <trkpt lat="43.98105" lon="1.80385">
        <ele>185.4</ele>
        <time>2021-10-24T13:49:11Z</time>
      </trkpt>
      <trkpt lat="43.98103" lon="1.80392">
        <ele>185.4</ele>
        <time>2021-10-24T13:49:12Z</time>
      </trkpt>
      <trkpt lat="43.98097" lon="1.80408">
        <ele>185.4</ele>
        <time>2021-10-24T13:49:14Z</time>
      </trkpt>
      <trkpt lat="43.98088" lon="1.80426">
        <ele>185.2</ele>
        <time>2021-10-24T13:49:16Z</time>
      </trkpt>
      <trkpt lat="43.98071" lon="1.80455">
        <ele>182.6</ele>
        <time>2021-10-24T13:49:19Z</time>
      </trkpt>
      <trkpt lat="43.98059" lon="1.80474">
        <ele>181.8</ele>
        <time>2021-10-24T13:49:21Z</time>
      </trkpt>
      <trkpt lat="43.98053" lon="1.80482">
        <ele>180.4</ele>
        <time>2021-10-24T13:49:22Z</time>
      </trkpt>
      <trkpt lat="43.98047" lon="1.80491">
        <ele>180</ele>
        <time>2021-10-24T13:49:23Z</time>
      </trkpt>
      <trkpt lat="43.9804" lon="1.80499">
        <ele>179.2</ele>
        <time>2021-10-24T13:49:24Z</time>
      </trkpt>
      <trkpt lat="43.98034" lon="1.80507">
        <ele>178.8</ele>
        <time>2021-10-24T13:49:25Z</time>
      </trkpt>
      <trkpt lat="43.98028" lon="1.80514">
        <ele>178.2</ele>
        <time>2021-10-24T13:49:26Z</time>
      </trkpt>
      <trkpt lat="43.98022" lon="1.80521">
        <ele>178</ele>
        <time>2021-10-24T13:49:27Z</time>
      </trkpt>
      <trkpt lat="43.98015" lon="1.80527">
        <ele>177.6</ele>
        <time>2021-10-24T13:49:28Z</time>
      </trkpt>
      <trkpt lat="43.98009" lon="1.80534">
        <ele>177.2</ele>
        <time>2021-10-24T13:49:29Z</time>
      </trkpt>
      <trkpt lat="43.98001" lon="1.8054">
        <ele>177.2</ele>
        <time>2021-10-24T13:49:30Z</time>
      </trkpt>
      <trkpt lat="43.97996" lon="1.80544">
        <ele>177</ele>
        <time>2021-10-24T13:49:31Z</time>
      </trkpt>
      <trkpt lat="43.9799" lon="1.80549">
        <ele>176.8</ele>
        <time>2021-10-24T13:49:32Z</time>
      </trkpt>
      <trkpt lat="43.97984" lon="1.80554">
        <ele>176.6</ele>
        <time>2021-10-24T13:49:33Z</time>
      </trkpt>
      <trkpt lat="43.97978" lon="1.80557">
        <ele>176.6</ele>
        <time>2021-10-24T13:49:34Z</time>
      </trkpt>
      <trkpt lat="43.97972" lon="1.80559">
        <ele>176.4</ele>
        <time>2021-10-24T13:49:35Z</time>
      </trkpt>
      <trkpt lat="43.97967" lon="1.80562">
        <ele>176.4</ele>
        <time>2021-10-24T13:49:36Z</time>
      </trkpt>
      <trkpt lat="43.97961" lon="1.80564">
        <ele>176.2</ele>
        <time>2021-10-24T13:49:37Z</time>
      </trkpt>
      <trkpt lat="43.97956" lon="1.80566">
        <ele>176.2</ele>
        <time>2021-10-24T13:49:38Z</time>
      </trkpt>
      <trkpt lat="43.97951" lon="1.80569">
        <ele>176.2</ele>
        <time>2021-10-24T13:49:39Z</time>
      </trkpt>
      <trkpt lat="43.97946" lon="1.80571">
        <ele>176</ele>
        <time>2021-10-24T13:49:40Z</time>
      </trkpt>
      <trkpt lat="43.97941" lon="1.80573">
        <ele>176</ele>
        <time>2021-10-24T13:49:41Z</time>
      </trkpt>
      <trkpt lat="43.97937" lon="1.80576">
        <ele>176</ele>
        <time>2021-10-24T13:49:42Z</time>
      </trkpt>
      <trkpt lat="43.97932" lon="1.80578">
        <ele>176</ele>
        <time>2021-10-24T13:49:43Z</time>
      </trkpt>
      <trkpt lat="43.97919" lon="1.80585">
        <ele>176</ele>
        <time>2021-10-24T13:49:46Z</time>
      </trkpt>
      <trkpt lat="43.97901" lon="1.80595">
        <ele>176</ele>
        <time>2021-10-24T13:49:50Z</time>
      </trkpt>
      <trkpt lat="43.97897" lon="1.80598">
        <ele>176.2</ele>
        <time>2021-10-24T13:49:51Z</time>
      </trkpt>
      <trkpt lat="43.97893" lon="1.80601">
        <ele>176.2</ele>
        <time>2021-10-24T13:49:52Z</time>
      </trkpt>
      <trkpt lat="43.97888" lon="1.80604">
        <ele>176.2</ele>
        <time>2021-10-24T13:49:53Z</time>
      </trkpt>
      <trkpt lat="43.9788" lon="1.8061">
        <ele>176.2</ele>
        <time>2021-10-24T13:49:55Z</time>
      </trkpt>
      <trkpt lat="43.97876" lon="1.80613">
        <ele>176.2</ele>
        <time>2021-10-24T13:49:56Z</time>
      </trkpt>
      <trkpt lat="43.97848" lon="1.80638">
        <ele>176.8</ele>
        <time>2021-10-24T13:50:03Z</time>
      </trkpt>
      <trkpt lat="43.97841" lon="1.80647">
        <ele>177</ele>
        <time>2021-10-24T13:50:05Z</time>
      </trkpt>
      <trkpt lat="43.97837" lon="1.80651">
        <ele>177</ele>
        <time>2021-10-24T13:50:06Z</time>
      </trkpt>
      <trkpt lat="43.97829" lon="1.8066">
        <ele>177</ele>
        <time>2021-10-24T13:50:08Z</time>
      </trkpt>
      <trkpt lat="43.97822" lon="1.80668">
        <ele>177</ele>
        <time>2021-10-24T13:50:10Z</time>
      </trkpt>
      <trkpt lat="43.97819" lon="1.80673">
        <ele>177</ele>
        <time>2021-10-24T13:50:11Z</time>
      </trkpt>
      <trkpt lat="43.97815" lon="1.80677">
        <ele>177</ele>
        <time>2021-10-24T13:50:12Z</time>
      </trkpt>
      <trkpt lat="43.97812" lon="1.80681">
        <ele>177</ele>
        <time>2021-10-24T13:50:13Z</time>
      </trkpt>
      <trkpt lat="43.97808" lon="1.80686">
        <ele>177</ele>
        <time>2021-10-24T13:50:14Z</time>
      </trkpt>
      <trkpt lat="43.97797" lon="1.80698">
        <ele>177</ele>
        <time>2021-10-24T13:50:17Z</time>
      </trkpt>
      <trkpt lat="43.97787" lon="1.80711">
        <ele>177.2</ele>
        <time>2021-10-24T13:50:20Z</time>
      </trkpt>
      <trkpt lat="43.97783" lon="1.80716">
        <ele>177.2</ele>
        <time>2021-10-24T13:50:21Z</time>
      </trkpt>
      <trkpt lat="43.9778" lon="1.8072">
        <ele>177.2</ele>
        <time>2021-10-24T13:50:22Z</time>
      </trkpt>
      <trkpt lat="43.97772" lon="1.80728">
        <ele>177.2</ele>
        <time>2021-10-24T13:50:24Z</time>
      </trkpt>
      <trkpt lat="43.97751" lon="1.80752">
        <ele>177</ele>
        <time>2021-10-24T13:50:30Z</time>
      </trkpt>
      <trkpt lat="43.97737" lon="1.80769">
        <ele>177.2</ele>
        <time>2021-10-24T13:50:34Z</time>
      </trkpt>
      <trkpt lat="43.977" lon="1.80813">
        <ele>177.4</ele>
        <time>2021-10-24T13:50:44Z</time>
      </trkpt>
      <trkpt lat="43.97697" lon="1.80818">
        <ele>177.4</ele>
        <time>2021-10-24T13:50:45Z</time>
      </trkpt>
      <trkpt lat="43.97689" lon="1.80826">
        <ele>177.4</ele>
        <time>2021-10-24T13:50:47Z</time>
      </trkpt>
      <trkpt lat="43.97685" lon="1.8083">
        <ele>177.4</ele>
        <time>2021-10-24T13:50:48Z</time>
      </trkpt>
      <trkpt lat="43.97682" lon="1.80834">
        <ele>177.4</ele>
        <time>2021-10-24T13:50:49Z</time>
      </trkpt>
      <trkpt lat="43.97678" lon="1.80839">
        <ele>177.4</ele>
        <time>2021-10-24T13:50:50Z</time>
      </trkpt>
      <trkpt lat="43.97674" lon="1.80843">
        <ele>177.4</ele>
        <time>2021-10-24T13:50:51Z</time>
      </trkpt>
      <trkpt lat="43.97671" lon="1.80847">
        <ele>177.4</ele>
        <time>2021-10-24T13:50:52Z</time>
      </trkpt>
      <trkpt lat="43.97667" lon="1.8085">
        <ele>177.6</ele>
        <time>2021-10-24T13:50:53Z</time>
      </trkpt>
      <trkpt lat="43.97664" lon="1.80854">
        <ele>177.6</ele>
        <time>2021-10-24T13:50:54Z</time>
      </trkpt>
      <trkpt lat="43.97661" lon="1.80857">
        <ele>177.6</ele>
        <time>2021-10-24T13:50:55Z</time>
      </trkpt>
      <trkpt lat="43.97658" lon="1.80859">
        <ele>177.6</ele>
        <time>2021-10-24T13:50:56Z</time>
      </trkpt>
      <trkpt lat="43.97655" lon="1.80862">
        <ele>177.6</ele>
        <time>2021-10-24T13:50:57Z</time>
      </trkpt>
      <trkpt lat="43.97652" lon="1.80864">
        <ele>177.6</ele>
        <time>2021-10-24T13:50:58Z</time>
      </trkpt>
      <trkpt lat="43.97649" lon="1.80867">
        <ele>177.6</ele>
        <time>2021-10-24T13:50:59Z</time>
      </trkpt>
      <trkpt lat="43.97647" lon="1.80869">
        <ele>177.8</ele>
        <time>2021-10-24T13:51:00Z</time>
      </trkpt>
      <trkpt lat="43.9763" lon="1.80882">
        <ele>178.2</ele>
        <time>2021-10-24T13:51:05Z</time>
      </trkpt>
      <trkpt lat="43.97622" lon="1.80885">
        <ele>178.2</ele>
        <time>2021-10-24T13:51:07Z</time>
      </trkpt>
      <trkpt lat="43.97618" lon="1.80887">
        <ele>178.2</ele>
        <time>2021-10-24T13:51:08Z</time>
      </trkpt>
      <trkpt lat="43.97615" lon="1.80889">
        <ele>178.2</ele>
        <time>2021-10-24T13:51:09Z</time>
      </trkpt>
      <trkpt lat="43.97611" lon="1.80892">
        <ele>178.2</ele>
        <time>2021-10-24T13:51:10Z</time>
      </trkpt>
      <trkpt lat="43.97609" lon="1.80895">
        <ele>178.2</ele>
        <time>2021-10-24T13:51:11Z</time>
      </trkpt>
      <trkpt lat="43.97608" lon="1.809">
        <ele>178.2</ele>
        <time>2021-10-24T13:51:12Z</time>
      </trkpt>
      <trkpt lat="43.97608" lon="1.80905">
        <ele>178.2</ele>
        <time>2021-10-24T13:51:13Z</time>
      </trkpt>
      <trkpt lat="43.97609" lon="1.80911">
        <ele>178.2</ele>
        <time>2021-10-24T13:51:14Z</time>
      </trkpt>
      <trkpt lat="43.97611" lon="1.80921">
        <ele>178</ele>
        <time>2021-10-24T13:51:16Z</time>
      </trkpt>
      <trkpt lat="43.97612" lon="1.80926">
        <ele>178</ele>
        <time>2021-10-24T13:51:17Z</time>
      </trkpt>
      <trkpt lat="43.97613" lon="1.80931">
        <ele>178</ele>
        <time>2021-10-24T13:51:18Z</time>
      </trkpt>
      <trkpt lat="43.97614" lon="1.80936">
        <ele>177.8</ele>
        <time>2021-10-24T13:51:19Z</time>
      </trkpt>
      <trkpt lat="43.97617" lon="1.80946">
        <ele>177.6</ele>
        <time>2021-10-24T13:51:21Z</time>
      </trkpt>
      <trkpt lat="43.97618" lon="1.80951">
        <ele>177.6</ele>
        <time>2021-10-24T13:51:22Z</time>
      </trkpt>
      <trkpt lat="43.97619" lon="1.80956">
        <ele>177.4</ele>
        <time>2021-10-24T13:51:23Z</time>
      </trkpt>
      <trkpt lat="43.9762" lon="1.80962">
        <ele>177.4</ele>
        <time>2021-10-24T13:51:24Z</time>
      </trkpt>
      <trkpt lat="43.9763" lon="1.81009">
        <ele>177.4</ele>
        <time>2021-10-24T13:51:33Z</time>
      </trkpt>
      <trkpt lat="43.97632" lon="1.81026">
        <ele>177.4</ele>
        <time>2021-10-24T13:51:36Z</time>
      </trkpt>
      <trkpt lat="43.97638" lon="1.81054">
        <ele>177.2</ele>
        <time>2021-10-24T13:51:41Z</time>
      </trkpt>
      <trkpt lat="43.97639" lon="1.81059">
        <ele>177.2</ele>
        <time>2021-10-24T13:51:42Z</time>
      </trkpt>
      <trkpt lat="43.9764" lon="1.81065">
        <ele>177.2</ele>
        <time>2021-10-24T13:51:43Z</time>
      </trkpt>
      <trkpt lat="43.97642" lon="1.81075">
        <ele>177</ele>
        <time>2021-10-24T13:51:45Z</time>
      </trkpt>
      <trkpt lat="43.97644" lon="1.81086">
        <ele>177</ele>
        <time>2021-10-24T13:51:47Z</time>
      </trkpt>
      <trkpt lat="43.97647" lon="1.81098">
        <ele>177</ele>
        <time>2021-10-24T13:51:49Z</time>
      </trkpt>
      <trkpt lat="43.97648" lon="1.81103">
        <ele>176.8</ele>
        <time>2021-10-24T13:51:50Z</time>
      </trkpt>
      <trkpt lat="43.97649" lon="1.81108">
        <ele>176.8</ele>
        <time>2021-10-24T13:51:51Z</time>
      </trkpt>
      <trkpt lat="43.9765" lon="1.81114">
        <ele>176.8</ele>
        <time>2021-10-24T13:51:52Z</time>
      </trkpt>
      <trkpt lat="43.97652" lon="1.81124">
        <ele>176.8</ele>
        <time>2021-10-24T13:51:54Z</time>
      </trkpt>
      <trkpt lat="43.97653" lon="1.81129">
        <ele>177</ele>
        <time>2021-10-24T13:51:55Z</time>
      </trkpt>
      <trkpt lat="43.97654" lon="1.81134">
        <ele>177</ele>
        <time>2021-10-24T13:51:56Z</time>
      </trkpt>
      <trkpt lat="43.97655" lon="1.81139">
        <ele>177</ele>
        <time>2021-10-24T13:51:57Z</time>
      </trkpt>
      <trkpt lat="43.97657" lon="1.81144">
        <ele>177.2</ele>
        <time>2021-10-24T13:51:58Z</time>
      </trkpt>
      <trkpt lat="43.97662" lon="1.8117">
        <ele>177.2</ele>
        <time>2021-10-24T13:52:03Z</time>
      </trkpt>
      <trkpt lat="43.97663" lon="1.81175">
        <ele>177.2</ele>
        <time>2021-10-24T13:52:04Z</time>
      </trkpt>
      <trkpt lat="43.97664" lon="1.8118">
        <ele>177.2</ele>
        <time>2021-10-24T13:52:05Z</time>
      </trkpt>
      <trkpt lat="43.97666" lon="1.81191">
        <ele>177.2</ele>
        <time>2021-10-24T13:52:07Z</time>
      </trkpt>
      <trkpt lat="43.97668" lon="1.81196">
        <ele>177.2</ele>
        <time>2021-10-24T13:52:08Z</time>
      </trkpt>
      <trkpt lat="43.97669" lon="1.81201">
        <ele>177.4</ele>
        <time>2021-10-24T13:52:09Z</time>
      </trkpt>
      <trkpt lat="43.9767" lon="1.81206">
        <ele>177.4</ele>
        <time>2021-10-24T13:52:10Z</time>
      </trkpt>
      <trkpt lat="43.97671" lon="1.81211">
        <ele>177.4</ele>
        <time>2021-10-24T13:52:11Z</time>
      </trkpt>
      <trkpt lat="43.97676" lon="1.81243">
        <ele>177.4</ele>
        <time>2021-10-24T13:52:17Z</time>
      </trkpt>
      <trkpt lat="43.9768" lon="1.81259">
        <ele>177.6</ele>
        <time>2021-10-24T13:52:20Z</time>
      </trkpt>
      <trkpt lat="43.97683" lon="1.81275">
        <ele>178</ele>
        <time>2021-10-24T13:52:23Z</time>
      </trkpt>
      <trkpt lat="43.97689" lon="1.81296">
        <ele>178</ele>
        <time>2021-10-24T13:52:27Z</time>
      </trkpt>
      <trkpt lat="43.97691" lon="1.81302">
        <ele>178</ele>
        <time>2021-10-24T13:52:28Z</time>
      </trkpt>
      <trkpt lat="43.97693" lon="1.81308">
        <ele>178</ele>
        <time>2021-10-24T13:52:29Z</time>
      </trkpt>
      <trkpt lat="43.97696" lon="1.81313">
        <ele>178</ele>
        <time>2021-10-24T13:52:30Z</time>
      </trkpt>
      <trkpt lat="43.97698" lon="1.81318">
        <ele>178</ele>
        <time>2021-10-24T13:52:31Z</time>
      </trkpt>
      <trkpt lat="43.977" lon="1.81323">
        <ele>177.6</ele>
        <time>2021-10-24T13:52:32Z</time>
      </trkpt>
      <trkpt lat="43.97702" lon="1.81327">
        <ele>177.6</ele>
        <time>2021-10-24T13:52:33Z</time>
      </trkpt>
      <trkpt lat="43.97704" lon="1.81332">
        <ele>177.6</ele>
        <time>2021-10-24T13:52:34Z</time>
      </trkpt>
      <trkpt lat="43.97707" lon="1.81337">
        <ele>177.6</ele>
        <time>2021-10-24T13:52:35Z</time>
      </trkpt>
      <trkpt lat="43.97709" lon="1.81342">
        <ele>178</ele>
        <time>2021-10-24T13:52:36Z</time>
      </trkpt>
      <trkpt lat="43.97713" lon="1.81351">
        <ele>178</ele>
        <time>2021-10-24T13:52:38Z</time>
      </trkpt>
      <trkpt lat="43.97715" lon="1.81356">
        <ele>178.2</ele>
        <time>2021-10-24T13:52:39Z</time>
      </trkpt>
      <trkpt lat="43.97717" lon="1.81361">
        <ele>178.2</ele>
        <time>2021-10-24T13:52:40Z</time>
      </trkpt>
      <trkpt lat="43.97723" lon="1.81375">
        <ele>178.8</ele>
        <time>2021-10-24T13:52:43Z</time>
      </trkpt>
      <trkpt lat="43.97725" lon="1.8138">
        <ele>178.8</ele>
        <time>2021-10-24T13:52:44Z</time>
      </trkpt>
      <trkpt lat="43.97727" lon="1.81384">
        <ele>179.2</ele>
        <time>2021-10-24T13:52:45Z</time>
      </trkpt>
      <trkpt lat="43.97729" lon="1.81389">
        <ele>179</ele>
        <time>2021-10-24T13:52:46Z</time>
      </trkpt>
      <trkpt lat="43.97731" lon="1.81393">
        <ele>179</ele>
        <time>2021-10-24T13:52:47Z</time>
      </trkpt>
      <trkpt lat="43.97733" lon="1.81398">
        <ele>179.2</ele>
        <time>2021-10-24T13:52:48Z</time>
      </trkpt>
      <trkpt lat="43.97744" lon="1.8142">
        <ele>179.8</ele>
        <time>2021-10-24T13:52:53Z</time>
      </trkpt>
      <trkpt lat="43.9775" lon="1.81433">
        <ele>180.2</ele>
        <time>2021-10-24T13:52:56Z</time>
      </trkpt>
      <trkpt lat="43.97752" lon="1.81437">
        <ele>180.4</ele>
        <time>2021-10-24T13:52:57Z</time>
      </trkpt>
      <trkpt lat="43.97755" lon="1.81446">
        <ele>180.6</ele>
        <time>2021-10-24T13:52:59Z</time>
      </trkpt>
      <trkpt lat="43.97758" lon="1.81455">
        <ele>180.8</ele>
        <time>2021-10-24T13:53:01Z</time>
      </trkpt>
      <trkpt lat="43.9776" lon="1.8146">
        <ele>181</ele>
        <time>2021-10-24T13:53:02Z</time>
      </trkpt>
      <trkpt lat="43.97761" lon="1.81464">
        <ele>181</ele>
        <time>2021-10-24T13:53:03Z</time>
      </trkpt>
      <trkpt lat="43.97763" lon="1.81468">
        <ele>181.2</ele>
        <time>2021-10-24T13:53:04Z</time>
      </trkpt>
      <trkpt lat="43.97765" lon="1.81472">
        <ele>181.4</ele>
        <time>2021-10-24T13:53:05Z</time>
      </trkpt>
      <trkpt lat="43.97766" lon="1.81477">
        <ele>181.4</ele>
        <time>2021-10-24T13:53:06Z</time>
      </trkpt>
      <trkpt lat="43.97768" lon="1.81481">
        <ele>181.6</ele>
        <time>2021-10-24T13:53:07Z</time>
      </trkpt>
      <trkpt lat="43.97769" lon="1.81485">
        <ele>181.6</ele>
        <time>2021-10-24T13:53:08Z</time>
      </trkpt>
      <trkpt lat="43.9777" lon="1.8149">
        <ele>181.8</ele>
        <time>2021-10-24T13:53:09Z</time>
      </trkpt>
      <trkpt lat="43.97772" lon="1.81494">
        <ele>182</ele>
        <time>2021-10-24T13:53:10Z</time>
      </trkpt>
      <trkpt lat="43.97773" lon="1.81498">
        <ele>182</ele>
        <time>2021-10-24T13:53:11Z</time>
      </trkpt>
      <trkpt lat="43.97775" lon="1.81502">
        <ele>182.2</ele>
        <time>2021-10-24T13:53:12Z</time>
      </trkpt>
      <trkpt lat="43.97777" lon="1.81505">
        <ele>182.6</ele>
        <time>2021-10-24T13:53:13Z</time>
      </trkpt>
      <trkpt lat="43.97779" lon="1.81508">
        <ele>182.6</ele>
        <time>2021-10-24T13:53:14Z</time>
      </trkpt>
      <trkpt lat="43.97781" lon="1.81512">
        <ele>182.8</ele>
        <time>2021-10-24T13:53:15Z</time>
      </trkpt>
      <trkpt lat="43.97783" lon="1.81515">
        <ele>183</ele>
        <time>2021-10-24T13:53:16Z</time>
      </trkpt>
      <trkpt lat="43.97786" lon="1.81518">
        <ele>183.2</ele>
        <time>2021-10-24T13:53:17Z</time>
      </trkpt>
      <trkpt lat="43.97789" lon="1.81523">
        <ele>183.2</ele>
        <time>2021-10-24T13:53:18Z</time>
      </trkpt>
      <trkpt lat="43.97791" lon="1.81527">
        <ele>183.2</ele>
        <time>2021-10-24T13:53:19Z</time>
      </trkpt>
      <trkpt lat="43.97794" lon="1.81531">
        <ele>183.2</ele>
        <time>2021-10-24T13:53:20Z</time>
      </trkpt>
      <trkpt lat="43.97797" lon="1.81535">
        <ele>183.2</ele>
        <time>2021-10-24T13:53:21Z</time>
      </trkpt>
      <trkpt lat="43.97799" lon="1.81539">
        <ele>183.4</ele>
        <time>2021-10-24T13:53:22Z</time>
      </trkpt>
      <trkpt lat="43.97802" lon="1.81543">
        <ele>183.4</ele>
        <time>2021-10-24T13:53:23Z</time>
      </trkpt>
      <trkpt lat="43.97805" lon="1.81547">
        <ele>183.4</ele>
        <time>2021-10-24T13:53:24Z</time>
      </trkpt>
      <trkpt lat="43.97807" lon="1.81552">
        <ele>183.4</ele>
        <time>2021-10-24T13:53:25Z</time>
      </trkpt>
      <trkpt lat="43.9781" lon="1.81557">
        <ele>183.2</ele>
        <time>2021-10-24T13:53:26Z</time>
      </trkpt>
      <trkpt lat="43.97812" lon="1.81562">
        <ele>183.2</ele>
        <time>2021-10-24T13:53:27Z</time>
      </trkpt>
      <trkpt lat="43.97813" lon="1.81568">
        <ele>183.2</ele>
        <time>2021-10-24T13:53:28Z</time>
      </trkpt>
      <trkpt lat="43.97815" lon="1.81573">
        <ele>183.2</ele>
        <time>2021-10-24T13:53:29Z</time>
      </trkpt>
      <trkpt lat="43.97816" lon="1.81578">
        <ele>183.2</ele>
        <time>2021-10-24T13:53:30Z</time>
      </trkpt>
      <trkpt lat="43.97817" lon="1.81584">
        <ele>183.2</ele>
        <time>2021-10-24T13:53:31Z</time>
      </trkpt>
      <trkpt lat="43.97817" lon="1.81589">
        <ele>183.2</ele>
        <time>2021-10-24T13:53:32Z</time>
      </trkpt>
      <trkpt lat="43.97818" lon="1.81595">
        <ele>183.2</ele>
        <time>2021-10-24T13:53:33Z</time>
      </trkpt>
      <trkpt lat="43.97818" lon="1.816">
        <ele>183</ele>
        <time>2021-10-24T13:53:34Z</time>
      </trkpt>
      <trkpt lat="43.97819" lon="1.81605">
        <ele>183</ele>
        <time>2021-10-24T13:53:35Z</time>
      </trkpt>
      <trkpt lat="43.97819" lon="1.81611">
        <ele>183</ele>
        <time>2021-10-24T13:53:36Z</time>
      </trkpt>
      <trkpt lat="43.9782" lon="1.81625">
        <ele>183.2</ele>
        <time>2021-10-24T13:53:39Z</time>
      </trkpt>
      <trkpt lat="43.9782" lon="1.8163">
        <ele>183.2</ele>
        <time>2021-10-24T13:53:40Z</time>
      </trkpt>
      <trkpt lat="43.97821" lon="1.8164">
        <ele>183.2</ele>
        <time>2021-10-24T13:53:42Z</time>
      </trkpt>
      <trkpt lat="43.97821" lon="1.81645">
        <ele>183.2</ele>
        <time>2021-10-24T13:53:43Z</time>
      </trkpt>
      <trkpt lat="43.97821" lon="1.8165">
        <ele>183.2</ele>
        <time>2021-10-24T13:53:44Z</time>
      </trkpt>
      <trkpt lat="43.97822" lon="1.8166">
        <ele>183.2</ele>
        <time>2021-10-24T13:53:46Z</time>
      </trkpt>
      <trkpt lat="43.97822" lon="1.8167">
        <ele>183.4</ele>
        <time>2021-10-24T13:53:48Z</time>
      </trkpt>
      <trkpt lat="43.97824" lon="1.8169">
        <ele>183.4</ele>
        <time>2021-10-24T13:53:52Z</time>
      </trkpt>
      <trkpt lat="43.97824" lon="1.81695">
        <ele>183.4</ele>
        <time>2021-10-24T13:53:53Z</time>
      </trkpt>
      <trkpt lat="43.97825" lon="1.817">
        <ele>183.8</ele>
        <time>2021-10-24T13:53:54Z</time>
      </trkpt>
      <trkpt lat="43.97825" lon="1.81705">
        <ele>183.8</ele>
        <time>2021-10-24T13:53:55Z</time>
      </trkpt>
      <trkpt lat="43.97825" lon="1.8171">
        <ele>184</ele>
        <time>2021-10-24T13:53:56Z</time>
      </trkpt>
      <trkpt lat="43.97825" lon="1.81715">
        <ele>184</ele>
        <time>2021-10-24T13:53:57Z</time>
      </trkpt>
      <trkpt lat="43.97825" lon="1.8172">
        <ele>184.2</ele>
        <time>2021-10-24T13:53:58Z</time>
      </trkpt>
      <trkpt lat="43.97825" lon="1.81724">
        <ele>184.2</ele>
        <time>2021-10-24T13:53:59Z</time>
      </trkpt>
      <trkpt lat="43.97824" lon="1.81729">
        <ele>184.2</ele>
        <time>2021-10-24T13:54:00Z</time>
      </trkpt>
      <trkpt lat="43.97823" lon="1.81733">
        <ele>184.2</ele>
        <time>2021-10-24T13:54:01Z</time>
      </trkpt>
      <trkpt lat="43.97823" lon="1.81737">
        <ele>184.2</ele>
        <time>2021-10-24T13:54:02Z</time>
      </trkpt>
      <trkpt lat="43.97822" lon="1.81742">
        <ele>184.2</ele>
        <time>2021-10-24T13:54:03Z</time>
      </trkpt>
      <trkpt lat="43.97822" lon="1.81746">
        <ele>184.2</ele>
        <time>2021-10-24T13:54:04Z</time>
      </trkpt>
      <trkpt lat="43.97823" lon="1.8175">
        <ele>184.2</ele>
        <time>2021-10-24T13:54:05Z</time>
      </trkpt>
      <trkpt lat="43.97824" lon="1.81753">
        <ele>184.2</ele>
        <time>2021-10-24T13:54:06Z</time>
      </trkpt>
      <trkpt lat="43.97827" lon="1.81755">
        <ele>184.2</ele>
        <time>2021-10-24T13:54:07Z</time>
      </trkpt>
      <trkpt lat="43.97833" lon="1.81754">
        <ele>184</ele>
        <time>2021-10-24T13:54:09Z</time>
      </trkpt>
      <trkpt lat="43.9784" lon="1.81752">
        <ele>183.8</ele>
        <time>2021-10-24T13:54:11Z</time>
      </trkpt>
      <trkpt lat="43.97843" lon="1.81751">
        <ele>183.6</ele>
        <time>2021-10-24T13:54:12Z</time>
      </trkpt>
      <trkpt lat="43.97851" lon="1.8175">
        <ele>183.4</ele>
        <time>2021-10-24T13:54:14Z</time>
      </trkpt>
      <trkpt lat="43.97854" lon="1.8175">
        <ele>183.2</ele>
        <time>2021-10-24T13:54:15Z</time>
      </trkpt>
      <trkpt lat="43.97856" lon="1.81752">
        <ele>183.2</ele>
        <time>2021-10-24T13:54:16Z</time>
      </trkpt>
      <trkpt lat="43.97857" lon="1.81755">
        <ele>183</ele>
        <time>2021-10-24T13:54:17Z</time>
      </trkpt>
      <trkpt lat="43.97857" lon="1.81763">
        <ele>182.6</ele>
        <time>2021-10-24T13:54:19Z</time>
      </trkpt>
      <trkpt lat="43.97855" lon="1.81772">
        <ele>182.2</ele>
        <time>2021-10-24T13:54:21Z</time>
      </trkpt>
      <trkpt lat="43.97854" lon="1.81776">
        <ele>182.2</ele>
        <time>2021-10-24T13:54:22Z</time>
      </trkpt>
      <trkpt lat="43.97851" lon="1.81785">
        <ele>181.8</ele>
        <time>2021-10-24T13:54:24Z</time>
      </trkpt>
      <trkpt lat="43.9785" lon="1.81789">
        <ele>181.8</ele>
        <time>2021-10-24T13:54:25Z</time>
      </trkpt>
      <trkpt lat="43.97844" lon="1.81812">
        <ele>181.8</ele>
        <time>2021-10-24T13:54:30Z</time>
      </trkpt>
      <trkpt lat="43.97843" lon="1.81816">
        <ele>181.8</ele>
        <time>2021-10-24T13:54:31Z</time>
      </trkpt>
      <trkpt lat="43.97844" lon="1.81821">
        <ele>181.8</ele>
        <time>2021-10-24T13:54:32Z</time>
      </trkpt>
      <trkpt lat="43.97845" lon="1.81825">
        <ele>181.8</ele>
        <time>2021-10-24T13:54:33Z</time>
      </trkpt>
      <trkpt lat="43.97846" lon="1.81828">
        <ele>182</ele>
        <time>2021-10-24T13:54:34Z</time>
      </trkpt>
      <trkpt lat="43.97848" lon="1.81831">
        <ele>182</ele>
        <time>2021-10-24T13:54:35Z</time>
      </trkpt>
      <trkpt lat="43.97855" lon="1.81848">
        <ele>182</ele>
        <time>2021-10-24T13:54:39Z</time>
      </trkpt>
      <trkpt lat="43.97858" lon="1.81858">
        <ele>182.2</ele>
        <time>2021-10-24T13:54:41Z</time>
      </trkpt>
      <trkpt lat="43.9786" lon="1.81864">
        <ele>182.2</ele>
        <time>2021-10-24T13:54:42Z</time>
      </trkpt>
      <trkpt lat="43.97867" lon="1.81882">
        <ele>182</ele>
        <time>2021-10-24T13:54:45Z</time>
      </trkpt>
      <trkpt lat="43.97869" lon="1.81888">
        <ele>182</ele>
        <time>2021-10-24T13:54:46Z</time>
      </trkpt>
      <trkpt lat="43.97871" lon="1.81895">
        <ele>181.8</ele>
        <time>2021-10-24T13:54:47Z</time>
      </trkpt>
      <trkpt lat="43.97874" lon="1.81913">
        <ele>181.6</ele>
        <time>2021-10-24T13:54:50Z</time>
      </trkpt>
      <trkpt lat="43.97874" lon="1.81919">
        <ele>181.6</ele>
        <time>2021-10-24T13:54:51Z</time>
      </trkpt>
      <trkpt lat="43.97875" lon="1.81925">
        <ele>181.6</ele>
        <time>2021-10-24T13:54:52Z</time>
      </trkpt>
      <trkpt lat="43.97875" lon="1.81931">
        <ele>181.6</ele>
        <time>2021-10-24T13:54:53Z</time>
      </trkpt>
      <trkpt lat="43.97876" lon="1.81944">
        <ele>181.4</ele>
        <time>2021-10-24T13:54:55Z</time>
      </trkpt>
      <trkpt lat="43.97876" lon="1.8195">
        <ele>181.4</ele>
        <time>2021-10-24T13:54:56Z</time>
      </trkpt>
      <trkpt lat="43.97876" lon="1.81963">
        <ele>181.2</ele>
        <time>2021-10-24T13:54:58Z</time>
      </trkpt>
      <trkpt lat="43.97876" lon="1.8197">
        <ele>181.2</ele>
        <time>2021-10-24T13:54:59Z</time>
      </trkpt>
      <trkpt lat="43.97876" lon="1.81976">
        <ele>181</ele>
        <time>2021-10-24T13:55:00Z</time>
      </trkpt>
      <trkpt lat="43.97875" lon="1.81981">
        <ele>180.8</ele>
        <time>2021-10-24T13:55:01Z</time>
      </trkpt>
      <trkpt lat="43.97874" lon="1.81987">
        <ele>180.8</ele>
        <time>2021-10-24T13:55:02Z</time>
      </trkpt>
      <trkpt lat="43.97873" lon="1.81993">
        <ele>180.8</ele>
        <time>2021-10-24T13:55:03Z</time>
      </trkpt>
      <trkpt lat="43.97872" lon="1.81999">
        <ele>180.6</ele>
        <time>2021-10-24T13:55:04Z</time>
      </trkpt>
      <trkpt lat="43.97872" lon="1.82005">
        <ele>180.6</ele>
        <time>2021-10-24T13:55:05Z</time>
      </trkpt>
      <trkpt lat="43.97871" lon="1.8201">
        <ele>180.6</ele>
        <time>2021-10-24T13:55:06Z</time>
      </trkpt>
      <trkpt lat="43.97871" lon="1.82016">
        <ele>180.6</ele>
        <time>2021-10-24T13:55:07Z</time>
      </trkpt>
      <trkpt lat="43.97872" lon="1.82021">
        <ele>180.6</ele>
        <time>2021-10-24T13:55:08Z</time>
      </trkpt>
      <trkpt lat="43.97869" lon="1.82044">
        <ele>180.8</ele>
        <time>2021-10-24T13:55:12Z</time>
      </trkpt>
      <trkpt lat="43.97869" lon="1.82049">
        <ele>180.8</ele>
        <time>2021-10-24T13:55:13Z</time>
      </trkpt>
      <trkpt lat="43.97868" lon="1.82061">
        <ele>181</ele>
        <time>2021-10-24T13:55:15Z</time>
      </trkpt>
      <trkpt lat="43.97868" lon="1.82066">
        <ele>181</ele>
        <time>2021-10-24T13:55:16Z</time>
      </trkpt>
      <trkpt lat="43.97867" lon="1.8207">
        <ele>181.2</ele>
        <time>2021-10-24T13:55:17Z</time>
      </trkpt>
      <trkpt lat="43.97867" lon="1.8208">
        <ele>181.2</ele>
        <time>2021-10-24T13:55:19Z</time>
      </trkpt>
      <trkpt lat="43.97865" lon="1.82093">
        <ele>181.4</ele>
        <time>2021-10-24T13:55:21Z</time>
      </trkpt>
      <trkpt lat="43.97864" lon="1.82104">
        <ele>181.4</ele>
        <time>2021-10-24T13:55:23Z</time>
      </trkpt>
      <trkpt lat="43.97863" lon="1.8211">
        <ele>181.4</ele>
        <time>2021-10-24T13:55:24Z</time>
      </trkpt>
      <trkpt lat="43.97863" lon="1.82114">
        <ele>181.4</ele>
        <time>2021-10-24T13:55:25Z</time>
      </trkpt>
      <trkpt lat="43.97863" lon="1.82119">
        <ele>181.4</ele>
        <time>2021-10-24T13:55:26Z</time>
      </trkpt>
      <trkpt lat="43.97862" lon="1.82124">
        <ele>181.6</ele>
        <time>2021-10-24T13:55:27Z</time>
      </trkpt>
      <trkpt lat="43.97862" lon="1.82129">
        <ele>181.8</ele>
        <time>2021-10-24T13:55:28Z</time>
      </trkpt>
      <trkpt lat="43.97861" lon="1.82135">
        <ele>181.8</ele>
        <time>2021-10-24T13:55:29Z</time>
      </trkpt>
      <trkpt lat="43.97861" lon="1.82138">
        <ele>181.8</ele>
        <time>2021-10-24T13:55:30Z</time>
      </trkpt>
      <trkpt lat="43.97861" lon="1.82142">
        <ele>181.8</ele>
        <time>2021-10-24T13:55:31Z</time>
      </trkpt>
      <trkpt lat="43.9786" lon="1.82146">
        <ele>181.8</ele>
        <time>2021-10-24T13:55:32Z</time>
      </trkpt>
      <trkpt lat="43.9786" lon="1.8215">
        <ele>181.8</ele>
        <time>2021-10-24T13:55:33Z</time>
      </trkpt>
      <trkpt lat="43.97859" lon="1.82154">
        <ele>181.8</ele>
        <time>2021-10-24T13:55:34Z</time>
      </trkpt>
      <trkpt lat="43.97858" lon="1.82157">
        <ele>181.8</ele>
        <time>2021-10-24T13:55:35Z</time>
      </trkpt>
      <trkpt lat="43.97858" lon="1.8216">
        <ele>181.8</ele>
        <time>2021-10-24T13:55:36Z</time>
      </trkpt>
      <trkpt lat="43.97858" lon="1.82165">
        <ele>182</ele>
        <time>2021-10-24T13:55:37Z</time>
      </trkpt>
      <trkpt lat="43.97858" lon="1.82169">
        <ele>182</ele>
        <time>2021-10-24T13:55:38Z</time>
      </trkpt>
      <trkpt lat="43.97858" lon="1.82173">
        <ele>182</ele>
        <time>2021-10-24T13:55:39Z</time>
      </trkpt>
      <trkpt lat="43.97858" lon="1.82177">
        <ele>182.2</ele>
        <time>2021-10-24T13:55:40Z</time>
      </trkpt>
      <trkpt lat="43.97857" lon="1.82182">
        <ele>182.2</ele>
        <time>2021-10-24T13:55:41Z</time>
      </trkpt>
      <trkpt lat="43.97857" lon="1.82186">
        <ele>182.4</ele>
        <time>2021-10-24T13:55:42Z</time>
      </trkpt>
      <trkpt lat="43.97856" lon="1.8219">
        <ele>182.6</ele>
        <time>2021-10-24T13:55:43Z</time>
      </trkpt>
      <trkpt lat="43.97856" lon="1.82193">
        <ele>182.8</ele>
        <time>2021-10-24T13:55:44Z</time>
      </trkpt>
      <trkpt lat="43.97856" lon="1.82197">
        <ele>182.8</ele>
        <time>2021-10-24T13:55:45Z</time>
      </trkpt>
      <trkpt lat="43.97855" lon="1.822">
        <ele>183</ele>
        <time>2021-10-24T13:55:46Z</time>
      </trkpt>
      <trkpt lat="43.97855" lon="1.82203">
        <ele>183.2</ele>
        <time>2021-10-24T13:55:47Z</time>
      </trkpt>
      <trkpt lat="43.97855" lon="1.82205">
        <ele>183</ele>
        <time>2021-10-24T13:55:48Z</time>
      </trkpt>
      <trkpt lat="43.97855" lon="1.82207">
        <ele>183.2</ele>
        <time>2021-10-24T13:55:49Z</time>
      </trkpt>
      <trkpt lat="43.97855" lon="1.8221">
        <ele>183.2</ele>
        <time>2021-10-24T13:55:50Z</time>
      </trkpt>
      <trkpt lat="43.97855" lon="1.82213">
        <ele>183.2</ele>
        <time>2021-10-24T13:55:51Z</time>
      </trkpt>
      <trkpt lat="43.97854" lon="1.82216">
        <ele>183.2</ele>
        <time>2021-10-24T13:55:52Z</time>
      </trkpt>
      <trkpt lat="43.97854" lon="1.82218">
        <ele>183.6</ele>
        <time>2021-10-24T13:55:53Z</time>
      </trkpt>
      <trkpt lat="43.97854" lon="1.82222">
        <ele>183.6</ele>
        <time>2021-10-24T13:55:54Z</time>
      </trkpt>
      <trkpt lat="43.97854" lon="1.82225">
        <ele>183.6</ele>
        <time>2021-10-24T13:55:55Z</time>
      </trkpt>
      <trkpt lat="43.97854" lon="1.82228">
        <ele>183.6</ele>
        <time>2021-10-24T13:55:56Z</time>
      </trkpt>
      <trkpt lat="43.97853" lon="1.8223">
        <ele>183.8</ele>
        <time>2021-10-24T13:55:57Z</time>
      </trkpt>
      <trkpt lat="43.97852" lon="1.82233">
        <ele>183.8</ele>
        <time>2021-10-24T13:55:58Z</time>
      </trkpt>
      <trkpt lat="43.97853" lon="1.82237">
        <ele>183.8</ele>
        <time>2021-10-24T13:56:00Z</time>
      </trkpt>
      <trkpt lat="43.97855" lon="1.82237">
        <ele>183.6</ele>
        <time>2021-10-24T13:56:01Z</time>
      </trkpt>
      <trkpt lat="43.97855" lon="1.82233">
        <ele>183.6</ele>
        <time>2021-10-24T13:56:04Z</time>
      </trkpt>
      <trkpt lat="43.9785" lon="1.82232">
        <ele>183.6</ele>
        <time>2021-10-24T13:56:07Z</time>
      </trkpt>
      <trkpt lat="43.97849" lon="1.82232">
        <ele>183.8</ele>
        <time>2021-10-24T13:56:08Z</time>
      </trkpt>
      <trkpt lat="43.97845" lon="1.82232">
        <ele>183.8</ele>
        <time>2021-10-24T13:56:10Z</time>
      </trkpt>
      <trkpt lat="43.97839" lon="1.82232">
        <ele>184.4</ele>
        <time>2021-10-24T13:56:15Z</time>
      </trkpt>
      <trkpt lat="43.97838" lon="1.82232">
        <ele>184.4</ele>
        <time>2021-10-24T13:56:16Z</time>
      </trkpt>
      <trkpt lat="43.97837" lon="1.82231">
        <ele>184.4</ele>
        <time>2021-10-24T13:56:17Z</time>
      </trkpt>
      <trkpt lat="43.97835" lon="1.82231">
        <ele>184.4</ele>
        <time>2021-10-24T13:56:18Z</time>
      </trkpt>
      <trkpt lat="43.97834" lon="1.8223">
        <ele>184.4</ele>
        <time>2021-10-24T13:56:19Z</time>
      </trkpt>
      <trkpt lat="43.97832" lon="1.8223">
        <ele>184.6</ele>
        <time>2021-10-24T13:56:20Z</time>
      </trkpt>
      <trkpt lat="43.97831" lon="1.82229">
        <ele>184.8</ele>
        <time>2021-10-24T13:56:21Z</time>
      </trkpt>
      <trkpt lat="43.97829" lon="1.82229">
        <ele>185</ele>
        <time>2021-10-24T13:56:22Z</time>
      </trkpt>
      <trkpt lat="43.97827" lon="1.82229">
        <ele>185</ele>
        <time>2021-10-24T13:56:23Z</time>
      </trkpt>
      <trkpt lat="43.97826" lon="1.82229">
        <ele>185</ele>
        <time>2021-10-24T13:56:24Z</time>
      </trkpt>
      <trkpt lat="43.97825" lon="1.82229">
        <ele>185.2</ele>
        <time>2021-10-24T13:56:25Z</time>
      </trkpt>
      <trkpt lat="43.97823" lon="1.82229">
        <ele>185.2</ele>
        <time>2021-10-24T13:56:26Z</time>
      </trkpt>
      <trkpt lat="43.97821" lon="1.8223">
        <ele>185.6</ele>
        <time>2021-10-24T13:56:28Z</time>
      </trkpt>
      <trkpt lat="43.97819" lon="1.8223">
        <ele>185.8</ele>
        <time>2021-10-24T13:56:30Z</time>
      </trkpt>
      <trkpt lat="43.97818" lon="1.8223">
        <ele>186</ele>
        <time>2021-10-24T13:56:31Z</time>
      </trkpt>
      <trkpt lat="43.97817" lon="1.8223">
        <ele>186.2</ele>
        <time>2021-10-24T13:56:32Z</time>
      </trkpt>
      <trkpt lat="43.97816" lon="1.8223">
        <ele>186.4</ele>
        <time>2021-10-24T13:56:33Z</time>
      </trkpt>
      <trkpt lat="43.97814" lon="1.82229">
        <ele>186.6</ele>
        <time>2021-10-24T13:56:34Z</time>
      </trkpt>
      <trkpt lat="43.9781" lon="1.82231">
        <ele>187.6</ele>
        <time>2021-10-24T13:56:37Z</time>
      </trkpt>
      <trkpt lat="43.97809" lon="1.82231">
        <ele>187.6</ele>
        <time>2021-10-24T13:56:38Z</time>
      </trkpt>
      <trkpt lat="43.97809" lon="1.82231">
        <ele>188.2</ele>
        <time>2021-10-24T13:56:39Z</time>
      </trkpt>
      <trkpt lat="43.97807" lon="1.82231">
        <ele>188.4</ele>
        <time>2021-10-24T13:56:40Z</time>
      </trkpt>
      <trkpt lat="43.97807" lon="1.82231">
        <ele>189</ele>
        <time>2021-10-24T13:56:41Z</time>
      </trkpt>
      <trkpt lat="43.97807" lon="1.82231">
        <ele>189.2</ele>
        <time>2021-10-24T13:56:42Z</time>
      </trkpt>
      <trkpt lat="43.97806" lon="1.82231">
        <ele>189.6</ele>
        <time>2021-10-24T13:56:43Z</time>
      </trkpt>
      <trkpt lat="43.97803" lon="1.82231">
        <ele>189.8</ele>
        <time>2021-10-24T13:56:44Z</time>
      </trkpt>
      <trkpt lat="43.97801" lon="1.82231">
        <ele>189.8</ele>
        <time>2021-10-24T13:56:45Z</time>
      </trkpt>
      <trkpt lat="43.97799" lon="1.82231">
        <ele>190.4</ele>
        <time>2021-10-24T13:56:46Z</time>
      </trkpt>
      <trkpt lat="43.97797" lon="1.82231">
        <ele>190.6</ele>
        <time>2021-10-24T13:56:47Z</time>
      </trkpt>
      <trkpt lat="43.97795" lon="1.82231">
        <ele>190.8</ele>
        <time>2021-10-24T13:56:48Z</time>
      </trkpt>
      <trkpt lat="43.97793" lon="1.8223">
        <ele>191</ele>
        <time>2021-10-24T13:56:49Z</time>
      </trkpt>
      <trkpt lat="43.9779" lon="1.8223">
        <ele>191.2</ele>
        <time>2021-10-24T13:56:50Z</time>
      </trkpt>
      <trkpt lat="43.97788" lon="1.8223">
        <ele>191.4</ele>
        <time>2021-10-24T13:56:51Z</time>
      </trkpt>
      <trkpt lat="43.97788" lon="1.8223">
        <ele>191.6</ele>
        <time>2021-10-24T13:56:52Z</time>
      </trkpt>
      <trkpt lat="43.97788" lon="1.8223">
        <ele>191.8</ele>
        <time>2021-10-24T13:56:53Z</time>
      </trkpt>
      <trkpt lat="43.97787" lon="1.8223">
        <ele>192</ele>
        <time>2021-10-24T13:56:54Z</time>
      </trkpt>
      <trkpt lat="43.97786" lon="1.82229">
        <ele>192.4</ele>
        <time>2021-10-24T13:56:55Z</time>
      </trkpt>
      <trkpt lat="43.97784" lon="1.82229">
        <ele>192.6</ele>
        <time>2021-10-24T13:56:56Z</time>
      </trkpt>
      <trkpt lat="43.97782" lon="1.82228">
        <ele>192.8</ele>
        <time>2021-10-24T13:56:57Z</time>
      </trkpt>
      <trkpt lat="43.97781" lon="1.82227">
        <ele>193.2</ele>
        <time>2021-10-24T13:56:58Z</time>
      </trkpt>
      <trkpt lat="43.97779" lon="1.82227">
        <ele>193.2</ele>
        <time>2021-10-24T13:56:59Z</time>
      </trkpt>
      <trkpt lat="43.97777" lon="1.82227">
        <ele>193.6</ele>
        <time>2021-10-24T13:57:00Z</time>
      </trkpt>
      <trkpt lat="43.97775" lon="1.82227">
        <ele>193.6</ele>
        <time>2021-10-24T13:57:01Z</time>
      </trkpt>
      <trkpt lat="43.97773" lon="1.82227">
        <ele>194</ele>
        <time>2021-10-24T13:57:02Z</time>
      </trkpt>
      <trkpt lat="43.97771" lon="1.82227">
        <ele>194.2</ele>
        <time>2021-10-24T13:57:03Z</time>
      </trkpt>
      <trkpt lat="43.9777" lon="1.82227">
        <ele>194.6</ele>
        <time>2021-10-24T13:57:04Z</time>
      </trkpt>
      <trkpt lat="43.97768" lon="1.82228">
        <ele>194.8</ele>
        <time>2021-10-24T13:57:05Z</time>
      </trkpt>
      <trkpt lat="43.97765" lon="1.82228">
        <ele>195</ele>
        <time>2021-10-24T13:57:06Z</time>
      </trkpt>
      <trkpt lat="43.97764" lon="1.82228">
        <ele>195.2</ele>
        <time>2021-10-24T13:57:07Z</time>
      </trkpt>
      <trkpt lat="43.97762" lon="1.82227">
        <ele>195.2</ele>
        <time>2021-10-24T13:57:08Z</time>
      </trkpt>
      <trkpt lat="43.97761" lon="1.82227">
        <ele>195.8</ele>
        <time>2021-10-24T13:57:09Z</time>
      </trkpt>
      <trkpt lat="43.97759" lon="1.82227">
        <ele>196</ele>
        <time>2021-10-24T13:57:10Z</time>
      </trkpt>
      <trkpt lat="43.97758" lon="1.82227">
        <ele>196.4</ele>
        <time>2021-10-24T13:57:11Z</time>
      </trkpt>
      <trkpt lat="43.97757" lon="1.82227">
        <ele>196.6</ele>
        <time>2021-10-24T13:57:12Z</time>
      </trkpt>
      <trkpt lat="43.97756" lon="1.82227">
        <ele>196.8</ele>
        <time>2021-10-24T13:57:13Z</time>
      </trkpt>
      <trkpt lat="43.97754" lon="1.82228">
        <ele>197</ele>
        <time>2021-10-24T13:57:14Z</time>
      </trkpt>
      <trkpt lat="43.97752" lon="1.82227">
        <ele>197.2</ele>
        <time>2021-10-24T13:57:15Z</time>
      </trkpt>
      <trkpt lat="43.9775" lon="1.82227">
        <ele>197.4</ele>
        <time>2021-10-24T13:57:16Z</time>
      </trkpt>
      <trkpt lat="43.97748" lon="1.82226">
        <ele>197.4</ele>
        <time>2021-10-24T13:57:17Z</time>
      </trkpt>
      <trkpt lat="43.97746" lon="1.82227">
        <ele>197.6</ele>
        <time>2021-10-24T13:57:18Z</time>
      </trkpt>
      <trkpt lat="43.97746" lon="1.82227">
        <ele>197.6</ele>
        <time>2021-10-24T13:57:19Z</time>
      </trkpt>
      <trkpt lat="43.97745" lon="1.82227">
        <ele>197.8</ele>
        <time>2021-10-24T13:57:20Z</time>
      </trkpt>
      <trkpt lat="43.97743" lon="1.82227">
        <ele>198</ele>
        <time>2021-10-24T13:57:21Z</time>
      </trkpt>
      <trkpt lat="43.97742" lon="1.82227">
        <ele>198</ele>
        <time>2021-10-24T13:57:22Z</time>
      </trkpt>
      <trkpt lat="43.97741" lon="1.82227">
        <ele>198.2</ele>
        <time>2021-10-24T13:57:23Z</time>
      </trkpt>
      <trkpt lat="43.9774" lon="1.82227">
        <ele>198.4</ele>
        <time>2021-10-24T13:57:24Z</time>
      </trkpt>
      <trkpt lat="43.97738" lon="1.82227">
        <ele>198.8</ele>
        <time>2021-10-24T13:57:25Z</time>
      </trkpt>
      <trkpt lat="43.97738" lon="1.82227">
        <ele>198.8</ele>
        <time>2021-10-24T13:57:26Z</time>
      </trkpt>
      <trkpt lat="43.97737" lon="1.82227">
        <ele>199.2</ele>
        <time>2021-10-24T13:57:27Z</time>
      </trkpt>
      <trkpt lat="43.97735" lon="1.82227">
        <ele>199.4</ele>
        <time>2021-10-24T13:57:28Z</time>
      </trkpt>
      <trkpt lat="43.97734" lon="1.82227">
        <ele>199.8</ele>
        <time>2021-10-24T13:57:29Z</time>
      </trkpt>
      <trkpt lat="43.97733" lon="1.82227">
        <ele>200</ele>
        <time>2021-10-24T13:57:30Z</time>
      </trkpt>
      <trkpt lat="43.97732" lon="1.82227">
        <ele>200</ele>
        <time>2021-10-24T13:57:31Z</time>
      </trkpt>
      <trkpt lat="43.97731" lon="1.82227">
        <ele>200.6</ele>
        <time>2021-10-24T13:57:32Z</time>
      </trkpt>
      <trkpt lat="43.9773" lon="1.82227">
        <ele>200.8</ele>
        <time>2021-10-24T13:57:33Z</time>
      </trkpt>
      <trkpt lat="43.97729" lon="1.82227">
        <ele>200.8</ele>
        <time>2021-10-24T13:57:34Z</time>
      </trkpt>
      <trkpt lat="43.97728" lon="1.82228">
        <ele>201.2</ele>
        <time>2021-10-24T13:57:35Z</time>
      </trkpt>
      <trkpt lat="43.97727" lon="1.82228">
        <ele>201.4</ele>
        <time>2021-10-24T13:57:36Z</time>
      </trkpt>
      <trkpt lat="43.97726" lon="1.82228">
        <ele>201.4</ele>
        <time>2021-10-24T13:57:37Z</time>
      </trkpt>
      <trkpt lat="43.97725" lon="1.82228">
        <ele>201.8</ele>
        <time>2021-10-24T13:57:38Z</time>
      </trkpt>
      <trkpt lat="43.97725" lon="1.82228">
        <ele>202</ele>
        <time>2021-10-24T13:57:39Z</time>
      </trkpt>
      <trkpt lat="43.97723" lon="1.82228">
        <ele>202.2</ele>
        <time>2021-10-24T13:57:40Z</time>
      </trkpt>
      <trkpt lat="43.97721" lon="1.82227">
        <ele>202.2</ele>
        <time>2021-10-24T13:57:41Z</time>
      </trkpt>
      <trkpt lat="43.9772" lon="1.82227">
        <ele>202.6</ele>
        <time>2021-10-24T13:57:42Z</time>
      </trkpt>
      <trkpt lat="43.97719" lon="1.82226">
        <ele>202.8</ele>
        <time>2021-10-24T13:57:43Z</time>
      </trkpt>
      <trkpt lat="43.97718" lon="1.82226">
        <ele>202.8</ele>
        <time>2021-10-24T13:57:44Z</time>
      </trkpt>
      <trkpt lat="43.97715" lon="1.82225">
        <ele>203.2</ele>
        <time>2021-10-24T13:57:45Z</time>
      </trkpt>
      <trkpt lat="43.97713" lon="1.82225">
        <ele>203.2</ele>
        <time>2021-10-24T13:57:46Z</time>
      </trkpt>
      <trkpt lat="43.97712" lon="1.82224">
        <ele>203.6</ele>
        <time>2021-10-24T13:57:47Z</time>
      </trkpt>
      <trkpt lat="43.9771" lon="1.82223">
        <ele>204</ele>
        <time>2021-10-24T13:57:48Z</time>
      </trkpt>
      <trkpt lat="43.9771" lon="1.82223">
        <ele>204</ele>
        <time>2021-10-24T13:57:49Z</time>
      </trkpt>
      <trkpt lat="43.97709" lon="1.82223">
        <ele>204.2</ele>
        <time>2021-10-24T13:57:50Z</time>
      </trkpt>
      <trkpt lat="43.97707" lon="1.82222">
        <ele>204.4</ele>
        <time>2021-10-24T13:57:51Z</time>
      </trkpt>
      <trkpt lat="43.97704" lon="1.82221">
        <ele>204.6</ele>
        <time>2021-10-24T13:57:52Z</time>
      </trkpt>
      <trkpt lat="43.97703" lon="1.82221">
        <ele>205</ele>
        <time>2021-10-24T13:57:53Z</time>
      </trkpt>
      <trkpt lat="43.977" lon="1.82221">
        <ele>205</ele>
        <time>2021-10-24T13:57:54Z</time>
      </trkpt>
      <trkpt lat="43.97697" lon="1.8222">
        <ele>205.4</ele>
        <time>2021-10-24T13:57:55Z</time>
      </trkpt>
      <trkpt lat="43.97695" lon="1.82221">
        <ele>205.4</ele>
        <time>2021-10-24T13:57:56Z</time>
      </trkpt>
      <trkpt lat="43.97695" lon="1.82221">
        <ele>205.6</ele>
        <time>2021-10-24T13:57:57Z</time>
      </trkpt>
      <trkpt lat="43.97694" lon="1.82221">
        <ele>205.8</ele>
        <time>2021-10-24T13:57:58Z</time>
      </trkpt>
      <trkpt lat="43.97694" lon="1.8222">
        <ele>206.2</ele>
        <time>2021-10-24T13:57:59Z</time>
      </trkpt>
      <trkpt lat="43.97692" lon="1.82219">
        <ele>206.4</ele>
        <time>2021-10-24T13:58:00Z</time>
      </trkpt>
      <trkpt lat="43.97691" lon="1.82218">
        <ele>206.8</ele>
        <time>2021-10-24T13:58:01Z</time>
      </trkpt>
      <trkpt lat="43.9769" lon="1.82218">
        <ele>207</ele>
        <time>2021-10-24T13:58:02Z</time>
      </trkpt>
      <trkpt lat="43.97687" lon="1.82219">
        <ele>207.2</ele>
        <time>2021-10-24T13:58:03Z</time>
      </trkpt>
      <trkpt lat="43.97685" lon="1.82219">
        <ele>207.6</ele>
        <time>2021-10-24T13:58:04Z</time>
      </trkpt>
      <trkpt lat="43.97684" lon="1.8222">
        <ele>207.8</ele>
        <time>2021-10-24T13:58:05Z</time>
      </trkpt>
      <trkpt lat="43.97682" lon="1.82221">
        <ele>208.2</ele>
        <time>2021-10-24T13:58:06Z</time>
      </trkpt>
      <trkpt lat="43.97681" lon="1.82221">
        <ele>208.4</ele>
        <time>2021-10-24T13:58:07Z</time>
      </trkpt>
      <trkpt lat="43.9768" lon="1.82222">
        <ele>208.8</ele>
        <time>2021-10-24T13:58:08Z</time>
      </trkpt>
      <trkpt lat="43.97679" lon="1.82221">
        <ele>209</ele>
        <time>2021-10-24T13:58:09Z</time>
      </trkpt>
      <trkpt lat="43.97677" lon="1.82222">
        <ele>209.2</ele>
        <time>2021-10-24T13:58:10Z</time>
      </trkpt>
      <trkpt lat="43.97674" lon="1.82221">
        <ele>209.4</ele>
        <time>2021-10-24T13:58:11Z</time>
      </trkpt>
      <trkpt lat="43.97673" lon="1.82221">
        <ele>209.6</ele>
        <time>2021-10-24T13:58:12Z</time>
      </trkpt>
      <trkpt lat="43.97672" lon="1.82221">
        <ele>210.2</ele>
        <time>2021-10-24T13:58:13Z</time>
      </trkpt>
      <trkpt lat="43.97671" lon="1.82221">
        <ele>210.4</ele>
        <time>2021-10-24T13:58:14Z</time>
      </trkpt>
      <trkpt lat="43.9767" lon="1.82221">
        <ele>210.6</ele>
        <time>2021-10-24T13:58:15Z</time>
      </trkpt>
      <trkpt lat="43.9767" lon="1.82221">
        <ele>210.8</ele>
        <time>2021-10-24T13:58:16Z</time>
      </trkpt>
      <trkpt lat="43.97669" lon="1.82221">
        <ele>211</ele>
        <time>2021-10-24T13:58:17Z</time>
      </trkpt>
      <trkpt lat="43.97668" lon="1.82221">
        <ele>211.2</ele>
        <time>2021-10-24T13:58:18Z</time>
      </trkpt>
      <trkpt lat="43.97667" lon="1.82221">
        <ele>211.2</ele>
        <time>2021-10-24T13:58:19Z</time>
      </trkpt>
      <trkpt lat="43.97666" lon="1.82221">
        <ele>211.4</ele>
        <time>2021-10-24T13:58:20Z</time>
      </trkpt>
      <trkpt lat="43.97665" lon="1.82221">
        <ele>211.4</ele>
        <time>2021-10-24T13:58:21Z</time>
      </trkpt>
      <trkpt lat="43.97665" lon="1.82221">
        <ele>211.8</ele>
        <time>2021-10-24T13:58:22Z</time>
      </trkpt>
      <trkpt lat="43.97664" lon="1.82221">
        <ele>211.8</ele>
        <time>2021-10-24T13:58:23Z</time>
      </trkpt>
      <trkpt lat="43.97663" lon="1.82221">
        <ele>211.8</ele>
        <time>2021-10-24T13:58:24Z</time>
      </trkpt>
      <trkpt lat="43.97662" lon="1.82221">
        <ele>212</ele>
        <time>2021-10-24T13:58:25Z</time>
      </trkpt>
      <trkpt lat="43.97661" lon="1.82221">
        <ele>212</ele>
        <time>2021-10-24T13:58:26Z</time>
      </trkpt>
      <trkpt lat="43.97659" lon="1.82221">
        <ele>212</ele>
        <time>2021-10-24T13:58:27Z</time>
      </trkpt>
      <trkpt lat="43.97658" lon="1.82221">
        <ele>212</ele>
        <time>2021-10-24T13:58:28Z</time>
      </trkpt>
      <trkpt lat="43.97657" lon="1.82221">
        <ele>212</ele>
        <time>2021-10-24T13:58:29Z</time>
      </trkpt>
      <trkpt lat="43.97656" lon="1.82221">
        <ele>212.2</ele>
        <time>2021-10-24T13:58:30Z</time>
      </trkpt>
      <trkpt lat="43.97654" lon="1.8222">
        <ele>212.2</ele>
        <time>2021-10-24T13:58:31Z</time>
      </trkpt>
      <trkpt lat="43.97653" lon="1.8222">
        <ele>212.4</ele>
        <time>2021-10-24T13:58:32Z</time>
      </trkpt>
      <trkpt lat="43.97652" lon="1.8222">
        <ele>212.4</ele>
        <time>2021-10-24T13:58:33Z</time>
      </trkpt>
      <trkpt lat="43.9765" lon="1.8222">
        <ele>212.4</ele>
        <time>2021-10-24T13:58:34Z</time>
      </trkpt>
      <trkpt lat="43.97649" lon="1.82219">
        <ele>212.4</ele>
        <time>2021-10-24T13:58:35Z</time>
      </trkpt>
      <trkpt lat="43.97648" lon="1.82219">
        <ele>212.8</ele>
        <time>2021-10-24T13:58:36Z</time>
      </trkpt>
      <trkpt lat="43.97646" lon="1.82219">
        <ele>212.8</ele>
        <time>2021-10-24T13:58:37Z</time>
      </trkpt>
      <trkpt lat="43.97645" lon="1.82219">
        <ele>213</ele>
        <time>2021-10-24T13:58:38Z</time>
      </trkpt>
      <trkpt lat="43.97644" lon="1.82219">
        <ele>213</ele>
        <time>2021-10-24T13:58:39Z</time>
      </trkpt>
      <trkpt lat="43.97643" lon="1.82219">
        <ele>213.4</ele>
        <time>2021-10-24T13:58:40Z</time>
      </trkpt>
      <trkpt lat="43.97642" lon="1.82218">
        <ele>213.6</ele>
        <time>2021-10-24T13:58:41Z</time>
      </trkpt>
      <trkpt lat="43.97641" lon="1.82218">
        <ele>213.8</ele>
        <time>2021-10-24T13:58:42Z</time>
      </trkpt>
      <trkpt lat="43.97639" lon="1.82218">
        <ele>214</ele>
        <time>2021-10-24T13:58:43Z</time>
      </trkpt>
      <trkpt lat="43.97638" lon="1.82218">
        <ele>214.2</ele>
        <time>2021-10-24T13:58:44Z</time>
      </trkpt>
      <trkpt lat="43.97637" lon="1.82217">
        <ele>214.4</ele>
        <time>2021-10-24T13:58:45Z</time>
      </trkpt>
      <trkpt lat="43.97635" lon="1.82217">
        <ele>214.4</ele>
        <time>2021-10-24T13:58:46Z</time>
      </trkpt>
      <trkpt lat="43.97634" lon="1.82217">
        <ele>214.8</ele>
        <time>2021-10-24T13:58:47Z</time>
      </trkpt>
      <trkpt lat="43.97632" lon="1.82217">
        <ele>215</ele>
        <time>2021-10-24T13:58:48Z</time>
      </trkpt>
      <trkpt lat="43.97631" lon="1.82216">
        <ele>215</ele>
        <time>2021-10-24T13:58:49Z</time>
      </trkpt>
      <trkpt lat="43.97629" lon="1.82216">
        <ele>215.2</ele>
        <time>2021-10-24T13:58:50Z</time>
      </trkpt>
      <trkpt lat="43.97627" lon="1.82215">
        <ele>215.2</ele>
        <time>2021-10-24T13:58:51Z</time>
      </trkpt>
      <trkpt lat="43.97626" lon="1.82215">
        <ele>215.2</ele>
        <time>2021-10-24T13:58:52Z</time>
      </trkpt>
      <trkpt lat="43.97624" lon="1.82214">
        <ele>215.4</ele>
        <time>2021-10-24T13:58:53Z</time>
      </trkpt>
      <trkpt lat="43.97622" lon="1.82214">
        <ele>215.4</ele>
        <time>2021-10-24T13:58:54Z</time>
      </trkpt>
      <trkpt lat="43.97621" lon="1.82214">
        <ele>215.6</ele>
        <time>2021-10-24T13:58:55Z</time>
      </trkpt>
      <trkpt lat="43.97618" lon="1.82213">
        <ele>215.6</ele>
        <time>2021-10-24T13:58:56Z</time>
      </trkpt>
      <trkpt lat="43.97616" lon="1.82213">
        <ele>215.8</ele>
        <time>2021-10-24T13:58:57Z</time>
      </trkpt>
      <trkpt lat="43.97614" lon="1.82212">
        <ele>215.8</ele>
        <time>2021-10-24T13:58:58Z</time>
      </trkpt>
      <trkpt lat="43.97612" lon="1.82211">
        <ele>216.2</ele>
        <time>2021-10-24T13:58:59Z</time>
      </trkpt>
      <trkpt lat="43.97609" lon="1.82211">
        <ele>216.2</ele>
        <time>2021-10-24T13:59:00Z</time>
      </trkpt>
      <trkpt lat="43.97607" lon="1.8221">
        <ele>216.4</ele>
        <time>2021-10-24T13:59:01Z</time>
      </trkpt>
      <trkpt lat="43.97605" lon="1.8221">
        <ele>216.6</ele>
        <time>2021-10-24T13:59:02Z</time>
      </trkpt>
      <trkpt lat="43.97602" lon="1.8221">
        <ele>216.8</ele>
        <time>2021-10-24T13:59:03Z</time>
      </trkpt>
      <trkpt lat="43.976" lon="1.8221">
        <ele>216.8</ele>
        <time>2021-10-24T13:59:04Z</time>
      </trkpt>
      <trkpt lat="43.97598" lon="1.8221">
        <ele>217</ele>
        <time>2021-10-24T13:59:05Z</time>
      </trkpt>
      <trkpt lat="43.97596" lon="1.82209">
        <ele>217.2</ele>
        <time>2021-10-24T13:59:06Z</time>
      </trkpt>
      <trkpt lat="43.97593" lon="1.82208">
        <ele>217.2</ele>
        <time>2021-10-24T13:59:07Z</time>
      </trkpt>
      <trkpt lat="43.9759" lon="1.82208">
        <ele>217.4</ele>
        <time>2021-10-24T13:59:08Z</time>
      </trkpt>
      <trkpt lat="43.97588" lon="1.82208">
        <ele>217.4</ele>
        <time>2021-10-24T13:59:09Z</time>
      </trkpt>
      <trkpt lat="43.97585" lon="1.82208">
        <ele>217.4</ele>
        <time>2021-10-24T13:59:10Z</time>
      </trkpt>
      <trkpt lat="43.97583" lon="1.82207">
        <ele>217.4</ele>
        <time>2021-10-24T13:59:11Z</time>
      </trkpt>
      <trkpt lat="43.9758" lon="1.82207">
        <ele>217.6</ele>
        <time>2021-10-24T13:59:12Z</time>
      </trkpt>
      <trkpt lat="43.97577" lon="1.82206">
        <ele>217.6</ele>
        <time>2021-10-24T13:59:13Z</time>
      </trkpt>
      <trkpt lat="43.97575" lon="1.82206">
        <ele>217.6</ele>
        <time>2021-10-24T13:59:14Z</time>
      </trkpt>
      <trkpt lat="43.97572" lon="1.82205">
        <ele>217.8</ele>
        <time>2021-10-24T13:59:15Z</time>
      </trkpt>
      <trkpt lat="43.97569" lon="1.82205">
        <ele>217.8</ele>
        <time>2021-10-24T13:59:16Z</time>
      </trkpt>
      <trkpt lat="43.97566" lon="1.82205">
        <ele>218</ele>
        <time>2021-10-24T13:59:17Z</time>
      </trkpt>
      <trkpt lat="43.97563" lon="1.82205">
        <ele>218</ele>
        <time>2021-10-24T13:59:18Z</time>
      </trkpt>
      <trkpt lat="43.9756" lon="1.82205">
        <ele>218</ele>
        <time>2021-10-24T13:59:19Z</time>
      </trkpt>
      <trkpt lat="43.97557" lon="1.82205">
        <ele>218</ele>
        <time>2021-10-24T13:59:20Z</time>
      </trkpt>
      <trkpt lat="43.97554" lon="1.82205">
        <ele>218</ele>
        <time>2021-10-24T13:59:21Z</time>
      </trkpt>
      <trkpt lat="43.97551" lon="1.82204">
        <ele>218</ele>
        <time>2021-10-24T13:59:22Z</time>
      </trkpt>
      <trkpt lat="43.97545" lon="1.82204">
        <ele>218</ele>
        <time>2021-10-24T13:59:24Z</time>
      </trkpt>
      <trkpt lat="43.97539" lon="1.82204">
        <ele>218</ele>
        <time>2021-10-24T13:59:26Z</time>
      </trkpt>
      <trkpt lat="43.97536" lon="1.82204">
        <ele>218</ele>
        <time>2021-10-24T13:59:27Z</time>
      </trkpt>
      <trkpt lat="43.97533" lon="1.82204">
        <ele>218</ele>
        <time>2021-10-24T13:59:28Z</time>
      </trkpt>
      <trkpt lat="43.9753" lon="1.82203">
        <ele>218</ele>
        <time>2021-10-24T13:59:29Z</time>
      </trkpt>
      <trkpt lat="43.97528" lon="1.82203">
        <ele>218</ele>
        <time>2021-10-24T13:59:30Z</time>
      </trkpt>
      <trkpt lat="43.97517" lon="1.82203">
        <ele>218.2</ele>
        <time>2021-10-24T13:59:34Z</time>
      </trkpt>
      <trkpt lat="43.97514" lon="1.82203">
        <ele>218.2</ele>
        <time>2021-10-24T13:59:35Z</time>
      </trkpt>
      <trkpt lat="43.97511" lon="1.82202">
        <ele>218</ele>
        <time>2021-10-24T13:59:36Z</time>
      </trkpt>
      <trkpt lat="43.97494" lon="1.82198">
        <ele>218.4</ele>
        <time>2021-10-24T13:59:42Z</time>
      </trkpt>
      <trkpt lat="43.97491" lon="1.82196">
        <ele>218.6</ele>
        <time>2021-10-24T13:59:43Z</time>
      </trkpt>
      <trkpt lat="43.97489" lon="1.82196">
        <ele>218.6</ele>
        <time>2021-10-24T13:59:44Z</time>
      </trkpt>
      <trkpt lat="43.97486" lon="1.82195">
        <ele>218.6</ele>
        <time>2021-10-24T13:59:45Z</time>
      </trkpt>
      <trkpt lat="43.97483" lon="1.82194">
        <ele>218.6</ele>
        <time>2021-10-24T13:59:46Z</time>
      </trkpt>
      <trkpt lat="43.97481" lon="1.82193">
        <ele>218.8</ele>
        <time>2021-10-24T13:59:47Z</time>
      </trkpt>
      <trkpt lat="43.97479" lon="1.82192">
        <ele>218.8</ele>
        <time>2021-10-24T13:59:48Z</time>
      </trkpt>
      <trkpt lat="43.97477" lon="1.82191">
        <ele>218.8</ele>
        <time>2021-10-24T13:59:49Z</time>
      </trkpt>
      <trkpt lat="43.97475" lon="1.8219">
        <ele>219</ele>
        <time>2021-10-24T13:59:50Z</time>
      </trkpt>
      <trkpt lat="43.97473" lon="1.82189">
        <ele>219</ele>
        <time>2021-10-24T13:59:51Z</time>
      </trkpt>
      <trkpt lat="43.97471" lon="1.82188">
        <ele>219</ele>
        <time>2021-10-24T13:59:52Z</time>
      </trkpt>
      <trkpt lat="43.97464" lon="1.8219">
        <ele>219.4</ele>
        <time>2021-10-24T13:59:55Z</time>
      </trkpt>
      <trkpt lat="43.97461" lon="1.82191">
        <ele>219.4</ele>
        <time>2021-10-24T13:59:56Z</time>
      </trkpt>
      <trkpt lat="43.97459" lon="1.82194">
        <ele>219.4</ele>
        <time>2021-10-24T13:59:57Z</time>
      </trkpt>
      <trkpt lat="43.97458" lon="1.82197">
        <ele>219.4</ele>
        <time>2021-10-24T13:59:58Z</time>
      </trkpt>
      <trkpt lat="43.97456" lon="1.822">
        <ele>219.4</ele>
        <time>2021-10-24T13:59:59Z</time>
      </trkpt>
      <trkpt lat="43.97454" lon="1.82202">
        <ele>219.4</ele>
        <time>2021-10-24T14:00:00Z</time>
      </trkpt>
      <trkpt lat="43.97448" lon="1.82211">
        <ele>219.6</ele>
        <time>2021-10-24T14:00:03Z</time>
      </trkpt>
      <trkpt lat="43.97443" lon="1.82217">
        <ele>219.6</ele>
        <time>2021-10-24T14:00:05Z</time>
      </trkpt>
      <trkpt lat="43.97441" lon="1.82219">
        <ele>219.6</ele>
        <time>2021-10-24T14:00:06Z</time>
      </trkpt>
      <trkpt lat="43.97437" lon="1.82225">
        <ele>219.6</ele>
        <time>2021-10-24T14:00:08Z</time>
      </trkpt>
      <trkpt lat="43.97431" lon="1.82234">
        <ele>219.8</ele>
        <time>2021-10-24T14:00:11Z</time>
      </trkpt>
      <trkpt lat="43.97429" lon="1.82236">
        <ele>219.8</ele>
        <time>2021-10-24T14:00:12Z</time>
      </trkpt>
      <trkpt lat="43.97427" lon="1.82239">
        <ele>220</ele>
        <time>2021-10-24T14:00:13Z</time>
      </trkpt>
      <trkpt lat="43.97415" lon="1.82254">
        <ele>219.6</ele>
        <time>2021-10-24T14:00:18Z</time>
      </trkpt>
      <trkpt lat="43.97408" lon="1.8226">
        <ele>219.2</ele>
        <time>2021-10-24T14:00:20Z</time>
      </trkpt>
      <trkpt lat="43.97401" lon="1.82267">
        <ele>218.8</ele>
        <time>2021-10-24T14:00:22Z</time>
      </trkpt>
      <trkpt lat="43.97396" lon="1.82272">
        <ele>218.6</ele>
        <time>2021-10-24T14:00:23Z</time>
      </trkpt>
      <trkpt lat="43.97393" lon="1.82276">
        <ele>218.2</ele>
        <time>2021-10-24T14:00:24Z</time>
      </trkpt>
      <trkpt lat="43.9739" lon="1.8228">
        <ele>217.8</ele>
        <time>2021-10-24T14:00:25Z</time>
      </trkpt>
      <trkpt lat="43.97387" lon="1.82284">
        <ele>217.4</ele>
        <time>2021-10-24T14:00:26Z</time>
      </trkpt>
      <trkpt lat="43.97384" lon="1.82288">
        <ele>217.2</ele>
        <time>2021-10-24T14:00:27Z</time>
      </trkpt>
      <trkpt lat="43.97382" lon="1.82291">
        <ele>217</ele>
        <time>2021-10-24T14:00:28Z</time>
      </trkpt>
      <trkpt lat="43.97376" lon="1.82304">
        <ele>216.8</ele>
        <time>2021-10-24T14:00:31Z</time>
      </trkpt>
      <trkpt lat="43.97375" lon="1.82308">
        <ele>216.8</ele>
        <time>2021-10-24T14:00:32Z</time>
      </trkpt>
      <trkpt lat="43.97374" lon="1.82312">
        <ele>216.6</ele>
        <time>2021-10-24T14:00:33Z</time>
      </trkpt>
      <trkpt lat="43.97372" lon="1.82316">
        <ele>216.6</ele>
        <time>2021-10-24T14:00:34Z</time>
      </trkpt>
      <trkpt lat="43.97371" lon="1.8232">
        <ele>216.6</ele>
        <time>2021-10-24T14:00:35Z</time>
      </trkpt>
      <trkpt lat="43.97369" lon="1.82325">
        <ele>216.8</ele>
        <time>2021-10-24T14:00:36Z</time>
      </trkpt>
      <trkpt lat="43.97368" lon="1.8233">
        <ele>216.8</ele>
        <time>2021-10-24T14:00:37Z</time>
      </trkpt>
      <trkpt lat="43.97366" lon="1.82334">
        <ele>216.8</ele>
        <time>2021-10-24T14:00:38Z</time>
      </trkpt>
      <trkpt lat="43.97365" lon="1.82338">
        <ele>216.8</ele>
        <time>2021-10-24T14:00:39Z</time>
      </trkpt>
      <trkpt lat="43.97363" lon="1.82342">
        <ele>217</ele>
        <time>2021-10-24T14:00:40Z</time>
      </trkpt>
      <trkpt lat="43.97362" lon="1.82345">
        <ele>217</ele>
        <time>2021-10-24T14:00:41Z</time>
      </trkpt>
      <trkpt lat="43.97359" lon="1.82353">
        <ele>217.2</ele>
        <time>2021-10-24T14:00:43Z</time>
      </trkpt>
      <trkpt lat="43.97357" lon="1.82356">
        <ele>217.2</ele>
        <time>2021-10-24T14:00:44Z</time>
      </trkpt>
      <trkpt lat="43.97355" lon="1.82364">
        <ele>217.6</ele>
        <time>2021-10-24T14:00:46Z</time>
      </trkpt>
      <trkpt lat="43.97346" lon="1.82384">
        <ele>217.8</ele>
        <time>2021-10-24T14:00:51Z</time>
      </trkpt>
      <trkpt lat="43.97345" lon="1.82388">
        <ele>217.8</ele>
        <time>2021-10-24T14:00:52Z</time>
      </trkpt>
      <trkpt lat="43.97344" lon="1.82392">
        <ele>218</ele>
        <time>2021-10-24T14:00:53Z</time>
      </trkpt>
      <trkpt lat="43.97344" lon="1.82394">
        <ele>218.4</ele>
        <time>2021-10-24T14:00:54Z</time>
      </trkpt>
      <trkpt lat="43.97343" lon="1.82398">
        <ele>218.4</ele>
        <time>2021-10-24T14:00:55Z</time>
      </trkpt>
      <trkpt lat="43.97342" lon="1.82404">
        <ele>218.6</ele>
        <time>2021-10-24T14:00:57Z</time>
      </trkpt>
      <trkpt lat="43.97339" lon="1.82415">
        <ele>218.8</ele>
        <time>2021-10-24T14:01:00Z</time>
      </trkpt>
      <trkpt lat="43.97338" lon="1.82418">
        <ele>218.8</ele>
        <time>2021-10-24T14:01:01Z</time>
      </trkpt>
      <trkpt lat="43.97337" lon="1.82422">
        <ele>219</ele>
        <time>2021-10-24T14:01:02Z</time>
      </trkpt>
      <trkpt lat="43.97336" lon="1.82425">
        <ele>219</ele>
        <time>2021-10-24T14:01:03Z</time>
      </trkpt>
      <trkpt lat="43.97335" lon="1.82428">
        <ele>219.2</ele>
        <time>2021-10-24T14:01:04Z</time>
      </trkpt>
      <trkpt lat="43.97334" lon="1.82432">
        <ele>219.2</ele>
        <time>2021-10-24T14:01:05Z</time>
      </trkpt>
      <trkpt lat="43.97323" lon="1.82466">
        <ele>219</ele>
        <time>2021-10-24T14:01:14Z</time>
      </trkpt>
      <trkpt lat="43.9732" lon="1.82478">
        <ele>218.8</ele>
        <time>2021-10-24T14:01:17Z</time>
      </trkpt>
      <trkpt lat="43.97319" lon="1.82482">
        <ele>218.8</ele>
        <time>2021-10-24T14:01:18Z</time>
      </trkpt>
      <trkpt lat="43.97317" lon="1.82485">
        <ele>218.8</ele>
        <time>2021-10-24T14:01:19Z</time>
      </trkpt>
      <trkpt lat="43.97316" lon="1.82489">
        <ele>218.8</ele>
        <time>2021-10-24T14:01:20Z</time>
      </trkpt>
      <trkpt lat="43.97315" lon="1.82492">
        <ele>218.8</ele>
        <time>2021-10-24T14:01:21Z</time>
      </trkpt>
      <trkpt lat="43.97314" lon="1.82496">
        <ele>218.8</ele>
        <time>2021-10-24T14:01:22Z</time>
      </trkpt>
      <trkpt lat="43.97313" lon="1.82499">
        <ele>218.8</ele>
        <time>2021-10-24T14:01:23Z</time>
      </trkpt>
      <trkpt lat="43.9731" lon="1.82509">
        <ele>219</ele>
        <time>2021-10-24T14:01:26Z</time>
      </trkpt>
      <trkpt lat="43.9731" lon="1.82512">
        <ele>219.2</ele>
        <time>2021-10-24T14:01:27Z</time>
      </trkpt>
      <trkpt lat="43.97309" lon="1.82515">
        <ele>219.2</ele>
        <time>2021-10-24T14:01:28Z</time>
      </trkpt>
      <trkpt lat="43.97308" lon="1.82517">
        <ele>219.6</ele>
        <time>2021-10-24T14:01:29Z</time>
      </trkpt>
      <trkpt lat="43.97308" lon="1.8252">
        <ele>219.8</ele>
        <time>2021-10-24T14:01:30Z</time>
      </trkpt>
      <trkpt lat="43.97307" lon="1.82523">
        <ele>219.8</ele>
        <time>2021-10-24T14:01:31Z</time>
      </trkpt>
      <trkpt lat="43.97306" lon="1.82525">
        <ele>220</ele>
        <time>2021-10-24T14:01:32Z</time>
      </trkpt>
      <trkpt lat="43.97302" lon="1.82534">
        <ele>220.8</ele>
        <time>2021-10-24T14:01:36Z</time>
      </trkpt>
      <trkpt lat="43.97302" lon="1.82536">
        <ele>220.8</ele>
        <time>2021-10-24T14:01:37Z</time>
      </trkpt>
      <trkpt lat="43.97301" lon="1.82538">
        <ele>221</ele>
        <time>2021-10-24T14:01:38Z</time>
      </trkpt>
      <trkpt lat="43.973" lon="1.8254">
        <ele>221</ele>
        <time>2021-10-24T14:01:39Z</time>
      </trkpt>
      <trkpt lat="43.973" lon="1.82542">
        <ele>221</ele>
        <time>2021-10-24T14:01:40Z</time>
      </trkpt>
      <trkpt lat="43.97299" lon="1.82543">
        <ele>221.2</ele>
        <time>2021-10-24T14:01:41Z</time>
      </trkpt>
      <trkpt lat="43.97298" lon="1.82546">
        <ele>221.4</ele>
        <time>2021-10-24T14:01:42Z</time>
      </trkpt>
      <trkpt lat="43.97297" lon="1.82557">
        <ele>222</ele>
        <time>2021-10-24T14:01:47Z</time>
      </trkpt>
      <trkpt lat="43.97297" lon="1.82559">
        <ele>222.2</ele>
        <time>2021-10-24T14:01:48Z</time>
      </trkpt>
      <trkpt lat="43.97297" lon="1.82562">
        <ele>222.6</ele>
        <time>2021-10-24T14:01:49Z</time>
      </trkpt>
      <trkpt lat="43.97296" lon="1.82564">
        <ele>222.8</ele>
        <time>2021-10-24T14:01:50Z</time>
      </trkpt>
      <trkpt lat="43.97296" lon="1.82567">
        <ele>223</ele>
        <time>2021-10-24T14:01:51Z</time>
      </trkpt>
      <trkpt lat="43.97296" lon="1.82569">
        <ele>223</ele>
        <time>2021-10-24T14:01:52Z</time>
      </trkpt>
      <trkpt lat="43.97296" lon="1.82571">
        <ele>223.2</ele>
        <time>2021-10-24T14:01:53Z</time>
      </trkpt>
      <trkpt lat="43.97296" lon="1.82574">
        <ele>223.2</ele>
        <time>2021-10-24T14:01:54Z</time>
      </trkpt>
      <trkpt lat="43.97296" lon="1.82576">
        <ele>223.4</ele>
        <time>2021-10-24T14:01:55Z</time>
      </trkpt>
      <trkpt lat="43.97296" lon="1.82579">
        <ele>223.8</ele>
        <time>2021-10-24T14:01:56Z</time>
      </trkpt>
      <trkpt lat="43.97296" lon="1.82582">
        <ele>224</ele>
        <time>2021-10-24T14:01:57Z</time>
      </trkpt>
      <trkpt lat="43.97296" lon="1.82584">
        <ele>224.4</ele>
        <time>2021-10-24T14:01:58Z</time>
      </trkpt>
      <trkpt lat="43.97296" lon="1.82586">
        <ele>224.4</ele>
        <time>2021-10-24T14:01:59Z</time>
      </trkpt>
      <trkpt lat="43.97295" lon="1.82589">
        <ele>224.8</ele>
        <time>2021-10-24T14:02:00Z</time>
      </trkpt>
      <trkpt lat="43.97295" lon="1.82592">
        <ele>225</ele>
        <time>2021-10-24T14:02:01Z</time>
      </trkpt>
      <trkpt lat="43.97295" lon="1.82595">
        <ele>225.4</ele>
        <time>2021-10-24T14:02:02Z</time>
      </trkpt>
      <trkpt lat="43.97295" lon="1.82598">
        <ele>225.4</ele>
        <time>2021-10-24T14:02:03Z</time>
      </trkpt>
      <trkpt lat="43.97294" lon="1.82601">
        <ele>225.6</ele>
        <time>2021-10-24T14:02:04Z</time>
      </trkpt>
      <trkpt lat="43.97294" lon="1.82603">
        <ele>226</ele>
        <time>2021-10-24T14:02:05Z</time>
      </trkpt>
      <trkpt lat="43.97294" lon="1.82606">
        <ele>226.2</ele>
        <time>2021-10-24T14:02:06Z</time>
      </trkpt>
      <trkpt lat="43.97293" lon="1.82608">
        <ele>226.4</ele>
        <time>2021-10-24T14:02:07Z</time>
      </trkpt>
      <trkpt lat="43.97293" lon="1.82611">
        <ele>226.4</ele>
        <time>2021-10-24T14:02:08Z</time>
      </trkpt>
      <trkpt lat="43.97293" lon="1.82613">
        <ele>226.6</ele>
        <time>2021-10-24T14:02:09Z</time>
      </trkpt>
      <trkpt lat="43.97292" lon="1.82616">
        <ele>226.8</ele>
        <time>2021-10-24T14:02:10Z</time>
      </trkpt>
      <trkpt lat="43.97291" lon="1.82618">
        <ele>227.2</ele>
        <time>2021-10-24T14:02:11Z</time>
      </trkpt>
      <trkpt lat="43.97291" lon="1.8262">
        <ele>227.4</ele>
        <time>2021-10-24T14:02:12Z</time>
      </trkpt>
      <trkpt lat="43.9729" lon="1.82622">
        <ele>227.6</ele>
        <time>2021-10-24T14:02:13Z</time>
      </trkpt>
      <trkpt lat="43.9729" lon="1.82624">
        <ele>228</ele>
        <time>2021-10-24T14:02:14Z</time>
      </trkpt>
      <trkpt lat="43.97289" lon="1.82626">
        <ele>228</ele>
        <time>2021-10-24T14:02:15Z</time>
      </trkpt>
      <trkpt lat="43.97289" lon="1.82628">
        <ele>228.4</ele>
        <time>2021-10-24T14:02:16Z</time>
      </trkpt>
      <trkpt lat="43.97288" lon="1.8263">
        <ele>228.6</ele>
        <time>2021-10-24T14:02:17Z</time>
      </trkpt>
      <trkpt lat="43.97287" lon="1.82631">
        <ele>228.8</ele>
        <time>2021-10-24T14:02:18Z</time>
      </trkpt>
      <trkpt lat="43.97286" lon="1.82631">
        <ele>228.8</ele>
        <time>2021-10-24T14:02:19Z</time>
      </trkpt>
      <trkpt lat="43.97285" lon="1.82632">
        <ele>229</ele>
        <time>2021-10-24T14:02:20Z</time>
      </trkpt>
      <trkpt lat="43.97283" lon="1.82632">
        <ele>229.2</ele>
        <time>2021-10-24T14:02:21Z</time>
      </trkpt>
      <trkpt lat="43.97281" lon="1.82632">
        <ele>229.4</ele>
        <time>2021-10-24T14:02:22Z</time>
      </trkpt>
      <trkpt lat="43.9728" lon="1.82632">
        <ele>229.4</ele>
        <time>2021-10-24T14:02:23Z</time>
      </trkpt>
      <trkpt lat="43.97279" lon="1.82631">
        <ele>229.6</ele>
        <time>2021-10-24T14:02:24Z</time>
      </trkpt>
      <trkpt lat="43.97277" lon="1.82631">
        <ele>229.8</ele>
        <time>2021-10-24T14:02:25Z</time>
      </trkpt>
      <trkpt lat="43.97276" lon="1.82631">
        <ele>230</ele>
        <time>2021-10-24T14:02:26Z</time>
      </trkpt>
      <trkpt lat="43.97274" lon="1.82631">
        <ele>230.2</ele>
        <time>2021-10-24T14:02:27Z</time>
      </trkpt>
      <trkpt lat="43.97272" lon="1.8263">
        <ele>230.4</ele>
        <time>2021-10-24T14:02:28Z</time>
      </trkpt>
      <trkpt lat="43.97271" lon="1.8263">
        <ele>230.4</ele>
        <time>2021-10-24T14:02:29Z</time>
      </trkpt>
      <trkpt lat="43.97269" lon="1.82629">
        <ele>230.6</ele>
        <time>2021-10-24T14:02:30Z</time>
      </trkpt>
      <trkpt lat="43.97268" lon="1.82628">
        <ele>230.6</ele>
        <time>2021-10-24T14:02:31Z</time>
      </trkpt>
      <trkpt lat="43.97266" lon="1.82628">
        <ele>230.8</ele>
        <time>2021-10-24T14:02:32Z</time>
      </trkpt>
      <trkpt lat="43.97264" lon="1.82627">
        <ele>231</ele>
        <time>2021-10-24T14:02:33Z</time>
      </trkpt>
      <trkpt lat="43.97263" lon="1.82627">
        <ele>231</ele>
        <time>2021-10-24T14:02:34Z</time>
      </trkpt>
      <trkpt lat="43.97261" lon="1.82626">
        <ele>231.2</ele>
        <time>2021-10-24T14:02:35Z</time>
      </trkpt>
      <trkpt lat="43.97259" lon="1.82626">
        <ele>231.4</ele>
        <time>2021-10-24T14:02:36Z</time>
      </trkpt>
      <trkpt lat="43.97257" lon="1.82625">
        <ele>231.6</ele>
        <time>2021-10-24T14:02:37Z</time>
      </trkpt>
      <trkpt lat="43.97255" lon="1.82625">
        <ele>231.8</ele>
        <time>2021-10-24T14:02:38Z</time>
      </trkpt>
      <trkpt lat="43.97254" lon="1.82625">
        <ele>232</ele>
        <time>2021-10-24T14:02:39Z</time>
      </trkpt>
      <trkpt lat="43.97252" lon="1.82624">
        <ele>232</ele>
        <time>2021-10-24T14:02:40Z</time>
      </trkpt>
      <trkpt lat="43.9725" lon="1.82623">
        <ele>232</ele>
        <time>2021-10-24T14:02:41Z</time>
      </trkpt>
      <trkpt lat="43.97249" lon="1.82623">
        <ele>232.2</ele>
        <time>2021-10-24T14:02:42Z</time>
      </trkpt>
      <trkpt lat="43.97247" lon="1.82623">
        <ele>232.4</ele>
        <time>2021-10-24T14:02:43Z</time>
      </trkpt>
      <trkpt lat="43.97245" lon="1.82622">
        <ele>232.4</ele>
        <time>2021-10-24T14:02:44Z</time>
      </trkpt>
      <trkpt lat="43.97243" lon="1.82621">
        <ele>232.6</ele>
        <time>2021-10-24T14:02:45Z</time>
      </trkpt>
      <trkpt lat="43.97241" lon="1.8262">
        <ele>232.6</ele>
        <time>2021-10-24T14:02:46Z</time>
      </trkpt>
      <trkpt lat="43.97239" lon="1.8262">
        <ele>232.8</ele>
        <time>2021-10-24T14:02:47Z</time>
      </trkpt>
      <trkpt lat="43.97237" lon="1.8262">
        <ele>233</ele>
        <time>2021-10-24T14:02:48Z</time>
      </trkpt>
      <trkpt lat="43.97236" lon="1.82619">
        <ele>233.2</ele>
        <time>2021-10-24T14:02:49Z</time>
      </trkpt>
      <trkpt lat="43.97234" lon="1.82619">
        <ele>233.2</ele>
        <time>2021-10-24T14:02:50Z</time>
      </trkpt>
      <trkpt lat="43.97232" lon="1.82619">
        <ele>233.4</ele>
        <time>2021-10-24T14:02:51Z</time>
      </trkpt>
      <trkpt lat="43.97231" lon="1.82618">
        <ele>233.4</ele>
        <time>2021-10-24T14:02:52Z</time>
      </trkpt>
      <trkpt lat="43.97229" lon="1.82618">
        <ele>233.8</ele>
        <time>2021-10-24T14:02:53Z</time>
      </trkpt>
      <trkpt lat="43.97226" lon="1.82618">
        <ele>234</ele>
        <time>2021-10-24T14:02:54Z</time>
      </trkpt>
      <trkpt lat="43.97224" lon="1.82617">
        <ele>234.2</ele>
        <time>2021-10-24T14:02:55Z</time>
      </trkpt>
      <trkpt lat="43.97223" lon="1.82617">
        <ele>234.4</ele>
        <time>2021-10-24T14:02:56Z</time>
      </trkpt>
      <trkpt lat="43.97221" lon="1.82617">
        <ele>234.6</ele>
        <time>2021-10-24T14:02:57Z</time>
      </trkpt>
      <trkpt lat="43.97219" lon="1.82617">
        <ele>234.6</ele>
        <time>2021-10-24T14:02:58Z</time>
      </trkpt>
      <trkpt lat="43.97218" lon="1.82617">
        <ele>234.8</ele>
        <time>2021-10-24T14:02:59Z</time>
      </trkpt>
      <trkpt lat="43.97216" lon="1.82617">
        <ele>235</ele>
        <time>2021-10-24T14:03:00Z</time>
      </trkpt>
      <trkpt lat="43.97214" lon="1.82616">
        <ele>235</ele>
        <time>2021-10-24T14:03:01Z</time>
      </trkpt>
      <trkpt lat="43.97213" lon="1.82616">
        <ele>235.2</ele>
        <time>2021-10-24T14:03:02Z</time>
      </trkpt>
      <trkpt lat="43.97211" lon="1.82615">
        <ele>235.2</ele>
        <time>2021-10-24T14:03:03Z</time>
      </trkpt>
      <trkpt lat="43.97209" lon="1.82615">
        <ele>235.4</ele>
        <time>2021-10-24T14:03:04Z</time>
      </trkpt>
      <trkpt lat="43.97208" lon="1.82614">
        <ele>235.4</ele>
        <time>2021-10-24T14:03:05Z</time>
      </trkpt>
      <trkpt lat="43.97206" lon="1.82613">
        <ele>235.6</ele>
        <time>2021-10-24T14:03:06Z</time>
      </trkpt>
      <trkpt lat="43.97204" lon="1.82611">
        <ele>235.6</ele>
        <time>2021-10-24T14:03:07Z</time>
      </trkpt>
      <trkpt lat="43.97203" lon="1.8261">
        <ele>235.8</ele>
        <time>2021-10-24T14:03:08Z</time>
      </trkpt>
      <trkpt lat="43.97201" lon="1.82608">
        <ele>236</ele>
        <time>2021-10-24T14:03:09Z</time>
      </trkpt>
      <trkpt lat="43.972" lon="1.82606">
        <ele>236</ele>
        <time>2021-10-24T14:03:10Z</time>
      </trkpt>
      <trkpt lat="43.97198" lon="1.82604">
        <ele>236.2</ele>
        <time>2021-10-24T14:03:11Z</time>
      </trkpt>
      <trkpt lat="43.97197" lon="1.82602">
        <ele>236.2</ele>
        <time>2021-10-24T14:03:12Z</time>
      </trkpt>
      <trkpt lat="43.97195" lon="1.826">
        <ele>236.2</ele>
        <time>2021-10-24T14:03:13Z</time>
      </trkpt>
      <trkpt lat="43.97193" lon="1.82597">
        <ele>236.2</ele>
        <time>2021-10-24T14:03:14Z</time>
      </trkpt>
      <trkpt lat="43.97192" lon="1.82595">
        <ele>236.4</ele>
        <time>2021-10-24T14:03:15Z</time>
      </trkpt>
      <trkpt lat="43.9719" lon="1.82593">
        <ele>236.4</ele>
        <time>2021-10-24T14:03:16Z</time>
      </trkpt>
      <trkpt lat="43.97189" lon="1.82591">
        <ele>236.4</ele>
        <time>2021-10-24T14:03:17Z</time>
      </trkpt>
      <trkpt lat="43.97187" lon="1.8259">
        <ele>236.6</ele>
        <time>2021-10-24T14:03:18Z</time>
      </trkpt>
      <trkpt lat="43.97186" lon="1.82588">
        <ele>236.8</ele>
        <time>2021-10-24T14:03:19Z</time>
      </trkpt>
      <trkpt lat="43.97184" lon="1.82586">
        <ele>237</ele>
        <time>2021-10-24T14:03:20Z</time>
      </trkpt>
      <trkpt lat="43.97182" lon="1.82584">
        <ele>237</ele>
        <time>2021-10-24T14:03:21Z</time>
      </trkpt>
      <trkpt lat="43.97181" lon="1.82583">
        <ele>237.2</ele>
        <time>2021-10-24T14:03:22Z</time>
      </trkpt>
      <trkpt lat="43.97179" lon="1.82581">
        <ele>237.4</ele>
        <time>2021-10-24T14:03:23Z</time>
      </trkpt>
      <trkpt lat="43.97178" lon="1.82579">
        <ele>237.4</ele>
        <time>2021-10-24T14:03:24Z</time>
      </trkpt>
      <trkpt lat="43.97175" lon="1.82577">
        <ele>237.8</ele>
        <time>2021-10-24T14:03:25Z</time>
      </trkpt>
      <trkpt lat="43.97174" lon="1.82575">
        <ele>237.8</ele>
        <time>2021-10-24T14:03:26Z</time>
      </trkpt>
      <trkpt lat="43.97172" lon="1.82574">
        <ele>238.2</ele>
        <time>2021-10-24T14:03:27Z</time>
      </trkpt>
      <trkpt lat="43.9717" lon="1.82572">
        <ele>238.2</ele>
        <time>2021-10-24T14:03:28Z</time>
      </trkpt>
      <trkpt lat="43.97168" lon="1.8257">
        <ele>238.4</ele>
        <time>2021-10-24T14:03:29Z</time>
      </trkpt>
      <trkpt lat="43.97166" lon="1.82568">
        <ele>238.4</ele>
        <time>2021-10-24T14:03:30Z</time>
      </trkpt>
      <trkpt lat="43.97163" lon="1.82565">
        <ele>238.4</ele>
        <time>2021-10-24T14:03:31Z</time>
      </trkpt>
      <trkpt lat="43.97161" lon="1.82563">
        <ele>238.4</ele>
        <time>2021-10-24T14:03:32Z</time>
      </trkpt>
      <trkpt lat="43.97158" lon="1.82561">
        <ele>238.6</ele>
        <time>2021-10-24T14:03:33Z</time>
      </trkpt>
      <trkpt lat="43.97156" lon="1.82558">
        <ele>238.8</ele>
        <time>2021-10-24T14:03:34Z</time>
      </trkpt>
      <trkpt lat="43.97153" lon="1.82556">
        <ele>238.6</ele>
        <time>2021-10-24T14:03:35Z</time>
      </trkpt>
      <trkpt lat="43.9715" lon="1.82553">
        <ele>238.4</ele>
        <time>2021-10-24T14:03:36Z</time>
      </trkpt>
      <trkpt lat="43.97148" lon="1.82551">
        <ele>238.4</ele>
        <time>2021-10-24T14:03:37Z</time>
      </trkpt>
      <trkpt lat="43.97145" lon="1.82548">
        <ele>238.2</ele>
        <time>2021-10-24T14:03:38Z</time>
      </trkpt>
      <trkpt lat="43.97142" lon="1.82546">
        <ele>238.2</ele>
        <time>2021-10-24T14:03:39Z</time>
      </trkpt>
      <trkpt lat="43.97139" lon="1.82543">
        <ele>238.4</ele>
        <time>2021-10-24T14:03:40Z</time>
      </trkpt>
      <trkpt lat="43.97134" lon="1.82539">
        <ele>238</ele>
        <time>2021-10-24T14:03:42Z</time>
      </trkpt>
      <trkpt lat="43.97131" lon="1.82536">
        <ele>238.2</ele>
        <time>2021-10-24T14:03:43Z</time>
      </trkpt>
      <trkpt lat="43.97129" lon="1.82533">
        <ele>238.2</ele>
        <time>2021-10-24T14:03:44Z</time>
      </trkpt>
      <trkpt lat="43.97126" lon="1.82531">
        <ele>238.2</ele>
        <time>2021-10-24T14:03:45Z</time>
      </trkpt>
      <trkpt lat="43.97124" lon="1.82529">
        <ele>238.2</ele>
        <time>2021-10-24T14:03:46Z</time>
      </trkpt>
      <trkpt lat="43.97121" lon="1.82527">
        <ele>238.2</ele>
        <time>2021-10-24T14:03:47Z</time>
      </trkpt>
      <trkpt lat="43.97119" lon="1.82525">
        <ele>238</ele>
        <time>2021-10-24T14:03:48Z</time>
      </trkpt>
      <trkpt lat="43.97112" lon="1.82518">
        <ele>238</ele>
        <time>2021-10-24T14:03:51Z</time>
      </trkpt>
      <trkpt lat="43.97101" lon="1.82507">
        <ele>237.6</ele>
        <time>2021-10-24T14:03:55Z</time>
      </trkpt>
      <trkpt lat="43.97092" lon="1.82499">
        <ele>237.4</ele>
        <time>2021-10-24T14:03:58Z</time>
      </trkpt>
      <trkpt lat="43.97066" lon="1.82478">
        <ele>237</ele>
        <time>2021-10-24T14:04:03Z</time>
      </trkpt>
      <trkpt lat="43.97054" lon="1.8247">
        <ele>236.6</ele>
        <time>2021-10-24T14:04:05Z</time>
      </trkpt>
      <trkpt lat="43.97039" lon="1.82462">
        <ele>235.6</ele>
        <time>2021-10-24T14:04:07Z</time>
      </trkpt>
      <trkpt lat="43.97032" lon="1.82458">
        <ele>235.2</ele>
        <time>2021-10-24T14:04:08Z</time>
      </trkpt>
      <trkpt lat="43.97025" lon="1.82454">
        <ele>234.6</ele>
        <time>2021-10-24T14:04:09Z</time>
      </trkpt>
      <trkpt lat="43.97018" lon="1.82448">
        <ele>234.2</ele>
        <time>2021-10-24T14:04:10Z</time>
      </trkpt>
      <trkpt lat="43.97006" lon="1.82436">
        <ele>233.4</ele>
        <time>2021-10-24T14:04:12Z</time>
      </trkpt>
      <trkpt lat="43.97" lon="1.8243">
        <ele>233</ele>
        <time>2021-10-24T14:04:13Z</time>
      </trkpt>
      <trkpt lat="43.96994" lon="1.82423">
        <ele>232.8</ele>
        <time>2021-10-24T14:04:14Z</time>
      </trkpt>
      <trkpt lat="43.96989" lon="1.82417">
        <ele>232.2</ele>
        <time>2021-10-24T14:04:15Z</time>
      </trkpt>
      <trkpt lat="43.96984" lon="1.82411">
        <ele>232.2</ele>
        <time>2021-10-24T14:04:16Z</time>
      </trkpt>
      <trkpt lat="43.9698" lon="1.82405">
        <ele>232</ele>
        <time>2021-10-24T14:04:17Z</time>
      </trkpt>
      <trkpt lat="43.96976" lon="1.82399">
        <ele>232</ele>
        <time>2021-10-24T14:04:18Z</time>
      </trkpt>
      <trkpt lat="43.96973" lon="1.82394">
        <ele>232</ele>
        <time>2021-10-24T14:04:19Z</time>
      </trkpt>
      <trkpt lat="43.9697" lon="1.82389">
        <ele>232</ele>
        <time>2021-10-24T14:04:20Z</time>
      </trkpt>
      <trkpt lat="43.96967" lon="1.82384">
        <ele>232</ele>
        <time>2021-10-24T14:04:21Z</time>
      </trkpt>
      <trkpt lat="43.96965" lon="1.82379">
        <ele>232</ele>
        <time>2021-10-24T14:04:22Z</time>
      </trkpt>
      <trkpt lat="43.96963" lon="1.82375">
        <ele>232</ele>
        <time>2021-10-24T14:04:23Z</time>
      </trkpt>
      <trkpt lat="43.96962" lon="1.82371">
        <ele>232.2</ele>
        <time>2021-10-24T14:04:24Z</time>
      </trkpt>
      <trkpt lat="43.96958" lon="1.82359">
        <ele>232.4</ele>
        <time>2021-10-24T14:04:27Z</time>
      </trkpt>
      <trkpt lat="43.96951" lon="1.82327">
        <ele>233.4</ele>
        <time>2021-10-24T14:04:34Z</time>
      </trkpt>
      <trkpt lat="43.9695" lon="1.82322">
        <ele>233.4</ele>
        <time>2021-10-24T14:04:35Z</time>
      </trkpt>
      <trkpt lat="43.96949" lon="1.82318">
        <ele>233.6</ele>
        <time>2021-10-24T14:04:36Z</time>
      </trkpt>
      <trkpt lat="43.96943" lon="1.82292">
        <ele>233.6</ele>
        <time>2021-10-24T14:04:42Z</time>
      </trkpt>
      <trkpt lat="43.96941" lon="1.82287">
        <ele>233.6</ele>
        <time>2021-10-24T14:04:43Z</time>
      </trkpt>
      <trkpt lat="43.96937" lon="1.82275">
        <ele>233.8</ele>
        <time>2021-10-24T14:04:46Z</time>
      </trkpt>
      <trkpt lat="43.96935" lon="1.82271">
        <ele>233.8</ele>
        <time>2021-10-24T14:04:47Z</time>
      </trkpt>
      <trkpt lat="43.96933" lon="1.82267">
        <ele>233.8</ele>
        <time>2021-10-24T14:04:48Z</time>
      </trkpt>
      <trkpt lat="43.96931" lon="1.82264">
        <ele>233.8</ele>
        <time>2021-10-24T14:04:49Z</time>
      </trkpt>
      <trkpt lat="43.96929" lon="1.8226">
        <ele>234.2</ele>
        <time>2021-10-24T14:04:50Z</time>
      </trkpt>
      <trkpt lat="43.96927" lon="1.82257">
        <ele>234.4</ele>
        <time>2021-10-24T14:04:51Z</time>
      </trkpt>
      <trkpt lat="43.96925" lon="1.82254">
        <ele>234.6</ele>
        <time>2021-10-24T14:04:52Z</time>
      </trkpt>
      <trkpt lat="43.96923" lon="1.82251">
        <ele>234.6</ele>
        <time>2021-10-24T14:04:53Z</time>
      </trkpt>
      <trkpt lat="43.96922" lon="1.82248">
        <ele>234.6</ele>
        <time>2021-10-24T14:04:54Z</time>
      </trkpt>
      <trkpt lat="43.9692" lon="1.82245">
        <ele>234.6</ele>
        <time>2021-10-24T14:04:55Z</time>
      </trkpt>
      <trkpt lat="43.96918" lon="1.82242">
        <ele>234.8</ele>
        <time>2021-10-24T14:04:56Z</time>
      </trkpt>
      <trkpt lat="43.96916" lon="1.82239">
        <ele>235</ele>
        <time>2021-10-24T14:04:57Z</time>
      </trkpt>
      <trkpt lat="43.96914" lon="1.82236">
        <ele>235</ele>
        <time>2021-10-24T14:04:58Z</time>
      </trkpt>
      <trkpt lat="43.96912" lon="1.82234">
        <ele>235.2</ele>
        <time>2021-10-24T14:04:59Z</time>
      </trkpt>
      <trkpt lat="43.96911" lon="1.82231">
        <ele>235.2</ele>
        <time>2021-10-24T14:05:00Z</time>
      </trkpt>
      <trkpt lat="43.96909" lon="1.82228">
        <ele>235.4</ele>
        <time>2021-10-24T14:05:01Z</time>
      </trkpt>
      <trkpt lat="43.96908" lon="1.82226">
        <ele>235.4</ele>
        <time>2021-10-24T14:05:02Z</time>
      </trkpt>
      <trkpt lat="43.96906" lon="1.82223">
        <ele>235.4</ele>
        <time>2021-10-24T14:05:03Z</time>
      </trkpt>
      <trkpt lat="43.96904" lon="1.82221">
        <ele>235.6</ele>
        <time>2021-10-24T14:05:04Z</time>
      </trkpt>
      <trkpt lat="43.96902" lon="1.82219">
        <ele>235.6</ele>
        <time>2021-10-24T14:05:05Z</time>
      </trkpt>
      <trkpt lat="43.96901" lon="1.82217">
        <ele>235.8</ele>
        <time>2021-10-24T14:05:06Z</time>
      </trkpt>
      <trkpt lat="43.969" lon="1.82214">
        <ele>235.8</ele>
        <time>2021-10-24T14:05:07Z</time>
      </trkpt>
      <trkpt lat="43.96898" lon="1.82212">
        <ele>236</ele>
        <time>2021-10-24T14:05:08Z</time>
      </trkpt>
      <trkpt lat="43.96897" lon="1.8221">
        <ele>236</ele>
        <time>2021-10-24T14:05:09Z</time>
      </trkpt>
      <trkpt lat="43.96896" lon="1.82209">
        <ele>236.2</ele>
        <time>2021-10-24T14:05:10Z</time>
      </trkpt>
      <trkpt lat="43.96895" lon="1.82206">
        <ele>236.4</ele>
        <time>2021-10-24T14:05:11Z</time>
      </trkpt>
      <trkpt lat="43.96894" lon="1.82205">
        <ele>236.6</ele>
        <time>2021-10-24T14:05:12Z</time>
      </trkpt>
      <trkpt lat="43.96893" lon="1.82204">
        <ele>236.6</ele>
        <time>2021-10-24T14:05:13Z</time>
      </trkpt>
      <trkpt lat="43.96892" lon="1.82202">
        <ele>236.8</ele>
        <time>2021-10-24T14:05:14Z</time>
      </trkpt>
      <trkpt lat="43.9689" lon="1.822">
        <ele>237</ele>
        <time>2021-10-24T14:05:15Z</time>
      </trkpt>
      <trkpt lat="43.96889" lon="1.82198">
        <ele>237.2</ele>
        <time>2021-10-24T14:05:16Z</time>
      </trkpt>
      <trkpt lat="43.96887" lon="1.82195">
        <ele>237.4</ele>
        <time>2021-10-24T14:05:18Z</time>
      </trkpt>
      <trkpt lat="43.96886" lon="1.82193">
        <ele>237.6</ele>
        <time>2021-10-24T14:05:19Z</time>
      </trkpt>
      <trkpt lat="43.96886" lon="1.82192">
        <ele>237.8</ele>
        <time>2021-10-24T14:05:20Z</time>
      </trkpt>
      <trkpt lat="43.96885" lon="1.82191">
        <ele>237.8</ele>
        <time>2021-10-24T14:05:21Z</time>
      </trkpt>
      <trkpt lat="43.96884" lon="1.82189">
        <ele>238.2</ele>
        <time>2021-10-24T14:05:22Z</time>
      </trkpt>
      <trkpt lat="43.96883" lon="1.82188">
        <ele>238.2</ele>
        <time>2021-10-24T14:05:23Z</time>
      </trkpt>
      <trkpt lat="43.96882" lon="1.82186">
        <ele>238.6</ele>
        <time>2021-10-24T14:05:24Z</time>
      </trkpt>
      <trkpt lat="43.96881" lon="1.82184">
        <ele>238.6</ele>
        <time>2021-10-24T14:05:25Z</time>
      </trkpt>
      <trkpt lat="43.9688" lon="1.82183">
        <ele>238.8</ele>
        <time>2021-10-24T14:05:26Z</time>
      </trkpt>
      <trkpt lat="43.96879" lon="1.82182">
        <ele>239</ele>
        <time>2021-10-24T14:05:27Z</time>
      </trkpt>
      <trkpt lat="43.96878" lon="1.8218">
        <ele>239</ele>
        <time>2021-10-24T14:05:28Z</time>
      </trkpt>
      <trkpt lat="43.96877" lon="1.82179">
        <ele>239.2</ele>
        <time>2021-10-24T14:05:29Z</time>
      </trkpt>
      <trkpt lat="43.96876" lon="1.82177">
        <ele>239.4</ele>
        <time>2021-10-24T14:05:30Z</time>
      </trkpt>
      <trkpt lat="43.96876" lon="1.82176">
        <ele>239.6</ele>
        <time>2021-10-24T14:05:31Z</time>
      </trkpt>
      <trkpt lat="43.96875" lon="1.82175">
        <ele>239.8</ele>
        <time>2021-10-24T14:05:32Z</time>
      </trkpt>
      <trkpt lat="43.96874" lon="1.82173">
        <ele>239.6</ele>
        <time>2021-10-24T14:05:33Z</time>
      </trkpt>
      <trkpt lat="43.96873" lon="1.82172">
        <ele>240.2</ele>
        <time>2021-10-24T14:05:34Z</time>
      </trkpt>
      <trkpt lat="43.96872" lon="1.8217">
        <ele>240.4</ele>
        <time>2021-10-24T14:05:35Z</time>
      </trkpt>
      <trkpt lat="43.96871" lon="1.82169">
        <ele>240.8</ele>
        <time>2021-10-24T14:05:36Z</time>
      </trkpt>
      <trkpt lat="43.9687" lon="1.82167">
        <ele>240.8</ele>
        <time>2021-10-24T14:05:37Z</time>
      </trkpt>
      <trkpt lat="43.96869" lon="1.82166">
        <ele>241</ele>
        <time>2021-10-24T14:05:38Z</time>
      </trkpt>
      <trkpt lat="43.96868" lon="1.82165">
        <ele>241.2</ele>
        <time>2021-10-24T14:05:39Z</time>
      </trkpt>
      <trkpt lat="43.96867" lon="1.82163">
        <ele>241.6</ele>
        <time>2021-10-24T14:05:40Z</time>
      </trkpt>
      <trkpt lat="43.96866" lon="1.82162">
        <ele>241.6</ele>
        <time>2021-10-24T14:05:41Z</time>
      </trkpt>
      <trkpt lat="43.96866" lon="1.8216">
        <ele>241.8</ele>
        <time>2021-10-24T14:05:42Z</time>
      </trkpt>
      <trkpt lat="43.96865" lon="1.82159">
        <ele>242</ele>
        <time>2021-10-24T14:05:43Z</time>
      </trkpt>
      <trkpt lat="43.96864" lon="1.82157">
        <ele>242.2</ele>
        <time>2021-10-24T14:05:44Z</time>
      </trkpt>
      <trkpt lat="43.96863" lon="1.82155">
        <ele>242.4</ele>
        <time>2021-10-24T14:05:45Z</time>
      </trkpt>
      <trkpt lat="43.96861" lon="1.82154">
        <ele>242.4</ele>
        <time>2021-10-24T14:05:46Z</time>
      </trkpt>
      <trkpt lat="43.96861" lon="1.82152">
        <ele>242.6</ele>
        <time>2021-10-24T14:05:47Z</time>
      </trkpt>
      <trkpt lat="43.9686" lon="1.82151">
        <ele>242.8</ele>
        <time>2021-10-24T14:05:48Z</time>
      </trkpt>
      <trkpt lat="43.96858" lon="1.82149">
        <ele>243.2</ele>
        <time>2021-10-24T14:05:49Z</time>
      </trkpt>
      <trkpt lat="43.96858" lon="1.82148">
        <ele>243.2</ele>
        <time>2021-10-24T14:05:50Z</time>
      </trkpt>
      <trkpt lat="43.96857" lon="1.82146">
        <ele>243.6</ele>
        <time>2021-10-24T14:05:51Z</time>
      </trkpt>
      <trkpt lat="43.96856" lon="1.82145">
        <ele>243.8</ele>
        <time>2021-10-24T14:05:52Z</time>
      </trkpt>
      <trkpt lat="43.96855" lon="1.82143">
        <ele>244.2</ele>
        <time>2021-10-24T14:05:53Z</time>
      </trkpt>
      <trkpt lat="43.96855" lon="1.82142">
        <ele>244.6</ele>
        <time>2021-10-24T14:05:54Z</time>
      </trkpt>
      <trkpt lat="43.96854" lon="1.8214">
        <ele>244.6</ele>
        <time>2021-10-24T14:05:55Z</time>
      </trkpt>
      <trkpt lat="43.96853" lon="1.82139">
        <ele>244.8</ele>
        <time>2021-10-24T14:05:56Z</time>
      </trkpt>
      <trkpt lat="43.96852" lon="1.82138">
        <ele>245</ele>
        <time>2021-10-24T14:05:57Z</time>
      </trkpt>
      <trkpt lat="43.96852" lon="1.82136">
        <ele>245.2</ele>
        <time>2021-10-24T14:05:58Z</time>
      </trkpt>
      <trkpt lat="43.9685" lon="1.82134">
        <ele>245.2</ele>
        <time>2021-10-24T14:05:59Z</time>
      </trkpt>
      <trkpt lat="43.96849" lon="1.82132">
        <ele>245.6</ele>
        <time>2021-10-24T14:06:00Z</time>
      </trkpt>
      <trkpt lat="43.96848" lon="1.82131">
        <ele>245.6</ele>
        <time>2021-10-24T14:06:01Z</time>
      </trkpt>
      <trkpt lat="43.96847" lon="1.82129">
        <ele>245.8</ele>
        <time>2021-10-24T14:06:02Z</time>
      </trkpt>
      <trkpt lat="43.96846" lon="1.82128">
        <ele>246</ele>
        <time>2021-10-24T14:06:03Z</time>
      </trkpt>
      <trkpt lat="43.96845" lon="1.82126">
        <ele>246.2</ele>
        <time>2021-10-24T14:06:04Z</time>
      </trkpt>
      <trkpt lat="43.96844" lon="1.82124">
        <ele>246.4</ele>
        <time>2021-10-24T14:06:05Z</time>
      </trkpt>
      <trkpt lat="43.96843" lon="1.82123">
        <ele>246.6</ele>
        <time>2021-10-24T14:06:06Z</time>
      </trkpt>
      <trkpt lat="43.96842" lon="1.82122">
        <ele>247</ele>
        <time>2021-10-24T14:06:07Z</time>
      </trkpt>
      <trkpt lat="43.96841" lon="1.8212">
        <ele>247.4</ele>
        <time>2021-10-24T14:06:08Z</time>
      </trkpt>
      <trkpt lat="43.96841" lon="1.82119">
        <ele>247.4</ele>
        <time>2021-10-24T14:06:09Z</time>
      </trkpt>
      <trkpt lat="43.9684" lon="1.82118">
        <ele>247.6</ele>
        <time>2021-10-24T14:06:10Z</time>
      </trkpt>
      <trkpt lat="43.96838" lon="1.82117">
        <ele>247.8</ele>
        <time>2021-10-24T14:06:11Z</time>
      </trkpt>
      <trkpt lat="43.96837" lon="1.82116">
        <ele>248</ele>
        <time>2021-10-24T14:06:12Z</time>
      </trkpt>
      <trkpt lat="43.96835" lon="1.82116">
        <ele>248</ele>
        <time>2021-10-24T14:06:13Z</time>
      </trkpt>
      <trkpt lat="43.96834" lon="1.82115">
        <ele>248.2</ele>
        <time>2021-10-24T14:06:14Z</time>
      </trkpt>
      <trkpt lat="43.96833" lon="1.82115">
        <ele>248.4</ele>
        <time>2021-10-24T14:06:15Z</time>
      </trkpt>
      <trkpt lat="43.96832" lon="1.82115">
        <ele>248.4</ele>
        <time>2021-10-24T14:06:16Z</time>
      </trkpt>
      <trkpt lat="43.9683" lon="1.82115">
        <ele>248.6</ele>
        <time>2021-10-24T14:06:17Z</time>
      </trkpt>
      <trkpt lat="43.96828" lon="1.82115">
        <ele>248.8</ele>
        <time>2021-10-24T14:06:18Z</time>
      </trkpt>
      <trkpt lat="43.96827" lon="1.82115">
        <ele>249</ele>
        <time>2021-10-24T14:06:19Z</time>
      </trkpt>
      <trkpt lat="43.96825" lon="1.82116">
        <ele>249.2</ele>
        <time>2021-10-24T14:06:20Z</time>
      </trkpt>
      <trkpt lat="43.96823" lon="1.82117">
        <ele>249.4</ele>
        <time>2021-10-24T14:06:21Z</time>
      </trkpt>
      <trkpt lat="43.96821" lon="1.82118">
        <ele>249.4</ele>
        <time>2021-10-24T14:06:22Z</time>
      </trkpt>
      <trkpt lat="43.96819" lon="1.82118">
        <ele>249.4</ele>
        <time>2021-10-24T14:06:23Z</time>
      </trkpt>
      <trkpt lat="43.96818" lon="1.82119">
        <ele>249.6</ele>
        <time>2021-10-24T14:06:24Z</time>
      </trkpt>
      <trkpt lat="43.96816" lon="1.8212">
        <ele>249.8</ele>
        <time>2021-10-24T14:06:25Z</time>
      </trkpt>
      <trkpt lat="43.96814" lon="1.82121">
        <ele>249.8</ele>
        <time>2021-10-24T14:06:26Z</time>
      </trkpt>
      <trkpt lat="43.96813" lon="1.82122">
        <ele>249.8</ele>
        <time>2021-10-24T14:06:27Z</time>
      </trkpt>
      <trkpt lat="43.96811" lon="1.82123">
        <ele>250</ele>
        <time>2021-10-24T14:06:28Z</time>
      </trkpt>
      <trkpt lat="43.9681" lon="1.82124">
        <ele>250</ele>
        <time>2021-10-24T14:06:29Z</time>
      </trkpt>
      <trkpt lat="43.96808" lon="1.82126">
        <ele>250.4</ele>
        <time>2021-10-24T14:06:30Z</time>
      </trkpt>
      <trkpt lat="43.96806" lon="1.82127">
        <ele>250.4</ele>
        <time>2021-10-24T14:06:31Z</time>
      </trkpt>
      <trkpt lat="43.96804" lon="1.82128">
        <ele>250.6</ele>
        <time>2021-10-24T14:06:32Z</time>
      </trkpt>
      <trkpt lat="43.96802" lon="1.82129">
        <ele>251</ele>
        <time>2021-10-24T14:06:33Z</time>
      </trkpt>
      <trkpt lat="43.96801" lon="1.82129">
        <ele>251</ele>
        <time>2021-10-24T14:06:34Z</time>
      </trkpt>
      <trkpt lat="43.96799" lon="1.8213">
        <ele>251</ele>
        <time>2021-10-24T14:06:35Z</time>
      </trkpt>
      <trkpt lat="43.96798" lon="1.82131">
        <ele>251</ele>
        <time>2021-10-24T14:06:36Z</time>
      </trkpt>
      <trkpt lat="43.96796" lon="1.82133">
        <ele>251.2</ele>
        <time>2021-10-24T14:06:37Z</time>
      </trkpt>
      <trkpt lat="43.96794" lon="1.82134">
        <ele>251.2</ele>
        <time>2021-10-24T14:06:38Z</time>
      </trkpt>
      <trkpt lat="43.96793" lon="1.82135">
        <ele>251.4</ele>
        <time>2021-10-24T14:06:39Z</time>
      </trkpt>
      <trkpt lat="43.96791" lon="1.82135">
        <ele>251.6</ele>
        <time>2021-10-24T14:06:40Z</time>
      </trkpt>
      <trkpt lat="43.96789" lon="1.82137">
        <ele>251.6</ele>
        <time>2021-10-24T14:06:41Z</time>
      </trkpt>
      <trkpt lat="43.96788" lon="1.82137">
        <ele>251.8</ele>
        <time>2021-10-24T14:06:42Z</time>
      </trkpt>
      <trkpt lat="43.96786" lon="1.82139">
        <ele>251.8</ele>
        <time>2021-10-24T14:06:43Z</time>
      </trkpt>
      <trkpt lat="43.96785" lon="1.82139">
        <ele>252</ele>
        <time>2021-10-24T14:06:44Z</time>
      </trkpt>
      <trkpt lat="43.96784" lon="1.82141">
        <ele>252</ele>
        <time>2021-10-24T14:06:45Z</time>
      </trkpt>
      <trkpt lat="43.96782" lon="1.82142">
        <ele>252.4</ele>
        <time>2021-10-24T14:06:46Z</time>
      </trkpt>
      <trkpt lat="43.96781" lon="1.82144">
        <ele>252.6</ele>
        <time>2021-10-24T14:06:47Z</time>
      </trkpt>
      <trkpt lat="43.96779" lon="1.82145">
        <ele>252.6</ele>
        <time>2021-10-24T14:06:48Z</time>
      </trkpt>
      <trkpt lat="43.96778" lon="1.82146">
        <ele>252.6</ele>
        <time>2021-10-24T14:06:49Z</time>
      </trkpt>
      <trkpt lat="43.96777" lon="1.82148">
        <ele>253</ele>
        <time>2021-10-24T14:06:50Z</time>
      </trkpt>
      <trkpt lat="43.96775" lon="1.82149">
        <ele>253</ele>
        <time>2021-10-24T14:06:51Z</time>
      </trkpt>
      <trkpt lat="43.96774" lon="1.82151">
        <ele>253</ele>
        <time>2021-10-24T14:06:52Z</time>
      </trkpt>
      <trkpt lat="43.96773" lon="1.82152">
        <ele>253.2</ele>
        <time>2021-10-24T14:06:53Z</time>
      </trkpt>
      <trkpt lat="43.96772" lon="1.82154">
        <ele>253.2</ele>
        <time>2021-10-24T14:06:54Z</time>
      </trkpt>
      <trkpt lat="43.9677" lon="1.82155">
        <ele>253.6</ele>
        <time>2021-10-24T14:06:55Z</time>
      </trkpt>
      <trkpt lat="43.96769" lon="1.82156">
        <ele>253.6</ele>
        <time>2021-10-24T14:06:56Z</time>
      </trkpt>
      <trkpt lat="43.96768" lon="1.82158">
        <ele>253.6</ele>
        <time>2021-10-24T14:06:57Z</time>
      </trkpt>
      <trkpt lat="43.96767" lon="1.8216">
        <ele>254</ele>
        <time>2021-10-24T14:06:58Z</time>
      </trkpt>
      <trkpt lat="43.96765" lon="1.82161">
        <ele>254</ele>
        <time>2021-10-24T14:06:59Z</time>
      </trkpt>
      <trkpt lat="43.96764" lon="1.82163">
        <ele>254</ele>
        <time>2021-10-24T14:07:00Z</time>
      </trkpt>
      <trkpt lat="43.96763" lon="1.82165">
        <ele>254.2</ele>
        <time>2021-10-24T14:07:01Z</time>
      </trkpt>
      <trkpt lat="43.96761" lon="1.82167">
        <ele>254.4</ele>
        <time>2021-10-24T14:07:02Z</time>
      </trkpt>
      <trkpt lat="43.9676" lon="1.82168">
        <ele>254.6</ele>
        <time>2021-10-24T14:07:03Z</time>
      </trkpt>
      <trkpt lat="43.96758" lon="1.8217">
        <ele>254.6</ele>
        <time>2021-10-24T14:07:04Z</time>
      </trkpt>
      <trkpt lat="43.96756" lon="1.82171">
        <ele>255</ele>
        <time>2021-10-24T14:07:05Z</time>
      </trkpt>
      <trkpt lat="43.96755" lon="1.82173">
        <ele>255</ele>
        <time>2021-10-24T14:07:06Z</time>
      </trkpt>
      <trkpt lat="43.96754" lon="1.82174">
        <ele>255</ele>
        <time>2021-10-24T14:07:07Z</time>
      </trkpt>
      <trkpt lat="43.96752" lon="1.82176">
        <ele>255</ele>
        <time>2021-10-24T14:07:08Z</time>
      </trkpt>
      <trkpt lat="43.96751" lon="1.82177">
        <ele>255.6</ele>
        <time>2021-10-24T14:07:09Z</time>
      </trkpt>
      <trkpt lat="43.96749" lon="1.82179">
        <ele>255.6</ele>
        <time>2021-10-24T14:07:10Z</time>
      </trkpt>
      <trkpt lat="43.96749" lon="1.8218">
        <ele>255.6</ele>
        <time>2021-10-24T14:07:11Z</time>
      </trkpt>
      <trkpt lat="43.96748" lon="1.82181">
        <ele>255.8</ele>
        <time>2021-10-24T14:07:12Z</time>
      </trkpt>
      <trkpt lat="43.96747" lon="1.82183">
        <ele>255.8</ele>
        <time>2021-10-24T14:07:13Z</time>
      </trkpt>
      <trkpt lat="43.96746" lon="1.82185">
        <ele>256.2</ele>
        <time>2021-10-24T14:07:14Z</time>
      </trkpt>
      <trkpt lat="43.96744" lon="1.82187">
        <ele>256.2</ele>
        <time>2021-10-24T14:07:15Z</time>
      </trkpt>
      <trkpt lat="43.96743" lon="1.82188">
        <ele>256.2</ele>
        <time>2021-10-24T14:07:16Z</time>
      </trkpt>
      <trkpt lat="43.96741" lon="1.82189">
        <ele>256.2</ele>
        <time>2021-10-24T14:07:17Z</time>
      </trkpt>
      <trkpt lat="43.9674" lon="1.82191">
        <ele>256.6</ele>
        <time>2021-10-24T14:07:18Z</time>
      </trkpt>
      <trkpt lat="43.96738" lon="1.82193">
        <ele>256.6</ele>
        <time>2021-10-24T14:07:19Z</time>
      </trkpt>
      <trkpt lat="43.96737" lon="1.82193">
        <ele>256.6</ele>
        <time>2021-10-24T14:07:20Z</time>
      </trkpt>
      <trkpt lat="43.96736" lon="1.82195">
        <ele>256.8</ele>
        <time>2021-10-24T14:07:21Z</time>
      </trkpt>
      <trkpt lat="43.96735" lon="1.82196">
        <ele>257</ele>
        <time>2021-10-24T14:07:22Z</time>
      </trkpt>
      <trkpt lat="43.96733" lon="1.82198">
        <ele>257.2</ele>
        <time>2021-10-24T14:07:23Z</time>
      </trkpt>
      <trkpt lat="43.96732" lon="1.82199">
        <ele>257.4</ele>
        <time>2021-10-24T14:07:24Z</time>
      </trkpt>
      <trkpt lat="43.9673" lon="1.82201">
        <ele>257.6</ele>
        <time>2021-10-24T14:07:25Z</time>
      </trkpt>
      <trkpt lat="43.96729" lon="1.82202">
        <ele>257.8</ele>
        <time>2021-10-24T14:07:26Z</time>
      </trkpt>
      <trkpt lat="43.96727" lon="1.82204">
        <ele>258</ele>
        <time>2021-10-24T14:07:27Z</time>
      </trkpt>
      <trkpt lat="43.96726" lon="1.82206">
        <ele>258.2</ele>
        <time>2021-10-24T14:07:28Z</time>
      </trkpt>
      <trkpt lat="43.96724" lon="1.82207">
        <ele>258.4</ele>
        <time>2021-10-24T14:07:29Z</time>
      </trkpt>
      <trkpt lat="43.96723" lon="1.82208">
        <ele>258.6</ele>
        <time>2021-10-24T14:07:30Z</time>
      </trkpt>
      <trkpt lat="43.96721" lon="1.82209">
        <ele>258.6</ele>
        <time>2021-10-24T14:07:31Z</time>
      </trkpt>
      <trkpt lat="43.96719" lon="1.8221">
        <ele>258.8</ele>
        <time>2021-10-24T14:07:32Z</time>
      </trkpt>
      <trkpt lat="43.96718" lon="1.8221">
        <ele>259</ele>
        <time>2021-10-24T14:07:33Z</time>
      </trkpt>
      <trkpt lat="43.96716" lon="1.82211">
        <ele>259</ele>
        <time>2021-10-24T14:07:34Z</time>
      </trkpt>
      <trkpt lat="43.96715" lon="1.82212">
        <ele>259.2</ele>
        <time>2021-10-24T14:07:35Z</time>
      </trkpt>
      <trkpt lat="43.96714" lon="1.82213">
        <ele>259.4</ele>
        <time>2021-10-24T14:07:36Z</time>
      </trkpt>
      <trkpt lat="43.96712" lon="1.82214">
        <ele>259.4</ele>
        <time>2021-10-24T14:07:37Z</time>
      </trkpt>
      <trkpt lat="43.9671" lon="1.82215">
        <ele>259.6</ele>
        <time>2021-10-24T14:07:38Z</time>
      </trkpt>
      <trkpt lat="43.96709" lon="1.82215">
        <ele>259.8</ele>
        <time>2021-10-24T14:07:39Z</time>
      </trkpt>
      <trkpt lat="43.96708" lon="1.82215">
        <ele>260</ele>
        <time>2021-10-24T14:07:40Z</time>
      </trkpt>
      <trkpt lat="43.96706" lon="1.82216">
        <ele>260.2</ele>
        <time>2021-10-24T14:07:41Z</time>
      </trkpt>
      <trkpt lat="43.96704" lon="1.82216">
        <ele>260.6</ele>
        <time>2021-10-24T14:07:42Z</time>
      </trkpt>
      <trkpt lat="43.96702" lon="1.82217">
        <ele>260.6</ele>
        <time>2021-10-24T14:07:43Z</time>
      </trkpt>
      <trkpt lat="43.96701" lon="1.82218">
        <ele>260.8</ele>
        <time>2021-10-24T14:07:44Z</time>
      </trkpt>
      <trkpt lat="43.96699" lon="1.82218">
        <ele>260.8</ele>
        <time>2021-10-24T14:07:45Z</time>
      </trkpt>
      <trkpt lat="43.96698" lon="1.82219">
        <ele>261</ele>
        <time>2021-10-24T14:07:46Z</time>
      </trkpt>
      <trkpt lat="43.96696" lon="1.8222">
        <ele>261</ele>
        <time>2021-10-24T14:07:47Z</time>
      </trkpt>
      <trkpt lat="43.96694" lon="1.82221">
        <ele>261.2</ele>
        <time>2021-10-24T14:07:48Z</time>
      </trkpt>
      <trkpt lat="43.96692" lon="1.82222">
        <ele>261.4</ele>
        <time>2021-10-24T14:07:49Z</time>
      </trkpt>
      <trkpt lat="43.96691" lon="1.82222">
        <ele>261.6</ele>
        <time>2021-10-24T14:07:50Z</time>
      </trkpt>
      <trkpt lat="43.96689" lon="1.82222">
        <ele>261.8</ele>
        <time>2021-10-24T14:07:51Z</time>
      </trkpt>
      <trkpt lat="43.96688" lon="1.82222">
        <ele>261.8</ele>
        <time>2021-10-24T14:07:52Z</time>
      </trkpt>
      <trkpt lat="43.96686" lon="1.82223">
        <ele>262</ele>
        <time>2021-10-24T14:07:53Z</time>
      </trkpt>
      <trkpt lat="43.96685" lon="1.82223">
        <ele>262.2</ele>
        <time>2021-10-24T14:07:54Z</time>
      </trkpt>
      <trkpt lat="43.96683" lon="1.82223">
        <ele>262.4</ele>
        <time>2021-10-24T14:07:55Z</time>
      </trkpt>
      <trkpt lat="43.96681" lon="1.82224">
        <ele>262.4</ele>
        <time>2021-10-24T14:07:56Z</time>
      </trkpt>
      <trkpt lat="43.96679" lon="1.82224">
        <ele>262.6</ele>
        <time>2021-10-24T14:07:57Z</time>
      </trkpt>
      <trkpt lat="43.96677" lon="1.82225">
        <ele>262.8</ele>
        <time>2021-10-24T14:07:58Z</time>
      </trkpt>
      <trkpt lat="43.96676" lon="1.82225">
        <ele>263</ele>
        <time>2021-10-24T14:07:59Z</time>
      </trkpt>
      <trkpt lat="43.96674" lon="1.82225">
        <ele>263.2</ele>
        <time>2021-10-24T14:08:00Z</time>
      </trkpt>
      <trkpt lat="43.96672" lon="1.82225">
        <ele>263.4</ele>
        <time>2021-10-24T14:08:01Z</time>
      </trkpt>
      <trkpt lat="43.9667" lon="1.82225">
        <ele>263.6</ele>
        <time>2021-10-24T14:08:02Z</time>
      </trkpt>
      <trkpt lat="43.96668" lon="1.82226">
        <ele>263.6</ele>
        <time>2021-10-24T14:08:03Z</time>
      </trkpt>
      <trkpt lat="43.96667" lon="1.82226">
        <ele>263.8</ele>
        <time>2021-10-24T14:08:04Z</time>
      </trkpt>
      <trkpt lat="43.96666" lon="1.82226">
        <ele>264.2</ele>
        <time>2021-10-24T14:08:05Z</time>
      </trkpt>
      <trkpt lat="43.96664" lon="1.82227">
        <ele>264.2</ele>
        <time>2021-10-24T14:08:06Z</time>
      </trkpt>
      <trkpt lat="43.96662" lon="1.82227">
        <ele>264.4</ele>
        <time>2021-10-24T14:08:07Z</time>
      </trkpt>
      <trkpt lat="43.96661" lon="1.82228">
        <ele>264.6</ele>
        <time>2021-10-24T14:08:08Z</time>
      </trkpt>
      <trkpt lat="43.96659" lon="1.82228">
        <ele>264.6</ele>
        <time>2021-10-24T14:08:09Z</time>
      </trkpt>
      <trkpt lat="43.96658" lon="1.82229">
        <ele>264.8</ele>
        <time>2021-10-24T14:08:10Z</time>
      </trkpt>
      <trkpt lat="43.96657" lon="1.82229">
        <ele>265</ele>
        <time>2021-10-24T14:08:11Z</time>
      </trkpt>
      <trkpt lat="43.96655" lon="1.82229">
        <ele>265.4</ele>
        <time>2021-10-24T14:08:12Z</time>
      </trkpt>
      <trkpt lat="43.96653" lon="1.8223">
        <ele>265.4</ele>
        <time>2021-10-24T14:08:13Z</time>
      </trkpt>
      <trkpt lat="43.96651" lon="1.8223">
        <ele>265.8</ele>
        <time>2021-10-24T14:08:14Z</time>
      </trkpt>
      <trkpt lat="43.9665" lon="1.8223">
        <ele>265.6</ele>
        <time>2021-10-24T14:08:15Z</time>
      </trkpt>
      <trkpt lat="43.96649" lon="1.82231">
        <ele>265.8</ele>
        <time>2021-10-24T14:08:16Z</time>
      </trkpt>
      <trkpt lat="43.96647" lon="1.82231">
        <ele>266</ele>
        <time>2021-10-24T14:08:17Z</time>
      </trkpt>
      <trkpt lat="43.96646" lon="1.82231">
        <ele>266.2</ele>
        <time>2021-10-24T14:08:18Z</time>
      </trkpt>
      <trkpt lat="43.96644" lon="1.82232">
        <ele>266.4</ele>
        <time>2021-10-24T14:08:19Z</time>
      </trkpt>
      <trkpt lat="43.96642" lon="1.82232">
        <ele>266.8</ele>
        <time>2021-10-24T14:08:20Z</time>
      </trkpt>
      <trkpt lat="43.96641" lon="1.82233">
        <ele>267</ele>
        <time>2021-10-24T14:08:21Z</time>
      </trkpt>
      <trkpt lat="43.96639" lon="1.82234">
        <ele>267</ele>
        <time>2021-10-24T14:08:22Z</time>
      </trkpt>
      <trkpt lat="43.96637" lon="1.82234">
        <ele>267.4</ele>
        <time>2021-10-24T14:08:23Z</time>
      </trkpt>
      <trkpt lat="43.96635" lon="1.82235">
        <ele>267.6</ele>
        <time>2021-10-24T14:08:24Z</time>
      </trkpt>
      <trkpt lat="43.96633" lon="1.82235">
        <ele>267.6</ele>
        <time>2021-10-24T14:08:25Z</time>
      </trkpt>
      <trkpt lat="43.96631" lon="1.82236">
        <ele>267.6</ele>
        <time>2021-10-24T14:08:26Z</time>
      </trkpt>
      <trkpt lat="43.96629" lon="1.82236">
        <ele>267.8</ele>
        <time>2021-10-24T14:08:27Z</time>
      </trkpt>
      <trkpt lat="43.96627" lon="1.82236">
        <ele>268</ele>
        <time>2021-10-24T14:08:28Z</time>
      </trkpt>
      <trkpt lat="43.96625" lon="1.82236">
        <ele>268.2</ele>
        <time>2021-10-24T14:08:29Z</time>
      </trkpt>
      <trkpt lat="43.96623" lon="1.82236">
        <ele>268.6</ele>
        <time>2021-10-24T14:08:30Z</time>
      </trkpt>
      <trkpt lat="43.96622" lon="1.82236">
        <ele>268.6</ele>
        <time>2021-10-24T14:08:31Z</time>
      </trkpt>
      <trkpt lat="43.9662" lon="1.82236">
        <ele>268.8</ele>
        <time>2021-10-24T14:08:32Z</time>
      </trkpt>
      <trkpt lat="43.96618" lon="1.82236">
        <ele>269</ele>
        <time>2021-10-24T14:08:33Z</time>
      </trkpt>
      <trkpt lat="43.96616" lon="1.82235">
        <ele>269</ele>
        <time>2021-10-24T14:08:34Z</time>
      </trkpt>
      <trkpt lat="43.96615" lon="1.82235">
        <ele>269.2</ele>
        <time>2021-10-24T14:08:35Z</time>
      </trkpt>
      <trkpt lat="43.96613" lon="1.82234">
        <ele>269.4</ele>
        <time>2021-10-24T14:08:36Z</time>
      </trkpt>
      <trkpt lat="43.96612" lon="1.82234">
        <ele>269.6</ele>
        <time>2021-10-24T14:08:37Z</time>
      </trkpt>
      <trkpt lat="43.9661" lon="1.82234">
        <ele>269.6</ele>
        <time>2021-10-24T14:08:38Z</time>
      </trkpt>
      <trkpt lat="43.96609" lon="1.82233">
        <ele>269.8</ele>
        <time>2021-10-24T14:08:39Z</time>
      </trkpt>
      <trkpt lat="43.96607" lon="1.82232">
        <ele>270</ele>
        <time>2021-10-24T14:08:40Z</time>
      </trkpt>
      <trkpt lat="43.96606" lon="1.82232">
        <ele>270.2</ele>
        <time>2021-10-24T14:08:41Z</time>
      </trkpt>
      <trkpt lat="43.96604" lon="1.82232">
        <ele>270.2</ele>
        <time>2021-10-24T14:08:42Z</time>
      </trkpt>
      <trkpt lat="43.96603" lon="1.82231">
        <ele>270.4</ele>
        <time>2021-10-24T14:08:43Z</time>
      </trkpt>
      <trkpt lat="43.96601" lon="1.8223">
        <ele>270.6</ele>
        <time>2021-10-24T14:08:44Z</time>
      </trkpt>
      <trkpt lat="43.966" lon="1.82229">
        <ele>270.6</ele>
        <time>2021-10-24T14:08:45Z</time>
      </trkpt>
      <trkpt lat="43.96598" lon="1.82227">
        <ele>270.8</ele>
        <time>2021-10-24T14:08:46Z</time>
      </trkpt>
      <trkpt lat="43.96597" lon="1.82226">
        <ele>270.8</ele>
        <time>2021-10-24T14:08:47Z</time>
      </trkpt>
      <trkpt lat="43.96596" lon="1.82224">
        <ele>271</ele>
        <time>2021-10-24T14:08:48Z</time>
      </trkpt>
      <trkpt lat="43.96594" lon="1.82223">
        <ele>271.2</ele>
        <time>2021-10-24T14:08:49Z</time>
      </trkpt>
      <trkpt lat="43.96593" lon="1.82223">
        <ele>271.4</ele>
        <time>2021-10-24T14:08:50Z</time>
      </trkpt>
      <trkpt lat="43.96591" lon="1.82222">
        <ele>271.4</ele>
        <time>2021-10-24T14:08:51Z</time>
      </trkpt>
      <trkpt lat="43.9659" lon="1.82221">
        <ele>271.8</ele>
        <time>2021-10-24T14:08:52Z</time>
      </trkpt>
      <trkpt lat="43.96589" lon="1.82219">
        <ele>272</ele>
        <time>2021-10-24T14:08:53Z</time>
      </trkpt>
      <trkpt lat="43.96587" lon="1.82218">
        <ele>272</ele>
        <time>2021-10-24T14:08:54Z</time>
      </trkpt>
      <trkpt lat="43.96586" lon="1.82217">
        <ele>272.2</ele>
        <time>2021-10-24T14:08:55Z</time>
      </trkpt>
      <trkpt lat="43.96584" lon="1.82215">
        <ele>272.4</ele>
        <time>2021-10-24T14:08:56Z</time>
      </trkpt>
      <trkpt lat="43.96583" lon="1.82214">
        <ele>272.6</ele>
        <time>2021-10-24T14:08:57Z</time>
      </trkpt>
      <trkpt lat="43.96581" lon="1.82212">
        <ele>272.8</ele>
        <time>2021-10-24T14:08:58Z</time>
      </trkpt>
      <trkpt lat="43.9658" lon="1.82211">
        <ele>272.8</ele>
        <time>2021-10-24T14:08:59Z</time>
      </trkpt>
      <trkpt lat="43.96578" lon="1.82209">
        <ele>273.2</ele>
        <time>2021-10-24T14:09:00Z</time>
      </trkpt>
      <trkpt lat="43.96577" lon="1.82207">
        <ele>273</ele>
        <time>2021-10-24T14:09:01Z</time>
      </trkpt>
      <trkpt lat="43.96576" lon="1.82206">
        <ele>273.2</ele>
        <time>2021-10-24T14:09:02Z</time>
      </trkpt>
      <trkpt lat="43.96574" lon="1.82205">
        <ele>273.6</ele>
        <time>2021-10-24T14:09:03Z</time>
      </trkpt>
      <trkpt lat="43.96573" lon="1.82203">
        <ele>274</ele>
        <time>2021-10-24T14:09:04Z</time>
      </trkpt>
      <trkpt lat="43.96571" lon="1.82202">
        <ele>274</ele>
        <time>2021-10-24T14:09:05Z</time>
      </trkpt>
      <trkpt lat="43.9657" lon="1.82201">
        <ele>274.4</ele>
        <time>2021-10-24T14:09:06Z</time>
      </trkpt>
      <trkpt lat="43.96568" lon="1.822">
        <ele>274.4</ele>
        <time>2021-10-24T14:09:07Z</time>
      </trkpt>
      <trkpt lat="43.96566" lon="1.82198">
        <ele>274.4</ele>
        <time>2021-10-24T14:09:08Z</time>
      </trkpt>
      <trkpt lat="43.96565" lon="1.82196">
        <ele>274.6</ele>
        <time>2021-10-24T14:09:09Z</time>
      </trkpt>
      <trkpt lat="43.96563" lon="1.82195">
        <ele>274.8</ele>
        <time>2021-10-24T14:09:10Z</time>
      </trkpt>
      <trkpt lat="43.96562" lon="1.82194">
        <ele>274.8</ele>
        <time>2021-10-24T14:09:11Z</time>
      </trkpt>
      <trkpt lat="43.96559" lon="1.82192">
        <ele>275</ele>
        <time>2021-10-24T14:09:12Z</time>
      </trkpt>
      <trkpt lat="43.96558" lon="1.8219">
        <ele>275.4</ele>
        <time>2021-10-24T14:09:13Z</time>
      </trkpt>
      <trkpt lat="43.96557" lon="1.82189">
        <ele>275.6</ele>
        <time>2021-10-24T14:09:14Z</time>
      </trkpt>
      <trkpt lat="43.96555" lon="1.82188">
        <ele>275.6</ele>
        <time>2021-10-24T14:09:15Z</time>
      </trkpt>
      <trkpt lat="43.96553" lon="1.82187">
        <ele>275.8</ele>
        <time>2021-10-24T14:09:16Z</time>
      </trkpt>
      <trkpt lat="43.96551" lon="1.82186">
        <ele>275.8</ele>
        <time>2021-10-24T14:09:17Z</time>
      </trkpt>
      <trkpt lat="43.9655" lon="1.82185">
        <ele>276</ele>
        <time>2021-10-24T14:09:18Z</time>
      </trkpt>
      <trkpt lat="43.96548" lon="1.82183">
        <ele>276</ele>
        <time>2021-10-24T14:09:19Z</time>
      </trkpt>
      <trkpt lat="43.96546" lon="1.82182">
        <ele>276.4</ele>
        <time>2021-10-24T14:09:20Z</time>
      </trkpt>
      <trkpt lat="43.96543" lon="1.82181">
        <ele>276.4</ele>
        <time>2021-10-24T14:09:21Z</time>
      </trkpt>
      <trkpt lat="43.96541" lon="1.82179">
        <ele>276.6</ele>
        <time>2021-10-24T14:09:22Z</time>
      </trkpt>
      <trkpt lat="43.9654" lon="1.82177">
        <ele>276.8</ele>
        <time>2021-10-24T14:09:23Z</time>
      </trkpt>
      <trkpt lat="43.96538" lon="1.82176">
        <ele>277</ele>
        <time>2021-10-24T14:09:24Z</time>
      </trkpt>
      <trkpt lat="43.96536" lon="1.82174">
        <ele>277</ele>
        <time>2021-10-24T14:09:25Z</time>
      </trkpt>
      <trkpt lat="43.96534" lon="1.82173">
        <ele>277.2</ele>
        <time>2021-10-24T14:09:26Z</time>
      </trkpt>
      <trkpt lat="43.96532" lon="1.82171">
        <ele>277.4</ele>
        <time>2021-10-24T14:09:27Z</time>
      </trkpt>
      <trkpt lat="43.9653" lon="1.82169">
        <ele>277.4</ele>
        <time>2021-10-24T14:09:28Z</time>
      </trkpt>
      <trkpt lat="43.96529" lon="1.82166">
        <ele>277.6</ele>
        <time>2021-10-24T14:09:29Z</time>
      </trkpt>
      <trkpt lat="43.96528" lon="1.82163">
        <ele>277.8</ele>
        <time>2021-10-24T14:09:30Z</time>
      </trkpt>
      <trkpt lat="43.96527" lon="1.82161">
        <ele>278</ele>
        <time>2021-10-24T14:09:31Z</time>
      </trkpt>
      <trkpt lat="43.96525" lon="1.8216">
        <ele>278.2</ele>
        <time>2021-10-24T14:09:32Z</time>
      </trkpt>
      <trkpt lat="43.96523" lon="1.82158">
        <ele>278.2</ele>
        <time>2021-10-24T14:09:33Z</time>
      </trkpt>
      <trkpt lat="43.96521" lon="1.82157">
        <ele>278.4</ele>
        <time>2021-10-24T14:09:34Z</time>
      </trkpt>
      <trkpt lat="43.9652" lon="1.82154">
        <ele>278.6</ele>
        <time>2021-10-24T14:09:35Z</time>
      </trkpt>
      <trkpt lat="43.96518" lon="1.82153">
        <ele>278.6</ele>
        <time>2021-10-24T14:09:36Z</time>
      </trkpt>
      <trkpt lat="43.96516" lon="1.82151">
        <ele>278.6</ele>
        <time>2021-10-24T14:09:37Z</time>
      </trkpt>
      <trkpt lat="43.96514" lon="1.82149">
        <ele>278.8</ele>
        <time>2021-10-24T14:09:38Z</time>
      </trkpt>
      <trkpt lat="43.96513" lon="1.82148">
        <ele>279</ele>
        <time>2021-10-24T14:09:39Z</time>
      </trkpt>
      <trkpt lat="43.96511" lon="1.82146">
        <ele>279</ele>
        <time>2021-10-24T14:09:40Z</time>
      </trkpt>
      <trkpt lat="43.9651" lon="1.82145">
        <ele>279.2</ele>
        <time>2021-10-24T14:09:41Z</time>
      </trkpt>
      <trkpt lat="43.96508" lon="1.82143">
        <ele>279.2</ele>
        <time>2021-10-24T14:09:42Z</time>
      </trkpt>
      <trkpt lat="43.96507" lon="1.82142">
        <ele>279.4</ele>
        <time>2021-10-24T14:09:43Z</time>
      </trkpt>
      <trkpt lat="43.96505" lon="1.8214">
        <ele>279.4</ele>
        <time>2021-10-24T14:09:44Z</time>
      </trkpt>
      <trkpt lat="43.96503" lon="1.82139">
        <ele>279.6</ele>
        <time>2021-10-24T14:09:45Z</time>
      </trkpt>
      <trkpt lat="43.96502" lon="1.82138">
        <ele>279.6</ele>
        <time>2021-10-24T14:09:46Z</time>
      </trkpt>
      <trkpt lat="43.96501" lon="1.82136">
        <ele>279.8</ele>
        <time>2021-10-24T14:09:47Z</time>
      </trkpt>
      <trkpt lat="43.965" lon="1.82134">
        <ele>280</ele>
        <time>2021-10-24T14:09:48Z</time>
      </trkpt>
      <trkpt lat="43.96499" lon="1.82133">
        <ele>280</ele>
        <time>2021-10-24T14:09:49Z</time>
      </trkpt>
      <trkpt lat="43.96498" lon="1.82131">
        <ele>280.2</ele>
        <time>2021-10-24T14:09:50Z</time>
      </trkpt>
      <trkpt lat="43.96497" lon="1.82129">
        <ele>280.2</ele>
        <time>2021-10-24T14:09:51Z</time>
      </trkpt>
      <trkpt lat="43.96497" lon="1.82127">
        <ele>280.2</ele>
        <time>2021-10-24T14:09:52Z</time>
      </trkpt>
      <trkpt lat="43.96496" lon="1.82124">
        <ele>280.2</ele>
        <time>2021-10-24T14:09:53Z</time>
      </trkpt>
      <trkpt lat="43.96496" lon="1.82123">
        <ele>280.4</ele>
        <time>2021-10-24T14:09:54Z</time>
      </trkpt>
      <trkpt lat="43.96495" lon="1.82121">
        <ele>280.4</ele>
        <time>2021-10-24T14:09:55Z</time>
      </trkpt>
      <trkpt lat="43.96495" lon="1.82119">
        <ele>280.4</ele>
        <time>2021-10-24T14:09:56Z</time>
      </trkpt>
      <trkpt lat="43.96493" lon="1.82117">
        <ele>280.4</ele>
        <time>2021-10-24T14:09:57Z</time>
      </trkpt>
      <trkpt lat="43.96492" lon="1.82116">
        <ele>280.4</ele>
        <time>2021-10-24T14:09:58Z</time>
      </trkpt>
      <trkpt lat="43.9649" lon="1.82115">
        <ele>280.4</ele>
        <time>2021-10-24T14:09:59Z</time>
      </trkpt>
      <trkpt lat="43.96487" lon="1.82115">
        <ele>280.4</ele>
        <time>2021-10-24T14:10:00Z</time>
      </trkpt>
      <trkpt lat="43.96484" lon="1.82117">
        <ele>280.4</ele>
        <time>2021-10-24T14:10:01Z</time>
      </trkpt>
      <trkpt lat="43.96482" lon="1.82119">
        <ele>280.4</ele>
        <time>2021-10-24T14:10:02Z</time>
      </trkpt>
      <trkpt lat="43.96478" lon="1.82125">
        <ele>280.4</ele>
        <time>2021-10-24T14:10:04Z</time>
      </trkpt>
      <trkpt lat="43.96475" lon="1.82129">
        <ele>280.4</ele>
        <time>2021-10-24T14:10:05Z</time>
      </trkpt>
      <trkpt lat="43.96469" lon="1.82138">
        <ele>280.4</ele>
        <time>2021-10-24T14:10:07Z</time>
      </trkpt>
      <trkpt lat="43.96458" lon="1.82153">
        <ele>280</ele>
        <time>2021-10-24T14:10:10Z</time>
      </trkpt>
      <trkpt lat="43.96455" lon="1.82158">
        <ele>279.8</ele>
        <time>2021-10-24T14:10:11Z</time>
      </trkpt>
      <trkpt lat="43.96451" lon="1.82163">
        <ele>279.8</ele>
        <time>2021-10-24T14:10:12Z</time>
      </trkpt>
      <trkpt lat="43.96448" lon="1.82168">
        <ele>279.4</ele>
        <time>2021-10-24T14:10:13Z</time>
      </trkpt>
      <trkpt lat="43.96445" lon="1.82173">
        <ele>279.2</ele>
        <time>2021-10-24T14:10:14Z</time>
      </trkpt>
      <trkpt lat="43.96442" lon="1.82178">
        <ele>279.2</ele>
        <time>2021-10-24T14:10:15Z</time>
      </trkpt>
      <trkpt lat="43.96439" lon="1.82183">
        <ele>279</ele>
        <time>2021-10-24T14:10:16Z</time>
      </trkpt>
      <trkpt lat="43.96436" lon="1.82187">
        <ele>279</ele>
        <time>2021-10-24T14:10:17Z</time>
      </trkpt>
      <trkpt lat="43.96433" lon="1.82192">
        <ele>279</ele>
        <time>2021-10-24T14:10:18Z</time>
      </trkpt>
      <trkpt lat="43.9643" lon="1.82196">
        <ele>279</ele>
        <time>2021-10-24T14:10:19Z</time>
      </trkpt>
      <trkpt lat="43.96428" lon="1.822">
        <ele>278.8</ele>
        <time>2021-10-24T14:10:20Z</time>
      </trkpt>
      <trkpt lat="43.96425" lon="1.82205">
        <ele>278.8</ele>
        <time>2021-10-24T14:10:21Z</time>
      </trkpt>
      <trkpt lat="43.96422" lon="1.82209">
        <ele>278.8</ele>
        <time>2021-10-24T14:10:22Z</time>
      </trkpt>
      <trkpt lat="43.96419" lon="1.82213">
        <ele>278.8</ele>
        <time>2021-10-24T14:10:23Z</time>
      </trkpt>
      <trkpt lat="43.96417" lon="1.82217">
        <ele>278.8</ele>
        <time>2021-10-24T14:10:24Z</time>
      </trkpt>
      <trkpt lat="43.96414" lon="1.82221">
        <ele>278.8</ele>
        <time>2021-10-24T14:10:25Z</time>
      </trkpt>
      <trkpt lat="43.96409" lon="1.82228">
        <ele>278.8</ele>
        <time>2021-10-24T14:10:27Z</time>
      </trkpt>
      <trkpt lat="43.96407" lon="1.82232">
        <ele>278.8</ele>
        <time>2021-10-24T14:10:28Z</time>
      </trkpt>
      <trkpt lat="43.96388" lon="1.8226">
        <ele>278.6</ele>
        <time>2021-10-24T14:10:35Z</time>
      </trkpt>
      <trkpt lat="43.9638" lon="1.82272">
        <ele>278.6</ele>
        <time>2021-10-24T14:10:38Z</time>
      </trkpt>
      <trkpt lat="43.96372" lon="1.82286">
        <ele>278.6</ele>
        <time>2021-10-24T14:10:41Z</time>
      </trkpt>
      <trkpt lat="43.96363" lon="1.82298">
        <ele>278.2</ele>
        <time>2021-10-24T14:10:44Z</time>
      </trkpt>
      <trkpt lat="43.96361" lon="1.82302">
        <ele>278</ele>
        <time>2021-10-24T14:10:45Z</time>
      </trkpt>
      <trkpt lat="43.96355" lon="1.82311">
        <ele>277.8</ele>
        <time>2021-10-24T14:10:47Z</time>
      </trkpt>
      <trkpt lat="43.96352" lon="1.82316">
        <ele>277.8</ele>
        <time>2021-10-24T14:10:48Z</time>
      </trkpt>
      <trkpt lat="43.96341" lon="1.82331">
        <ele>277.2</ele>
        <time>2021-10-24T14:10:51Z</time>
      </trkpt>
      <trkpt lat="43.96338" lon="1.82336">
        <ele>277</ele>
        <time>2021-10-24T14:10:52Z</time>
      </trkpt>
      <trkpt lat="43.96335" lon="1.8234">
        <ele>276.8</ele>
        <time>2021-10-24T14:10:53Z</time>
      </trkpt>
      <trkpt lat="43.96331" lon="1.82345">
        <ele>276.6</ele>
        <time>2021-10-24T14:10:54Z</time>
      </trkpt>
      <trkpt lat="43.96325" lon="1.82355">
        <ele>276</ele>
        <time>2021-10-24T14:10:56Z</time>
      </trkpt>
      <trkpt lat="43.96322" lon="1.8236">
        <ele>275.8</ele>
        <time>2021-10-24T14:10:57Z</time>
      </trkpt>
      <trkpt lat="43.96319" lon="1.82365">
        <ele>275.8</ele>
        <time>2021-10-24T14:10:58Z</time>
      </trkpt>
      <trkpt lat="43.96315" lon="1.82369">
        <ele>275.6</ele>
        <time>2021-10-24T14:10:59Z</time>
      </trkpt>
      <trkpt lat="43.96312" lon="1.82373">
        <ele>275.4</ele>
        <time>2021-10-24T14:11:00Z</time>
      </trkpt>
      <trkpt lat="43.96309" lon="1.82376">
        <ele>275.2</ele>
        <time>2021-10-24T14:11:01Z</time>
      </trkpt>
      <trkpt lat="43.96306" lon="1.82379">
        <ele>275</ele>
        <time>2021-10-24T14:11:02Z</time>
      </trkpt>
      <trkpt lat="43.96303" lon="1.82381">
        <ele>274.8</ele>
        <time>2021-10-24T14:11:03Z</time>
      </trkpt>
      <trkpt lat="43.96302" lon="1.82382">
        <ele>274.8</ele>
        <time>2021-10-24T14:11:04Z</time>
      </trkpt>
      <trkpt lat="43.963" lon="1.82383">
        <ele>274.8</ele>
        <time>2021-10-24T14:11:05Z</time>
      </trkpt>
      <trkpt lat="43.96298" lon="1.82383">
        <ele>274.8</ele>
        <time>2021-10-24T14:11:06Z</time>
      </trkpt>
      <trkpt lat="43.96298" lon="1.82382">
        <ele>274.2</ele>
        <time>2021-10-24T14:16:32Z</time>
      </trkpt>
      <trkpt lat="43.96298" lon="1.82382">
        <ele>274.2</ele>
        <time>2021-10-24T14:16:33Z</time>
      </trkpt>
      <trkpt lat="43.96299" lon="1.82381">
        <ele>274.4</ele>
        <time>2021-10-24T14:16:35Z</time>
      </trkpt>
      <trkpt lat="43.96299" lon="1.8238">
        <ele>274.4</ele>
        <time>2021-10-24T14:16:36Z</time>
      </trkpt>
      <trkpt lat="43.963" lon="1.82379">
        <ele>274.8</ele>
        <time>2021-10-24T14:19:27Z</time>
      </trkpt>
      <trkpt lat="43.96306" lon="1.82374">
        <ele>274.8</ele>
        <time>2021-10-24T14:19:31Z</time>
      </trkpt>
      <trkpt lat="43.96308" lon="1.82373">
        <ele>274.6</ele>
        <time>2021-10-24T14:19:32Z</time>
      </trkpt>
      <trkpt lat="43.96312" lon="1.82369">
        <ele>274.8</ele>
        <time>2021-10-24T14:19:35Z</time>
      </trkpt>
      <trkpt lat="43.96313" lon="1.82368">
        <ele>274.8</ele>
        <time>2021-10-24T14:19:36Z</time>
      </trkpt>
      <trkpt lat="43.96314" lon="1.82367">
        <ele>274.8</ele>
        <time>2021-10-24T14:19:37Z</time>
      </trkpt>
      <trkpt lat="43.96314" lon="1.82366">
        <ele>274.8</ele>
        <time>2021-10-24T14:19:38Z</time>
      </trkpt>
      <trkpt lat="43.96314" lon="1.82365">
        <ele>274.8</ele>
        <time>2021-10-24T14:19:39Z</time>
      </trkpt>
      <trkpt lat="43.96315" lon="1.82364">
        <ele>274.6</ele>
        <time>2021-10-24T14:19:40Z</time>
      </trkpt>
      <trkpt lat="43.96317" lon="1.82361">
        <ele>274.6</ele>
        <time>2021-10-24T14:19:42Z</time>
      </trkpt>
      <trkpt lat="43.96318" lon="1.8236">
        <ele>274.6</ele>
        <time>2021-10-24T14:19:43Z</time>
      </trkpt>
      <trkpt lat="43.96319" lon="1.82359">
        <ele>274.6</ele>
        <time>2021-10-24T14:19:44Z</time>
      </trkpt>
      <trkpt lat="43.96322" lon="1.82353">
        <ele>274.8</ele>
        <time>2021-10-24T14:19:48Z</time>
      </trkpt>
      <trkpt lat="43.96332" lon="1.82338">
        <ele>275.2</ele>
        <time>2021-10-24T14:19:56Z</time>
      </trkpt>
      <trkpt lat="43.96338" lon="1.82328">
        <ele>275.8</ele>
        <time>2021-10-24T14:20:00Z</time>
      </trkpt>
      <trkpt lat="43.96346" lon="1.82319">
        <ele>276.4</ele>
        <time>2021-10-24T14:20:04Z</time>
      </trkpt>
      <trkpt lat="43.96348" lon="1.82317">
        <ele>276.4</ele>
        <time>2021-10-24T14:20:05Z</time>
      </trkpt>
      <trkpt lat="43.96356" lon="1.8231">
        <ele>276.6</ele>
        <time>2021-10-24T14:20:09Z</time>
      </trkpt>
      <trkpt lat="43.96368" lon="1.823">
        <ele>277</ele>
        <time>2021-10-24T14:20:14Z</time>
      </trkpt>
      <trkpt lat="43.96373" lon="1.82295">
        <ele>277.2</ele>
        <time>2021-10-24T14:20:16Z</time>
      </trkpt>
      <trkpt lat="43.96379" lon="1.82285">
        <ele>277.6</ele>
        <time>2021-10-24T14:20:19Z</time>
      </trkpt>
      <trkpt lat="43.96385" lon="1.82276">
        <ele>278</ele>
        <time>2021-10-24T14:20:22Z</time>
      </trkpt>
      <trkpt lat="43.96392" lon="1.82264">
        <ele>278.6</ele>
        <time>2021-10-24T14:20:26Z</time>
      </trkpt>
      <trkpt lat="43.96402" lon="1.82251">
        <ele>279</ele>
        <time>2021-10-24T14:20:30Z</time>
      </trkpt>
      <trkpt lat="43.96404" lon="1.82247">
        <ele>279</ele>
        <time>2021-10-24T14:20:31Z</time>
      </trkpt>
      <trkpt lat="43.96406" lon="1.82242">
        <ele>279.2</ele>
        <time>2021-10-24T14:20:32Z</time>
      </trkpt>
      <trkpt lat="43.96407" lon="1.82239">
        <ele>279.2</ele>
        <time>2021-10-24T14:20:33Z</time>
      </trkpt>
      <trkpt lat="43.96409" lon="1.82235">
        <ele>279.2</ele>
        <time>2021-10-24T14:20:34Z</time>
      </trkpt>
      <trkpt lat="43.96411" lon="1.82232">
        <ele>279.2</ele>
        <time>2021-10-24T14:20:35Z</time>
      </trkpt>
      <trkpt lat="43.96413" lon="1.82228">
        <ele>279.2</ele>
        <time>2021-10-24T14:20:36Z</time>
      </trkpt>
      <trkpt lat="43.96415" lon="1.82224">
        <ele>279.4</ele>
        <time>2021-10-24T14:20:37Z</time>
      </trkpt>
      <trkpt lat="43.96418" lon="1.8222">
        <ele>279.4</ele>
        <time>2021-10-24T14:20:38Z</time>
      </trkpt>
      <trkpt lat="43.96421" lon="1.82216">
        <ele>279.4</ele>
        <time>2021-10-24T14:20:39Z</time>
      </trkpt>
      <trkpt lat="43.96427" lon="1.82209">
        <ele>279.4</ele>
        <time>2021-10-24T14:20:41Z</time>
      </trkpt>
      <trkpt lat="43.96443" lon="1.82182">
        <ele>279.8</ele>
        <time>2021-10-24T14:20:47Z</time>
      </trkpt>
      <trkpt lat="43.96449" lon="1.82172">
        <ele>280</ele>
        <time>2021-10-24T14:20:49Z</time>
      </trkpt>
      <trkpt lat="43.96451" lon="1.82168">
        <ele>280</ele>
        <time>2021-10-24T14:20:50Z</time>
      </trkpt>
      <trkpt lat="43.96463" lon="1.82151">
        <ele>280</ele>
        <time>2021-10-24T14:20:54Z</time>
      </trkpt>
      <trkpt lat="43.96466" lon="1.82147">
        <ele>280.2</ele>
        <time>2021-10-24T14:20:55Z</time>
      </trkpt>
      <trkpt lat="43.96468" lon="1.82142">
        <ele>280.2</ele>
        <time>2021-10-24T14:20:56Z</time>
      </trkpt>
      <trkpt lat="43.96471" lon="1.82138">
        <ele>280.2</ele>
        <time>2021-10-24T14:20:57Z</time>
      </trkpt>
      <trkpt lat="43.96474" lon="1.82134">
        <ele>280.4</ele>
        <time>2021-10-24T14:20:58Z</time>
      </trkpt>
      <trkpt lat="43.96478" lon="1.82131">
        <ele>280.4</ele>
        <time>2021-10-24T14:20:59Z</time>
      </trkpt>
      <trkpt lat="43.96481" lon="1.82129">
        <ele>280.6</ele>
        <time>2021-10-24T14:21:00Z</time>
      </trkpt>
      <trkpt lat="43.96485" lon="1.82126">
        <ele>280.6</ele>
        <time>2021-10-24T14:21:01Z</time>
      </trkpt>
      <trkpt lat="43.96488" lon="1.82123">
        <ele>280.6</ele>
        <time>2021-10-24T14:21:02Z</time>
      </trkpt>
      <trkpt lat="43.96492" lon="1.82119">
        <ele>280.8</ele>
        <time>2021-10-24T14:21:03Z</time>
      </trkpt>
      <trkpt lat="43.96494" lon="1.82114">
        <ele>281</ele>
        <time>2021-10-24T14:21:04Z</time>
      </trkpt>
      <trkpt lat="43.96495" lon="1.82109">
        <ele>281.2</ele>
        <time>2021-10-24T14:21:05Z</time>
      </trkpt>
      <trkpt lat="43.96495" lon="1.82103">
        <ele>281.4</ele>
        <time>2021-10-24T14:21:06Z</time>
      </trkpt>
      <trkpt lat="43.96496" lon="1.82097">
        <ele>281.8</ele>
        <time>2021-10-24T14:21:07Z</time>
      </trkpt>
      <trkpt lat="43.96497" lon="1.82091">
        <ele>282</ele>
        <time>2021-10-24T14:21:08Z</time>
      </trkpt>
      <trkpt lat="43.96498" lon="1.82085">
        <ele>282.2</ele>
        <time>2021-10-24T14:21:09Z</time>
      </trkpt>
      <trkpt lat="43.96501" lon="1.8208">
        <ele>282.4</ele>
        <time>2021-10-24T14:21:10Z</time>
      </trkpt>
      <trkpt lat="43.96504" lon="1.82077">
        <ele>282.6</ele>
        <time>2021-10-24T14:21:11Z</time>
      </trkpt>
      <trkpt lat="43.96507" lon="1.82077">
        <ele>282.8</ele>
        <time>2021-10-24T14:21:12Z</time>
      </trkpt>
      <trkpt lat="43.96509" lon="1.82079">
        <ele>283</ele>
        <time>2021-10-24T14:21:13Z</time>
      </trkpt>
      <trkpt lat="43.96511" lon="1.82083">
        <ele>283.6</ele>
        <time>2021-10-24T14:21:14Z</time>
      </trkpt>
      <trkpt lat="43.96513" lon="1.82087">
        <ele>283.8</ele>
        <time>2021-10-24T14:21:15Z</time>
      </trkpt>
      <trkpt lat="43.96515" lon="1.8209">
        <ele>284.6</ele>
        <time>2021-10-24T14:21:16Z</time>
      </trkpt>
      <trkpt lat="43.96517" lon="1.82094">
        <ele>284.8</ele>
        <time>2021-10-24T14:21:17Z</time>
      </trkpt>
      <trkpt lat="43.9652" lon="1.82097">
        <ele>285.2</ele>
        <time>2021-10-24T14:21:18Z</time>
      </trkpt>
      <trkpt lat="43.96522" lon="1.82099">
        <ele>285.4</ele>
        <time>2021-10-24T14:21:19Z</time>
      </trkpt>
      <trkpt lat="43.96525" lon="1.82102">
        <ele>285.8</ele>
        <time>2021-10-24T14:21:20Z</time>
      </trkpt>
      <trkpt lat="43.96527" lon="1.82105">
        <ele>286</ele>
        <time>2021-10-24T14:21:21Z</time>
      </trkpt>
      <trkpt lat="43.96528" lon="1.82108">
        <ele>286.4</ele>
        <time>2021-10-24T14:21:22Z</time>
      </trkpt>
      <trkpt lat="43.9653" lon="1.82111">
        <ele>286.8</ele>
        <time>2021-10-24T14:21:23Z</time>
      </trkpt>
      <trkpt lat="43.96533" lon="1.82114">
        <ele>287</ele>
        <time>2021-10-24T14:21:24Z</time>
      </trkpt>
      <trkpt lat="43.96535" lon="1.82117">
        <ele>287.6</ele>
        <time>2021-10-24T14:21:25Z</time>
      </trkpt>
      <trkpt lat="43.96537" lon="1.8212">
        <ele>287.8</ele>
        <time>2021-10-24T14:21:26Z</time>
      </trkpt>
      <trkpt lat="43.9654" lon="1.82123">
        <ele>288</ele>
        <time>2021-10-24T14:21:27Z</time>
      </trkpt>
      <trkpt lat="43.96542" lon="1.82127">
        <ele>288.2</ele>
        <time>2021-10-24T14:21:28Z</time>
      </trkpt>
      <trkpt lat="43.96544" lon="1.8213">
        <ele>288.4</ele>
        <time>2021-10-24T14:21:29Z</time>
      </trkpt>
      <trkpt lat="43.96546" lon="1.82133">
        <ele>288.6</ele>
        <time>2021-10-24T14:21:30Z</time>
      </trkpt>
      <trkpt lat="43.96549" lon="1.82137">
        <ele>288.8</ele>
        <time>2021-10-24T14:21:31Z</time>
      </trkpt>
      <trkpt lat="43.96551" lon="1.8214">
        <ele>289.4</ele>
        <time>2021-10-24T14:21:32Z</time>
      </trkpt>
      <trkpt lat="43.96553" lon="1.82143">
        <ele>289.8</ele>
        <time>2021-10-24T14:21:33Z</time>
      </trkpt>
      <trkpt lat="43.96556" lon="1.82147">
        <ele>290.2</ele>
        <time>2021-10-24T14:21:34Z</time>
      </trkpt>
      <trkpt lat="43.96558" lon="1.8215">
        <ele>290.4</ele>
        <time>2021-10-24T14:21:35Z</time>
      </trkpt>
      <trkpt lat="43.9656" lon="1.82153">
        <ele>290.8</ele>
        <time>2021-10-24T14:21:36Z</time>
      </trkpt>
      <trkpt lat="43.96563" lon="1.82156">
        <ele>290.8</ele>
        <time>2021-10-24T14:21:37Z</time>
      </trkpt>
      <trkpt lat="43.96566" lon="1.82158">
        <ele>291.2</ele>
        <time>2021-10-24T14:21:38Z</time>
      </trkpt>
      <trkpt lat="43.96568" lon="1.82159">
        <ele>291.6</ele>
        <time>2021-10-24T14:21:39Z</time>
      </trkpt>
      <trkpt lat="43.96571" lon="1.82161">
        <ele>291.8</ele>
        <time>2021-10-24T14:21:40Z</time>
      </trkpt>
      <trkpt lat="43.96574" lon="1.82162">
        <ele>292.2</ele>
        <time>2021-10-24T14:21:41Z</time>
      </trkpt>
      <trkpt lat="43.96577" lon="1.82164">
        <ele>292.6</ele>
        <time>2021-10-24T14:21:42Z</time>
      </trkpt>
      <trkpt lat="43.9658" lon="1.82165">
        <ele>293</ele>
        <time>2021-10-24T14:21:43Z</time>
      </trkpt>
      <trkpt lat="43.96583" lon="1.82166">
        <ele>293</ele>
        <time>2021-10-24T14:21:44Z</time>
      </trkpt>
      <trkpt lat="43.96587" lon="1.82167">
        <ele>293.2</ele>
        <time>2021-10-24T14:21:45Z</time>
      </trkpt>
      <trkpt lat="43.9659" lon="1.82166">
        <ele>293.2</ele>
        <time>2021-10-24T14:21:46Z</time>
      </trkpt>
      <trkpt lat="43.96592" lon="1.82163">
        <ele>293.4</ele>
        <time>2021-10-24T14:21:47Z</time>
      </trkpt>
      <trkpt lat="43.96594" lon="1.82159">
        <ele>293.4</ele>
        <time>2021-10-24T14:21:48Z</time>
      </trkpt>
      <trkpt lat="43.96596" lon="1.82155">
        <ele>293.4</ele>
        <time>2021-10-24T14:21:49Z</time>
      </trkpt>
      <trkpt lat="43.96598" lon="1.82151">
        <ele>293.2</ele>
        <time>2021-10-24T14:21:50Z</time>
      </trkpt>
      <trkpt lat="43.966" lon="1.82149">
        <ele>293</ele>
        <time>2021-10-24T14:21:51Z</time>
      </trkpt>
      <trkpt lat="43.96603" lon="1.82145">
        <ele>293</ele>
        <time>2021-10-24T14:21:52Z</time>
      </trkpt>
      <trkpt lat="43.96605" lon="1.82141">
        <ele>292.8</ele>
        <time>2021-10-24T14:21:53Z</time>
      </trkpt>
      <trkpt lat="43.96607" lon="1.82138">
        <ele>292.8</ele>
        <time>2021-10-24T14:21:54Z</time>
      </trkpt>
      <trkpt lat="43.9661" lon="1.82134">
        <ele>292.8</ele>
        <time>2021-10-24T14:21:55Z</time>
      </trkpt>
      <trkpt lat="43.96612" lon="1.82129">
        <ele>292.6</ele>
        <time>2021-10-24T14:21:56Z</time>
      </trkpt>
      <trkpt lat="43.96614" lon="1.82124">
        <ele>292.8</ele>
        <time>2021-10-24T14:21:57Z</time>
      </trkpt>
      <trkpt lat="43.96617" lon="1.82121">
        <ele>292.4</ele>
        <time>2021-10-24T14:21:58Z</time>
      </trkpt>
      <trkpt lat="43.9662" lon="1.82117">
        <ele>292.4</ele>
        <time>2021-10-24T14:21:59Z</time>
      </trkpt>
      <trkpt lat="43.96622" lon="1.82113">
        <ele>292.6</ele>
        <time>2021-10-24T14:22:00Z</time>
      </trkpt>
      <trkpt lat="43.96624" lon="1.82107">
        <ele>292.6</ele>
        <time>2021-10-24T14:22:01Z</time>
      </trkpt>
      <trkpt lat="43.96627" lon="1.82102">
        <ele>292.6</ele>
        <time>2021-10-24T14:22:02Z</time>
      </trkpt>
      <trkpt lat="43.9663" lon="1.82097">
        <ele>292.4</ele>
        <time>2021-10-24T14:22:03Z</time>
      </trkpt>
      <trkpt lat="43.96635" lon="1.82088">
        <ele>292.4</ele>
        <time>2021-10-24T14:22:05Z</time>
      </trkpt>
      <trkpt lat="43.9664" lon="1.82079">
        <ele>292.4</ele>
        <time>2021-10-24T14:22:07Z</time>
      </trkpt>
      <trkpt lat="43.96643" lon="1.82074">
        <ele>292.6</ele>
        <time>2021-10-24T14:22:08Z</time>
      </trkpt>
      <trkpt lat="43.96646" lon="1.82068">
        <ele>292.6</ele>
        <time>2021-10-24T14:22:09Z</time>
      </trkpt>
      <trkpt lat="43.96648" lon="1.82062">
        <ele>292.6</ele>
        <time>2021-10-24T14:22:10Z</time>
      </trkpt>
      <trkpt lat="43.96649" lon="1.82057">
        <ele>292.6</ele>
        <time>2021-10-24T14:22:11Z</time>
      </trkpt>
      <trkpt lat="43.96651" lon="1.82053">
        <ele>292.6</ele>
        <time>2021-10-24T14:22:12Z</time>
      </trkpt>
      <trkpt lat="43.96653" lon="1.82048">
        <ele>292.6</ele>
        <time>2021-10-24T14:22:13Z</time>
      </trkpt>
      <trkpt lat="43.96657" lon="1.8204">
        <ele>292.6</ele>
        <time>2021-10-24T14:22:15Z</time>
      </trkpt>
      <trkpt lat="43.96664" lon="1.82026">
        <ele>292.8</ele>
        <time>2021-10-24T14:22:18Z</time>
      </trkpt>
      <trkpt lat="43.96671" lon="1.82011">
        <ele>293</ele>
        <time>2021-10-24T14:22:21Z</time>
      </trkpt>
      <trkpt lat="43.96674" lon="1.82002">
        <ele>293</ele>
        <time>2021-10-24T14:22:23Z</time>
      </trkpt>
      <trkpt lat="43.96676" lon="1.81998">
        <ele>293.2</ele>
        <time>2021-10-24T14:22:24Z</time>
      </trkpt>
      <trkpt lat="43.96678" lon="1.81993">
        <ele>293.2</ele>
        <time>2021-10-24T14:22:25Z</time>
      </trkpt>
      <trkpt lat="43.9668" lon="1.81987">
        <ele>293.4</ele>
        <time>2021-10-24T14:22:26Z</time>
      </trkpt>
      <trkpt lat="43.96681" lon="1.81984">
        <ele>293.6</ele>
        <time>2021-10-24T14:22:27Z</time>
      </trkpt>
      <trkpt lat="43.96685" lon="1.81975">
        <ele>293.6</ele>
        <time>2021-10-24T14:22:29Z</time>
      </trkpt>
      <trkpt lat="43.96687" lon="1.81972">
        <ele>293.8</ele>
        <time>2021-10-24T14:22:30Z</time>
      </trkpt>
      <trkpt lat="43.96689" lon="1.81969">
        <ele>293.8</ele>
        <time>2021-10-24T14:22:31Z</time>
      </trkpt>
      <trkpt lat="43.96695" lon="1.81964">
        <ele>294</ele>
        <time>2021-10-24T14:22:33Z</time>
      </trkpt>
      <trkpt lat="43.96697" lon="1.81961">
        <ele>294</ele>
        <time>2021-10-24T14:22:34Z</time>
      </trkpt>
      <trkpt lat="43.96698" lon="1.81958">
        <ele>294</ele>
        <time>2021-10-24T14:22:35Z</time>
      </trkpt>
      <trkpt lat="43.96697" lon="1.81955">
        <ele>294.2</ele>
        <time>2021-10-24T14:22:36Z</time>
      </trkpt>
      <trkpt lat="43.96698" lon="1.81952">
        <ele>294.2</ele>
        <time>2021-10-24T14:22:37Z</time>
      </trkpt>
      <trkpt lat="43.96697" lon="1.81949">
        <ele>294.2</ele>
        <time>2021-10-24T14:22:38Z</time>
      </trkpt>
      <trkpt lat="43.96697" lon="1.81946">
        <ele>294.2</ele>
        <time>2021-10-24T14:22:39Z</time>
      </trkpt>
      <trkpt lat="43.96695" lon="1.81944">
        <ele>294.2</ele>
        <time>2021-10-24T14:22:40Z</time>
      </trkpt>
      <trkpt lat="43.96694" lon="1.81942">
        <ele>294.4</ele>
        <time>2021-10-24T14:22:41Z</time>
      </trkpt>
      <trkpt lat="43.96693" lon="1.81941">
        <ele>294.6</ele>
        <time>2021-10-24T14:22:42Z</time>
      </trkpt>
      <trkpt lat="43.96693" lon="1.81939">
        <ele>294.8</ele>
        <time>2021-10-24T14:22:43Z</time>
      </trkpt>
      <trkpt lat="43.96694" lon="1.81938">
        <ele>295</ele>
        <time>2021-10-24T14:22:46Z</time>
      </trkpt>
      <trkpt lat="43.96694" lon="1.81936">
        <ele>295.2</ele>
        <time>2021-10-24T14:22:48Z</time>
      </trkpt>
    </trkseg>
  </trk>
</gpx>